<?xml version="1.0" encoding="UTF-8" standalone="no" ?>
<gpx xmlns="http://www.topografix.com/GPX/1/1" xmlns:xsi="http://www.w3.org/2001/XMLSchema-instance" xsi:schemaLocation="http://www.topografix.com/GPX/1/1 http://www.topografix.com/GPX/1/1/gpx.xsd" version="1.1" creator="VisuGPX - https://www.visugpx.com">
  <metadata>
    <name>Stage1 - St Mars - Bauge en Anjou</name>
    <desc><![CDATA[Etape 1 d'un biketrip entre Le Mans et Niort]]></desc>
  </metadata>
  <trk>
    <name><![CDATA[Stage1 - St Mars - Bauge en Anjou_1]]></name>
    <trkseg>
      <trkpt lat="48.02902" lon="0.36995">
        <ele>57.799999237061</ele>
        <time>2024-08-21T08:04:08.000Z</time>
      </trkpt>
      <trkpt lat="48.02899" lon="0.36983">
        <ele>57.799999237061</ele>
        <time>2024-08-21T08:04:10.000Z</time>
      </trkpt>
      <trkpt lat="48.02895" lon="0.3697">
        <ele>58</ele>
        <time>2024-08-21T08:04:12.000Z</time>
      </trkpt>
      <trkpt lat="48.02885" lon="0.36935">
        <ele>58.400001525879</ele>
        <time>2024-08-21T08:04:17.000Z</time>
      </trkpt>
      <trkpt lat="48.02883" lon="0.36929">
        <ele>58.400001525879</ele>
        <time>2024-08-21T08:04:18.000Z</time>
      </trkpt>
      <trkpt lat="48.02866" lon="0.36871">
        <ele>58.599998474121</ele>
        <time>2024-08-21T08:04:26.000Z</time>
      </trkpt>
      <trkpt lat="48.0285" lon="0.36816">
        <ele>58.599998474121</ele>
        <time>2024-08-21T08:04:34.000Z</time>
      </trkpt>
      <trkpt lat="48.02841" lon="0.36789">
        <ele>58.400001525879</ele>
        <time>2024-08-21T08:04:38.000Z</time>
      </trkpt>
      <trkpt lat="48.02836" lon="0.36776">
        <ele>58.400001525879</ele>
        <time>2024-08-21T08:04:40.000Z</time>
      </trkpt>
      <trkpt lat="48.02834" lon="0.36769">
        <ele>58.400001525879</ele>
        <time>2024-08-21T08:04:41.000Z</time>
      </trkpt>
      <trkpt lat="48.02812" lon="0.36694">
        <ele>58</ele>
        <time>2024-08-21T08:04:52.000Z</time>
      </trkpt>
      <trkpt lat="48.02805" lon="0.36672">
        <ele>58.200000762939</ele>
        <time>2024-08-21T08:04:55.000Z</time>
      </trkpt>
      <trkpt lat="48.02803" lon="0.36658">
        <ele>58.200000762939</ele>
        <time>2024-08-21T08:04:57.000Z</time>
      </trkpt>
      <trkpt lat="48.02803" lon="0.36653">
        <ele>58.200000762939</ele>
        <time>2024-08-21T08:04:58.000Z</time>
      </trkpt>
      <trkpt lat="48.02801" lon="0.36619">
        <ele>58.200000762939</ele>
        <time>2024-08-21T08:05:03.000Z</time>
      </trkpt>
      <trkpt lat="48.02798" lon="0.36596">
        <ele>57.400001525879</ele>
        <time>2024-08-21T08:05:06.000Z</time>
      </trkpt>
      <trkpt lat="48.02794" lon="0.3658">
        <ele>57</ele>
        <time>2024-08-21T08:05:08.000Z</time>
      </trkpt>
      <trkpt lat="48.02791" lon="0.36564">
        <ele>56.799999237061</ele>
        <time>2024-08-21T08:05:10.000Z</time>
      </trkpt>
      <trkpt lat="48.02777" lon="0.36503">
        <ele>56.400001525879</ele>
        <time>2024-08-21T08:05:18.000Z</time>
      </trkpt>
      <trkpt lat="48.02775" lon="0.36495">
        <ele>56.400001525879</ele>
        <time>2024-08-21T08:05:19.000Z</time>
      </trkpt>
      <trkpt lat="48.02767" lon="0.36458">
        <ele>56.599998474121</ele>
        <time>2024-08-21T08:05:24.000Z</time>
      </trkpt>
      <trkpt lat="48.0275" lon="0.36383">
        <ele>56.599998474121</ele>
        <time>2024-08-21T08:05:34.000Z</time>
      </trkpt>
      <trkpt lat="48.02741" lon="0.36339">
        <ele>56.400001525879</ele>
        <time>2024-08-21T08:05:40.000Z</time>
      </trkpt>
      <trkpt lat="48.02733" lon="0.36309">
        <ele>56</ele>
        <time>2024-08-21T08:05:44.000Z</time>
      </trkpt>
      <trkpt lat="48.02729" lon="0.36284">
        <ele>56</ele>
        <time>2024-08-21T08:05:47.000Z</time>
      </trkpt>
      <trkpt lat="48.02727" lon="0.36276">
        <ele>56</ele>
        <time>2024-08-21T08:05:48.000Z</time>
      </trkpt>
      <trkpt lat="48.02724" lon="0.3626">
        <ele>56</ele>
        <time>2024-08-21T08:05:50.000Z</time>
      </trkpt>
      <trkpt lat="48.02706" lon="0.36179">
        <ele>56.200000762939</ele>
        <time>2024-08-21T08:06:00.000Z</time>
      </trkpt>
      <trkpt lat="48.02702" lon="0.36162">
        <ele>56.200000762939</ele>
        <time>2024-08-21T08:06:02.000Z</time>
      </trkpt>
      <trkpt lat="48.02683" lon="0.36078">
        <ele>56</ele>
        <time>2024-08-21T08:06:12.000Z</time>
      </trkpt>
      <trkpt lat="48.02681" lon="0.36069">
        <ele>56</ele>
        <time>2024-08-21T08:06:13.000Z</time>
      </trkpt>
      <trkpt lat="48.02664" lon="0.35991">
        <ele>56</ele>
        <time>2024-08-21T08:06:22.000Z</time>
      </trkpt>
      <trkpt lat="48.02658" lon="0.35965">
        <ele>56</ele>
        <time>2024-08-21T08:06:25.000Z</time>
      </trkpt>
      <trkpt lat="48.02641" lon="0.35881">
        <ele>56</ele>
        <time>2024-08-21T08:06:35.000Z</time>
      </trkpt>
      <trkpt lat="48.02636" lon="0.35847">
        <ele>56</ele>
        <time>2024-08-21T08:06:39.000Z</time>
      </trkpt>
      <trkpt lat="48.02637" lon="0.35833">
        <ele>56</ele>
        <time>2024-08-21T08:06:41.000Z</time>
      </trkpt>
      <trkpt lat="48.02641" lon="0.35823">
        <ele>56</ele>
        <time>2024-08-21T08:06:43.000Z</time>
      </trkpt>
      <trkpt lat="48.02645" lon="0.3582">
        <ele>56</ele>
        <time>2024-08-21T08:06:44.000Z</time>
      </trkpt>
      <trkpt lat="48.02648" lon="0.35816">
        <ele>56.200000762939</ele>
        <time>2024-08-21T08:06:45.000Z</time>
      </trkpt>
      <trkpt lat="48.02651" lon="0.35803">
        <ele>56.400001525879</ele>
        <time>2024-08-21T08:06:47.000Z</time>
      </trkpt>
      <trkpt lat="48.02641" lon="0.35763">
        <ele>56</ele>
        <time>2024-08-21T08:06:53.000Z</time>
      </trkpt>
      <trkpt lat="48.02622" lon="0.35697">
        <ele>55.799999237061</ele>
        <time>2024-08-21T08:07:02.000Z</time>
      </trkpt>
      <trkpt lat="48.02616" lon="0.35677">
        <ele>55.799999237061</ele>
        <time>2024-08-21T08:07:05.000Z</time>
      </trkpt>
      <trkpt lat="48.02609" lon="0.35654">
        <ele>56</ele>
        <time>2024-08-21T08:07:08.000Z</time>
      </trkpt>
      <trkpt lat="48.0259" lon="0.35583">
        <ele>56.400001525879</ele>
        <time>2024-08-21T08:07:17.000Z</time>
      </trkpt>
      <trkpt lat="48.02567" lon="0.35503">
        <ele>56</ele>
        <time>2024-08-21T08:07:27.000Z</time>
      </trkpt>
      <trkpt lat="48.02565" lon="0.35495">
        <ele>56</ele>
        <time>2024-08-21T08:07:28.000Z</time>
      </trkpt>
      <trkpt lat="48.02544" lon="0.35427">
        <ele>56.400001525879</ele>
        <time>2024-08-21T08:07:37.000Z</time>
      </trkpt>
      <trkpt lat="48.0252" lon="0.35346">
        <ele>56.400001525879</ele>
        <time>2024-08-21T08:07:47.000Z</time>
      </trkpt>
      <trkpt lat="48.02501" lon="0.35279">
        <ele>56</ele>
        <time>2024-08-21T08:07:55.000Z</time>
      </trkpt>
      <trkpt lat="48.02487" lon="0.35231">
        <ele>56</ele>
        <time>2024-08-21T08:08:01.000Z</time>
      </trkpt>
      <trkpt lat="48.02477" lon="0.352">
        <ele>55.799999237061</ele>
        <time>2024-08-21T08:08:05.000Z</time>
      </trkpt>
      <trkpt lat="48.02454" lon="0.35118">
        <ele>56.599998474121</ele>
        <time>2024-08-21T08:08:15.000Z</time>
      </trkpt>
      <trkpt lat="48.02443" lon="0.35059">
        <ele>56.200000762939</ele>
        <time>2024-08-21T08:08:22.000Z</time>
      </trkpt>
      <trkpt lat="48.02441" lon="0.34995">
        <ele>56.200000762939</ele>
        <time>2024-08-21T08:08:29.000Z</time>
      </trkpt>
      <trkpt lat="48.02434" lon="0.34913">
        <ele>56.200000762939</ele>
        <time>2024-08-21T08:08:38.000Z</time>
      </trkpt>
      <trkpt lat="48.02427" lon="0.34832">
        <ele>56.200000762939</ele>
        <time>2024-08-21T08:08:47.000Z</time>
      </trkpt>
      <trkpt lat="48.02426" lon="0.34823">
        <ele>56.200000762939</ele>
        <time>2024-08-21T08:08:48.000Z</time>
      </trkpt>
      <trkpt lat="48.0242" lon="0.34749">
        <ele>55.799999237061</ele>
        <time>2024-08-21T08:08:56.000Z</time>
      </trkpt>
      <trkpt lat="48.02411" lon="0.34669">
        <ele>55.599998474121</ele>
        <time>2024-08-21T08:09:05.000Z</time>
      </trkpt>
      <trkpt lat="48.02406" lon="0.34597">
        <ele>55.200000762939</ele>
        <time>2024-08-21T08:09:13.000Z</time>
      </trkpt>
      <trkpt lat="48.02398" lon="0.34516">
        <ele>55.200000762939</ele>
        <time>2024-08-21T08:09:22.000Z</time>
      </trkpt>
      <trkpt lat="48.02384" lon="0.34439">
        <ele>55</ele>
        <time>2024-08-21T08:09:31.000Z</time>
      </trkpt>
      <trkpt lat="48.02369" lon="0.34363">
        <ele>55</ele>
        <time>2024-08-21T08:09:40.000Z</time>
      </trkpt>
      <trkpt lat="48.02354" lon="0.34288">
        <ele>55.200000762939</ele>
        <time>2024-08-21T08:09:49.000Z</time>
      </trkpt>
      <trkpt lat="48.02339" lon="0.34215">
        <ele>55.799999237061</ele>
        <time>2024-08-21T08:09:58.000Z</time>
      </trkpt>
      <trkpt lat="48.02331" lon="0.34164">
        <ele>56.400001525879</ele>
        <time>2024-08-21T08:10:05.000Z</time>
      </trkpt>
      <trkpt lat="48.0233" lon="0.34157">
        <ele>56.599998474121</ele>
        <time>2024-08-21T08:10:06.000Z</time>
      </trkpt>
      <trkpt lat="48.02325" lon="0.34118">
        <ele>58.200000762939</ele>
        <time>2024-08-21T08:10:13.000Z</time>
      </trkpt>
      <trkpt lat="48.02322" lon="0.34093">
        <ele>59.200000762939</ele>
        <time>2024-08-21T08:10:18.000Z</time>
      </trkpt>
      <trkpt lat="48.02321" lon="0.34088">
        <ele>59.599998474121</ele>
        <time>2024-08-21T08:10:19.000Z</time>
      </trkpt>
      <trkpt lat="48.02319" lon="0.34059">
        <ele>60.599998474121</ele>
        <time>2024-08-21T08:10:25.000Z</time>
      </trkpt>
      <trkpt lat="48.02317" lon="0.34039">
        <ele>61.599998474121</ele>
        <time>2024-08-21T08:10:29.000Z</time>
      </trkpt>
      <trkpt lat="48.02316" lon="0.34034">
        <ele>61.799999237061</ele>
        <time>2024-08-21T08:10:30.000Z</time>
      </trkpt>
      <trkpt lat="48.02307" lon="0.33966">
        <ele>62.799999237061</ele>
        <time>2024-08-21T08:10:42.000Z</time>
      </trkpt>
      <trkpt lat="48.02299" lon="0.33907">
        <ele>62.799999237061</ele>
        <time>2024-08-21T08:10:51.000Z</time>
      </trkpt>
      <trkpt lat="48.02298" lon="0.339">
        <ele>62.799999237061</ele>
        <time>2024-08-21T08:10:52.000Z</time>
      </trkpt>
      <trkpt lat="48.02292" lon="0.33842">
        <ele>62.799999237061</ele>
        <time>2024-08-21T08:11:00.000Z</time>
      </trkpt>
      <trkpt lat="48.02291" lon="0.338">
        <ele>62.200000762939</ele>
        <time>2024-08-21T08:11:05.000Z</time>
      </trkpt>
      <trkpt lat="48.0229" lon="0.33772">
        <ele>61.599998474121</ele>
        <time>2024-08-21T08:11:08.000Z</time>
      </trkpt>
      <trkpt lat="48.0229" lon="0.33743">
        <ele>60.400001525879</ele>
        <time>2024-08-21T08:11:11.000Z</time>
      </trkpt>
      <trkpt lat="48.02291" lon="0.33686">
        <ele>59.200000762939</ele>
        <time>2024-08-21T08:11:17.000Z</time>
      </trkpt>
      <trkpt lat="48.02292" lon="0.33662">
        <ele>59.200000762939</ele>
        <time>2024-08-21T08:11:20.000Z</time>
      </trkpt>
      <trkpt lat="48.02296" lon="0.3365">
        <ele>59.200000762939</ele>
        <time>2024-08-21T08:11:22.000Z</time>
      </trkpt>
      <trkpt lat="48.023" lon="0.33647">
        <ele>59.200000762939</ele>
        <time>2024-08-21T08:11:23.000Z</time>
      </trkpt>
      <trkpt lat="48.02305" lon="0.33645">
        <ele>59</ele>
        <time>2024-08-21T08:11:24.000Z</time>
      </trkpt>
      <trkpt lat="48.02316" lon="0.33644">
        <ele>59</ele>
        <time>2024-08-21T08:11:26.000Z</time>
      </trkpt>
      <trkpt lat="48.02342" lon="0.33643">
        <ele>58.200000762939</ele>
        <time>2024-08-21T08:11:30.000Z</time>
      </trkpt>
      <trkpt lat="48.02349" lon="0.33642">
        <ele>57.599998474121</ele>
        <time>2024-08-21T08:11:31.000Z</time>
      </trkpt>
      <trkpt lat="48.02356" lon="0.33641">
        <ele>57</ele>
        <time>2024-08-21T08:11:32.000Z</time>
      </trkpt>
      <trkpt lat="48.02385" lon="0.33638">
        <ele>55.799999237061</ele>
        <time>2024-08-21T08:11:36.000Z</time>
      </trkpt>
      <trkpt lat="48.02407" lon="0.33636">
        <ele>55.200000762939</ele>
        <time>2024-08-21T08:11:39.000Z</time>
      </trkpt>
      <trkpt lat="48.02434" lon="0.3364">
        <ele>55.200000762939</ele>
        <time>2024-08-21T08:11:43.000Z</time>
      </trkpt>
      <trkpt lat="48.02448" lon="0.33644">
        <ele>55.200000762939</ele>
        <time>2024-08-21T08:11:45.000Z</time>
      </trkpt>
      <trkpt lat="48.02459" lon="0.33641">
        <ele>55.200000762939</ele>
        <time>2024-08-21T08:11:47.000Z</time>
      </trkpt>
      <trkpt lat="48.02463" lon="0.33633">
        <ele>55.200000762939</ele>
        <time>2024-08-21T08:11:48.000Z</time>
      </trkpt>
      <trkpt lat="48.02461" lon="0.33615">
        <ele>55.200000762939</ele>
        <time>2024-08-21T08:11:50.000Z</time>
      </trkpt>
      <trkpt lat="48.02455" lon="0.33599">
        <ele>55.200000762939</ele>
        <time>2024-08-21T08:11:52.000Z</time>
      </trkpt>
      <trkpt lat="48.02447" lon="0.33585">
        <ele>55.200000762939</ele>
        <time>2024-08-21T08:11:54.000Z</time>
      </trkpt>
      <trkpt lat="48.02417" lon="0.33541">
        <ele>55.599998474121</ele>
        <time>2024-08-21T08:12:01.000Z</time>
      </trkpt>
      <trkpt lat="48.024" lon="0.33498">
        <ele>56.400001525879</ele>
        <time>2024-08-21T08:12:07.000Z</time>
      </trkpt>
      <trkpt lat="48.02391" lon="0.33469">
        <ele>57</ele>
        <time>2024-08-21T08:12:11.000Z</time>
      </trkpt>
      <trkpt lat="48.02388" lon="0.33454">
        <ele>57</ele>
        <time>2024-08-21T08:12:13.000Z</time>
      </trkpt>
      <trkpt lat="48.02387" lon="0.33439">
        <ele>57.400001525879</ele>
        <time>2024-08-21T08:12:15.000Z</time>
      </trkpt>
      <trkpt lat="48.02387" lon="0.33398">
        <ele>57.799999237061</ele>
        <time>2024-08-21T08:12:21.000Z</time>
      </trkpt>
      <trkpt lat="48.02387" lon="0.33391">
        <ele>57.799999237061</ele>
        <time>2024-08-21T08:12:22.000Z</time>
      </trkpt>
      <trkpt lat="48.02387" lon="0.33364">
        <ele>58.200000762939</ele>
        <time>2024-08-21T08:12:26.000Z</time>
      </trkpt>
      <trkpt lat="48.02388" lon="0.33349">
        <ele>58.400001525879</ele>
        <time>2024-08-21T08:12:28.000Z</time>
      </trkpt>
      <trkpt lat="48.02388" lon="0.33293">
        <ele>58.799999237061</ele>
        <time>2024-08-21T08:12:36.000Z</time>
      </trkpt>
      <trkpt lat="48.02385" lon="0.33281">
        <ele>59.200000762939</ele>
        <time>2024-08-21T08:12:38.000Z</time>
      </trkpt>
      <trkpt lat="48.02382" lon="0.33276">
        <ele>59.400001525879</ele>
        <time>2024-08-21T08:12:39.000Z</time>
      </trkpt>
      <trkpt lat="48.02379" lon="0.33272">
        <ele>59.400001525879</ele>
        <time>2024-08-21T08:12:40.000Z</time>
      </trkpt>
      <trkpt lat="48.02371" lon="0.33266">
        <ele>59.599998474121</ele>
        <time>2024-08-21T08:12:42.000Z</time>
      </trkpt>
      <trkpt lat="48.02362" lon="0.33261">
        <ele>59.599998474121</ele>
        <time>2024-08-21T08:12:44.000Z</time>
      </trkpt>
      <trkpt lat="48.02333" lon="0.33243">
        <ele>60</ele>
        <time>2024-08-21T08:12:51.000Z</time>
      </trkpt>
      <trkpt lat="48.02317" lon="0.33232">
        <ele>60.599998474121</ele>
        <time>2024-08-21T08:12:55.000Z</time>
      </trkpt>
      <trkpt lat="48.02306" lon="0.33225">
        <ele>61</ele>
        <time>2024-08-21T08:12:58.000Z</time>
      </trkpt>
      <trkpt lat="48.02286" lon="0.33212">
        <ele>61.599998474121</ele>
        <time>2024-08-21T08:13:03.000Z</time>
      </trkpt>
      <trkpt lat="48.02251" lon="0.3318">
        <ele>61.799999237061</ele>
        <time>2024-08-21T08:13:12.000Z</time>
      </trkpt>
      <trkpt lat="48.02207" lon="0.33141">
        <ele>62</ele>
        <time>2024-08-21T08:13:22.000Z</time>
      </trkpt>
      <trkpt lat="48.0218" lon="0.33118">
        <ele>62</ele>
        <time>2024-08-21T08:13:28.000Z</time>
      </trkpt>
      <trkpt lat="48.02175" lon="0.33116">
        <ele>61.799999237061</ele>
        <time>2024-08-21T08:13:29.000Z</time>
      </trkpt>
      <trkpt lat="48.02138" lon="0.33105">
        <ele>61.599998474121</ele>
        <time>2024-08-21T08:13:36.000Z</time>
      </trkpt>
      <trkpt lat="48.02093" lon="0.33095">
        <ele>61.200000762939</ele>
        <time>2024-08-21T08:13:44.000Z</time>
      </trkpt>
      <trkpt lat="48.02086" lon="0.33093">
        <ele>61.200000762939</ele>
        <time>2024-08-21T08:13:45.000Z</time>
      </trkpt>
      <trkpt lat="48.02074" lon="0.33092">
        <ele>61</ele>
        <time>2024-08-21T08:13:47.000Z</time>
      </trkpt>
      <trkpt lat="48.02068" lon="0.33093">
        <ele>61</ele>
        <time>2024-08-21T08:13:48.000Z</time>
      </trkpt>
      <trkpt lat="48.02061" lon="0.33094">
        <ele>60.799999237061</ele>
        <time>2024-08-21T08:13:49.000Z</time>
      </trkpt>
      <trkpt lat="48.0205" lon="0.33101">
        <ele>60.599998474121</ele>
        <time>2024-08-21T08:13:51.000Z</time>
      </trkpt>
      <trkpt lat="48.02033" lon="0.33114">
        <ele>60.400001525879</ele>
        <time>2024-08-21T08:13:54.000Z</time>
      </trkpt>
      <trkpt lat="48.01987" lon="0.33149">
        <ele>60.200000762939</ele>
        <time>2024-08-21T08:14:03.000Z</time>
      </trkpt>
      <trkpt lat="48.0195" lon="0.33176">
        <ele>60.400001525879</ele>
        <time>2024-08-21T08:14:10.000Z</time>
      </trkpt>
      <trkpt lat="48.01945" lon="0.33178">
        <ele>60.400001525879</ele>
        <time>2024-08-21T08:14:11.000Z</time>
      </trkpt>
      <trkpt lat="48.0194" lon="0.33178">
        <ele>60.400001525879</ele>
        <time>2024-08-21T08:14:12.000Z</time>
      </trkpt>
      <trkpt lat="48.01931" lon="0.33168">
        <ele>60.599998474121</ele>
        <time>2024-08-21T08:14:14.000Z</time>
      </trkpt>
      <trkpt lat="48.01925" lon="0.33144">
        <ele>60.599998474121</ele>
        <time>2024-08-21T08:14:17.000Z</time>
      </trkpt>
      <trkpt lat="48.01912" lon="0.33088">
        <ele>60.599998474121</ele>
        <time>2024-08-21T08:14:24.000Z</time>
      </trkpt>
      <trkpt lat="48.01907" lon="0.33064">
        <ele>60.799999237061</ele>
        <time>2024-08-21T08:14:27.000Z</time>
      </trkpt>
      <trkpt lat="48.01892" lon="0.32984">
        <ele>60.400001525879</ele>
        <time>2024-08-21T08:14:37.000Z</time>
      </trkpt>
      <trkpt lat="48.01891" lon="0.32976">
        <ele>60.200000762939</ele>
        <time>2024-08-21T08:14:38.000Z</time>
      </trkpt>
      <trkpt lat="48.01881" lon="0.32911">
        <ele>60.200000762939</ele>
        <time>2024-08-21T08:14:46.000Z</time>
      </trkpt>
      <trkpt lat="48.01873" lon="0.32862">
        <ele>60.599998474121</ele>
        <time>2024-08-21T08:14:52.000Z</time>
      </trkpt>
      <trkpt lat="48.01873" lon="0.32855">
        <ele>60.799999237061</ele>
        <time>2024-08-21T08:14:53.000Z</time>
      </trkpt>
      <trkpt lat="48.01866" lon="0.32792">
        <ele>61</ele>
        <time>2024-08-21T08:15:01.000Z</time>
      </trkpt>
      <trkpt lat="48.01856" lon="0.32729">
        <ele>61.799999237061</ele>
        <time>2024-08-21T08:15:09.000Z</time>
      </trkpt>
      <trkpt lat="48.01841" lon="0.32649">
        <ele>61.799999237061</ele>
        <time>2024-08-21T08:15:19.000Z</time>
      </trkpt>
      <trkpt lat="48.01837" lon="0.32634">
        <ele>61.799999237061</ele>
        <time>2024-08-21T08:15:21.000Z</time>
      </trkpt>
      <trkpt lat="48.01835" lon="0.32618">
        <ele>61.799999237061</ele>
        <time>2024-08-21T08:15:23.000Z</time>
      </trkpt>
      <trkpt lat="48.01834" lon="0.32602">
        <ele>62</ele>
        <time>2024-08-21T08:15:25.000Z</time>
      </trkpt>
      <trkpt lat="48.01823" lon="0.32584">
        <ele>62</ele>
        <time>2024-08-21T08:15:28.000Z</time>
      </trkpt>
      <trkpt lat="48.01818" lon="0.3257">
        <ele>62.200000762939</ele>
        <time>2024-08-21T08:15:30.000Z</time>
      </trkpt>
      <trkpt lat="48.01814" lon="0.32554">
        <ele>62.200000762939</ele>
        <time>2024-08-21T08:15:32.000Z</time>
      </trkpt>
      <trkpt lat="48.01795" lon="0.32477">
        <ele>62</ele>
        <time>2024-08-21T08:15:42.000Z</time>
      </trkpt>
      <trkpt lat="48.01793" lon="0.32469">
        <ele>62</ele>
        <time>2024-08-21T08:15:43.000Z</time>
      </trkpt>
      <trkpt lat="48.01776" lon="0.324">
        <ele>61.799999237061</ele>
        <time>2024-08-21T08:15:52.000Z</time>
      </trkpt>
      <trkpt lat="48.0177" lon="0.32379">
        <ele>61.799999237061</ele>
        <time>2024-08-21T08:15:55.000Z</time>
      </trkpt>
      <trkpt lat="48.01765" lon="0.32355">
        <ele>61.799999237061</ele>
        <time>2024-08-21T08:15:58.000Z</time>
      </trkpt>
      <trkpt lat="48.0175" lon="0.3229">
        <ele>62.400001525879</ele>
        <time>2024-08-21T08:16:06.000Z</time>
      </trkpt>
      <trkpt lat="48.0175" lon="0.32273">
        <ele>62.599998474121</ele>
        <time>2024-08-21T08:16:08.000Z</time>
      </trkpt>
      <trkpt lat="48.01748" lon="0.32265">
        <ele>62.599998474121</ele>
        <time>2024-08-21T08:16:09.000Z</time>
      </trkpt>
      <trkpt lat="48.01744" lon="0.32259">
        <ele>62.599998474121</ele>
        <time>2024-08-21T08:16:10.000Z</time>
      </trkpt>
      <trkpt lat="48.01736" lon="0.32248">
        <ele>62.599998474121</ele>
        <time>2024-08-21T08:16:12.000Z</time>
      </trkpt>
      <trkpt lat="48.0173" lon="0.32235">
        <ele>62.599998474121</ele>
        <time>2024-08-21T08:16:14.000Z</time>
      </trkpt>
      <trkpt lat="48.01724" lon="0.32212">
        <ele>62.599998474121</ele>
        <time>2024-08-21T08:16:17.000Z</time>
      </trkpt>
      <trkpt lat="48.01712" lon="0.32167">
        <ele>62.799999237061</ele>
        <time>2024-08-21T08:16:23.000Z</time>
      </trkpt>
      <trkpt lat="48.01702" lon="0.32137">
        <ele>63</ele>
        <time>2024-08-21T08:16:27.000Z</time>
      </trkpt>
      <trkpt lat="48.01677" lon="0.32069">
        <ele>63</ele>
        <time>2024-08-21T08:16:36.000Z</time>
      </trkpt>
      <trkpt lat="48.01649" lon="0.32004">
        <ele>63</ele>
        <time>2024-08-21T08:16:45.000Z</time>
      </trkpt>
      <trkpt lat="48.01626" lon="0.31948">
        <ele>63.200000762939</ele>
        <time>2024-08-21T08:16:53.000Z</time>
      </trkpt>
      <trkpt lat="48.01603" lon="0.31892">
        <ele>63.400001525879</ele>
        <time>2024-08-21T08:17:01.000Z</time>
      </trkpt>
      <trkpt lat="48.01579" lon="0.31839">
        <ele>63.400001525879</ele>
        <time>2024-08-21T08:17:09.000Z</time>
      </trkpt>
      <trkpt lat="48.01546" lon="0.31766">
        <ele>63.799999237061</ele>
        <time>2024-08-21T08:17:20.000Z</time>
      </trkpt>
      <trkpt lat="48.01539" lon="0.31746">
        <ele>64.199996948242</ele>
        <time>2024-08-21T08:17:23.000Z</time>
      </trkpt>
      <trkpt lat="48.01537" lon="0.31735">
        <ele>64.400001525879</ele>
        <time>2024-08-21T08:17:25.000Z</time>
      </trkpt>
      <trkpt lat="48.01534" lon="0.31724">
        <ele>64.400001525879</ele>
        <time>2024-08-21T08:17:27.000Z</time>
      </trkpt>
      <trkpt lat="48.01525" lon="0.31707">
        <ele>64.400001525879</ele>
        <time>2024-08-21T08:17:30.000Z</time>
      </trkpt>
      <trkpt lat="48.01511" lon="0.31686">
        <ele>64.199996948242</ele>
        <time>2024-08-21T08:17:34.000Z</time>
      </trkpt>
      <trkpt lat="48.01502" lon="0.31681">
        <ele>64.199996948242</ele>
        <time>2024-08-21T08:17:36.000Z</time>
      </trkpt>
      <trkpt lat="48.01492" lon="0.31681">
        <ele>64.400001525879</ele>
        <time>2024-08-21T08:17:38.000Z</time>
      </trkpt>
      <trkpt lat="48.01483" lon="0.31684">
        <ele>64.400001525879</ele>
        <time>2024-08-21T08:17:40.000Z</time>
      </trkpt>
      <trkpt lat="48.01476" lon="0.31689">
        <ele>64.800003051758</ele>
        <time>2024-08-21T08:17:42.000Z</time>
      </trkpt>
      <trkpt lat="48.01469" lon="0.31694">
        <ele>65.400001525879</ele>
        <time>2024-08-21T08:17:44.000Z</time>
      </trkpt>
      <trkpt lat="48.01465" lon="0.31696">
        <ele>65.800003051758</ele>
        <time>2024-08-21T08:17:45.000Z</time>
      </trkpt>
      <trkpt lat="48.01453" lon="0.31705">
        <ele>66.599998474121</ele>
        <time>2024-08-21T08:17:49.000Z</time>
      </trkpt>
      <trkpt lat="48.01444" lon="0.3171">
        <ele>67.599998474121</ele>
        <time>2024-08-21T08:17:52.000Z</time>
      </trkpt>
      <trkpt lat="48.01431" lon="0.31718">
        <ele>68.800003051758</ele>
        <time>2024-08-21T08:17:56.000Z</time>
      </trkpt>
      <trkpt lat="48.01418" lon="0.31727">
        <ele>69</ele>
        <time>2024-08-21T08:17:59.000Z</time>
      </trkpt>
      <trkpt lat="48.01395" lon="0.31739">
        <ele>67.599998474121</ele>
        <time>2024-08-21T08:18:03.000Z</time>
      </trkpt>
      <trkpt lat="48.01389" lon="0.31743">
        <ele>67</ele>
        <time>2024-08-21T08:18:04.000Z</time>
      </trkpt>
      <trkpt lat="48.01374" lon="0.3175">
        <ele>66</ele>
        <time>2024-08-21T08:18:06.000Z</time>
      </trkpt>
      <trkpt lat="48.01351" lon="0.31757">
        <ele>64.800003051758</ele>
        <time>2024-08-21T08:18:09.000Z</time>
      </trkpt>
      <trkpt lat="48.01337" lon="0.31762">
        <ele>63</ele>
        <time>2024-08-21T08:18:11.000Z</time>
      </trkpt>
      <trkpt lat="48.01327" lon="0.31765">
        <ele>62.400001525879</ele>
        <time>2024-08-21T08:18:13.000Z</time>
      </trkpt>
      <trkpt lat="48.01319" lon="0.31757">
        <ele>62.200000762939</ele>
        <time>2024-08-21T08:18:16.000Z</time>
      </trkpt>
      <trkpt lat="48.01315" lon="0.31734">
        <ele>62.400001525879</ele>
        <time>2024-08-21T08:18:21.000Z</time>
      </trkpt>
      <trkpt lat="48.01305" lon="0.31699">
        <ele>62.200000762939</ele>
        <time>2024-08-21T08:18:27.000Z</time>
      </trkpt>
      <trkpt lat="48.01293" lon="0.3166">
        <ele>62.200000762939</ele>
        <time>2024-08-21T08:18:33.000Z</time>
      </trkpt>
      <trkpt lat="48.01282" lon="0.31629">
        <ele>62.200000762939</ele>
        <time>2024-08-21T08:18:37.000Z</time>
      </trkpt>
      <trkpt lat="48.01278" lon="0.31623">
        <ele>62.200000762939</ele>
        <time>2024-08-21T08:18:38.000Z</time>
      </trkpt>
      <trkpt lat="48.01274" lon="0.31618">
        <ele>62</ele>
        <time>2024-08-21T08:18:39.000Z</time>
      </trkpt>
      <trkpt lat="48.01264" lon="0.31612">
        <ele>62</ele>
        <time>2024-08-21T08:18:41.000Z</time>
      </trkpt>
      <trkpt lat="48.01258" lon="0.3161">
        <ele>62</ele>
        <time>2024-08-21T08:18:42.000Z</time>
      </trkpt>
      <trkpt lat="48.01248" lon="0.31606">
        <ele>62</ele>
        <time>2024-08-21T08:18:44.000Z</time>
      </trkpt>
      <trkpt lat="48.01239" lon="0.31598">
        <ele>62</ele>
        <time>2024-08-21T08:18:46.000Z</time>
      </trkpt>
      <trkpt lat="48.01235" lon="0.31592">
        <ele>61.799999237061</ele>
        <time>2024-08-21T08:18:47.000Z</time>
      </trkpt>
      <trkpt lat="48.01232" lon="0.31586">
        <ele>61.799999237061</ele>
        <time>2024-08-21T08:18:48.000Z</time>
      </trkpt>
      <trkpt lat="48.01226" lon="0.31564">
        <ele>62</ele>
        <time>2024-08-21T08:18:51.000Z</time>
      </trkpt>
      <trkpt lat="48.01212" lon="0.31516">
        <ele>62.200000762939</ele>
        <time>2024-08-21T08:18:58.000Z</time>
      </trkpt>
      <trkpt lat="48.01196" lon="0.31466">
        <ele>61.599998474121</ele>
        <time>2024-08-21T08:19:05.000Z</time>
      </trkpt>
      <trkpt lat="48.01175" lon="0.31403">
        <ele>61</ele>
        <time>2024-08-21T08:19:14.000Z</time>
      </trkpt>
      <trkpt lat="48.01152" lon="0.31333">
        <ele>61</ele>
        <time>2024-08-21T08:19:24.000Z</time>
      </trkpt>
      <trkpt lat="48.01132" lon="0.31275">
        <ele>61.599998474121</ele>
        <time>2024-08-21T08:19:32.000Z</time>
      </trkpt>
      <trkpt lat="48.01123" lon="0.31246">
        <ele>61.599998474121</ele>
        <time>2024-08-21T08:19:36.000Z</time>
      </trkpt>
      <trkpt lat="48.01115" lon="0.31228">
        <ele>61.400001525879</ele>
        <time>2024-08-21T08:19:39.000Z</time>
      </trkpt>
      <trkpt lat="48.01112" lon="0.31222">
        <ele>61.599998474121</ele>
        <time>2024-08-21T08:19:40.000Z</time>
      </trkpt>
      <trkpt lat="48.01103" lon="0.31195">
        <ele>62</ele>
        <time>2024-08-21T08:19:44.000Z</time>
      </trkpt>
      <trkpt lat="48.01101" lon="0.31188">
        <ele>62.200000762939</ele>
        <time>2024-08-21T08:19:45.000Z</time>
      </trkpt>
      <trkpt lat="48.01086" lon="0.31138">
        <ele>62.400001525879</ele>
        <time>2024-08-21T08:19:52.000Z</time>
      </trkpt>
      <trkpt lat="48.01069" lon="0.31078">
        <ele>62</ele>
        <time>2024-08-21T08:20:00.000Z</time>
      </trkpt>
      <trkpt lat="48.01057" lon="0.31018">
        <ele>62</ele>
        <time>2024-08-21T08:20:08.000Z</time>
      </trkpt>
      <trkpt lat="48.01046" lon="0.30961">
        <ele>61.400001525879</ele>
        <time>2024-08-21T08:20:16.000Z</time>
      </trkpt>
      <trkpt lat="48.01044" lon="0.30946">
        <ele>61.400001525879</ele>
        <time>2024-08-21T08:20:18.000Z</time>
      </trkpt>
      <trkpt lat="48.01044" lon="0.30911">
        <ele>61.400001525879</ele>
        <time>2024-08-21T08:20:23.000Z</time>
      </trkpt>
      <trkpt lat="48.01041" lon="0.30875">
        <ele>61.599998474121</ele>
        <time>2024-08-21T08:20:30.000Z</time>
      </trkpt>
      <trkpt lat="48.01038" lon="0.30849">
        <ele>61.599998474121</ele>
        <time>2024-08-21T08:20:38.000Z</time>
      </trkpt>
      <trkpt lat="48.01034" lon="0.30821">
        <ele>61.599998474121</ele>
        <time>2024-08-21T08:20:44.000Z</time>
      </trkpt>
      <trkpt lat="48.01029" lon="0.30783">
        <ele>61.799999237061</ele>
        <time>2024-08-21T08:20:52.000Z</time>
      </trkpt>
      <trkpt lat="48.01026" lon="0.30749">
        <ele>61.799999237061</ele>
        <time>2024-08-21T08:20:59.000Z</time>
      </trkpt>
      <trkpt lat="48.01019" lon="0.30697">
        <ele>61.599998474121</ele>
        <time>2024-08-21T08:21:08.000Z</time>
      </trkpt>
      <trkpt lat="48.01015" lon="0.30652">
        <ele>61.599998474121</ele>
        <time>2024-08-21T08:21:15.000Z</time>
      </trkpt>
      <trkpt lat="48.01013" lon="0.30646">
        <ele>61.599998474121</ele>
        <time>2024-08-21T08:21:16.000Z</time>
      </trkpt>
      <trkpt lat="48.0101" lon="0.30621">
        <ele>61.799999237061</ele>
        <time>2024-08-21T08:21:20.000Z</time>
      </trkpt>
      <trkpt lat="48.01011" lon="0.30601">
        <ele>61.799999237061</ele>
        <time>2024-08-21T08:21:23.000Z</time>
      </trkpt>
      <trkpt lat="48.01022" lon="0.30559">
        <ele>61.799999237061</ele>
        <time>2024-08-21T08:21:29.000Z</time>
      </trkpt>
      <trkpt lat="48.01031" lon="0.30506">
        <ele>61.400001525879</ele>
        <time>2024-08-21T08:21:37.000Z</time>
      </trkpt>
      <trkpt lat="48.01034" lon="0.30475">
        <ele>62.599998474121</ele>
        <time>2024-08-21T08:21:43.000Z</time>
      </trkpt>
      <trkpt lat="48.01035" lon="0.3047">
        <ele>63</ele>
        <time>2024-08-21T08:21:44.000Z</time>
      </trkpt>
      <trkpt lat="48.01031" lon="0.30448">
        <ele>64.199996948242</ele>
        <time>2024-08-21T08:21:49.000Z</time>
      </trkpt>
      <trkpt lat="48.01022" lon="0.30439">
        <ele>65</ele>
        <time>2024-08-21T08:21:53.000Z</time>
      </trkpt>
      <trkpt lat="48.01016" lon="0.30438">
        <ele>65.400001525879</ele>
        <time>2024-08-21T08:21:55.000Z</time>
      </trkpt>
      <trkpt lat="48.01004" lon="0.30435">
        <ele>66</ele>
        <time>2024-08-21T08:21:59.000Z</time>
      </trkpt>
      <trkpt lat="48.00996" lon="0.3043">
        <ele>66</ele>
        <time>2024-08-21T08:22:01.000Z</time>
      </trkpt>
      <trkpt lat="48.00993" lon="0.30425">
        <ele>66</ele>
        <time>2024-08-21T08:22:02.000Z</time>
      </trkpt>
      <trkpt lat="48.0099" lon="0.30417">
        <ele>66</ele>
        <time>2024-08-21T08:22:03.000Z</time>
      </trkpt>
      <trkpt lat="48.00987" lon="0.304">
        <ele>66</ele>
        <time>2024-08-21T08:22:05.000Z</time>
      </trkpt>
      <trkpt lat="48.00986" lon="0.30391">
        <ele>65.800003051758</ele>
        <time>2024-08-21T08:22:06.000Z</time>
      </trkpt>
      <trkpt lat="48.00983" lon="0.30358">
        <ele>64</ele>
        <time>2024-08-21T08:22:09.000Z</time>
      </trkpt>
      <trkpt lat="48.00982" lon="0.30323">
        <ele>62.400001525879</ele>
        <time>2024-08-21T08:22:12.000Z</time>
      </trkpt>
      <trkpt lat="48.00983" lon="0.30299">
        <ele>61</ele>
        <time>2024-08-21T08:22:14.000Z</time>
      </trkpt>
      <trkpt lat="48.0099" lon="0.30248">
        <ele>60</ele>
        <time>2024-08-21T08:22:19.000Z</time>
      </trkpt>
      <trkpt lat="48.00991" lon="0.30238">
        <ele>60</ele>
        <time>2024-08-21T08:22:20.000Z</time>
      </trkpt>
      <trkpt lat="48.00989" lon="0.30221">
        <ele>60</ele>
        <time>2024-08-21T08:22:22.000Z</time>
      </trkpt>
      <trkpt lat="48.00988" lon="0.30212">
        <ele>60</ele>
        <time>2024-08-21T08:22:23.000Z</time>
      </trkpt>
      <trkpt lat="48.00979" lon="0.30181">
        <ele>60.400001525879</ele>
        <time>2024-08-21T08:22:27.000Z</time>
      </trkpt>
      <trkpt lat="48.0096" lon="0.30116">
        <ele>60.200000762939</ele>
        <time>2024-08-21T08:22:36.000Z</time>
      </trkpt>
      <trkpt lat="48.00953" lon="0.30094">
        <ele>60</ele>
        <time>2024-08-21T08:22:39.000Z</time>
      </trkpt>
      <trkpt lat="48.00944" lon="0.30057">
        <ele>59.799999237061</ele>
        <time>2024-08-21T08:22:44.000Z</time>
      </trkpt>
      <trkpt lat="48.0094" lon="0.30042">
        <ele>59.799999237061</ele>
        <time>2024-08-21T08:22:46.000Z</time>
      </trkpt>
      <trkpt lat="48.00935" lon="0.30027">
        <ele>59.799999237061</ele>
        <time>2024-08-21T08:22:48.000Z</time>
      </trkpt>
      <trkpt lat="48.00933" lon="0.30019">
        <ele>59.599998474121</ele>
        <time>2024-08-21T08:22:49.000Z</time>
      </trkpt>
      <trkpt lat="48.00916" lon="0.2996">
        <ele>59.200000762939</ele>
        <time>2024-08-21T08:22:57.000Z</time>
      </trkpt>
      <trkpt lat="48.00914" lon="0.29953">
        <ele>59.200000762939</ele>
        <time>2024-08-21T08:22:58.000Z</time>
      </trkpt>
      <trkpt lat="48.00906" lon="0.29924">
        <ele>59.200000762939</ele>
        <time>2024-08-21T08:23:02.000Z</time>
      </trkpt>
      <trkpt lat="48.00899" lon="0.29901">
        <ele>59.200000762939</ele>
        <time>2024-08-21T08:23:05.000Z</time>
      </trkpt>
      <trkpt lat="48.00889" lon="0.29863">
        <ele>59.200000762939</ele>
        <time>2024-08-21T08:23:10.000Z</time>
      </trkpt>
      <trkpt lat="48.00887" lon="0.29849">
        <ele>59.400001525879</ele>
        <time>2024-08-21T08:23:12.000Z</time>
      </trkpt>
      <trkpt lat="48.00884" lon="0.29843">
        <ele>59.400001525879</ele>
        <time>2024-08-21T08:23:13.000Z</time>
      </trkpt>
      <trkpt lat="48.00878" lon="0.29827">
        <ele>59.200000762939</ele>
        <time>2024-08-21T08:23:16.000Z</time>
      </trkpt>
      <trkpt lat="48.00874" lon="0.29816">
        <ele>59.400001525879</ele>
        <time>2024-08-21T08:23:18.000Z</time>
      </trkpt>
      <trkpt lat="48.00868" lon="0.29791">
        <ele>59.599998474121</ele>
        <time>2024-08-21T08:23:22.000Z</time>
      </trkpt>
      <trkpt lat="48.00859" lon="0.29751">
        <ele>59.400001525879</ele>
        <time>2024-08-21T08:23:28.000Z</time>
      </trkpt>
      <trkpt lat="48.00852" lon="0.29726">
        <ele>59.799999237061</ele>
        <time>2024-08-21T08:23:33.000Z</time>
      </trkpt>
      <trkpt lat="48.00848" lon="0.29703">
        <ele>60</ele>
        <time>2024-08-21T08:23:37.000Z</time>
      </trkpt>
      <trkpt lat="48.00844" lon="0.29692">
        <ele>60</ele>
        <time>2024-08-21T08:23:39.000Z</time>
      </trkpt>
      <trkpt lat="48.00822" lon="0.29662">
        <ele>60</ele>
        <time>2024-08-21T08:23:45.000Z</time>
      </trkpt>
      <trkpt lat="48.00811" lon="0.29647">
        <ele>59.799999237061</ele>
        <time>2024-08-21T08:23:48.000Z</time>
      </trkpt>
      <trkpt lat="48.00797" lon="0.29627">
        <ele>59.799999237061</ele>
        <time>2024-08-21T08:23:52.000Z</time>
      </trkpt>
      <trkpt lat="48.00794" lon="0.29622">
        <ele>59.799999237061</ele>
        <time>2024-08-21T08:23:53.000Z</time>
      </trkpt>
      <trkpt lat="48.00781" lon="0.29595">
        <ele>59.400001525879</ele>
        <time>2024-08-21T08:23:57.000Z</time>
      </trkpt>
      <trkpt lat="48.00769" lon="0.29567">
        <ele>59.200000762939</ele>
        <time>2024-08-21T08:24:01.000Z</time>
      </trkpt>
      <trkpt lat="48.00764" lon="0.29551">
        <ele>59.200000762939</ele>
        <time>2024-08-21T08:24:03.000Z</time>
      </trkpt>
      <trkpt lat="48.00759" lon="0.29538">
        <ele>59.200000762939</ele>
        <time>2024-08-21T08:24:05.000Z</time>
      </trkpt>
      <trkpt lat="48.00754" lon="0.29524">
        <ele>59.200000762939</ele>
        <time>2024-08-21T08:24:07.000Z</time>
      </trkpt>
      <trkpt lat="48.00751" lon="0.29517">
        <ele>59.200000762939</ele>
        <time>2024-08-21T08:24:08.000Z</time>
      </trkpt>
      <trkpt lat="48.00746" lon="0.29502">
        <ele>59.400001525879</ele>
        <time>2024-08-21T08:24:10.000Z</time>
      </trkpt>
      <trkpt lat="48.00738" lon="0.29481">
        <ele>59.200000762939</ele>
        <time>2024-08-21T08:24:13.000Z</time>
      </trkpt>
      <trkpt lat="48.0072" lon="0.29434">
        <ele>59</ele>
        <time>2024-08-21T08:24:19.000Z</time>
      </trkpt>
      <trkpt lat="48.00716" lon="0.29426">
        <ele>59</ele>
        <time>2024-08-21T08:24:20.000Z</time>
      </trkpt>
      <trkpt lat="48.00695" lon="0.29358">
        <ele>59.200000762939</ele>
        <time>2024-08-21T08:24:29.000Z</time>
      </trkpt>
      <trkpt lat="48.00677" lon="0.29309">
        <ele>59</ele>
        <time>2024-08-21T08:24:36.000Z</time>
      </trkpt>
      <trkpt lat="48.00673" lon="0.29295">
        <ele>59</ele>
        <time>2024-08-21T08:24:38.000Z</time>
      </trkpt>
      <trkpt lat="48.00668" lon="0.29281">
        <ele>58.799999237061</ele>
        <time>2024-08-21T08:24:40.000Z</time>
      </trkpt>
      <trkpt lat="48.00664" lon="0.29267">
        <ele>58.799999237061</ele>
        <time>2024-08-21T08:24:42.000Z</time>
      </trkpt>
      <trkpt lat="48.00659" lon="0.29253">
        <ele>58.799999237061</ele>
        <time>2024-08-21T08:24:44.000Z</time>
      </trkpt>
      <trkpt lat="48.0065" lon="0.29225">
        <ele>59</ele>
        <time>2024-08-21T08:24:48.000Z</time>
      </trkpt>
      <trkpt lat="48.0063" lon="0.29165">
        <ele>58.799999237061</ele>
        <time>2024-08-21T08:24:56.000Z</time>
      </trkpt>
      <trkpt lat="48.00607" lon="0.29102">
        <ele>58.799999237061</ele>
        <time>2024-08-21T08:25:05.000Z</time>
      </trkpt>
      <trkpt lat="48.00584" lon="0.2904">
        <ele>59.200000762939</ele>
        <time>2024-08-21T08:25:14.000Z</time>
      </trkpt>
      <trkpt lat="48.00578" lon="0.29019">
        <ele>59.400001525879</ele>
        <time>2024-08-21T08:25:17.000Z</time>
      </trkpt>
      <trkpt lat="48.00556" lon="0.28953">
        <ele>58.799999237061</ele>
        <time>2024-08-21T08:25:26.000Z</time>
      </trkpt>
      <trkpt lat="48.00532" lon="0.28877">
        <ele>58.799999237061</ele>
        <time>2024-08-21T08:25:36.000Z</time>
      </trkpt>
      <trkpt lat="48.00529" lon="0.28869">
        <ele>58.799999237061</ele>
        <time>2024-08-21T08:25:37.000Z</time>
      </trkpt>
      <trkpt lat="48.00509" lon="0.28808">
        <ele>58.599998474121</ele>
        <time>2024-08-21T08:25:45.000Z</time>
      </trkpt>
      <trkpt lat="48.00502" lon="0.28784">
        <ele>58.599998474121</ele>
        <time>2024-08-21T08:25:48.000Z</time>
      </trkpt>
      <trkpt lat="48.00504" lon="0.28766">
        <ele>58.400001525879</ele>
        <time>2024-08-21T08:25:50.000Z</time>
      </trkpt>
      <trkpt lat="48.00511" lon="0.28751">
        <ele>58.400001525879</ele>
        <time>2024-08-21T08:25:52.000Z</time>
      </trkpt>
      <trkpt lat="48.00519" lon="0.28739">
        <ele>58.200000762939</ele>
        <time>2024-08-21T08:25:54.000Z</time>
      </trkpt>
      <trkpt lat="48.00555" lon="0.28689">
        <ele>58.200000762939</ele>
        <time>2024-08-21T08:26:02.000Z</time>
      </trkpt>
      <trkpt lat="48.00562" lon="0.28675">
        <ele>58.400001525879</ele>
        <time>2024-08-21T08:26:04.000Z</time>
      </trkpt>
      <trkpt lat="48.00565" lon="0.28658">
        <ele>58.400001525879</ele>
        <time>2024-08-21T08:26:06.000Z</time>
      </trkpt>
      <trkpt lat="48.00561" lon="0.28625">
        <ele>58.400001525879</ele>
        <time>2024-08-21T08:26:10.000Z</time>
      </trkpt>
      <trkpt lat="48.00558" lon="0.28611">
        <ele>58.200000762939</ele>
        <time>2024-08-21T08:26:12.000Z</time>
      </trkpt>
      <trkpt lat="48.00557" lon="0.28603">
        <ele>58.200000762939</ele>
        <time>2024-08-21T08:26:13.000Z</time>
      </trkpt>
      <trkpt lat="48.00552" lon="0.28588">
        <ele>58.200000762939</ele>
        <time>2024-08-21T08:26:15.000Z</time>
      </trkpt>
      <trkpt lat="48.00544" lon="0.28576">
        <ele>58.200000762939</ele>
        <time>2024-08-21T08:26:17.000Z</time>
      </trkpt>
      <trkpt lat="48.00534" lon="0.28568">
        <ele>58.200000762939</ele>
        <time>2024-08-21T08:26:19.000Z</time>
      </trkpt>
      <trkpt lat="48.00522" lon="0.28567">
        <ele>58.200000762939</ele>
        <time>2024-08-21T08:26:21.000Z</time>
      </trkpt>
      <trkpt lat="48.00487" lon="0.28576">
        <ele>58.400001525879</ele>
        <time>2024-08-21T08:26:27.000Z</time>
      </trkpt>
      <trkpt lat="48.00451" lon="0.28582">
        <ele>58.400001525879</ele>
        <time>2024-08-21T08:26:33.000Z</time>
      </trkpt>
      <trkpt lat="48.00445" lon="0.28581">
        <ele>58.400001525879</ele>
        <time>2024-08-21T08:26:34.000Z</time>
      </trkpt>
      <trkpt lat="48.00439" lon="0.28579">
        <ele>58.400001525879</ele>
        <time>2024-08-21T08:26:35.000Z</time>
      </trkpt>
      <trkpt lat="48.00429" lon="0.2857">
        <ele>58.400001525879</ele>
        <time>2024-08-21T08:26:37.000Z</time>
      </trkpt>
      <trkpt lat="48.00415" lon="0.28543">
        <ele>58.200000762939</ele>
        <time>2024-08-21T08:26:41.000Z</time>
      </trkpt>
      <trkpt lat="48.00411" lon="0.28535">
        <ele>58.200000762939</ele>
        <time>2024-08-21T08:26:42.000Z</time>
      </trkpt>
      <trkpt lat="48.00388" lon="0.28481">
        <ele>58.200000762939</ele>
        <time>2024-08-21T08:26:49.000Z</time>
      </trkpt>
      <trkpt lat="48.00368" lon="0.28433">
        <ele>58.200000762939</ele>
        <time>2024-08-21T08:26:55.000Z</time>
      </trkpt>
      <trkpt lat="48.00362" lon="0.28416">
        <ele>58.200000762939</ele>
        <time>2024-08-21T08:26:57.000Z</time>
      </trkpt>
      <trkpt lat="48.00343" lon="0.28371">
        <ele>58.400001525879</ele>
        <time>2024-08-21T08:27:03.000Z</time>
      </trkpt>
      <trkpt lat="48.00324" lon="0.28319">
        <ele>58.200000762939</ele>
        <time>2024-08-21T08:27:10.000Z</time>
      </trkpt>
      <trkpt lat="48.00303" lon="0.28264">
        <ele>57.799999237061</ele>
        <time>2024-08-21T08:27:17.000Z</time>
      </trkpt>
      <trkpt lat="48.00288" lon="0.28218">
        <ele>57.599998474121</ele>
        <time>2024-08-21T08:27:23.000Z</time>
      </trkpt>
      <trkpt lat="48.00282" lon="0.28196">
        <ele>57.799999237061</ele>
        <time>2024-08-21T08:27:26.000Z</time>
      </trkpt>
      <trkpt lat="48.00273" lon="0.28172">
        <ele>57.799999237061</ele>
        <time>2024-08-21T08:27:30.000Z</time>
      </trkpt>
      <trkpt lat="48.00267" lon="0.2815">
        <ele>57.599998474121</ele>
        <time>2024-08-21T08:27:33.000Z</time>
      </trkpt>
      <trkpt lat="48.00263" lon="0.28137">
        <ele>57.599998474121</ele>
        <time>2024-08-21T08:27:35.000Z</time>
      </trkpt>
      <trkpt lat="48.0026" lon="0.28131">
        <ele>57.599998474121</ele>
        <time>2024-08-21T08:27:36.000Z</time>
      </trkpt>
      <trkpt lat="48.00257" lon="0.28125">
        <ele>57.400001525879</ele>
        <time>2024-08-21T08:27:37.000Z</time>
      </trkpt>
      <trkpt lat="48.0025" lon="0.28112">
        <ele>57.200000762939</ele>
        <time>2024-08-21T08:27:40.000Z</time>
      </trkpt>
      <trkpt lat="48.00249" lon="0.28105">
        <ele>57.400001525879</ele>
        <time>2024-08-21T08:27:44.000Z</time>
      </trkpt>
      <trkpt lat="48.00249" lon="0.28105">
        <ele>57.599998474121</ele>
        <time>2024-08-21T08:27:45.000Z</time>
      </trkpt>
      <trkpt lat="48.0025" lon="0.28112">
        <ele>57.400001525879</ele>
        <time>2024-08-21T08:28:23.000Z</time>
      </trkpt>
      <trkpt lat="48.00252" lon="0.28115">
        <ele>57.599998474121</ele>
        <time>2024-08-21T08:28:25.000Z</time>
      </trkpt>
      <trkpt lat="48.00254" lon="0.28121">
        <ele>57.599998474121</ele>
        <time>2024-08-21T08:28:29.000Z</time>
      </trkpt>
      <trkpt lat="48.00253" lon="0.28119">
        <ele>57.599998474121</ele>
        <time>2024-08-21T08:28:30.000Z</time>
      </trkpt>
      <trkpt lat="48.00244" lon="0.28097">
        <ele>57.599998474121</ele>
        <time>2024-08-21T08:28:36.000Z</time>
      </trkpt>
      <trkpt lat="48.00234" lon="0.28071">
        <ele>57</ele>
        <time>2024-08-21T08:28:40.000Z</time>
      </trkpt>
      <trkpt lat="48.00231" lon="0.2806">
        <ele>56.799999237061</ele>
        <time>2024-08-21T08:28:42.000Z</time>
      </trkpt>
      <trkpt lat="48.00229" lon="0.28057">
        <ele>56.799999237061</ele>
        <time>2024-08-21T08:28:44.000Z</time>
      </trkpt>
      <trkpt lat="48.00236" lon="0.28074">
        <ele>56.400001525879</ele>
        <time>2024-08-21T08:28:49.000Z</time>
      </trkpt>
      <trkpt lat="48.00247" lon="0.281">
        <ele>56.599998474121</ele>
        <time>2024-08-21T08:28:54.000Z</time>
      </trkpt>
      <trkpt lat="48.00249" lon="0.28104">
        <ele>56.799999237061</ele>
        <time>2024-08-21T08:28:57.000Z</time>
      </trkpt>
      <trkpt lat="48.00244" lon="0.28097">
        <ele>58.799999237061</ele>
        <time>2024-08-21T08:30:23.000Z</time>
      </trkpt>
      <trkpt lat="48.00243" lon="0.2809">
        <ele>57.400001525879</ele>
        <time>2024-08-21T08:30:25.000Z</time>
      </trkpt>
      <trkpt lat="48.00232" lon="0.28064">
        <ele>57</ele>
        <time>2024-08-21T08:30:30.000Z</time>
      </trkpt>
      <trkpt lat="48.00221" lon="0.28036">
        <ele>56</ele>
        <time>2024-08-21T08:30:34.000Z</time>
      </trkpt>
      <trkpt lat="48.00218" lon="0.28029">
        <ele>55.799999237061</ele>
        <time>2024-08-21T08:30:35.000Z</time>
      </trkpt>
      <trkpt lat="48.00205" lon="0.28">
        <ele>55</ele>
        <time>2024-08-21T08:30:39.000Z</time>
      </trkpt>
      <trkpt lat="48.00202" lon="0.27992">
        <ele>54.799999237061</ele>
        <time>2024-08-21T08:30:40.000Z</time>
      </trkpt>
      <trkpt lat="48.00199" lon="0.27985">
        <ele>54.599998474121</ele>
        <time>2024-08-21T08:30:41.000Z</time>
      </trkpt>
      <trkpt lat="48.00172" lon="0.27926">
        <ele>54</ele>
        <time>2024-08-21T08:30:49.000Z</time>
      </trkpt>
      <trkpt lat="48.0017" lon="0.27917">
        <ele>54</ele>
        <time>2024-08-21T08:30:50.000Z</time>
      </trkpt>
      <trkpt lat="48.00168" lon="0.27896">
        <ele>54</ele>
        <time>2024-08-21T08:30:53.000Z</time>
      </trkpt>
      <trkpt lat="48.00161" lon="0.27887">
        <ele>54</ele>
        <time>2024-08-21T08:30:55.000Z</time>
      </trkpt>
      <trkpt lat="48.00151" lon="0.27885">
        <ele>54</ele>
        <time>2024-08-21T08:30:57.000Z</time>
      </trkpt>
      <trkpt lat="48.00145" lon="0.27884">
        <ele>53.799999237061</ele>
        <time>2024-08-21T08:30:58.000Z</time>
      </trkpt>
      <trkpt lat="48.0012" lon="0.27868">
        <ele>53</ele>
        <time>2024-08-21T08:31:02.000Z</time>
      </trkpt>
      <trkpt lat="48.00114" lon="0.27865">
        <ele>52.599998474121</ele>
        <time>2024-08-21T08:31:03.000Z</time>
      </trkpt>
      <trkpt lat="48.00086" lon="0.27849">
        <ele>51.599998474121</ele>
        <time>2024-08-21T08:31:08.000Z</time>
      </trkpt>
      <trkpt lat="48.0008" lon="0.27847">
        <ele>51.599998474121</ele>
        <time>2024-08-21T08:31:09.000Z</time>
      </trkpt>
      <trkpt lat="48.00068" lon="0.27845">
        <ele>51.200000762939</ele>
        <time>2024-08-21T08:31:11.000Z</time>
      </trkpt>
      <trkpt lat="48.00061" lon="0.27846">
        <ele>51.200000762939</ele>
        <time>2024-08-21T08:31:12.000Z</time>
      </trkpt>
      <trkpt lat="48.00049" lon="0.27846">
        <ele>51</ele>
        <time>2024-08-21T08:31:14.000Z</time>
      </trkpt>
      <trkpt lat="48.00039" lon="0.2784">
        <ele>50.799999237061</ele>
        <time>2024-08-21T08:31:16.000Z</time>
      </trkpt>
      <trkpt lat="48.00033" lon="0.27828">
        <ele>51.200000762939</ele>
        <time>2024-08-21T08:31:18.000Z</time>
      </trkpt>
      <trkpt lat="48.00029" lon="0.27815">
        <ele>51.200000762939</ele>
        <time>2024-08-21T08:31:20.000Z</time>
      </trkpt>
      <trkpt lat="48.00024" lon="0.27777">
        <ele>51.799999237061</ele>
        <time>2024-08-21T08:31:26.000Z</time>
      </trkpt>
      <trkpt lat="48.00021" lon="0.27757">
        <ele>52.400001525879</ele>
        <time>2024-08-21T08:31:29.000Z</time>
      </trkpt>
      <trkpt lat="48.0002" lon="0.27743">
        <ele>52.799999237061</ele>
        <time>2024-08-21T08:31:31.000Z</time>
      </trkpt>
      <trkpt lat="48.0002" lon="0.27722">
        <ele>53.400001525879</ele>
        <time>2024-08-21T08:31:34.000Z</time>
      </trkpt>
      <trkpt lat="48.00019" lon="0.27714">
        <ele>53.599998474121</ele>
        <time>2024-08-21T08:31:35.000Z</time>
      </trkpt>
      <trkpt lat="48.00016" lon="0.27703">
        <ele>53.799999237061</ele>
        <time>2024-08-21T08:31:36.000Z</time>
      </trkpt>
      <trkpt lat="48.00011" lon="0.27651">
        <ele>53.799999237061</ele>
        <time>2024-08-21T08:31:42.000Z</time>
      </trkpt>
      <trkpt lat="48.00008" lon="0.27607">
        <ele>53.599998474121</ele>
        <time>2024-08-21T08:31:46.000Z</time>
      </trkpt>
      <trkpt lat="48.00008" lon="0.27553">
        <ele>53.400001525879</ele>
        <time>2024-08-21T08:31:52.000Z</time>
      </trkpt>
      <trkpt lat="48.00004" lon="0.27481">
        <ele>53.799999237061</ele>
        <time>2024-08-21T08:32:01.000Z</time>
      </trkpt>
      <trkpt lat="48" lon="0.2743">
        <ele>53.799999237061</ele>
        <time>2024-08-21T08:32:07.000Z</time>
      </trkpt>
      <trkpt lat="47.99999" lon="0.27423">
        <ele>53.799999237061</ele>
        <time>2024-08-21T08:32:08.000Z</time>
      </trkpt>
      <trkpt lat="47.99998" lon="0.27395">
        <ele>53.599998474121</ele>
        <time>2024-08-21T08:32:12.000Z</time>
      </trkpt>
      <trkpt lat="47.99998" lon="0.27387">
        <ele>53.599998474121</ele>
        <time>2024-08-21T08:32:13.000Z</time>
      </trkpt>
      <trkpt lat="47.99996" lon="0.27357">
        <ele>53.599998474121</ele>
        <time>2024-08-21T08:32:17.000Z</time>
      </trkpt>
      <trkpt lat="47.99995" lon="0.27351">
        <ele>53.799999237061</ele>
        <time>2024-08-21T08:32:18.000Z</time>
      </trkpt>
      <trkpt lat="47.99993" lon="0.27302">
        <ele>54</ele>
        <time>2024-08-21T08:32:25.000Z</time>
      </trkpt>
      <trkpt lat="47.99992" lon="0.27284">
        <ele>54.200000762939</ele>
        <time>2024-08-21T08:32:27.000Z</time>
      </trkpt>
      <trkpt lat="47.99992" lon="0.27263">
        <ele>54.200000762939</ele>
        <time>2024-08-21T08:32:30.000Z</time>
      </trkpt>
      <trkpt lat="47.99989" lon="0.27214">
        <ele>54.400001525879</ele>
        <time>2024-08-21T08:32:35.000Z</time>
      </trkpt>
      <trkpt lat="47.99989" lon="0.27206">
        <ele>54.400001525879</ele>
        <time>2024-08-21T08:32:36.000Z</time>
      </trkpt>
      <trkpt lat="47.99987" lon="0.27152">
        <ele>54.400001525879</ele>
        <time>2024-08-21T08:32:42.000Z</time>
      </trkpt>
      <trkpt lat="47.99986" lon="0.27143">
        <ele>54.400001525879</ele>
        <time>2024-08-21T08:32:43.000Z</time>
      </trkpt>
      <trkpt lat="47.99981" lon="0.27111">
        <ele>54.200000762939</ele>
        <time>2024-08-21T08:32:46.000Z</time>
      </trkpt>
      <trkpt lat="47.99978" lon="0.27081">
        <ele>54</ele>
        <time>2024-08-21T08:32:49.000Z</time>
      </trkpt>
      <trkpt lat="47.9998" lon="0.27074">
        <ele>53.799999237061</ele>
        <time>2024-08-21T08:32:50.000Z</time>
      </trkpt>
      <trkpt lat="47.99978" lon="0.27062">
        <ele>53.799999237061</ele>
        <time>2024-08-21T08:32:51.000Z</time>
      </trkpt>
      <trkpt lat="47.9998" lon="0.27043">
        <ele>53.400001525879</ele>
        <time>2024-08-21T08:32:53.000Z</time>
      </trkpt>
      <trkpt lat="47.99978" lon="0.27034">
        <ele>53.400001525879</ele>
        <time>2024-08-21T08:32:54.000Z</time>
      </trkpt>
      <trkpt lat="47.99978" lon="0.27027">
        <ele>53.200000762939</ele>
        <time>2024-08-21T08:32:55.000Z</time>
      </trkpt>
      <trkpt lat="47.99971" lon="0.26994">
        <ele>52.400001525879</ele>
        <time>2024-08-21T08:32:59.000Z</time>
      </trkpt>
      <trkpt lat="47.99967" lon="0.26974">
        <ele>52.400001525879</ele>
        <time>2024-08-21T08:33:01.000Z</time>
      </trkpt>
      <trkpt lat="47.9996" lon="0.26952">
        <ele>52.200000762939</ele>
        <time>2024-08-21T08:33:04.000Z</time>
      </trkpt>
      <trkpt lat="47.99952" lon="0.26939">
        <ele>52.200000762939</ele>
        <time>2024-08-21T08:33:06.000Z</time>
      </trkpt>
      <trkpt lat="47.99938" lon="0.26916">
        <ele>52.400001525879</ele>
        <time>2024-08-21T08:33:09.000Z</time>
      </trkpt>
      <trkpt lat="47.99931" lon="0.26903">
        <ele>52.799999237061</ele>
        <time>2024-08-21T08:33:11.000Z</time>
      </trkpt>
      <trkpt lat="47.99925" lon="0.26892">
        <ele>53.200000762939</ele>
        <time>2024-08-21T08:33:14.000Z</time>
      </trkpt>
      <trkpt lat="47.99909" lon="0.2687">
        <ele>54</ele>
        <time>2024-08-21T08:33:20.000Z</time>
      </trkpt>
      <trkpt lat="47.99904" lon="0.26863">
        <ele>54.200000762939</ele>
        <time>2024-08-21T08:33:22.000Z</time>
      </trkpt>
      <trkpt lat="47.99892" lon="0.26847">
        <ele>54.400001525879</ele>
        <time>2024-08-21T08:33:26.000Z</time>
      </trkpt>
      <trkpt lat="47.99872" lon="0.26816">
        <ele>54.799999237061</ele>
        <time>2024-08-21T08:33:31.000Z</time>
      </trkpt>
      <trkpt lat="47.99865" lon="0.26803">
        <ele>55</ele>
        <time>2024-08-21T08:33:33.000Z</time>
      </trkpt>
      <trkpt lat="47.99847" lon="0.26773">
        <ele>55.200000762939</ele>
        <time>2024-08-21T08:33:37.000Z</time>
      </trkpt>
      <trkpt lat="47.99836" lon="0.26752">
        <ele>55.400001525879</ele>
        <time>2024-08-21T08:33:40.000Z</time>
      </trkpt>
      <trkpt lat="47.99811" lon="0.26717">
        <ele>55.599998474121</ele>
        <time>2024-08-21T08:33:46.000Z</time>
      </trkpt>
      <trkpt lat="47.99772" lon="0.26658">
        <ele>55.599998474121</ele>
        <time>2024-08-21T08:33:56.000Z</time>
      </trkpt>
      <trkpt lat="47.99768" lon="0.26652">
        <ele>55.599998474121</ele>
        <time>2024-08-21T08:33:57.000Z</time>
      </trkpt>
      <trkpt lat="47.9972" lon="0.26578">
        <ele>55.400001525879</ele>
        <time>2024-08-21T08:34:09.000Z</time>
      </trkpt>
      <trkpt lat="47.99716" lon="0.26572">
        <ele>55.599998474121</ele>
        <time>2024-08-21T08:34:10.000Z</time>
      </trkpt>
      <trkpt lat="47.99677" lon="0.26509">
        <ele>55.400001525879</ele>
        <time>2024-08-21T08:34:21.000Z</time>
      </trkpt>
      <trkpt lat="47.99659" lon="0.26482">
        <ele>54.799999237061</ele>
        <time>2024-08-21T08:34:24.000Z</time>
      </trkpt>
      <trkpt lat="47.99645" lon="0.26461">
        <ele>54.200000762939</ele>
        <time>2024-08-21T08:34:27.000Z</time>
      </trkpt>
      <trkpt lat="47.9964" lon="0.26455">
        <ele>54.200000762939</ele>
        <time>2024-08-21T08:34:28.000Z</time>
      </trkpt>
      <trkpt lat="47.99631" lon="0.26441">
        <ele>53.599998474121</ele>
        <time>2024-08-21T08:34:30.000Z</time>
      </trkpt>
      <trkpt lat="47.99618" lon="0.26419">
        <ele>52.599998474121</ele>
        <time>2024-08-21T08:34:33.000Z</time>
      </trkpt>
      <trkpt lat="47.996" lon="0.26394">
        <ele>52.599998474121</ele>
        <time>2024-08-21T08:34:37.000Z</time>
      </trkpt>
      <trkpt lat="47.99578" lon="0.26359">
        <ele>53.400001525879</ele>
        <time>2024-08-21T08:34:43.000Z</time>
      </trkpt>
      <trkpt lat="47.99568" lon="0.26343">
        <ele>54.200000762939</ele>
        <time>2024-08-21T08:34:46.000Z</time>
      </trkpt>
      <trkpt lat="47.99547" lon="0.26311">
        <ele>55</ele>
        <time>2024-08-21T08:34:52.000Z</time>
      </trkpt>
      <trkpt lat="47.99544" lon="0.26306">
        <ele>55.200000762939</ele>
        <time>2024-08-21T08:34:53.000Z</time>
      </trkpt>
      <trkpt lat="47.99528" lon="0.26281">
        <ele>55.599998474121</ele>
        <time>2024-08-21T08:34:58.000Z</time>
      </trkpt>
      <trkpt lat="47.99522" lon="0.26271">
        <ele>55.599998474121</ele>
        <time>2024-08-21T08:35:00.000Z</time>
      </trkpt>
      <trkpt lat="47.99519" lon="0.2626">
        <ele>56</ele>
        <time>2024-08-21T08:35:02.000Z</time>
      </trkpt>
      <trkpt lat="47.99522" lon="0.2625">
        <ele>56.200000762939</ele>
        <time>2024-08-21T08:35:04.000Z</time>
      </trkpt>
      <trkpt lat="47.99526" lon="0.26247">
        <ele>56.400001525879</ele>
        <time>2024-08-21T08:35:05.000Z</time>
      </trkpt>
      <trkpt lat="47.99544" lon="0.2623">
        <ele>56</ele>
        <time>2024-08-21T08:35:09.000Z</time>
      </trkpt>
      <trkpt lat="47.99577" lon="0.26201">
        <ele>55.400001525879</ele>
        <time>2024-08-21T08:35:15.000Z</time>
      </trkpt>
      <trkpt lat="47.99589" lon="0.2619">
        <ele>55</ele>
        <time>2024-08-21T08:35:17.000Z</time>
      </trkpt>
      <trkpt lat="47.99613" lon="0.26167">
        <ele>53.599998474121</ele>
        <time>2024-08-21T08:35:21.000Z</time>
      </trkpt>
      <trkpt lat="47.99618" lon="0.26161">
        <ele>53.200000762939</ele>
        <time>2024-08-21T08:35:22.000Z</time>
      </trkpt>
      <trkpt lat="47.9963" lon="0.26149">
        <ele>52.400001525879</ele>
        <time>2024-08-21T08:35:24.000Z</time>
      </trkpt>
      <trkpt lat="47.99653" lon="0.26124">
        <ele>51.599998474121</ele>
        <time>2024-08-21T08:35:28.000Z</time>
      </trkpt>
      <trkpt lat="47.9966" lon="0.26118">
        <ele>51</ele>
        <time>2024-08-21T08:35:29.000Z</time>
      </trkpt>
      <trkpt lat="47.99685" lon="0.26096">
        <ele>49.799999237061</ele>
        <time>2024-08-21T08:35:33.000Z</time>
      </trkpt>
      <trkpt lat="47.99698" lon="0.26084">
        <ele>49.200000762939</ele>
        <time>2024-08-21T08:35:35.000Z</time>
      </trkpt>
      <trkpt lat="47.99727" lon="0.26058">
        <ele>48.799999237061</ele>
        <time>2024-08-21T08:35:40.000Z</time>
      </trkpt>
      <trkpt lat="47.99732" lon="0.26053">
        <ele>48.799999237061</ele>
        <time>2024-08-21T08:35:41.000Z</time>
      </trkpt>
      <trkpt lat="47.99757" lon="0.26029">
        <ele>48.599998474121</ele>
        <time>2024-08-21T08:35:45.000Z</time>
      </trkpt>
      <trkpt lat="47.99793" lon="0.25999">
        <ele>48.400001525879</ele>
        <time>2024-08-21T08:35:51.000Z</time>
      </trkpt>
      <trkpt lat="47.99818" lon="0.25982">
        <ele>48.200000762939</ele>
        <time>2024-08-21T08:35:54.000Z</time>
      </trkpt>
      <trkpt lat="47.99826" lon="0.2598">
        <ele>48.200000762939</ele>
        <time>2024-08-21T08:35:55.000Z</time>
      </trkpt>
      <trkpt lat="47.99833" lon="0.25978">
        <ele>48.200000762939</ele>
        <time>2024-08-21T08:35:56.000Z</time>
      </trkpt>
      <trkpt lat="47.99856" lon="0.25978">
        <ele>48</ele>
        <time>2024-08-21T08:35:59.000Z</time>
      </trkpt>
      <trkpt lat="47.99863" lon="0.25978">
        <ele>48</ele>
        <time>2024-08-21T08:36:00.000Z</time>
      </trkpt>
      <trkpt lat="47.99869" lon="0.25975">
        <ele>47.799999237061</ele>
        <time>2024-08-21T08:36:01.000Z</time>
      </trkpt>
      <trkpt lat="47.99875" lon="0.2597">
        <ele>47.599998474121</ele>
        <time>2024-08-21T08:36:02.000Z</time>
      </trkpt>
      <trkpt lat="47.9991" lon="0.25942">
        <ele>46.799999237061</ele>
        <time>2024-08-21T08:36:08.000Z</time>
      </trkpt>
      <trkpt lat="47.99915" lon="0.25936">
        <ele>46.599998474121</ele>
        <time>2024-08-21T08:36:09.000Z</time>
      </trkpt>
      <trkpt lat="47.99957" lon="0.25882">
        <ele>46.200000762939</ele>
        <time>2024-08-21T08:36:17.000Z</time>
      </trkpt>
      <trkpt lat="47.99961" lon="0.25875">
        <ele>46.200000762939</ele>
        <time>2024-08-21T08:36:18.000Z</time>
      </trkpt>
      <trkpt lat="47.99988" lon="0.25839">
        <ele>46</ele>
        <time>2024-08-21T08:36:23.000Z</time>
      </trkpt>
      <trkpt lat="47.99992" lon="0.25831">
        <ele>46</ele>
        <time>2024-08-21T08:36:24.000Z</time>
      </trkpt>
      <trkpt lat="47.99995" lon="0.25822">
        <ele>46</ele>
        <time>2024-08-21T08:36:25.000Z</time>
      </trkpt>
      <trkpt lat="48.00003" lon="0.25795">
        <ele>45.799999237061</ele>
        <time>2024-08-21T08:36:28.000Z</time>
      </trkpt>
      <trkpt lat="48.00006" lon="0.25786">
        <ele>45.599998474121</ele>
        <time>2024-08-21T08:36:29.000Z</time>
      </trkpt>
      <trkpt lat="48.00021" lon="0.25751">
        <ele>45.200000762939</ele>
        <time>2024-08-21T08:36:33.000Z</time>
      </trkpt>
      <trkpt lat="48.00024" lon="0.25743">
        <ele>45.200000762939</ele>
        <time>2024-08-21T08:36:34.000Z</time>
      </trkpt>
      <trkpt lat="48.0003" lon="0.25727">
        <ele>45.200000762939</ele>
        <time>2024-08-21T08:36:36.000Z</time>
      </trkpt>
      <trkpt lat="48.00034" lon="0.25719">
        <ele>45.200000762939</ele>
        <time>2024-08-21T08:36:37.000Z</time>
      </trkpt>
      <trkpt lat="48.00037" lon="0.25711">
        <ele>45.400001525879</ele>
        <time>2024-08-21T08:36:38.000Z</time>
      </trkpt>
      <trkpt lat="48.00047" lon="0.25697">
        <ele>45.599998474121</ele>
        <time>2024-08-21T08:36:40.000Z</time>
      </trkpt>
      <trkpt lat="48.00052" lon="0.25691">
        <ele>45.799999237061</ele>
        <time>2024-08-21T08:36:41.000Z</time>
      </trkpt>
      <trkpt lat="48.0008" lon="0.25665">
        <ele>45.799999237061</ele>
        <time>2024-08-21T08:36:47.000Z</time>
      </trkpt>
      <trkpt lat="48.00109" lon="0.25641">
        <ele>45.799999237061</ele>
        <time>2024-08-21T08:36:52.000Z</time>
      </trkpt>
      <trkpt lat="48.00123" lon="0.2562">
        <ele>45.799999237061</ele>
        <time>2024-08-21T08:36:55.000Z</time>
      </trkpt>
      <trkpt lat="48.00125" lon="0.25612">
        <ele>45.799999237061</ele>
        <time>2024-08-21T08:36:56.000Z</time>
      </trkpt>
      <trkpt lat="48.00127" lon="0.25604">
        <ele>45.799999237061</ele>
        <time>2024-08-21T08:36:57.000Z</time>
      </trkpt>
      <trkpt lat="48.00126" lon="0.25588">
        <ele>45.799999237061</ele>
        <time>2024-08-21T08:36:59.000Z</time>
      </trkpt>
      <trkpt lat="48.00125" lon="0.2558">
        <ele>45.799999237061</ele>
        <time>2024-08-21T08:37:00.000Z</time>
      </trkpt>
      <trkpt lat="48.00115" lon="0.25537">
        <ele>45.599998474121</ele>
        <time>2024-08-21T08:37:05.000Z</time>
      </trkpt>
      <trkpt lat="48.00107" lon="0.25503">
        <ele>45.400001525879</ele>
        <time>2024-08-21T08:37:09.000Z</time>
      </trkpt>
      <trkpt lat="48.00103" lon="0.25496">
        <ele>45.200000762939</ele>
        <time>2024-08-21T08:37:10.000Z</time>
      </trkpt>
      <trkpt lat="48.001" lon="0.25489">
        <ele>45.200000762939</ele>
        <time>2024-08-21T08:37:11.000Z</time>
      </trkpt>
      <trkpt lat="48.00083" lon="0.25462">
        <ele>45.400001525879</ele>
        <time>2024-08-21T08:37:15.000Z</time>
      </trkpt>
      <trkpt lat="48.00077" lon="0.25448">
        <ele>45.200000762939</ele>
        <time>2024-08-21T08:37:17.000Z</time>
      </trkpt>
      <trkpt lat="48.00071" lon="0.25425">
        <ele>45.400001525879</ele>
        <time>2024-08-21T08:37:20.000Z</time>
      </trkpt>
      <trkpt lat="48.00057" lon="0.25378">
        <ele>45.400001525879</ele>
        <time>2024-08-21T08:37:26.000Z</time>
      </trkpt>
      <trkpt lat="48.00048" lon="0.25356">
        <ele>45.200000762939</ele>
        <time>2024-08-21T08:37:29.000Z</time>
      </trkpt>
      <trkpt lat="48.00039" lon="0.25343">
        <ele>45.200000762939</ele>
        <time>2024-08-21T08:37:31.000Z</time>
      </trkpt>
      <trkpt lat="48.00018" lon="0.25326">
        <ele>45</ele>
        <time>2024-08-21T08:37:35.000Z</time>
      </trkpt>
      <trkpt lat="48.00007" lon="0.25318">
        <ele>44.799999237061</ele>
        <time>2024-08-21T08:37:37.000Z</time>
      </trkpt>
      <trkpt lat="47.99997" lon="0.25311">
        <ele>45</ele>
        <time>2024-08-21T08:37:39.000Z</time>
      </trkpt>
      <trkpt lat="47.99993" lon="0.25306">
        <ele>45</ele>
        <time>2024-08-21T08:37:40.000Z</time>
      </trkpt>
      <trkpt lat="47.9999" lon="0.25299">
        <ele>45</ele>
        <time>2024-08-21T08:37:41.000Z</time>
      </trkpt>
      <trkpt lat="47.9999" lon="0.25282">
        <ele>45</ele>
        <time>2024-08-21T08:37:43.000Z</time>
      </trkpt>
      <trkpt lat="47.99993" lon="0.25253">
        <ele>45.400001525879</ele>
        <time>2024-08-21T08:37:46.000Z</time>
      </trkpt>
      <trkpt lat="47.99986" lon="0.25221">
        <ele>45.400001525879</ele>
        <time>2024-08-21T08:37:50.000Z</time>
      </trkpt>
      <trkpt lat="47.99976" lon="0.25176">
        <ele>45.599998474121</ele>
        <time>2024-08-21T08:37:56.000Z</time>
      </trkpt>
      <trkpt lat="47.99974" lon="0.25168">
        <ele>45.599998474121</ele>
        <time>2024-08-21T08:37:57.000Z</time>
      </trkpt>
      <trkpt lat="47.99952" lon="0.25127">
        <ele>45.400001525879</ele>
        <time>2024-08-21T08:38:03.000Z</time>
      </trkpt>
      <trkpt lat="47.99938" lon="0.2511">
        <ele>45.200000762939</ele>
        <time>2024-08-21T08:38:06.000Z</time>
      </trkpt>
      <trkpt lat="47.99929" lon="0.251">
        <ele>45.200000762939</ele>
        <time>2024-08-21T08:38:08.000Z</time>
      </trkpt>
      <trkpt lat="47.99929" lon="0.251">
        <ele>45.200000762939</ele>
        <time>2024-08-21T08:38:09.000Z</time>
      </trkpt>
      <trkpt lat="47.99912" lon="0.25079">
        <ele>45.200000762939</ele>
        <time>2024-08-21T08:38:12.000Z</time>
      </trkpt>
      <trkpt lat="47.99902" lon="0.25069">
        <ele>45.200000762939</ele>
        <time>2024-08-21T08:38:14.000Z</time>
      </trkpt>
      <trkpt lat="47.99877" lon="0.25041">
        <ele>45.400001525879</ele>
        <time>2024-08-21T08:38:19.000Z</time>
      </trkpt>
      <trkpt lat="47.9986" lon="0.25027">
        <ele>45.400001525879</ele>
        <time>2024-08-21T08:38:22.000Z</time>
      </trkpt>
      <trkpt lat="47.9985" lon="0.25019">
        <ele>45.400001525879</ele>
        <time>2024-08-21T08:38:24.000Z</time>
      </trkpt>
      <trkpt lat="47.9984" lon="0.25015">
        <ele>45.400001525879</ele>
        <time>2024-08-21T08:38:26.000Z</time>
      </trkpt>
      <trkpt lat="47.9983" lon="0.25005">
        <ele>45.400001525879</ele>
        <time>2024-08-21T08:38:28.000Z</time>
      </trkpt>
      <trkpt lat="47.99826" lon="0.24997">
        <ele>45.400001525879</ele>
        <time>2024-08-21T08:38:29.000Z</time>
      </trkpt>
      <trkpt lat="47.99822" lon="0.24991">
        <ele>45.400001525879</ele>
        <time>2024-08-21T08:38:30.000Z</time>
      </trkpt>
      <trkpt lat="47.99804" lon="0.24969">
        <ele>45.400001525879</ele>
        <time>2024-08-21T08:38:34.000Z</time>
      </trkpt>
      <trkpt lat="47.99762" lon="0.24929">
        <ele>45.400001525879</ele>
        <time>2024-08-21T08:38:43.000Z</time>
      </trkpt>
      <trkpt lat="47.99751" lon="0.2492">
        <ele>45.400001525879</ele>
        <time>2024-08-21T08:38:45.000Z</time>
      </trkpt>
      <trkpt lat="47.99731" lon="0.24904">
        <ele>45.200000762939</ele>
        <time>2024-08-21T08:38:49.000Z</time>
      </trkpt>
      <trkpt lat="47.99699" lon="0.24869">
        <ele>44.799999237061</ele>
        <time>2024-08-21T08:38:56.000Z</time>
      </trkpt>
      <trkpt lat="47.99665" lon="0.24823">
        <ele>44.599998474121</ele>
        <time>2024-08-21T08:39:04.000Z</time>
      </trkpt>
      <trkpt lat="47.99635" lon="0.24763">
        <ele>44.599998474121</ele>
        <time>2024-08-21T08:39:13.000Z</time>
      </trkpt>
      <trkpt lat="47.99616" lon="0.24701">
        <ele>44.799999237061</ele>
        <time>2024-08-21T08:39:22.000Z</time>
      </trkpt>
      <trkpt lat="47.99594" lon="0.24622">
        <ele>44.599998474121</ele>
        <time>2024-08-21T08:39:31.000Z</time>
      </trkpt>
      <trkpt lat="47.99592" lon="0.24615">
        <ele>44.599998474121</ele>
        <time>2024-08-21T08:39:32.000Z</time>
      </trkpt>
      <trkpt lat="47.9959" lon="0.24607">
        <ele>44.599998474121</ele>
        <time>2024-08-21T08:39:33.000Z</time>
      </trkpt>
      <trkpt lat="47.9959" lon="0.24592">
        <ele>44.599998474121</ele>
        <time>2024-08-21T08:39:35.000Z</time>
      </trkpt>
      <trkpt lat="47.9959" lon="0.24576">
        <ele>44.799999237061</ele>
        <time>2024-08-21T08:39:37.000Z</time>
      </trkpt>
      <trkpt lat="47.99587" lon="0.24553">
        <ele>44.799999237061</ele>
        <time>2024-08-21T08:39:40.000Z</time>
      </trkpt>
      <trkpt lat="47.99577" lon="0.24488">
        <ele>44.799999237061</ele>
        <time>2024-08-21T08:39:48.000Z</time>
      </trkpt>
      <trkpt lat="47.9956" lon="0.24405">
        <ele>44.799999237061</ele>
        <time>2024-08-21T08:39:58.000Z</time>
      </trkpt>
      <trkpt lat="47.99557" lon="0.24389">
        <ele>44.799999237061</ele>
        <time>2024-08-21T08:40:00.000Z</time>
      </trkpt>
      <trkpt lat="47.99548" lon="0.24359">
        <ele>45</ele>
        <time>2024-08-21T08:40:04.000Z</time>
      </trkpt>
      <trkpt lat="47.99544" lon="0.24353">
        <ele>45</ele>
        <time>2024-08-21T08:40:05.000Z</time>
      </trkpt>
      <trkpt lat="47.99539" lon="0.24347">
        <ele>45.200000762939</ele>
        <time>2024-08-21T08:40:06.000Z</time>
      </trkpt>
      <trkpt lat="47.9953" lon="0.24336">
        <ele>45.200000762939</ele>
        <time>2024-08-21T08:40:08.000Z</time>
      </trkpt>
      <trkpt lat="47.99522" lon="0.24323">
        <ele>45.200000762939</ele>
        <time>2024-08-21T08:40:10.000Z</time>
      </trkpt>
      <trkpt lat="47.99496" lon="0.24266">
        <ele>44.799999237061</ele>
        <time>2024-08-21T08:40:18.000Z</time>
      </trkpt>
      <trkpt lat="47.99491" lon="0.24258">
        <ele>44.799999237061</ele>
        <time>2024-08-21T08:40:19.000Z</time>
      </trkpt>
      <trkpt lat="47.99476" lon="0.24244">
        <ele>44.799999237061</ele>
        <time>2024-08-21T08:40:22.000Z</time>
      </trkpt>
      <trkpt lat="47.99471" lon="0.2424">
        <ele>45</ele>
        <time>2024-08-21T08:40:23.000Z</time>
      </trkpt>
      <trkpt lat="47.99449" lon="0.24226">
        <ele>45</ele>
        <time>2024-08-21T08:40:27.000Z</time>
      </trkpt>
      <trkpt lat="47.99443" lon="0.2422">
        <ele>45</ele>
        <time>2024-08-21T08:40:28.000Z</time>
      </trkpt>
      <trkpt lat="47.99434" lon="0.2421">
        <ele>45</ele>
        <time>2024-08-21T08:40:30.000Z</time>
      </trkpt>
      <trkpt lat="47.99429" lon="0.24206">
        <ele>45</ele>
        <time>2024-08-21T08:40:31.000Z</time>
      </trkpt>
      <trkpt lat="47.99406" lon="0.24178">
        <ele>44.599998474121</ele>
        <time>2024-08-21T08:40:36.000Z</time>
      </trkpt>
      <trkpt lat="47.99403" lon="0.24172">
        <ele>44.799999237061</ele>
        <time>2024-08-21T08:40:37.000Z</time>
      </trkpt>
      <trkpt lat="47.99399" lon="0.24164">
        <ele>44.799999237061</ele>
        <time>2024-08-21T08:40:38.000Z</time>
      </trkpt>
      <trkpt lat="47.99381" lon="0.24143">
        <ele>44.799999237061</ele>
        <time>2024-08-21T08:40:42.000Z</time>
      </trkpt>
      <trkpt lat="47.99368" lon="0.24133">
        <ele>45</ele>
        <time>2024-08-21T08:40:44.000Z</time>
      </trkpt>
      <trkpt lat="47.99351" lon="0.24126">
        <ele>45</ele>
        <time>2024-08-21T08:40:47.000Z</time>
      </trkpt>
      <trkpt lat="47.99345" lon="0.24125">
        <ele>45</ele>
        <time>2024-08-21T08:40:48.000Z</time>
      </trkpt>
      <trkpt lat="47.99321" lon="0.24119">
        <ele>44.400001525879</ele>
        <time>2024-08-21T08:40:52.000Z</time>
      </trkpt>
      <trkpt lat="47.99298" lon="0.24113">
        <ele>44.200000762939</ele>
        <time>2024-08-21T08:40:56.000Z</time>
      </trkpt>
      <trkpt lat="47.99289" lon="0.24109">
        <ele>44.200000762939</ele>
        <time>2024-08-21T08:40:58.000Z</time>
      </trkpt>
      <trkpt lat="47.9928" lon="0.241">
        <ele>44.200000762939</ele>
        <time>2024-08-21T08:41:00.000Z</time>
      </trkpt>
      <trkpt lat="47.99267" lon="0.24086">
        <ele>44.200000762939</ele>
        <time>2024-08-21T08:41:03.000Z</time>
      </trkpt>
      <trkpt lat="47.99262" lon="0.24075">
        <ele>44.200000762939</ele>
        <time>2024-08-21T08:41:05.000Z</time>
      </trkpt>
      <trkpt lat="47.99258" lon="0.24055">
        <ele>44.599998474121</ele>
        <time>2024-08-21T08:41:08.000Z</time>
      </trkpt>
      <trkpt lat="47.99256" lon="0.24043">
        <ele>45.200000762939</ele>
        <time>2024-08-21T08:41:10.000Z</time>
      </trkpt>
      <trkpt lat="47.99255" lon="0.2402">
        <ele>45.400001525879</ele>
        <time>2024-08-21T08:41:13.000Z</time>
      </trkpt>
      <trkpt lat="47.99252" lon="0.24006">
        <ele>45.400001525879</ele>
        <time>2024-08-21T08:41:15.000Z</time>
      </trkpt>
      <trkpt lat="47.99239" lon="0.23957">
        <ele>44.799999237061</ele>
        <time>2024-08-21T08:41:21.000Z</time>
      </trkpt>
      <trkpt lat="47.99234" lon="0.23938">
        <ele>44.599998474121</ele>
        <time>2024-08-21T08:41:23.000Z</time>
      </trkpt>
      <trkpt lat="47.9923" lon="0.2392">
        <ele>44.400001525879</ele>
        <time>2024-08-21T08:41:25.000Z</time>
      </trkpt>
      <trkpt lat="47.99221" lon="0.23904">
        <ele>44.200000762939</ele>
        <time>2024-08-21T08:41:27.000Z</time>
      </trkpt>
      <trkpt lat="47.99206" lon="0.239">
        <ele>44.200000762939</ele>
        <time>2024-08-21T08:41:29.000Z</time>
      </trkpt>
      <trkpt lat="47.99202" lon="0.23901">
        <ele>44.200000762939</ele>
        <time>2024-08-21T08:41:30.000Z</time>
      </trkpt>
      <trkpt lat="47.99185" lon="0.23907">
        <ele>44.200000762939</ele>
        <time>2024-08-21T08:41:33.000Z</time>
      </trkpt>
      <trkpt lat="47.99173" lon="0.23912">
        <ele>44.200000762939</ele>
        <time>2024-08-21T08:41:35.000Z</time>
      </trkpt>
      <trkpt lat="47.99168" lon="0.23914">
        <ele>44.200000762939</ele>
        <time>2024-08-21T08:41:36.000Z</time>
      </trkpt>
      <trkpt lat="47.99157" lon="0.23916">
        <ele>44</ele>
        <time>2024-08-21T08:41:38.000Z</time>
      </trkpt>
      <trkpt lat="47.99136" lon="0.23915">
        <ele>43.799999237061</ele>
        <time>2024-08-21T08:41:42.000Z</time>
      </trkpt>
      <trkpt lat="47.99127" lon="0.23912">
        <ele>43.799999237061</ele>
        <time>2024-08-21T08:41:44.000Z</time>
      </trkpt>
      <trkpt lat="47.99111" lon="0.23901">
        <ele>43.599998474121</ele>
        <time>2024-08-21T08:41:47.000Z</time>
      </trkpt>
      <trkpt lat="47.99103" lon="0.23894">
        <ele>43.599998474121</ele>
        <time>2024-08-21T08:41:49.000Z</time>
      </trkpt>
      <trkpt lat="47.99095" lon="0.23891">
        <ele>43.799999237061</ele>
        <time>2024-08-21T08:41:51.000Z</time>
      </trkpt>
      <trkpt lat="47.99091" lon="0.23889">
        <ele>43.799999237061</ele>
        <time>2024-08-21T08:41:52.000Z</time>
      </trkpt>
      <trkpt lat="47.99083" lon="0.23893">
        <ele>44.200000762939</ele>
        <time>2024-08-21T08:41:54.000Z</time>
      </trkpt>
      <trkpt lat="47.99081" lon="0.23903">
        <ele>45</ele>
        <time>2024-08-21T08:41:57.000Z</time>
      </trkpt>
      <trkpt lat="47.99082" lon="0.23906">
        <ele>45.599998474121</ele>
        <time>2024-08-21T08:41:58.000Z</time>
      </trkpt>
      <trkpt lat="47.99082" lon="0.23907">
        <ele>45.799999237061</ele>
        <time>2024-08-21T08:41:59.000Z</time>
      </trkpt>
      <trkpt lat="47.99085" lon="0.23906">
        <ele>46.799999237061</ele>
        <time>2024-08-21T08:42:01.000Z</time>
      </trkpt>
      <trkpt lat="47.99086" lon="0.23904">
        <ele>47</ele>
        <time>2024-08-21T08:42:02.000Z</time>
      </trkpt>
      <trkpt lat="47.99098" lon="0.23888">
        <ele>47.799999237061</ele>
        <time>2024-08-21T08:42:07.000Z</time>
      </trkpt>
      <trkpt lat="47.991" lon="0.23885">
        <ele>47.799999237061</ele>
        <time>2024-08-21T08:42:08.000Z</time>
      </trkpt>
      <trkpt lat="47.99117" lon="0.23862">
        <ele>48.200000762939</ele>
        <time>2024-08-21T08:42:14.000Z</time>
      </trkpt>
      <trkpt lat="47.99136" lon="0.23836">
        <ele>47.799999237061</ele>
        <time>2024-08-21T08:42:20.000Z</time>
      </trkpt>
      <trkpt lat="47.99143" lon="0.23825">
        <ele>47.400001525879</ele>
        <time>2024-08-21T08:42:22.000Z</time>
      </trkpt>
      <trkpt lat="47.99149" lon="0.23814">
        <ele>47</ele>
        <time>2024-08-21T08:42:24.000Z</time>
      </trkpt>
      <trkpt lat="47.99151" lon="0.23807">
        <ele>46.799999237061</ele>
        <time>2024-08-21T08:42:25.000Z</time>
      </trkpt>
      <trkpt lat="47.99151" lon="0.23799">
        <ele>46.599998474121</ele>
        <time>2024-08-21T08:42:26.000Z</time>
      </trkpt>
      <trkpt lat="47.99146" lon="0.23784">
        <ele>46.200000762939</ele>
        <time>2024-08-21T08:42:28.000Z</time>
      </trkpt>
      <trkpt lat="47.99142" lon="0.23778">
        <ele>46</ele>
        <time>2024-08-21T08:42:29.000Z</time>
      </trkpt>
      <trkpt lat="47.99135" lon="0.23766">
        <ele>45.599998474121</ele>
        <time>2024-08-21T08:42:31.000Z</time>
      </trkpt>
      <trkpt lat="47.99119" lon="0.23732">
        <ele>45.400001525879</ele>
        <time>2024-08-21T08:42:36.000Z</time>
      </trkpt>
      <trkpt lat="47.99103" lon="0.23675">
        <ele>45.599998474121</ele>
        <time>2024-08-21T08:42:43.000Z</time>
      </trkpt>
      <trkpt lat="47.99084" lon="0.23596">
        <ele>45.400001525879</ele>
        <time>2024-08-21T08:42:53.000Z</time>
      </trkpt>
      <trkpt lat="47.99082" lon="0.23589">
        <ele>45.400001525879</ele>
        <time>2024-08-21T08:42:54.000Z</time>
      </trkpt>
      <trkpt lat="47.99066" lon="0.23537">
        <ele>45.200000762939</ele>
        <time>2024-08-21T08:43:01.000Z</time>
      </trkpt>
      <trkpt lat="47.99062" lon="0.23531">
        <ele>45.200000762939</ele>
        <time>2024-08-21T08:43:02.000Z</time>
      </trkpt>
      <trkpt lat="47.99057" lon="0.23526">
        <ele>45</ele>
        <time>2024-08-21T08:43:03.000Z</time>
      </trkpt>
      <trkpt lat="47.99047" lon="0.23521">
        <ele>45</ele>
        <time>2024-08-21T08:43:05.000Z</time>
      </trkpt>
      <trkpt lat="47.99031" lon="0.23518">
        <ele>44.799999237061</ele>
        <time>2024-08-21T08:43:08.000Z</time>
      </trkpt>
      <trkpt lat="47.99026" lon="0.23515">
        <ele>44.799999237061</ele>
        <time>2024-08-21T08:43:09.000Z</time>
      </trkpt>
      <trkpt lat="47.99022" lon="0.23512">
        <ele>44.599998474121</ele>
        <time>2024-08-21T08:43:10.000Z</time>
      </trkpt>
      <trkpt lat="47.99018" lon="0.235">
        <ele>44.400001525879</ele>
        <time>2024-08-21T08:43:12.000Z</time>
      </trkpt>
      <trkpt lat="47.99013" lon="0.23472">
        <ele>44.599998474121</ele>
        <time>2024-08-21T08:43:16.000Z</time>
      </trkpt>
      <trkpt lat="47.99012" lon="0.23464">
        <ele>44.599998474121</ele>
        <time>2024-08-21T08:43:17.000Z</time>
      </trkpt>
      <trkpt lat="47.99009" lon="0.23411">
        <ele>44.799999237061</ele>
        <time>2024-08-21T08:43:23.000Z</time>
      </trkpt>
      <trkpt lat="47.99" lon="0.23365">
        <ele>44.400001525879</ele>
        <time>2024-08-21T08:43:29.000Z</time>
      </trkpt>
      <trkpt lat="47.98981" lon="0.2329">
        <ele>44.200000762939</ele>
        <time>2024-08-21T08:43:39.000Z</time>
      </trkpt>
      <trkpt lat="47.98979" lon="0.2327">
        <ele>44.400001525879</ele>
        <time>2024-08-21T08:43:42.000Z</time>
      </trkpt>
      <trkpt lat="47.98979" lon="0.23264">
        <ele>44.799999237061</ele>
        <time>2024-08-21T08:43:43.000Z</time>
      </trkpt>
      <trkpt lat="47.98984" lon="0.23249">
        <ele>45.400001525879</ele>
        <time>2024-08-21T08:43:46.000Z</time>
      </trkpt>
      <trkpt lat="47.98987" lon="0.23243">
        <ele>45.400001525879</ele>
        <time>2024-08-21T08:43:47.000Z</time>
      </trkpt>
      <trkpt lat="47.98988" lon="0.23236">
        <ele>45.599998474121</ele>
        <time>2024-08-21T08:43:48.000Z</time>
      </trkpt>
      <trkpt lat="47.98988" lon="0.23221">
        <ele>45.799999237061</ele>
        <time>2024-08-21T08:43:50.000Z</time>
      </trkpt>
      <trkpt lat="47.98986" lon="0.2321">
        <ele>45.799999237061</ele>
        <time>2024-08-21T08:43:52.000Z</time>
      </trkpt>
      <trkpt lat="47.98985" lon="0.23205">
        <ele>45.799999237061</ele>
        <time>2024-08-21T08:43:53.000Z</time>
      </trkpt>
      <trkpt lat="47.98982" lon="0.2317">
        <ele>45.200000762939</ele>
        <time>2024-08-21T08:43:58.000Z</time>
      </trkpt>
      <trkpt lat="47.98979" lon="0.23146">
        <ele>44.799999237061</ele>
        <time>2024-08-21T08:44:01.000Z</time>
      </trkpt>
      <trkpt lat="47.98973" lon="0.23122">
        <ele>44.200000762939</ele>
        <time>2024-08-21T08:44:04.000Z</time>
      </trkpt>
      <trkpt lat="47.98972" lon="0.23105">
        <ele>44.200000762939</ele>
        <time>2024-08-21T08:44:06.000Z</time>
      </trkpt>
      <trkpt lat="47.98972" lon="0.23086">
        <ele>44</ele>
        <time>2024-08-21T08:44:08.000Z</time>
      </trkpt>
      <trkpt lat="47.98973" lon="0.23077">
        <ele>44</ele>
        <time>2024-08-21T08:44:09.000Z</time>
      </trkpt>
      <trkpt lat="47.98974" lon="0.23068">
        <ele>43.799999237061</ele>
        <time>2024-08-21T08:44:10.000Z</time>
      </trkpt>
      <trkpt lat="47.9898" lon="0.23051">
        <ele>43.599998474121</ele>
        <time>2024-08-21T08:44:12.000Z</time>
      </trkpt>
      <trkpt lat="47.98984" lon="0.23044">
        <ele>43.599998474121</ele>
        <time>2024-08-21T08:44:13.000Z</time>
      </trkpt>
      <trkpt lat="47.98988" lon="0.23037">
        <ele>43.599998474121</ele>
        <time>2024-08-21T08:44:14.000Z</time>
      </trkpt>
      <trkpt lat="47.99001" lon="0.23017">
        <ele>43.200000762939</ele>
        <time>2024-08-21T08:44:17.000Z</time>
      </trkpt>
      <trkpt lat="47.99006" lon="0.23011">
        <ele>43.200000762939</ele>
        <time>2024-08-21T08:44:18.000Z</time>
      </trkpt>
      <trkpt lat="47.99034" lon="0.22975">
        <ele>43.200000762939</ele>
        <time>2024-08-21T08:44:25.000Z</time>
      </trkpt>
      <trkpt lat="47.99042" lon="0.22966">
        <ele>43.799999237061</ele>
        <time>2024-08-21T08:44:27.000Z</time>
      </trkpt>
      <trkpt lat="47.99048" lon="0.22955">
        <ele>44</ele>
        <time>2024-08-21T08:44:29.000Z</time>
      </trkpt>
      <trkpt lat="47.9905" lon="0.22949">
        <ele>44</ele>
        <time>2024-08-21T08:44:30.000Z</time>
      </trkpt>
      <trkpt lat="47.99051" lon="0.22933">
        <ele>44.400001525879</ele>
        <time>2024-08-21T08:44:32.000Z</time>
      </trkpt>
      <trkpt lat="47.99053" lon="0.22884">
        <ele>44.599998474121</ele>
        <time>2024-08-21T08:44:38.000Z</time>
      </trkpt>
      <trkpt lat="47.99055" lon="0.22813">
        <ele>43.799999237061</ele>
        <time>2024-08-21T08:44:47.000Z</time>
      </trkpt>
      <trkpt lat="47.99049" lon="0.22759">
        <ele>43.799999237061</ele>
        <time>2024-08-21T08:44:54.000Z</time>
      </trkpt>
      <trkpt lat="47.99039" lon="0.22696">
        <ele>44.200000762939</ele>
        <time>2024-08-21T08:45:01.000Z</time>
      </trkpt>
      <trkpt lat="47.99036" lon="0.22683">
        <ele>44.200000762939</ele>
        <time>2024-08-21T08:45:03.000Z</time>
      </trkpt>
      <trkpt lat="47.99033" lon="0.2267">
        <ele>44</ele>
        <time>2024-08-21T08:45:05.000Z</time>
      </trkpt>
      <trkpt lat="47.99032" lon="0.2264">
        <ele>43.400001525879</ele>
        <time>2024-08-21T08:45:09.000Z</time>
      </trkpt>
      <trkpt lat="47.99027" lon="0.2259">
        <ele>43.599998474121</ele>
        <time>2024-08-21T08:45:15.000Z</time>
      </trkpt>
      <trkpt lat="47.99019" lon="0.22558">
        <ele>43.200000762939</ele>
        <time>2024-08-21T08:45:19.000Z</time>
      </trkpt>
      <trkpt lat="47.99012" lon="0.22541">
        <ele>43</ele>
        <time>2024-08-21T08:45:21.000Z</time>
      </trkpt>
      <trkpt lat="47.98984" lon="0.22476">
        <ele>42.599998474121</ele>
        <time>2024-08-21T08:45:30.000Z</time>
      </trkpt>
      <trkpt lat="47.9897" lon="0.2245">
        <ele>42.599998474121</ele>
        <time>2024-08-21T08:45:34.000Z</time>
      </trkpt>
      <trkpt lat="47.98966" lon="0.22437">
        <ele>42.599998474121</ele>
        <time>2024-08-21T08:45:36.000Z</time>
      </trkpt>
      <trkpt lat="47.98953" lon="0.2239">
        <ele>43</ele>
        <time>2024-08-21T08:45:42.000Z</time>
      </trkpt>
      <trkpt lat="47.98943" lon="0.22361">
        <ele>43</ele>
        <time>2024-08-21T08:45:46.000Z</time>
      </trkpt>
      <trkpt lat="47.98936" lon="0.22349">
        <ele>43</ele>
        <time>2024-08-21T08:45:48.000Z</time>
      </trkpt>
      <trkpt lat="47.98899" lon="0.22303">
        <ele>43</ele>
        <time>2024-08-21T08:45:57.000Z</time>
      </trkpt>
      <trkpt lat="47.98864" lon="0.22265">
        <ele>43</ele>
        <time>2024-08-21T08:46:05.000Z</time>
      </trkpt>
      <trkpt lat="47.9882" lon="0.22227">
        <ele>43</ele>
        <time>2024-08-21T08:46:14.000Z</time>
      </trkpt>
      <trkpt lat="47.98786" lon="0.222">
        <ele>43</ele>
        <time>2024-08-21T08:46:21.000Z</time>
      </trkpt>
      <trkpt lat="47.98763" lon="0.2218">
        <ele>43.200000762939</ele>
        <time>2024-08-21T08:46:26.000Z</time>
      </trkpt>
      <trkpt lat="47.98755" lon="0.22175">
        <ele>43</ele>
        <time>2024-08-21T08:46:28.000Z</time>
      </trkpt>
      <trkpt lat="47.98751" lon="0.22172">
        <ele>43</ele>
        <time>2024-08-21T08:46:29.000Z</time>
      </trkpt>
      <trkpt lat="47.98737" lon="0.22159">
        <ele>42.799999237061</ele>
        <time>2024-08-21T08:46:32.000Z</time>
      </trkpt>
      <trkpt lat="47.98733" lon="0.22153">
        <ele>42.799999237061</ele>
        <time>2024-08-21T08:46:33.000Z</time>
      </trkpt>
      <trkpt lat="47.98729" lon="0.22147">
        <ele>42.799999237061</ele>
        <time>2024-08-21T08:46:34.000Z</time>
      </trkpt>
      <trkpt lat="47.98718" lon="0.22127">
        <ele>42.799999237061</ele>
        <time>2024-08-21T08:46:37.000Z</time>
      </trkpt>
      <trkpt lat="47.98714" lon="0.22121">
        <ele>43.200000762939</ele>
        <time>2024-08-21T08:46:38.000Z</time>
      </trkpt>
      <trkpt lat="47.98696" lon="0.22103">
        <ele>43</ele>
        <time>2024-08-21T08:46:42.000Z</time>
      </trkpt>
      <trkpt lat="47.98687" lon="0.22086">
        <ele>43</ele>
        <time>2024-08-21T08:46:45.000Z</time>
      </trkpt>
      <trkpt lat="47.98684" lon="0.2208">
        <ele>43</ele>
        <time>2024-08-21T08:46:46.000Z</time>
      </trkpt>
      <trkpt lat="47.98672" lon="0.22051">
        <ele>43</ele>
        <time>2024-08-21T08:46:50.000Z</time>
      </trkpt>
      <trkpt lat="47.98665" lon="0.22033">
        <ele>43</ele>
        <time>2024-08-21T08:46:52.000Z</time>
      </trkpt>
      <trkpt lat="47.98645" lon="0.21968">
        <ele>42.799999237061</ele>
        <time>2024-08-21T08:47:00.000Z</time>
      </trkpt>
      <trkpt lat="47.98642" lon="0.21958">
        <ele>42.799999237061</ele>
        <time>2024-08-21T08:47:01.000Z</time>
      </trkpt>
      <trkpt lat="47.98638" lon="0.2192">
        <ele>42.799999237061</ele>
        <time>2024-08-21T08:47:06.000Z</time>
      </trkpt>
      <trkpt lat="47.98637" lon="0.21913">
        <ele>42.799999237061</ele>
        <time>2024-08-21T08:47:07.000Z</time>
      </trkpt>
      <trkpt lat="47.98632" lon="0.21872">
        <ele>43</ele>
        <time>2024-08-21T08:47:12.000Z</time>
      </trkpt>
      <trkpt lat="47.98625" lon="0.21817">
        <ele>43</ele>
        <time>2024-08-21T08:47:19.000Z</time>
      </trkpt>
      <trkpt lat="47.98621" lon="0.21789">
        <ele>43</ele>
        <time>2024-08-21T08:47:23.000Z</time>
      </trkpt>
      <trkpt lat="47.98621" lon="0.21783">
        <ele>43</ele>
        <time>2024-08-21T08:47:24.000Z</time>
      </trkpt>
      <trkpt lat="47.98621" lon="0.21777">
        <ele>43</ele>
        <time>2024-08-21T08:47:25.000Z</time>
      </trkpt>
      <trkpt lat="47.98622" lon="0.21766">
        <ele>43.200000762939</ele>
        <time>2024-08-21T08:47:27.000Z</time>
      </trkpt>
      <trkpt lat="47.98622" lon="0.21747">
        <ele>43.400001525879</ele>
        <time>2024-08-21T08:47:30.000Z</time>
      </trkpt>
      <trkpt lat="47.98624" lon="0.21735">
        <ele>43.400001525879</ele>
        <time>2024-08-21T08:47:32.000Z</time>
      </trkpt>
      <trkpt lat="47.98627" lon="0.21703">
        <ele>43.599998474121</ele>
        <time>2024-08-21T08:47:37.000Z</time>
      </trkpt>
      <trkpt lat="47.9863" lon="0.2169">
        <ele>43.599998474121</ele>
        <time>2024-08-21T08:47:39.000Z</time>
      </trkpt>
      <trkpt lat="47.98636" lon="0.21678">
        <ele>43.799999237061</ele>
        <time>2024-08-21T08:47:41.000Z</time>
      </trkpt>
      <trkpt lat="47.98639" lon="0.21673">
        <ele>43.799999237061</ele>
        <time>2024-08-21T08:47:42.000Z</time>
      </trkpt>
      <trkpt lat="47.98642" lon="0.21668">
        <ele>43.799999237061</ele>
        <time>2024-08-21T08:47:43.000Z</time>
      </trkpt>
      <trkpt lat="47.98646" lon="0.21655">
        <ele>43.799999237061</ele>
        <time>2024-08-21T08:47:45.000Z</time>
      </trkpt>
      <trkpt lat="47.98646" lon="0.21648">
        <ele>43.799999237061</ele>
        <time>2024-08-21T08:47:46.000Z</time>
      </trkpt>
      <trkpt lat="47.98645" lon="0.21642">
        <ele>43.799999237061</ele>
        <time>2024-08-21T08:47:47.000Z</time>
      </trkpt>
      <trkpt lat="47.9864" lon="0.21621">
        <ele>44.200000762939</ele>
        <time>2024-08-21T08:47:50.000Z</time>
      </trkpt>
      <trkpt lat="47.98637" lon="0.21614">
        <ele>44.200000762939</ele>
        <time>2024-08-21T08:47:51.000Z</time>
      </trkpt>
      <trkpt lat="47.9863" lon="0.21591">
        <ele>44.400001525879</ele>
        <time>2024-08-21T08:47:54.000Z</time>
      </trkpt>
      <trkpt lat="47.9862" lon="0.21571">
        <ele>44.200000762939</ele>
        <time>2024-08-21T08:47:57.000Z</time>
      </trkpt>
      <trkpt lat="47.98604" lon="0.21536">
        <ele>43.599998474121</ele>
        <time>2024-08-21T08:48:02.000Z</time>
      </trkpt>
      <trkpt lat="47.986" lon="0.2152">
        <ele>43.599998474121</ele>
        <time>2024-08-21T08:48:04.000Z</time>
      </trkpt>
      <trkpt lat="47.98595" lon="0.21495">
        <ele>43.599998474121</ele>
        <time>2024-08-21T08:48:07.000Z</time>
      </trkpt>
      <trkpt lat="47.98591" lon="0.2147">
        <ele>43.599998474121</ele>
        <time>2024-08-21T08:48:10.000Z</time>
      </trkpt>
      <trkpt lat="47.9859" lon="0.21445">
        <ele>43.799999237061</ele>
        <time>2024-08-21T08:48:13.000Z</time>
      </trkpt>
      <trkpt lat="47.98592" lon="0.21412">
        <ele>44</ele>
        <time>2024-08-21T08:48:17.000Z</time>
      </trkpt>
      <trkpt lat="47.98591" lon="0.21387">
        <ele>44</ele>
        <time>2024-08-21T08:48:21.000Z</time>
      </trkpt>
      <trkpt lat="47.98585" lon="0.21375">
        <ele>44</ele>
        <time>2024-08-21T08:48:23.000Z</time>
      </trkpt>
      <trkpt lat="47.98577" lon="0.21362">
        <ele>44.200000762939</ele>
        <time>2024-08-21T08:48:25.000Z</time>
      </trkpt>
      <trkpt lat="47.98569" lon="0.21341">
        <ele>44.200000762939</ele>
        <time>2024-08-21T08:48:28.000Z</time>
      </trkpt>
      <trkpt lat="47.98567" lon="0.21332">
        <ele>44.200000762939</ele>
        <time>2024-08-21T08:48:29.000Z</time>
      </trkpt>
      <trkpt lat="47.98565" lon="0.21324">
        <ele>44.200000762939</ele>
        <time>2024-08-21T08:48:30.000Z</time>
      </trkpt>
      <trkpt lat="47.98566" lon="0.21297">
        <ele>43.799999237061</ele>
        <time>2024-08-21T08:48:33.000Z</time>
      </trkpt>
      <trkpt lat="47.98562" lon="0.21242">
        <ele>43.400001525879</ele>
        <time>2024-08-21T08:48:39.000Z</time>
      </trkpt>
      <trkpt lat="47.98556" lon="0.21188">
        <ele>43.599998474121</ele>
        <time>2024-08-21T08:48:45.000Z</time>
      </trkpt>
      <trkpt lat="47.98554" lon="0.2118">
        <ele>43.599998474121</ele>
        <time>2024-08-21T08:48:46.000Z</time>
      </trkpt>
      <trkpt lat="47.98547" lon="0.21146">
        <ele>43.799999237061</ele>
        <time>2024-08-21T08:48:50.000Z</time>
      </trkpt>
      <trkpt lat="47.98525" lon="0.21074">
        <ele>45</ele>
        <time>2024-08-21T08:49:00.000Z</time>
      </trkpt>
      <trkpt lat="47.98522" lon="0.21063">
        <ele>45.200000762939</ele>
        <time>2024-08-21T08:49:02.000Z</time>
      </trkpt>
      <trkpt lat="47.98516" lon="0.21037">
        <ele>46.400001525879</ele>
        <time>2024-08-21T08:49:07.000Z</time>
      </trkpt>
      <trkpt lat="47.9851" lon="0.21019">
        <ele>47.599998474121</ele>
        <time>2024-08-21T08:49:11.000Z</time>
      </trkpt>
      <trkpt lat="47.98505" lon="0.21011">
        <ele>48</ele>
        <time>2024-08-21T08:49:13.000Z</time>
      </trkpt>
      <trkpt lat="47.98489" lon="0.21">
        <ele>48.799999237061</ele>
        <time>2024-08-21T08:49:18.000Z</time>
      </trkpt>
      <trkpt lat="47.98467" lon="0.21003">
        <ele>49.599998474121</ele>
        <time>2024-08-21T08:49:24.000Z</time>
      </trkpt>
      <trkpt lat="47.9844" lon="0.21019">
        <ele>50</ele>
        <time>2024-08-21T08:49:31.000Z</time>
      </trkpt>
      <trkpt lat="47.98435" lon="0.21022">
        <ele>50</ele>
        <time>2024-08-21T08:49:32.000Z</time>
      </trkpt>
      <trkpt lat="47.98391" lon="0.21044">
        <ele>50</ele>
        <time>2024-08-21T08:49:41.000Z</time>
      </trkpt>
      <trkpt lat="47.98372" lon="0.21055">
        <ele>49.799999237061</ele>
        <time>2024-08-21T08:49:45.000Z</time>
      </trkpt>
      <trkpt lat="47.98364" lon="0.21059">
        <ele>49.799999237061</ele>
        <time>2024-08-21T08:49:47.000Z</time>
      </trkpt>
      <trkpt lat="47.98358" lon="0.21056">
        <ele>49.799999237061</ele>
        <time>2024-08-21T08:49:49.000Z</time>
      </trkpt>
      <trkpt lat="47.98356" lon="0.21052">
        <ele>49.799999237061</ele>
        <time>2024-08-21T08:49:50.000Z</time>
      </trkpt>
      <trkpt lat="47.98346" lon="0.21033">
        <ele>49.799999237061</ele>
        <time>2024-08-21T08:49:54.000Z</time>
      </trkpt>
      <trkpt lat="47.9834" lon="0.21023">
        <ele>50</ele>
        <time>2024-08-21T08:49:56.000Z</time>
      </trkpt>
      <trkpt lat="47.98337" lon="0.21019">
        <ele>50</ele>
        <time>2024-08-21T08:49:57.000Z</time>
      </trkpt>
      <trkpt lat="47.98326" lon="0.21008">
        <ele>50</ele>
        <time>2024-08-21T08:50:00.000Z</time>
      </trkpt>
      <trkpt lat="47.9832" lon="0.20999">
        <ele>50</ele>
        <time>2024-08-21T08:50:02.000Z</time>
      </trkpt>
      <trkpt lat="47.98303" lon="0.20955">
        <ele>49.799999237061</ele>
        <time>2024-08-21T08:50:09.000Z</time>
      </trkpt>
      <trkpt lat="47.98294" lon="0.20926">
        <ele>50.200000762939</ele>
        <time>2024-08-21T08:50:14.000Z</time>
      </trkpt>
      <trkpt lat="47.98287" lon="0.20908">
        <ele>50.400001525879</ele>
        <time>2024-08-21T08:50:17.000Z</time>
      </trkpt>
      <trkpt lat="47.98282" lon="0.20897">
        <ele>51</ele>
        <time>2024-08-21T08:50:19.000Z</time>
      </trkpt>
      <trkpt lat="47.98272" lon="0.20868">
        <ele>52</ele>
        <time>2024-08-21T08:50:24.000Z</time>
      </trkpt>
      <trkpt lat="47.98269" lon="0.20861">
        <ele>52</ele>
        <time>2024-08-21T08:50:25.000Z</time>
      </trkpt>
      <trkpt lat="47.9825" lon="0.20807">
        <ele>52.200000762939</ele>
        <time>2024-08-21T08:50:33.000Z</time>
      </trkpt>
      <trkpt lat="47.98231" lon="0.20755">
        <ele>52</ele>
        <time>2024-08-21T08:50:40.000Z</time>
      </trkpt>
      <trkpt lat="47.98225" lon="0.20733">
        <ele>51.799999237061</ele>
        <time>2024-08-21T08:50:43.000Z</time>
      </trkpt>
      <trkpt lat="47.98227" lon="0.20718">
        <ele>51.799999237061</ele>
        <time>2024-08-21T08:50:45.000Z</time>
      </trkpt>
      <trkpt lat="47.98245" lon="0.20682">
        <ele>51.599998474121</ele>
        <time>2024-08-21T08:50:50.000Z</time>
      </trkpt>
      <trkpt lat="47.98272" lon="0.20626">
        <ele>52</ele>
        <time>2024-08-21T08:50:58.000Z</time>
      </trkpt>
      <trkpt lat="47.98299" lon="0.20565">
        <ele>52.400001525879</ele>
        <time>2024-08-21T08:51:06.000Z</time>
      </trkpt>
      <trkpt lat="47.98305" lon="0.2055">
        <ele>52.200000762939</ele>
        <time>2024-08-21T08:51:08.000Z</time>
      </trkpt>
      <trkpt lat="47.98309" lon="0.20522">
        <ele>52.400001525879</ele>
        <time>2024-08-21T08:51:11.000Z</time>
      </trkpt>
      <trkpt lat="47.98314" lon="0.20476">
        <ele>52</ele>
        <time>2024-08-21T08:51:16.000Z</time>
      </trkpt>
      <trkpt lat="47.98318" lon="0.20447">
        <ele>52.200000762939</ele>
        <time>2024-08-21T08:51:19.000Z</time>
      </trkpt>
      <trkpt lat="47.98325" lon="0.20419">
        <ele>52.200000762939</ele>
        <time>2024-08-21T08:51:22.000Z</time>
      </trkpt>
      <trkpt lat="47.98328" lon="0.2041">
        <ele>52.200000762939</ele>
        <time>2024-08-21T08:51:23.000Z</time>
      </trkpt>
      <trkpt lat="47.98353" lon="0.2037">
        <ele>50.799999237061</ele>
        <time>2024-08-21T08:51:28.000Z</time>
      </trkpt>
      <trkpt lat="47.98377" lon="0.20338">
        <ele>49.599998474121</ele>
        <time>2024-08-21T08:51:32.000Z</time>
      </trkpt>
      <trkpt lat="47.9839" lon="0.2032">
        <ele>49</ele>
        <time>2024-08-21T08:51:34.000Z</time>
      </trkpt>
      <trkpt lat="47.98397" lon="0.20311">
        <ele>48.400001525879</ele>
        <time>2024-08-21T08:51:35.000Z</time>
      </trkpt>
      <trkpt lat="47.98415" lon="0.20281">
        <ele>47.200000762939</ele>
        <time>2024-08-21T08:51:38.000Z</time>
      </trkpt>
      <trkpt lat="47.98419" lon="0.2027">
        <ele>46.400001525879</ele>
        <time>2024-08-21T08:51:39.000Z</time>
      </trkpt>
      <trkpt lat="47.98423" lon="0.20258">
        <ele>45.799999237061</ele>
        <time>2024-08-21T08:51:40.000Z</time>
      </trkpt>
      <trkpt lat="47.98428" lon="0.20232">
        <ele>44.799999237061</ele>
        <time>2024-08-21T08:51:42.000Z</time>
      </trkpt>
      <trkpt lat="47.9843" lon="0.20218">
        <ele>44.400001525879</ele>
        <time>2024-08-21T08:51:43.000Z</time>
      </trkpt>
      <trkpt lat="47.98432" lon="0.20192">
        <ele>43.400001525879</ele>
        <time>2024-08-21T08:51:45.000Z</time>
      </trkpt>
      <trkpt lat="47.98433" lon="0.20168">
        <ele>42.599998474121</ele>
        <time>2024-08-21T08:51:47.000Z</time>
      </trkpt>
      <trkpt lat="47.98434" lon="0.20153">
        <ele>42.400001525879</ele>
        <time>2024-08-21T08:51:48.000Z</time>
      </trkpt>
      <trkpt lat="47.98432" lon="0.20109">
        <ele>42</ele>
        <time>2024-08-21T08:51:52.000Z</time>
      </trkpt>
      <trkpt lat="47.98431" lon="0.20099">
        <ele>42</ele>
        <time>2024-08-21T08:51:53.000Z</time>
      </trkpt>
      <trkpt lat="47.98424" lon="0.20065">
        <ele>42.200000762939</ele>
        <time>2024-08-21T08:51:57.000Z</time>
      </trkpt>
      <trkpt lat="47.98421" lon="0.2005">
        <ele>43</ele>
        <time>2024-08-21T08:51:59.000Z</time>
      </trkpt>
      <trkpt lat="47.98423" lon="0.20036">
        <ele>43.200000762939</ele>
        <time>2024-08-21T08:52:01.000Z</time>
      </trkpt>
      <trkpt lat="47.98426" lon="0.20031">
        <ele>43.400001525879</ele>
        <time>2024-08-21T08:52:02.000Z</time>
      </trkpt>
      <trkpt lat="47.98445" lon="0.19995">
        <ele>43.799999237061</ele>
        <time>2024-08-21T08:52:07.000Z</time>
      </trkpt>
      <trkpt lat="47.98478" lon="0.19931">
        <ele>43</ele>
        <time>2024-08-21T08:52:15.000Z</time>
      </trkpt>
      <trkpt lat="47.98484" lon="0.19921">
        <ele>42.799999237061</ele>
        <time>2024-08-21T08:52:16.000Z</time>
      </trkpt>
      <trkpt lat="47.98503" lon="0.1988">
        <ele>42.599998474121</ele>
        <time>2024-08-21T08:52:21.000Z</time>
      </trkpt>
      <trkpt lat="47.98515" lon="0.19858">
        <ele>42.599998474121</ele>
        <time>2024-08-21T08:52:24.000Z</time>
      </trkpt>
      <trkpt lat="47.98549" lon="0.19788">
        <ele>42.599998474121</ele>
        <time>2024-08-21T08:52:33.000Z</time>
      </trkpt>
      <trkpt lat="47.98553" lon="0.1978">
        <ele>42.599998474121</ele>
        <time>2024-08-21T08:52:34.000Z</time>
      </trkpt>
      <trkpt lat="47.98588" lon="0.1971">
        <ele>42.799999237061</ele>
        <time>2024-08-21T08:52:43.000Z</time>
      </trkpt>
      <trkpt lat="47.98591" lon="0.19702">
        <ele>42.799999237061</ele>
        <time>2024-08-21T08:52:44.000Z</time>
      </trkpt>
      <trkpt lat="47.98627" lon="0.19631">
        <ele>42.799999237061</ele>
        <time>2024-08-21T08:52:53.000Z</time>
      </trkpt>
      <trkpt lat="47.98631" lon="0.19623">
        <ele>42.799999237061</ele>
        <time>2024-08-21T08:52:54.000Z</time>
      </trkpt>
      <trkpt lat="47.98663" lon="0.1956">
        <ele>43.400001525879</ele>
        <time>2024-08-21T08:53:02.000Z</time>
      </trkpt>
      <trkpt lat="47.98667" lon="0.19553">
        <ele>43.400001525879</ele>
        <time>2024-08-21T08:53:03.000Z</time>
      </trkpt>
      <trkpt lat="47.98682" lon="0.19523">
        <ele>43.599998474121</ele>
        <time>2024-08-21T08:53:07.000Z</time>
      </trkpt>
      <trkpt lat="47.98713" lon="0.19459">
        <ele>42.799999237061</ele>
        <time>2024-08-21T08:53:15.000Z</time>
      </trkpt>
      <trkpt lat="47.98745" lon="0.19395">
        <ele>43.200000762939</ele>
        <time>2024-08-21T08:53:23.000Z</time>
      </trkpt>
      <trkpt lat="47.98748" lon="0.19387">
        <ele>43.200000762939</ele>
        <time>2024-08-21T08:53:24.000Z</time>
      </trkpt>
      <trkpt lat="47.98779" lon="0.19323">
        <ele>42.799999237061</ele>
        <time>2024-08-21T08:53:32.000Z</time>
      </trkpt>
      <trkpt lat="47.98808" lon="0.19269">
        <ele>42.799999237061</ele>
        <time>2024-08-21T08:53:39.000Z</time>
      </trkpt>
      <trkpt lat="47.9884" lon="0.19203">
        <ele>42.799999237061</ele>
        <time>2024-08-21T08:53:47.000Z</time>
      </trkpt>
      <trkpt lat="47.98847" lon="0.19189">
        <ele>42.799999237061</ele>
        <time>2024-08-21T08:53:49.000Z</time>
      </trkpt>
      <trkpt lat="47.98853" lon="0.19172">
        <ele>42.799999237061</ele>
        <time>2024-08-21T08:53:51.000Z</time>
      </trkpt>
      <trkpt lat="47.98863" lon="0.19149">
        <ele>43</ele>
        <time>2024-08-21T08:53:54.000Z</time>
      </trkpt>
      <trkpt lat="47.9888" lon="0.19115">
        <ele>43.200000762939</ele>
        <time>2024-08-21T08:53:59.000Z</time>
      </trkpt>
      <trkpt lat="47.989" lon="0.19081">
        <ele>43.599998474121</ele>
        <time>2024-08-21T08:54:05.000Z</time>
      </trkpt>
      <trkpt lat="47.98905" lon="0.19076">
        <ele>44.400001525879</ele>
        <time>2024-08-21T08:54:07.000Z</time>
      </trkpt>
      <trkpt lat="47.98906" lon="0.19076">
        <ele>44.599998474121</ele>
        <time>2024-08-21T08:54:08.000Z</time>
      </trkpt>
      <trkpt lat="47.98906" lon="0.19076">
        <ele>45.400001525879</ele>
        <time>2024-08-21T08:54:10.000Z</time>
      </trkpt>
      <trkpt lat="47.98909" lon="0.19082">
        <ele>46.599998474121</ele>
        <time>2024-08-21T08:54:14.000Z</time>
      </trkpt>
      <trkpt lat="47.9891" lon="0.19085">
        <ele>46.599998474121</ele>
        <time>2024-08-21T08:54:15.000Z</time>
      </trkpt>
      <trkpt lat="47.98917" lon="0.19104">
        <ele>46.599998474121</ele>
        <time>2024-08-21T08:54:19.000Z</time>
      </trkpt>
      <trkpt lat="47.98933" lon="0.19137">
        <ele>46.400001525879</ele>
        <time>2024-08-21T08:54:26.000Z</time>
      </trkpt>
      <trkpt lat="47.98943" lon="0.19134">
        <ele>46.400001525879</ele>
        <time>2024-08-21T08:54:29.000Z</time>
      </trkpt>
      <trkpt lat="47.98962" lon="0.19115">
        <ele>46.400001525879</ele>
        <time>2024-08-21T08:54:34.000Z</time>
      </trkpt>
      <trkpt lat="47.98985" lon="0.19092">
        <ele>45.599998474121</ele>
        <time>2024-08-21T08:54:39.000Z</time>
      </trkpt>
      <trkpt lat="47.98995" lon="0.19082">
        <ele>45</ele>
        <time>2024-08-21T08:54:41.000Z</time>
      </trkpt>
      <trkpt lat="47.99005" lon="0.19075">
        <ele>44.400001525879</ele>
        <time>2024-08-21T08:54:43.000Z</time>
      </trkpt>
      <trkpt lat="47.99016" lon="0.19071">
        <ele>44</ele>
        <time>2024-08-21T08:54:45.000Z</time>
      </trkpt>
      <trkpt lat="47.99021" lon="0.19071">
        <ele>43.599998474121</ele>
        <time>2024-08-21T08:54:46.000Z</time>
      </trkpt>
      <trkpt lat="47.99027" lon="0.19073">
        <ele>43.400001525879</ele>
        <time>2024-08-21T08:54:47.000Z</time>
      </trkpt>
      <trkpt lat="47.99031" lon="0.19076">
        <ele>43.200000762939</ele>
        <time>2024-08-21T08:54:48.000Z</time>
      </trkpt>
      <trkpt lat="47.99035" lon="0.19079">
        <ele>43.200000762939</ele>
        <time>2024-08-21T08:54:49.000Z</time>
      </trkpt>
      <trkpt lat="47.99044" lon="0.1909">
        <ele>43.200000762939</ele>
        <time>2024-08-21T08:54:53.000Z</time>
      </trkpt>
      <trkpt lat="47.99045" lon="0.19092">
        <ele>43.400001525879</ele>
        <time>2024-08-21T08:54:57.000Z</time>
      </trkpt>
      <trkpt lat="47.99044" lon="0.1909">
        <ele>43.599998474121</ele>
        <time>2024-08-21T08:54:59.000Z</time>
      </trkpt>
      <trkpt lat="47.99042" lon="0.19086">
        <ele>43.599998474121</ele>
        <time>2024-08-21T08:55:03.000Z</time>
      </trkpt>
      <trkpt lat="47.99041" lon="0.19085">
        <ele>43.599998474121</ele>
        <time>2024-08-21T08:55:04.000Z</time>
      </trkpt>
      <trkpt lat="47.99028" lon="0.19075">
        <ele>43.400001525879</ele>
        <time>2024-08-21T08:55:09.000Z</time>
      </trkpt>
      <trkpt lat="47.9902" lon="0.1907">
        <ele>43.400001525879</ele>
        <time>2024-08-21T08:55:11.000Z</time>
      </trkpt>
      <trkpt lat="47.99011" lon="0.1907">
        <ele>43.200000762939</ele>
        <time>2024-08-21T08:55:13.000Z</time>
      </trkpt>
      <trkpt lat="47.99007" lon="0.19071">
        <ele>43.200000762939</ele>
        <time>2024-08-21T08:55:14.000Z</time>
      </trkpt>
      <trkpt lat="47.99003" lon="0.19073">
        <ele>43.200000762939</ele>
        <time>2024-08-21T08:55:15.000Z</time>
      </trkpt>
      <trkpt lat="47.98986" lon="0.19089">
        <ele>43.400001525879</ele>
        <time>2024-08-21T08:55:19.000Z</time>
      </trkpt>
      <trkpt lat="47.98956" lon="0.19119">
        <ele>44.200000762939</ele>
        <time>2024-08-21T08:55:27.000Z</time>
      </trkpt>
      <trkpt lat="47.98946" lon="0.19129">
        <ele>44.400001525879</ele>
        <time>2024-08-21T08:55:30.000Z</time>
      </trkpt>
      <trkpt lat="47.98937" lon="0.19136">
        <ele>45</ele>
        <time>2024-08-21T08:55:33.000Z</time>
      </trkpt>
      <trkpt lat="47.98933" lon="0.19131">
        <ele>45.400001525879</ele>
        <time>2024-08-21T08:55:35.000Z</time>
      </trkpt>
      <trkpt lat="47.98932" lon="0.19127">
        <ele>45.799999237061</ele>
        <time>2024-08-21T08:55:36.000Z</time>
      </trkpt>
      <trkpt lat="47.98919" lon="0.19097">
        <ele>46.400001525879</ele>
        <time>2024-08-21T08:55:42.000Z</time>
      </trkpt>
      <trkpt lat="47.98917" lon="0.19091">
        <ele>46.400001525879</ele>
        <time>2024-08-21T08:55:43.000Z</time>
      </trkpt>
      <trkpt lat="47.98904" lon="0.19057">
        <ele>46.200000762939</ele>
        <time>2024-08-21T08:55:49.000Z</time>
      </trkpt>
      <trkpt lat="47.98896" lon="0.19036">
        <ele>46</ele>
        <time>2024-08-21T08:55:53.000Z</time>
      </trkpt>
      <trkpt lat="47.98893" lon="0.19028">
        <ele>46</ele>
        <time>2024-08-21T08:55:55.000Z</time>
      </trkpt>
      <trkpt lat="47.98892" lon="0.19025">
        <ele>46</ele>
        <time>2024-08-21T08:55:56.000Z</time>
      </trkpt>
      <trkpt lat="47.98895" lon="0.19022">
        <ele>46</ele>
        <time>2024-08-21T08:55:58.000Z</time>
      </trkpt>
      <trkpt lat="47.98906" lon="0.19012">
        <ele>46</ele>
        <time>2024-08-21T08:56:01.000Z</time>
      </trkpt>
      <trkpt lat="47.98916" lon="0.19004">
        <ele>45.799999237061</ele>
        <time>2024-08-21T08:56:03.000Z</time>
      </trkpt>
      <trkpt lat="47.98927" lon="0.18998">
        <ele>45.400001525879</ele>
        <time>2024-08-21T08:56:05.000Z</time>
      </trkpt>
      <trkpt lat="47.98932" lon="0.18994">
        <ele>45.200000762939</ele>
        <time>2024-08-21T08:56:06.000Z</time>
      </trkpt>
      <trkpt lat="47.98953" lon="0.18975">
        <ele>44.200000762939</ele>
        <time>2024-08-21T08:56:10.000Z</time>
      </trkpt>
      <trkpt lat="47.98957" lon="0.18972">
        <ele>43.799999237061</ele>
        <time>2024-08-21T08:56:11.000Z</time>
      </trkpt>
      <trkpt lat="47.9896" lon="0.18969">
        <ele>43.599998474121</ele>
        <time>2024-08-21T08:56:12.000Z</time>
      </trkpt>
      <trkpt lat="47.98964" lon="0.18964">
        <ele>43.400001525879</ele>
        <time>2024-08-21T08:56:15.000Z</time>
      </trkpt>
      <trkpt lat="47.98966" lon="0.18966">
        <ele>43.200000762939</ele>
        <time>2024-08-21T08:56:17.000Z</time>
      </trkpt>
      <trkpt lat="47.98968" lon="0.18969">
        <ele>43.200000762939</ele>
        <time>2024-08-21T08:56:18.000Z</time>
      </trkpt>
      <trkpt lat="47.98969" lon="0.18972">
        <ele>43</ele>
        <time>2024-08-21T08:56:19.000Z</time>
      </trkpt>
      <trkpt lat="47.98977" lon="0.18984">
        <ele>43</ele>
        <time>2024-08-21T08:56:22.000Z</time>
      </trkpt>
      <trkpt lat="47.98985" lon="0.18983">
        <ele>43</ele>
        <time>2024-08-21T08:56:24.000Z</time>
      </trkpt>
      <trkpt lat="47.98989" lon="0.18981">
        <ele>42.799999237061</ele>
        <time>2024-08-21T08:56:25.000Z</time>
      </trkpt>
      <trkpt lat="47.98993" lon="0.18978">
        <ele>42.599998474121</ele>
        <time>2024-08-21T08:56:26.000Z</time>
      </trkpt>
      <trkpt lat="47.99009" lon="0.18959">
        <ele>42.599998474121</ele>
        <time>2024-08-21T08:56:30.000Z</time>
      </trkpt>
      <trkpt lat="47.99024" lon="0.18942">
        <ele>42.200000762939</ele>
        <time>2024-08-21T08:56:34.000Z</time>
      </trkpt>
      <trkpt lat="47.99036" lon="0.18928">
        <ele>42.200000762939</ele>
        <time>2024-08-21T08:56:37.000Z</time>
      </trkpt>
      <trkpt lat="47.99039" lon="0.18923">
        <ele>42</ele>
        <time>2024-08-21T08:56:38.000Z</time>
      </trkpt>
      <trkpt lat="47.99047" lon="0.18914">
        <ele>41.599998474121</ele>
        <time>2024-08-21T08:56:41.000Z</time>
      </trkpt>
      <trkpt lat="47.99054" lon="0.18908">
        <ele>41.799999237061</ele>
        <time>2024-08-21T08:56:45.000Z</time>
      </trkpt>
      <trkpt lat="47.99061" lon="0.18897">
        <ele>42.799999237061</ele>
        <time>2024-08-21T08:56:50.000Z</time>
      </trkpt>
      <trkpt lat="47.99063" lon="0.1888">
        <ele>43</ele>
        <time>2024-08-21T08:56:54.000Z</time>
      </trkpt>
      <trkpt lat="47.99061" lon="0.18876">
        <ele>43</ele>
        <time>2024-08-21T08:56:55.000Z</time>
      </trkpt>
      <trkpt lat="47.99049" lon="0.18848">
        <ele>43.200000762939</ele>
        <time>2024-08-21T08:57:00.000Z</time>
      </trkpt>
      <trkpt lat="47.99044" lon="0.18837">
        <ele>43.200000762939</ele>
        <time>2024-08-21T08:57:02.000Z</time>
      </trkpt>
      <trkpt lat="47.99035" lon="0.18822">
        <ele>43.200000762939</ele>
        <time>2024-08-21T08:57:05.000Z</time>
      </trkpt>
      <trkpt lat="47.99029" lon="0.18811">
        <ele>43.200000762939</ele>
        <time>2024-08-21T08:57:07.000Z</time>
      </trkpt>
      <trkpt lat="47.99027" lon="0.18805">
        <ele>43.200000762939</ele>
        <time>2024-08-21T08:57:08.000Z</time>
      </trkpt>
      <trkpt lat="47.99019" lon="0.18785">
        <ele>43</ele>
        <time>2024-08-21T08:57:11.000Z</time>
      </trkpt>
      <trkpt lat="47.99017" lon="0.18778">
        <ele>43</ele>
        <time>2024-08-21T08:57:12.000Z</time>
      </trkpt>
      <trkpt lat="47.99016" lon="0.18771">
        <ele>43</ele>
        <time>2024-08-21T08:57:13.000Z</time>
      </trkpt>
      <trkpt lat="47.99019" lon="0.18756">
        <ele>42.799999237061</ele>
        <time>2024-08-21T08:57:15.000Z</time>
      </trkpt>
      <trkpt lat="47.99021" lon="0.18749">
        <ele>42.599998474121</ele>
        <time>2024-08-21T08:57:16.000Z</time>
      </trkpt>
      <trkpt lat="47.99017" lon="0.18728">
        <ele>42.400001525879</ele>
        <time>2024-08-21T08:57:20.000Z</time>
      </trkpt>
      <trkpt lat="47.99018" lon="0.18723">
        <ele>42.400001525879</ele>
        <time>2024-08-21T08:57:21.000Z</time>
      </trkpt>
      <trkpt lat="47.99021" lon="0.18712">
        <ele>42.400001525879</ele>
        <time>2024-08-21T08:57:23.000Z</time>
      </trkpt>
      <trkpt lat="47.99024" lon="0.18706">
        <ele>42.200000762939</ele>
        <time>2024-08-21T08:57:24.000Z</time>
      </trkpt>
      <trkpt lat="47.99024" lon="0.18698">
        <ele>42.200000762939</ele>
        <time>2024-08-21T08:57:25.000Z</time>
      </trkpt>
      <trkpt lat="47.99024" lon="0.1869">
        <ele>42</ele>
        <time>2024-08-21T08:57:26.000Z</time>
      </trkpt>
      <trkpt lat="47.99025" lon="0.18683">
        <ele>42</ele>
        <time>2024-08-21T08:57:27.000Z</time>
      </trkpt>
      <trkpt lat="47.99028" lon="0.1867">
        <ele>41.400001525879</ele>
        <time>2024-08-21T08:57:29.000Z</time>
      </trkpt>
      <trkpt lat="47.99031" lon="0.18664">
        <ele>41.200000762939</ele>
        <time>2024-08-21T08:57:30.000Z</time>
      </trkpt>
      <trkpt lat="47.9904" lon="0.18648">
        <ele>40.799999237061</ele>
        <time>2024-08-21T08:57:33.000Z</time>
      </trkpt>
      <trkpt lat="47.99044" lon="0.18636">
        <ele>40.599998474121</ele>
        <time>2024-08-21T08:57:35.000Z</time>
      </trkpt>
      <trkpt lat="47.99053" lon="0.18573">
        <ele>40.400001525879</ele>
        <time>2024-08-21T08:57:44.000Z</time>
      </trkpt>
      <trkpt lat="47.99054" lon="0.18552">
        <ele>40.400001525879</ele>
        <time>2024-08-21T08:57:47.000Z</time>
      </trkpt>
      <trkpt lat="47.99052" lon="0.18532">
        <ele>40.599998474121</ele>
        <time>2024-08-21T08:57:50.000Z</time>
      </trkpt>
      <trkpt lat="47.9905" lon="0.18508">
        <ele>40.599998474121</ele>
        <time>2024-08-21T08:57:54.000Z</time>
      </trkpt>
      <trkpt lat="47.99049" lon="0.18503">
        <ele>40.599998474121</ele>
        <time>2024-08-21T08:57:55.000Z</time>
      </trkpt>
      <trkpt lat="47.99045" lon="0.18471">
        <ele>40.599998474121</ele>
        <time>2024-08-21T08:58:01.000Z</time>
      </trkpt>
      <trkpt lat="47.9904" lon="0.18429">
        <ele>40.599998474121</ele>
        <time>2024-08-21T08:58:07.000Z</time>
      </trkpt>
      <trkpt lat="47.99038" lon="0.184">
        <ele>40.799999237061</ele>
        <time>2024-08-21T08:58:11.000Z</time>
      </trkpt>
      <trkpt lat="47.99035" lon="0.18386">
        <ele>40.799999237061</ele>
        <time>2024-08-21T08:58:13.000Z</time>
      </trkpt>
      <trkpt lat="47.99034" lon="0.1838">
        <ele>40.799999237061</ele>
        <time>2024-08-21T08:58:14.000Z</time>
      </trkpt>
      <trkpt lat="47.99026" lon="0.18361">
        <ele>40.799999237061</ele>
        <time>2024-08-21T08:58:17.000Z</time>
      </trkpt>
      <trkpt lat="47.99018" lon="0.18326">
        <ele>41</ele>
        <time>2024-08-21T08:58:22.000Z</time>
      </trkpt>
      <trkpt lat="47.99015" lon="0.18319">
        <ele>41.200000762939</ele>
        <time>2024-08-21T08:58:23.000Z</time>
      </trkpt>
      <trkpt lat="47.99013" lon="0.18313">
        <ele>41.200000762939</ele>
        <time>2024-08-21T08:58:24.000Z</time>
      </trkpt>
      <trkpt lat="47.99011" lon="0.18292">
        <ele>41.200000762939</ele>
        <time>2024-08-21T08:58:27.000Z</time>
      </trkpt>
      <trkpt lat="47.99015" lon="0.18283">
        <ele>41.200000762939</ele>
        <time>2024-08-21T08:58:29.000Z</time>
      </trkpt>
      <trkpt lat="47.99019" lon="0.1828">
        <ele>41.400001525879</ele>
        <time>2024-08-21T08:58:30.000Z</time>
      </trkpt>
      <trkpt lat="47.99028" lon="0.18276">
        <ele>41.400001525879</ele>
        <time>2024-08-21T08:58:32.000Z</time>
      </trkpt>
      <trkpt lat="47.99035" lon="0.1827">
        <ele>41.400001525879</ele>
        <time>2024-08-21T08:58:34.000Z</time>
      </trkpt>
      <trkpt lat="47.99051" lon="0.18223">
        <ele>41.200000762939</ele>
        <time>2024-08-21T08:58:41.000Z</time>
      </trkpt>
      <trkpt lat="47.99049" lon="0.18198">
        <ele>41.200000762939</ele>
        <time>2024-08-21T08:58:46.000Z</time>
      </trkpt>
      <trkpt lat="47.99048" lon="0.18175">
        <ele>41.200000762939</ele>
        <time>2024-08-21T08:58:51.000Z</time>
      </trkpt>
      <trkpt lat="47.99045" lon="0.18145">
        <ele>41.200000762939</ele>
        <time>2024-08-21T08:58:56.000Z</time>
      </trkpt>
      <trkpt lat="47.99043" lon="0.18111">
        <ele>41</ele>
        <time>2024-08-21T08:59:01.000Z</time>
      </trkpt>
      <trkpt lat="47.99043" lon="0.18104">
        <ele>40.799999237061</ele>
        <time>2024-08-21T08:59:02.000Z</time>
      </trkpt>
      <trkpt lat="47.99041" lon="0.18083">
        <ele>40.799999237061</ele>
        <time>2024-08-21T08:59:05.000Z</time>
      </trkpt>
      <trkpt lat="47.99038" lon="0.18068">
        <ele>40.799999237061</ele>
        <time>2024-08-21T08:59:07.000Z</time>
      </trkpt>
      <trkpt lat="47.99035" lon="0.18061">
        <ele>40.799999237061</ele>
        <time>2024-08-21T08:59:08.000Z</time>
      </trkpt>
      <trkpt lat="47.99031" lon="0.18055">
        <ele>40.799999237061</ele>
        <time>2024-08-21T08:59:09.000Z</time>
      </trkpt>
      <trkpt lat="47.99022" lon="0.18046">
        <ele>40.599998474121</ele>
        <time>2024-08-21T08:59:11.000Z</time>
      </trkpt>
      <trkpt lat="47.99017" lon="0.18042">
        <ele>40.599998474121</ele>
        <time>2024-08-21T08:59:12.000Z</time>
      </trkpt>
      <trkpt lat="47.98999" lon="0.1803">
        <ele>40.799999237061</ele>
        <time>2024-08-21T08:59:16.000Z</time>
      </trkpt>
      <trkpt lat="47.9899" lon="0.18026">
        <ele>40.799999237061</ele>
        <time>2024-08-21T08:59:18.000Z</time>
      </trkpt>
      <trkpt lat="47.98956" lon="0.18004">
        <ele>41.200000762939</ele>
        <time>2024-08-21T08:59:25.000Z</time>
      </trkpt>
      <trkpt lat="47.98951" lon="0.18">
        <ele>41.200000762939</ele>
        <time>2024-08-21T08:59:26.000Z</time>
      </trkpt>
      <trkpt lat="47.9893" lon="0.17987">
        <ele>41</ele>
        <time>2024-08-21T08:59:30.000Z</time>
      </trkpt>
      <trkpt lat="47.98903" lon="0.17973">
        <ele>40.599998474121</ele>
        <time>2024-08-21T08:59:35.000Z</time>
      </trkpt>
      <trkpt lat="47.98891" lon="0.17966">
        <ele>40.599998474121</ele>
        <time>2024-08-21T08:59:37.000Z</time>
      </trkpt>
      <trkpt lat="47.98885" lon="0.17964">
        <ele>40.599998474121</ele>
        <time>2024-08-21T08:59:38.000Z</time>
      </trkpt>
      <trkpt lat="47.9888" lon="0.17964">
        <ele>40.400001525879</ele>
        <time>2024-08-21T08:59:39.000Z</time>
      </trkpt>
      <trkpt lat="47.98868" lon="0.17964">
        <ele>40.599998474121</ele>
        <time>2024-08-21T08:59:41.000Z</time>
      </trkpt>
      <trkpt lat="47.98859" lon="0.17956">
        <ele>40.799999237061</ele>
        <time>2024-08-21T08:59:43.000Z</time>
      </trkpt>
      <trkpt lat="47.98856" lon="0.1795">
        <ele>41</ele>
        <time>2024-08-21T08:59:44.000Z</time>
      </trkpt>
      <trkpt lat="47.98848" lon="0.17939">
        <ele>41</ele>
        <time>2024-08-21T08:59:46.000Z</time>
      </trkpt>
      <trkpt lat="47.98846" lon="0.17935">
        <ele>41</ele>
        <time>2024-08-21T08:59:48.000Z</time>
      </trkpt>
      <trkpt lat="47.98839" lon="0.17927">
        <ele>41</ele>
        <time>2024-08-21T08:59:52.000Z</time>
      </trkpt>
      <trkpt lat="47.98833" lon="0.1792">
        <ele>41</ele>
        <time>2024-08-21T08:59:53.000Z</time>
      </trkpt>
      <trkpt lat="47.98824" lon="0.17922">
        <ele>41</ele>
        <time>2024-08-21T08:59:55.000Z</time>
      </trkpt>
      <trkpt lat="47.98816" lon="0.17929">
        <ele>41</ele>
        <time>2024-08-21T08:59:57.000Z</time>
      </trkpt>
      <trkpt lat="47.98806" lon="0.17941">
        <ele>41</ele>
        <time>2024-08-21T09:00:00.000Z</time>
      </trkpt>
      <trkpt lat="47.98796" lon="0.17948">
        <ele>41.200000762939</ele>
        <time>2024-08-21T09:00:02.000Z</time>
      </trkpt>
      <trkpt lat="47.98785" lon="0.17954">
        <ele>41.200000762939</ele>
        <time>2024-08-21T09:00:04.000Z</time>
      </trkpt>
      <trkpt lat="47.9878" lon="0.17956">
        <ele>41.200000762939</ele>
        <time>2024-08-21T09:00:05.000Z</time>
      </trkpt>
      <trkpt lat="47.98752" lon="0.17969">
        <ele>41.200000762939</ele>
        <time>2024-08-21T09:00:10.000Z</time>
      </trkpt>
      <trkpt lat="47.98734" lon="0.17982">
        <ele>41.799999237061</ele>
        <time>2024-08-21T09:00:15.000Z</time>
      </trkpt>
      <trkpt lat="47.9873" lon="0.17983">
        <ele>41.799999237061</ele>
        <time>2024-08-21T09:00:16.000Z</time>
      </trkpt>
      <trkpt lat="47.98726" lon="0.17982">
        <ele>42.200000762939</ele>
        <time>2024-08-21T09:00:17.000Z</time>
      </trkpt>
      <trkpt lat="47.98723" lon="0.1798">
        <ele>42.799999237061</ele>
        <time>2024-08-21T09:00:18.000Z</time>
      </trkpt>
      <trkpt lat="47.98712" lon="0.17972">
        <ele>43.400001525879</ele>
        <time>2024-08-21T09:00:21.000Z</time>
      </trkpt>
      <trkpt lat="47.98694" lon="0.17961">
        <ele>43.799999237061</ele>
        <time>2024-08-21T09:00:25.000Z</time>
      </trkpt>
      <trkpt lat="47.98662" lon="0.17935">
        <ele>44</ele>
        <time>2024-08-21T09:00:32.000Z</time>
      </trkpt>
      <trkpt lat="47.98616" lon="0.17899">
        <ele>43.400001525879</ele>
        <time>2024-08-21T09:00:41.000Z</time>
      </trkpt>
      <trkpt lat="47.98598" lon="0.17879">
        <ele>43.400001525879</ele>
        <time>2024-08-21T09:00:45.000Z</time>
      </trkpt>
      <trkpt lat="47.9859" lon="0.17866">
        <ele>43.200000762939</ele>
        <time>2024-08-21T09:00:47.000Z</time>
      </trkpt>
      <trkpt lat="47.9858" lon="0.17838">
        <ele>43.200000762939</ele>
        <time>2024-08-21T09:00:51.000Z</time>
      </trkpt>
      <trkpt lat="47.98576" lon="0.17832">
        <ele>43.200000762939</ele>
        <time>2024-08-21T09:00:52.000Z</time>
      </trkpt>
      <trkpt lat="47.98571" lon="0.17828">
        <ele>43.200000762939</ele>
        <time>2024-08-21T09:00:53.000Z</time>
      </trkpt>
      <trkpt lat="47.9856" lon="0.17828">
        <ele>43.200000762939</ele>
        <time>2024-08-21T09:00:55.000Z</time>
      </trkpt>
      <trkpt lat="47.98549" lon="0.1783">
        <ele>43.200000762939</ele>
        <time>2024-08-21T09:00:57.000Z</time>
      </trkpt>
      <trkpt lat="47.9854" lon="0.17824">
        <ele>43</ele>
        <time>2024-08-21T09:00:59.000Z</time>
      </trkpt>
      <trkpt lat="47.98527" lon="0.17796">
        <ele>42.799999237061</ele>
        <time>2024-08-21T09:01:03.000Z</time>
      </trkpt>
      <trkpt lat="47.98502" lon="0.17741">
        <ele>42.799999237061</ele>
        <time>2024-08-21T09:01:10.000Z</time>
      </trkpt>
      <trkpt lat="47.98478" lon="0.17682">
        <ele>42.599998474121</ele>
        <time>2024-08-21T09:01:17.000Z</time>
      </trkpt>
      <trkpt lat="47.98467" lon="0.17658">
        <ele>42.400001525879</ele>
        <time>2024-08-21T09:01:20.000Z</time>
      </trkpt>
      <trkpt lat="47.98456" lon="0.17633">
        <ele>42.200000762939</ele>
        <time>2024-08-21T09:01:23.000Z</time>
      </trkpt>
      <trkpt lat="47.98434" lon="0.17575">
        <ele>42.200000762939</ele>
        <time>2024-08-21T09:01:30.000Z</time>
      </trkpt>
      <trkpt lat="47.98405" lon="0.17502">
        <ele>41.799999237061</ele>
        <time>2024-08-21T09:01:39.000Z</time>
      </trkpt>
      <trkpt lat="47.98402" lon="0.17494">
        <ele>41.799999237061</ele>
        <time>2024-08-21T09:01:40.000Z</time>
      </trkpt>
      <trkpt lat="47.98376" lon="0.17444">
        <ele>41.599998474121</ele>
        <time>2024-08-21T09:01:47.000Z</time>
      </trkpt>
      <trkpt lat="47.98338" lon="0.1738">
        <ele>41.599998474121</ele>
        <time>2024-08-21T09:01:56.000Z</time>
      </trkpt>
      <trkpt lat="47.98307" lon="0.17333">
        <ele>42.200000762939</ele>
        <time>2024-08-21T09:02:03.000Z</time>
      </trkpt>
      <trkpt lat="47.98299" lon="0.1732">
        <ele>42.200000762939</ele>
        <time>2024-08-21T09:02:05.000Z</time>
      </trkpt>
      <trkpt lat="47.98291" lon="0.17308">
        <ele>42.200000762939</ele>
        <time>2024-08-21T09:02:07.000Z</time>
      </trkpt>
      <trkpt lat="47.98257" lon="0.17253">
        <ele>42.400001525879</ele>
        <time>2024-08-21T09:02:15.000Z</time>
      </trkpt>
      <trkpt lat="47.98218" lon="0.17192">
        <ele>42.200000762939</ele>
        <time>2024-08-21T09:02:24.000Z</time>
      </trkpt>
      <trkpt lat="47.9821" lon="0.17179">
        <ele>42.200000762939</ele>
        <time>2024-08-21T09:02:26.000Z</time>
      </trkpt>
      <trkpt lat="47.98201" lon="0.17165">
        <ele>42.200000762939</ele>
        <time>2024-08-21T09:02:28.000Z</time>
      </trkpt>
      <trkpt lat="47.98171" lon="0.17118">
        <ele>42.200000762939</ele>
        <time>2024-08-21T09:02:35.000Z</time>
      </trkpt>
      <trkpt lat="47.98133" lon="0.17067">
        <ele>41.599998474121</ele>
        <time>2024-08-21T09:02:43.000Z</time>
      </trkpt>
      <trkpt lat="47.98094" lon="0.1702">
        <ele>41.799999237061</ele>
        <time>2024-08-21T09:02:51.000Z</time>
      </trkpt>
      <trkpt lat="47.98051" lon="0.16968">
        <ele>42.200000762939</ele>
        <time>2024-08-21T09:03:00.000Z</time>
      </trkpt>
      <trkpt lat="47.98014" lon="0.16937">
        <ele>41.599998474121</ele>
        <time>2024-08-21T09:03:07.000Z</time>
      </trkpt>
      <trkpt lat="47.98008" lon="0.16934">
        <ele>41.400001525879</ele>
        <time>2024-08-21T09:03:08.000Z</time>
      </trkpt>
      <trkpt lat="47.98003" lon="0.16931">
        <ele>41.400001525879</ele>
        <time>2024-08-21T09:03:09.000Z</time>
      </trkpt>
      <trkpt lat="47.97993" lon="0.16925">
        <ele>41.400001525879</ele>
        <time>2024-08-21T09:03:11.000Z</time>
      </trkpt>
      <trkpt lat="47.9799" lon="0.16921">
        <ele>41.400001525879</ele>
        <time>2024-08-21T09:03:12.000Z</time>
      </trkpt>
      <trkpt lat="47.97986" lon="0.16914">
        <ele>41.400001525879</ele>
        <time>2024-08-21T09:03:14.000Z</time>
      </trkpt>
      <trkpt lat="47.97984" lon="0.16914">
        <ele>41.599998474121</ele>
        <time>2024-08-21T09:03:15.000Z</time>
      </trkpt>
      <trkpt lat="47.97977" lon="0.16919">
        <ele>42</ele>
        <time>2024-08-21T09:03:17.000Z</time>
      </trkpt>
      <trkpt lat="47.97969" lon="0.1692">
        <ele>42.200000762939</ele>
        <time>2024-08-21T09:03:19.000Z</time>
      </trkpt>
      <trkpt lat="47.97944" lon="0.1692">
        <ele>42.200000762939</ele>
        <time>2024-08-21T09:03:24.000Z</time>
      </trkpt>
      <trkpt lat="47.97934" lon="0.16921">
        <ele>42.200000762939</ele>
        <time>2024-08-21T09:03:26.000Z</time>
      </trkpt>
      <trkpt lat="47.97926" lon="0.16921">
        <ele>42.200000762939</ele>
        <time>2024-08-21T09:03:28.000Z</time>
      </trkpt>
      <trkpt lat="47.9792" lon="0.16914">
        <ele>42.200000762939</ele>
        <time>2024-08-21T09:03:30.000Z</time>
      </trkpt>
      <trkpt lat="47.97917" lon="0.16905">
        <ele>42.200000762939</ele>
        <time>2024-08-21T09:03:32.000Z</time>
      </trkpt>
      <trkpt lat="47.97916" lon="0.16898">
        <ele>42.200000762939</ele>
        <time>2024-08-21T09:03:33.000Z</time>
      </trkpt>
      <trkpt lat="47.97916" lon="0.16853">
        <ele>42.200000762939</ele>
        <time>2024-08-21T09:03:39.000Z</time>
      </trkpt>
      <trkpt lat="47.97914" lon="0.16794">
        <ele>41.799999237061</ele>
        <time>2024-08-21T09:03:46.000Z</time>
      </trkpt>
      <trkpt lat="47.97912" lon="0.16733">
        <ele>41.799999237061</ele>
        <time>2024-08-21T09:03:53.000Z</time>
      </trkpt>
      <trkpt lat="47.97912" lon="0.16724">
        <ele>41.799999237061</ele>
        <time>2024-08-21T09:03:54.000Z</time>
      </trkpt>
      <trkpt lat="47.9791" lon="0.16641">
        <ele>41.799999237061</ele>
        <time>2024-08-21T09:04:03.000Z</time>
      </trkpt>
      <trkpt lat="47.9791" lon="0.16631">
        <ele>41.599998474121</ele>
        <time>2024-08-21T09:04:04.000Z</time>
      </trkpt>
      <trkpt lat="47.97914" lon="0.16578">
        <ele>41.400001525879</ele>
        <time>2024-08-21T09:04:10.000Z</time>
      </trkpt>
      <trkpt lat="47.97929" lon="0.16528">
        <ele>41.599998474121</ele>
        <time>2024-08-21T09:04:16.000Z</time>
      </trkpt>
      <trkpt lat="47.97953" lon="0.16481">
        <ele>41.799999237061</ele>
        <time>2024-08-21T09:04:23.000Z</time>
      </trkpt>
      <trkpt lat="47.97962" lon="0.16462">
        <ele>42.400001525879</ele>
        <time>2024-08-21T09:04:26.000Z</time>
      </trkpt>
      <trkpt lat="47.97964" lon="0.16449">
        <ele>42.799999237061</ele>
        <time>2024-08-21T09:04:28.000Z</time>
      </trkpt>
      <trkpt lat="47.97962" lon="0.16434">
        <ele>43</ele>
        <time>2024-08-21T09:04:30.000Z</time>
      </trkpt>
      <trkpt lat="47.97956" lon="0.16418">
        <ele>43</ele>
        <time>2024-08-21T09:04:32.000Z</time>
      </trkpt>
      <trkpt lat="47.97943" lon="0.16396">
        <ele>43</ele>
        <time>2024-08-21T09:04:35.000Z</time>
      </trkpt>
      <trkpt lat="47.97933" lon="0.16382">
        <ele>42.400001525879</ele>
        <time>2024-08-21T09:04:37.000Z</time>
      </trkpt>
      <trkpt lat="47.979" lon="0.16339">
        <ele>41.599998474121</ele>
        <time>2024-08-21T09:04:44.000Z</time>
      </trkpt>
      <trkpt lat="47.97863" lon="0.16289">
        <ele>41.599998474121</ele>
        <time>2024-08-21T09:04:52.000Z</time>
      </trkpt>
      <trkpt lat="47.97849" lon="0.16269">
        <ele>41.400001525879</ele>
        <time>2024-08-21T09:04:55.000Z</time>
      </trkpt>
      <trkpt lat="47.97829" lon="0.16244">
        <ele>41.200000762939</ele>
        <time>2024-08-21T09:04:59.000Z</time>
      </trkpt>
      <trkpt lat="47.97789" lon="0.16188">
        <ele>41.400001525879</ele>
        <time>2024-08-21T09:05:08.000Z</time>
      </trkpt>
      <trkpt lat="47.97774" lon="0.16168">
        <ele>41.599998474121</ele>
        <time>2024-08-21T09:05:11.000Z</time>
      </trkpt>
      <trkpt lat="47.97751" lon="0.16137">
        <ele>41.799999237061</ele>
        <time>2024-08-21T09:05:16.000Z</time>
      </trkpt>
      <trkpt lat="47.97712" lon="0.16083">
        <ele>41.599998474121</ele>
        <time>2024-08-21T09:05:24.000Z</time>
      </trkpt>
      <trkpt lat="47.97707" lon="0.16078">
        <ele>41.599998474121</ele>
        <time>2024-08-21T09:05:25.000Z</time>
      </trkpt>
      <trkpt lat="47.97687" lon="0.1606">
        <ele>41.400001525879</ele>
        <time>2024-08-21T09:05:29.000Z</time>
      </trkpt>
      <trkpt lat="47.97674" lon="0.16055">
        <ele>41.400001525879</ele>
        <time>2024-08-21T09:05:31.000Z</time>
      </trkpt>
      <trkpt lat="47.97661" lon="0.16051">
        <ele>41.400001525879</ele>
        <time>2024-08-21T09:05:33.000Z</time>
      </trkpt>
      <trkpt lat="47.97627" lon="0.16047">
        <ele>41.200000762939</ele>
        <time>2024-08-21T09:05:39.000Z</time>
      </trkpt>
      <trkpt lat="47.97623" lon="0.16046">
        <ele>41.200000762939</ele>
        <time>2024-08-21T09:05:40.000Z</time>
      </trkpt>
      <trkpt lat="47.97604" lon="0.16047">
        <ele>41.200000762939</ele>
        <time>2024-08-21T09:05:45.000Z</time>
      </trkpt>
      <trkpt lat="47.9759" lon="0.16043">
        <ele>41.200000762939</ele>
        <time>2024-08-21T09:05:49.000Z</time>
      </trkpt>
      <trkpt lat="47.97589" lon="0.1604">
        <ele>41.200000762939</ele>
        <time>2024-08-21T09:05:52.000Z</time>
      </trkpt>
      <trkpt lat="47.97584" lon="0.16047">
        <ele>41</ele>
        <time>2024-08-21T09:08:05.000Z</time>
      </trkpt>
      <trkpt lat="47.9758" lon="0.16048">
        <ele>40.799999237061</ele>
        <time>2024-08-21T09:08:07.000Z</time>
      </trkpt>
      <trkpt lat="47.97562" lon="0.16053">
        <ele>40.799999237061</ele>
        <time>2024-08-21T09:08:12.000Z</time>
      </trkpt>
      <trkpt lat="47.97558" lon="0.16056">
        <ele>40.799999237061</ele>
        <time>2024-08-21T09:08:13.000Z</time>
      </trkpt>
      <trkpt lat="47.97552" lon="0.16066">
        <ele>40.599998474121</ele>
        <time>2024-08-21T09:08:15.000Z</time>
      </trkpt>
      <trkpt lat="47.97548" lon="0.16071">
        <ele>40.599998474121</ele>
        <time>2024-08-21T09:08:16.000Z</time>
      </trkpt>
      <trkpt lat="47.97545" lon="0.16075">
        <ele>40.400001525879</ele>
        <time>2024-08-21T09:08:17.000Z</time>
      </trkpt>
      <trkpt lat="47.97534" lon="0.16086">
        <ele>40.400001525879</ele>
        <time>2024-08-21T09:08:20.000Z</time>
      </trkpt>
      <trkpt lat="47.97528" lon="0.1609">
        <ele>40.200000762939</ele>
        <time>2024-08-21T09:08:22.000Z</time>
      </trkpt>
      <trkpt lat="47.97519" lon="0.161">
        <ele>40.200000762939</ele>
        <time>2024-08-21T09:08:26.000Z</time>
      </trkpt>
      <trkpt lat="47.97494" lon="0.16117">
        <ele>39.799999237061</ele>
        <time>2024-08-21T09:08:32.000Z</time>
      </trkpt>
      <trkpt lat="47.97489" lon="0.16119">
        <ele>39.799999237061</ele>
        <time>2024-08-21T09:08:33.000Z</time>
      </trkpt>
      <trkpt lat="47.97463" lon="0.16125">
        <ele>39.400001525879</ele>
        <time>2024-08-21T09:08:38.000Z</time>
      </trkpt>
      <trkpt lat="47.97459" lon="0.16128">
        <ele>39.400001525879</ele>
        <time>2024-08-21T09:08:39.000Z</time>
      </trkpt>
      <trkpt lat="47.97455" lon="0.16132">
        <ele>39.200000762939</ele>
        <time>2024-08-21T09:08:40.000Z</time>
      </trkpt>
      <trkpt lat="47.97451" lon="0.16135">
        <ele>39.200000762939</ele>
        <time>2024-08-21T09:08:41.000Z</time>
      </trkpt>
      <trkpt lat="47.97443" lon="0.16145">
        <ele>39.200000762939</ele>
        <time>2024-08-21T09:08:43.000Z</time>
      </trkpt>
      <trkpt lat="47.97435" lon="0.16153">
        <ele>39.200000762939</ele>
        <time>2024-08-21T09:08:45.000Z</time>
      </trkpt>
      <trkpt lat="47.97431" lon="0.16157">
        <ele>39.200000762939</ele>
        <time>2024-08-21T09:08:46.000Z</time>
      </trkpt>
      <trkpt lat="47.97391" lon="0.16187">
        <ele>39.400001525879</ele>
        <time>2024-08-21T09:08:54.000Z</time>
      </trkpt>
      <trkpt lat="47.9734" lon="0.1623">
        <ele>39.200000762939</ele>
        <time>2024-08-21T09:09:04.000Z</time>
      </trkpt>
      <trkpt lat="47.97302" lon="0.16264">
        <ele>39.400001525879</ele>
        <time>2024-08-21T09:09:12.000Z</time>
      </trkpt>
      <trkpt lat="47.97285" lon="0.16284">
        <ele>39.599998474121</ele>
        <time>2024-08-21T09:09:16.000Z</time>
      </trkpt>
      <trkpt lat="47.9727" lon="0.16309">
        <ele>39.599998474121</ele>
        <time>2024-08-21T09:09:20.000Z</time>
      </trkpt>
      <trkpt lat="47.97265" lon="0.16324">
        <ele>39.599998474121</ele>
        <time>2024-08-21T09:09:22.000Z</time>
      </trkpt>
      <trkpt lat="47.97265" lon="0.16341">
        <ele>39.599998474121</ele>
        <time>2024-08-21T09:09:24.000Z</time>
      </trkpt>
      <trkpt lat="47.97272" lon="0.16369">
        <ele>39.599998474121</ele>
        <time>2024-08-21T09:09:28.000Z</time>
      </trkpt>
      <trkpt lat="47.97274" lon="0.16376">
        <ele>39.599998474121</ele>
        <time>2024-08-21T09:09:29.000Z</time>
      </trkpt>
      <trkpt lat="47.97286" lon="0.16423">
        <ele>39.400001525879</ele>
        <time>2024-08-21T09:09:35.000Z</time>
      </trkpt>
      <trkpt lat="47.97294" lon="0.16453">
        <ele>39.200000762939</ele>
        <time>2024-08-21T09:09:39.000Z</time>
      </trkpt>
      <trkpt lat="47.97298" lon="0.16468">
        <ele>39</ele>
        <time>2024-08-21T09:09:41.000Z</time>
      </trkpt>
      <trkpt lat="47.97308" lon="0.16522">
        <ele>38.799999237061</ele>
        <time>2024-08-21T09:09:48.000Z</time>
      </trkpt>
      <trkpt lat="47.97317" lon="0.16577">
        <ele>39</ele>
        <time>2024-08-21T09:09:55.000Z</time>
      </trkpt>
      <trkpt lat="47.97319" lon="0.1664">
        <ele>39.599998474121</ele>
        <time>2024-08-21T09:10:03.000Z</time>
      </trkpt>
      <trkpt lat="47.9732" lon="0.16664">
        <ele>39.599998474121</ele>
        <time>2024-08-21T09:10:06.000Z</time>
      </trkpt>
      <trkpt lat="47.97323" lon="0.16671">
        <ele>39.799999237061</ele>
        <time>2024-08-21T09:10:08.000Z</time>
      </trkpt>
      <trkpt lat="47.97325" lon="0.16665">
        <ele>40</ele>
        <time>2024-08-21T09:10:10.000Z</time>
      </trkpt>
      <trkpt lat="47.97325" lon="0.16654">
        <ele>40.200000762939</ele>
        <time>2024-08-21T09:10:12.000Z</time>
      </trkpt>
      <trkpt lat="47.97326" lon="0.16642">
        <ele>40.599998474121</ele>
        <time>2024-08-21T09:10:14.000Z</time>
      </trkpt>
      <trkpt lat="47.9733" lon="0.16601">
        <ele>41.200000762939</ele>
        <time>2024-08-21T09:10:21.000Z</time>
      </trkpt>
      <trkpt lat="47.9733" lon="0.16595">
        <ele>41.400001525879</ele>
        <time>2024-08-21T09:10:22.000Z</time>
      </trkpt>
      <trkpt lat="47.97333" lon="0.16546">
        <ele>42.400001525879</ele>
        <time>2024-08-21T09:10:31.000Z</time>
      </trkpt>
      <trkpt lat="47.97328" lon="0.16515">
        <ele>43.200000762939</ele>
        <time>2024-08-21T09:10:37.000Z</time>
      </trkpt>
      <trkpt lat="47.97322" lon="0.1651">
        <ele>43.599998474121</ele>
        <time>2024-08-21T09:10:39.000Z</time>
      </trkpt>
      <trkpt lat="47.97315" lon="0.16509">
        <ele>43.799999237061</ele>
        <time>2024-08-21T09:10:41.000Z</time>
      </trkpt>
      <trkpt lat="47.97296" lon="0.16513">
        <ele>44.599998474121</ele>
        <time>2024-08-21T09:10:46.000Z</time>
      </trkpt>
      <trkpt lat="47.97285" lon="0.16516">
        <ele>45</ele>
        <time>2024-08-21T09:10:49.000Z</time>
      </trkpt>
      <trkpt lat="47.97244" lon="0.16529">
        <ele>45.400001525879</ele>
        <time>2024-08-21T09:10:59.000Z</time>
      </trkpt>
      <trkpt lat="47.97239" lon="0.16536">
        <ele>45.200000762939</ele>
        <time>2024-08-21T09:11:01.000Z</time>
      </trkpt>
      <trkpt lat="47.97238" lon="0.16541">
        <ele>45</ele>
        <time>2024-08-21T09:11:02.000Z</time>
      </trkpt>
      <trkpt lat="47.97242" lon="0.1657">
        <ele>44.200000762939</ele>
        <time>2024-08-21T09:11:07.000Z</time>
      </trkpt>
      <trkpt lat="47.97239" lon="0.16582">
        <ele>43.599998474121</ele>
        <time>2024-08-21T09:11:09.000Z</time>
      </trkpt>
      <trkpt lat="47.97237" lon="0.16587">
        <ele>43.200000762939</ele>
        <time>2024-08-21T09:11:10.000Z</time>
      </trkpt>
      <trkpt lat="47.97234" lon="0.16592">
        <ele>42.599998474121</ele>
        <time>2024-08-21T09:11:11.000Z</time>
      </trkpt>
      <trkpt lat="47.9723" lon="0.16597">
        <ele>42.400001525879</ele>
        <time>2024-08-21T09:11:12.000Z</time>
      </trkpt>
      <trkpt lat="47.97227" lon="0.16601">
        <ele>42.200000762939</ele>
        <time>2024-08-21T09:11:13.000Z</time>
      </trkpt>
      <trkpt lat="47.97228" lon="0.1661">
        <ele>41.799999237061</ele>
        <time>2024-08-21T09:11:15.000Z</time>
      </trkpt>
      <trkpt lat="47.97231" lon="0.16617">
        <ele>41.599998474121</ele>
        <time>2024-08-21T09:11:17.000Z</time>
      </trkpt>
      <trkpt lat="47.97231" lon="0.1662">
        <ele>41.599998474121</ele>
        <time>2024-08-21T09:11:18.000Z</time>
      </trkpt>
      <trkpt lat="47.9723" lon="0.16624">
        <ele>41.599998474121</ele>
        <time>2024-08-21T09:11:19.000Z</time>
      </trkpt>
      <trkpt lat="47.97224" lon="0.1663">
        <ele>41.400001525879</ele>
        <time>2024-08-21T09:11:21.000Z</time>
      </trkpt>
      <trkpt lat="47.9722" lon="0.16634">
        <ele>41.400001525879</ele>
        <time>2024-08-21T09:11:22.000Z</time>
      </trkpt>
      <trkpt lat="47.97202" lon="0.16655">
        <ele>41.400001525879</ele>
        <time>2024-08-21T09:11:27.000Z</time>
      </trkpt>
      <trkpt lat="47.97191" lon="0.16669">
        <ele>41.200000762939</ele>
        <time>2024-08-21T09:11:30.000Z</time>
      </trkpt>
      <trkpt lat="47.97183" lon="0.16674">
        <ele>41</ele>
        <time>2024-08-21T09:11:32.000Z</time>
      </trkpt>
      <trkpt lat="47.97175" lon="0.16676">
        <ele>41</ele>
        <time>2024-08-21T09:11:34.000Z</time>
      </trkpt>
      <trkpt lat="47.97166" lon="0.16676">
        <ele>40.799999237061</ele>
        <time>2024-08-21T09:11:36.000Z</time>
      </trkpt>
      <trkpt lat="47.97162" lon="0.16676">
        <ele>40.799999237061</ele>
        <time>2024-08-21T09:11:37.000Z</time>
      </trkpt>
      <trkpt lat="47.97159" lon="0.16679">
        <ele>40.799999237061</ele>
        <time>2024-08-21T09:11:38.000Z</time>
      </trkpt>
      <trkpt lat="47.97151" lon="0.16688">
        <ele>40.599998474121</ele>
        <time>2024-08-21T09:11:40.000Z</time>
      </trkpt>
      <trkpt lat="47.9714" lon="0.16705">
        <ele>40.200000762939</ele>
        <time>2024-08-21T09:11:43.000Z</time>
      </trkpt>
      <trkpt lat="47.97137" lon="0.1671">
        <ele>40</ele>
        <time>2024-08-21T09:11:44.000Z</time>
      </trkpt>
      <trkpt lat="47.97128" lon="0.1672">
        <ele>39.799999237061</ele>
        <time>2024-08-21T09:11:46.000Z</time>
      </trkpt>
      <trkpt lat="47.97108" lon="0.16746">
        <ele>39.200000762939</ele>
        <time>2024-08-21T09:11:51.000Z</time>
      </trkpt>
      <trkpt lat="47.97104" lon="0.16751">
        <ele>39.200000762939</ele>
        <time>2024-08-21T09:11:52.000Z</time>
      </trkpt>
      <trkpt lat="47.97099" lon="0.16754">
        <ele>39.200000762939</ele>
        <time>2024-08-21T09:11:53.000Z</time>
      </trkpt>
      <trkpt lat="47.9709" lon="0.16759">
        <ele>39.599998474121</ele>
        <time>2024-08-21T09:11:55.000Z</time>
      </trkpt>
      <trkpt lat="47.97084" lon="0.16765">
        <ele>40</ele>
        <time>2024-08-21T09:11:57.000Z</time>
      </trkpt>
      <trkpt lat="47.97081" lon="0.16768">
        <ele>40.200000762939</ele>
        <time>2024-08-21T09:11:58.000Z</time>
      </trkpt>
      <trkpt lat="47.97078" lon="0.16779">
        <ele>40.599998474121</ele>
        <time>2024-08-21T09:12:00.000Z</time>
      </trkpt>
      <trkpt lat="47.97074" lon="0.1679">
        <ele>40.799999237061</ele>
        <time>2024-08-21T09:12:02.000Z</time>
      </trkpt>
      <trkpt lat="47.97066" lon="0.16805">
        <ele>40.799999237061</ele>
        <time>2024-08-21T09:12:05.000Z</time>
      </trkpt>
      <trkpt lat="47.97054" lon="0.16814">
        <ele>40.599998474121</ele>
        <time>2024-08-21T09:12:09.000Z</time>
      </trkpt>
      <trkpt lat="47.97039" lon="0.16836">
        <ele>40.200000762939</ele>
        <time>2024-08-21T09:12:14.000Z</time>
      </trkpt>
      <trkpt lat="47.97027" lon="0.16852">
        <ele>39.799999237061</ele>
        <time>2024-08-21T09:12:17.000Z</time>
      </trkpt>
      <trkpt lat="47.97021" lon="0.16864">
        <ele>39.599998474121</ele>
        <time>2024-08-21T09:12:19.000Z</time>
      </trkpt>
      <trkpt lat="47.97" lon="0.16894">
        <ele>39.400001525879</ele>
        <time>2024-08-21T09:12:25.000Z</time>
      </trkpt>
      <trkpt lat="47.96985" lon="0.16916">
        <ele>39.200000762939</ele>
        <time>2024-08-21T09:12:29.000Z</time>
      </trkpt>
      <trkpt lat="47.96971" lon="0.1693">
        <ele>39.200000762939</ele>
        <time>2024-08-21T09:12:32.000Z</time>
      </trkpt>
      <trkpt lat="47.96967" lon="0.16935">
        <ele>39</ele>
        <time>2024-08-21T09:12:33.000Z</time>
      </trkpt>
      <trkpt lat="47.96963" lon="0.16938">
        <ele>39</ele>
        <time>2024-08-21T09:12:34.000Z</time>
      </trkpt>
      <trkpt lat="47.96951" lon="0.16952">
        <ele>38.799999237061</ele>
        <time>2024-08-21T09:12:37.000Z</time>
      </trkpt>
      <trkpt lat="47.96948" lon="0.16956">
        <ele>38.799999237061</ele>
        <time>2024-08-21T09:12:38.000Z</time>
      </trkpt>
      <trkpt lat="47.96928" lon="0.1698">
        <ele>38.599998474121</ele>
        <time>2024-08-21T09:12:44.000Z</time>
      </trkpt>
      <trkpt lat="47.96922" lon="0.16988">
        <ele>38.799999237061</ele>
        <time>2024-08-21T09:12:46.000Z</time>
      </trkpt>
      <trkpt lat="47.96913" lon="0.17">
        <ele>39</ele>
        <time>2024-08-21T09:12:49.000Z</time>
      </trkpt>
      <trkpt lat="47.9689" lon="0.17024">
        <ele>39.400001525879</ele>
        <time>2024-08-21T09:12:56.000Z</time>
      </trkpt>
      <trkpt lat="47.96881" lon="0.17036">
        <ele>40</ele>
        <time>2024-08-21T09:12:59.000Z</time>
      </trkpt>
      <trkpt lat="47.96871" lon="0.17044">
        <ele>41.200000762939</ele>
        <time>2024-08-21T09:13:03.000Z</time>
      </trkpt>
      <trkpt lat="47.96862" lon="0.17054">
        <ele>41.599998474121</ele>
        <time>2024-08-21T09:13:06.000Z</time>
      </trkpt>
      <trkpt lat="47.9686" lon="0.17056">
        <ele>41.799999237061</ele>
        <time>2024-08-21T09:13:07.000Z</time>
      </trkpt>
      <trkpt lat="47.96851" lon="0.1707">
        <ele>41.799999237061</ele>
        <time>2024-08-21T09:13:11.000Z</time>
      </trkpt>
      <trkpt lat="47.96834" lon="0.17096">
        <ele>41.599998474121</ele>
        <time>2024-08-21T09:13:16.000Z</time>
      </trkpt>
      <trkpt lat="47.96818" lon="0.17117">
        <ele>41.400001525879</ele>
        <time>2024-08-21T09:13:20.000Z</time>
      </trkpt>
      <trkpt lat="47.96797" lon="0.17149">
        <ele>41.400001525879</ele>
        <time>2024-08-21T09:13:25.000Z</time>
      </trkpt>
      <trkpt lat="47.96768" lon="0.17189">
        <ele>40.799999237061</ele>
        <time>2024-08-21T09:13:31.000Z</time>
      </trkpt>
      <trkpt lat="47.96755" lon="0.17204">
        <ele>40.400001525879</ele>
        <time>2024-08-21T09:13:33.000Z</time>
      </trkpt>
      <trkpt lat="47.9675" lon="0.17213">
        <ele>40.200000762939</ele>
        <time>2024-08-21T09:13:34.000Z</time>
      </trkpt>
      <trkpt lat="47.96738" lon="0.17227">
        <ele>39.799999237061</ele>
        <time>2024-08-21T09:13:36.000Z</time>
      </trkpt>
      <trkpt lat="47.96724" lon="0.17234">
        <ele>39.799999237061</ele>
        <time>2024-08-21T09:13:38.000Z</time>
      </trkpt>
      <trkpt lat="47.96712" lon="0.17243">
        <ele>39.599998474121</ele>
        <time>2024-08-21T09:13:40.000Z</time>
      </trkpt>
      <trkpt lat="47.96694" lon="0.17261">
        <ele>39</ele>
        <time>2024-08-21T09:13:43.000Z</time>
      </trkpt>
      <trkpt lat="47.96684" lon="0.17272">
        <ele>38.799999237061</ele>
        <time>2024-08-21T09:13:45.000Z</time>
      </trkpt>
      <trkpt lat="47.96664" lon="0.17289">
        <ele>38.799999237061</ele>
        <time>2024-08-21T09:13:49.000Z</time>
      </trkpt>
      <trkpt lat="47.96655" lon="0.17299">
        <ele>38.799999237061</ele>
        <time>2024-08-21T09:13:51.000Z</time>
      </trkpt>
      <trkpt lat="47.96627" lon="0.17328">
        <ele>39</ele>
        <time>2024-08-21T09:13:57.000Z</time>
      </trkpt>
      <trkpt lat="47.96579" lon="0.17368">
        <ele>38.400001525879</ele>
        <time>2024-08-21T09:14:06.000Z</time>
      </trkpt>
      <trkpt lat="47.96574" lon="0.17372">
        <ele>38.400001525879</ele>
        <time>2024-08-21T09:14:07.000Z</time>
      </trkpt>
      <trkpt lat="47.96568" lon="0.17375">
        <ele>38.400001525879</ele>
        <time>2024-08-21T09:14:08.000Z</time>
      </trkpt>
      <trkpt lat="47.9654" lon="0.17389">
        <ele>38.400001525879</ele>
        <time>2024-08-21T09:14:13.000Z</time>
      </trkpt>
      <trkpt lat="47.96502" lon="0.1742">
        <ele>38.200000762939</ele>
        <time>2024-08-21T09:14:20.000Z</time>
      </trkpt>
      <trkpt lat="47.96468" lon="0.17444">
        <ele>38.400001525879</ele>
        <time>2024-08-21T09:14:27.000Z</time>
      </trkpt>
      <trkpt lat="47.96417" lon="0.17476">
        <ele>38.599998474121</ele>
        <time>2024-08-21T09:14:37.000Z</time>
      </trkpt>
      <trkpt lat="47.96379" lon="0.1749">
        <ele>38.599998474121</ele>
        <time>2024-08-21T09:14:44.000Z</time>
      </trkpt>
      <trkpt lat="47.96331" lon="0.17498">
        <ele>38.799999237061</ele>
        <time>2024-08-21T09:14:53.000Z</time>
      </trkpt>
      <trkpt lat="47.96291" lon="0.17499">
        <ele>38.799999237061</ele>
        <time>2024-08-21T09:15:00.000Z</time>
      </trkpt>
      <trkpt lat="47.96253" lon="0.175">
        <ele>38.799999237061</ele>
        <time>2024-08-21T09:15:07.000Z</time>
      </trkpt>
      <trkpt lat="47.96243" lon="0.17499">
        <ele>38.799999237061</ele>
        <time>2024-08-21T09:15:09.000Z</time>
      </trkpt>
      <trkpt lat="47.96222" lon="0.17492">
        <ele>39.200000762939</ele>
        <time>2024-08-21T09:15:13.000Z</time>
      </trkpt>
      <trkpt lat="47.96211" lon="0.17487">
        <ele>39.200000762939</ele>
        <time>2024-08-21T09:15:15.000Z</time>
      </trkpt>
      <trkpt lat="47.96196" lon="0.17474">
        <ele>39.200000762939</ele>
        <time>2024-08-21T09:15:18.000Z</time>
      </trkpt>
      <trkpt lat="47.96191" lon="0.17469">
        <ele>39.200000762939</ele>
        <time>2024-08-21T09:15:19.000Z</time>
      </trkpt>
      <trkpt lat="47.96176" lon="0.17452">
        <ele>39</ele>
        <time>2024-08-21T09:15:22.000Z</time>
      </trkpt>
      <trkpt lat="47.96166" lon="0.17446">
        <ele>38.799999237061</ele>
        <time>2024-08-21T09:15:24.000Z</time>
      </trkpt>
      <trkpt lat="47.96149" lon="0.1745">
        <ele>38.400001525879</ele>
        <time>2024-08-21T09:15:27.000Z</time>
      </trkpt>
      <trkpt lat="47.96126" lon="0.17458">
        <ele>38.400001525879</ele>
        <time>2024-08-21T09:15:31.000Z</time>
      </trkpt>
      <trkpt lat="47.96114" lon="0.17458">
        <ele>38.200000762939</ele>
        <time>2024-08-21T09:15:33.000Z</time>
      </trkpt>
      <trkpt lat="47.96085" lon="0.1745">
        <ele>37.599998474121</ele>
        <time>2024-08-21T09:15:38.000Z</time>
      </trkpt>
      <trkpt lat="47.9608" lon="0.17448">
        <ele>37.400001525879</ele>
        <time>2024-08-21T09:15:39.000Z</time>
      </trkpt>
      <trkpt lat="47.96047" lon="0.17438">
        <ele>37.599998474121</ele>
        <time>2024-08-21T09:15:45.000Z</time>
      </trkpt>
      <trkpt lat="47.96042" lon="0.17437">
        <ele>37.799999237061</ele>
        <time>2024-08-21T09:15:46.000Z</time>
      </trkpt>
      <trkpt lat="47.95999" lon="0.17434">
        <ele>38.200000762939</ele>
        <time>2024-08-21T09:15:54.000Z</time>
      </trkpt>
      <trkpt lat="47.95948" lon="0.17436">
        <ele>38.200000762939</ele>
        <time>2024-08-21T09:16:04.000Z</time>
      </trkpt>
      <trkpt lat="47.95924" lon="0.17439">
        <ele>38.599998474121</ele>
        <time>2024-08-21T09:16:09.000Z</time>
      </trkpt>
      <trkpt lat="47.95903" lon="0.17439">
        <ele>39</ele>
        <time>2024-08-21T09:16:13.000Z</time>
      </trkpt>
      <trkpt lat="47.9586" lon="0.17448">
        <ele>39</ele>
        <time>2024-08-21T09:16:21.000Z</time>
      </trkpt>
      <trkpt lat="47.95819" lon="0.17462">
        <ele>39</ele>
        <time>2024-08-21T09:16:29.000Z</time>
      </trkpt>
      <trkpt lat="47.95788" lon="0.17479">
        <ele>39</ele>
        <time>2024-08-21T09:16:35.000Z</time>
      </trkpt>
      <trkpt lat="47.9578" lon="0.17488">
        <ele>39</ele>
        <time>2024-08-21T09:16:37.000Z</time>
      </trkpt>
      <trkpt lat="47.95745" lon="0.17527">
        <ele>38.799999237061</ele>
        <time>2024-08-21T09:16:45.000Z</time>
      </trkpt>
      <trkpt lat="47.9571" lon="0.17557">
        <ele>38.799999237061</ele>
        <time>2024-08-21T09:16:52.000Z</time>
      </trkpt>
      <trkpt lat="47.95689" lon="0.17575">
        <ele>38.799999237061</ele>
        <time>2024-08-21T09:16:56.000Z</time>
      </trkpt>
      <trkpt lat="47.95674" lon="0.17588">
        <ele>38.599998474121</ele>
        <time>2024-08-21T09:16:59.000Z</time>
      </trkpt>
      <trkpt lat="47.95636" lon="0.17623">
        <ele>38.599998474121</ele>
        <time>2024-08-21T09:17:07.000Z</time>
      </trkpt>
      <trkpt lat="47.95631" lon="0.17627">
        <ele>38.599998474121</ele>
        <time>2024-08-21T09:17:08.000Z</time>
      </trkpt>
      <trkpt lat="47.95615" lon="0.17646">
        <ele>38.799999237061</ele>
        <time>2024-08-21T09:17:12.000Z</time>
      </trkpt>
      <trkpt lat="47.95611" lon="0.17652">
        <ele>38.599998474121</ele>
        <time>2024-08-21T09:17:13.000Z</time>
      </trkpt>
      <trkpt lat="47.95601" lon="0.1767">
        <ele>38.599998474121</ele>
        <time>2024-08-21T09:17:16.000Z</time>
      </trkpt>
      <trkpt lat="47.95598" lon="0.17676">
        <ele>38.599998474121</ele>
        <time>2024-08-21T09:17:17.000Z</time>
      </trkpt>
      <trkpt lat="47.95568" lon="0.17733">
        <ele>38.799999237061</ele>
        <time>2024-08-21T09:17:26.000Z</time>
      </trkpt>
      <trkpt lat="47.95555" lon="0.17749">
        <ele>38.599998474121</ele>
        <time>2024-08-21T09:17:29.000Z</time>
      </trkpt>
      <trkpt lat="47.95544" lon="0.17758">
        <ele>38.400001525879</ele>
        <time>2024-08-21T09:17:31.000Z</time>
      </trkpt>
      <trkpt lat="47.95528" lon="0.17766">
        <ele>38.400001525879</ele>
        <time>2024-08-21T09:17:34.000Z</time>
      </trkpt>
      <trkpt lat="47.95511" lon="0.17771">
        <ele>38.200000762939</ele>
        <time>2024-08-21T09:17:37.000Z</time>
      </trkpt>
      <trkpt lat="47.95467" lon="0.17784">
        <ele>38.200000762939</ele>
        <time>2024-08-21T09:17:45.000Z</time>
      </trkpt>
      <trkpt lat="47.95461" lon="0.17785">
        <ele>38.200000762939</ele>
        <time>2024-08-21T09:17:46.000Z</time>
      </trkpt>
      <trkpt lat="47.95445" lon="0.17783">
        <ele>38.200000762939</ele>
        <time>2024-08-21T09:17:49.000Z</time>
      </trkpt>
      <trkpt lat="47.9544" lon="0.17783">
        <ele>38.200000762939</ele>
        <time>2024-08-21T09:17:50.000Z</time>
      </trkpt>
      <trkpt lat="47.95411" lon="0.17784">
        <ele>38.400001525879</ele>
        <time>2024-08-21T09:17:56.000Z</time>
      </trkpt>
      <trkpt lat="47.95369" lon="0.1779">
        <ele>38</ele>
        <time>2024-08-21T09:18:03.000Z</time>
      </trkpt>
      <trkpt lat="47.95363" lon="0.1779">
        <ele>38</ele>
        <time>2024-08-21T09:18:04.000Z</time>
      </trkpt>
      <trkpt lat="47.95341" lon="0.17786">
        <ele>38</ele>
        <time>2024-08-21T09:18:08.000Z</time>
      </trkpt>
      <trkpt lat="47.95323" lon="0.17785">
        <ele>38</ele>
        <time>2024-08-21T09:18:11.000Z</time>
      </trkpt>
      <trkpt lat="47.95316" lon="0.17784">
        <ele>38</ele>
        <time>2024-08-21T09:18:12.000Z</time>
      </trkpt>
      <trkpt lat="47.95297" lon="0.17784">
        <ele>38.400001525879</ele>
        <time>2024-08-21T09:18:16.000Z</time>
      </trkpt>
      <trkpt lat="47.95293" lon="0.17784">
        <ele>38.400001525879</ele>
        <time>2024-08-21T09:18:17.000Z</time>
      </trkpt>
      <trkpt lat="47.95279" lon="0.17786">
        <ele>38.599998474121</ele>
        <time>2024-08-21T09:18:22.000Z</time>
      </trkpt>
      <trkpt lat="47.95279" lon="0.17786">
        <ele>39</ele>
        <time>2024-08-21T09:18:24.000Z</time>
      </trkpt>
      <trkpt lat="47.95272" lon="0.17783">
        <ele>39</ele>
        <time>2024-08-21T09:20:04.000Z</time>
      </trkpt>
      <trkpt lat="47.9527" lon="0.17783">
        <ele>39</ele>
        <time>2024-08-21T09:20:05.000Z</time>
      </trkpt>
      <trkpt lat="47.95254" lon="0.17785">
        <ele>39</ele>
        <time>2024-08-21T09:20:11.000Z</time>
      </trkpt>
      <trkpt lat="47.95231" lon="0.17781">
        <ele>38.799999237061</ele>
        <time>2024-08-21T09:20:17.000Z</time>
      </trkpt>
      <trkpt lat="47.9521" lon="0.17775">
        <ele>38.599998474121</ele>
        <time>2024-08-21T09:20:21.000Z</time>
      </trkpt>
      <trkpt lat="47.95205" lon="0.17775">
        <ele>38.400001525879</ele>
        <time>2024-08-21T09:20:22.000Z</time>
      </trkpt>
      <trkpt lat="47.95193" lon="0.17773">
        <ele>38.400001525879</ele>
        <time>2024-08-21T09:20:24.000Z</time>
      </trkpt>
      <trkpt lat="47.95182" lon="0.17768">
        <ele>38.400001525879</ele>
        <time>2024-08-21T09:20:26.000Z</time>
      </trkpt>
      <trkpt lat="47.95141" lon="0.17749">
        <ele>38.400001525879</ele>
        <time>2024-08-21T09:20:33.000Z</time>
      </trkpt>
      <trkpt lat="47.95131" lon="0.17744">
        <ele>38.400001525879</ele>
        <time>2024-08-21T09:20:35.000Z</time>
      </trkpt>
      <trkpt lat="47.95118" lon="0.17743">
        <ele>38.400001525879</ele>
        <time>2024-08-21T09:20:37.000Z</time>
      </trkpt>
      <trkpt lat="47.95113" lon="0.17744">
        <ele>38.400001525879</ele>
        <time>2024-08-21T09:20:38.000Z</time>
      </trkpt>
      <trkpt lat="47.95107" lon="0.17745">
        <ele>38.400001525879</ele>
        <time>2024-08-21T09:20:39.000Z</time>
      </trkpt>
      <trkpt lat="47.95086" lon="0.17741">
        <ele>38.400001525879</ele>
        <time>2024-08-21T09:20:43.000Z</time>
      </trkpt>
      <trkpt lat="47.9505" lon="0.17739">
        <ele>38.400001525879</ele>
        <time>2024-08-21T09:20:50.000Z</time>
      </trkpt>
      <trkpt lat="47.9503" lon="0.17738">
        <ele>38.799999237061</ele>
        <time>2024-08-21T09:20:55.000Z</time>
      </trkpt>
      <trkpt lat="47.95022" lon="0.17738">
        <ele>39</ele>
        <time>2024-08-21T09:20:59.000Z</time>
      </trkpt>
      <trkpt lat="47.95019" lon="0.17738">
        <ele>39.200000762939</ele>
        <time>2024-08-21T09:21:01.000Z</time>
      </trkpt>
      <trkpt lat="47.95016" lon="0.17737">
        <ele>39.200000762939</ele>
        <time>2024-08-21T09:21:04.000Z</time>
      </trkpt>
      <trkpt lat="47.95003" lon="0.1773">
        <ele>39.200000762939</ele>
        <time>2024-08-21T09:21:08.000Z</time>
      </trkpt>
      <trkpt lat="47.94982" lon="0.17721">
        <ele>38.599998474121</ele>
        <time>2024-08-21T09:21:12.000Z</time>
      </trkpt>
      <trkpt lat="47.94948" lon="0.17709">
        <ele>38.200000762939</ele>
        <time>2024-08-21T09:21:18.000Z</time>
      </trkpt>
      <trkpt lat="47.94935" lon="0.17706">
        <ele>38</ele>
        <time>2024-08-21T09:21:20.000Z</time>
      </trkpt>
      <trkpt lat="47.94914" lon="0.17701">
        <ele>37.799999237061</ele>
        <time>2024-08-21T09:21:23.000Z</time>
      </trkpt>
      <trkpt lat="47.94908" lon="0.17698">
        <ele>37.799999237061</ele>
        <time>2024-08-21T09:21:24.000Z</time>
      </trkpt>
      <trkpt lat="47.94886" lon="0.17691">
        <ele>37.599998474121</ele>
        <time>2024-08-21T09:21:28.000Z</time>
      </trkpt>
      <trkpt lat="47.9488" lon="0.1769">
        <ele>37.599998474121</ele>
        <time>2024-08-21T09:21:29.000Z</time>
      </trkpt>
      <trkpt lat="47.94867" lon="0.17689">
        <ele>37.599998474121</ele>
        <time>2024-08-21T09:21:32.000Z</time>
      </trkpt>
      <trkpt lat="47.94852" lon="0.17681">
        <ele>37.799999237061</ele>
        <time>2024-08-21T09:21:35.000Z</time>
      </trkpt>
      <trkpt lat="47.94816" lon="0.17658">
        <ele>37.799999237061</ele>
        <time>2024-08-21T09:21:42.000Z</time>
      </trkpt>
      <trkpt lat="47.94789" lon="0.17637">
        <ele>38</ele>
        <time>2024-08-21T09:21:47.000Z</time>
      </trkpt>
      <trkpt lat="47.94784" lon="0.17633">
        <ele>38</ele>
        <time>2024-08-21T09:21:48.000Z</time>
      </trkpt>
      <trkpt lat="47.94764" lon="0.17612">
        <ele>38</ele>
        <time>2024-08-21T09:21:53.000Z</time>
      </trkpt>
      <trkpt lat="47.9476" lon="0.17607">
        <ele>38</ele>
        <time>2024-08-21T09:21:54.000Z</time>
      </trkpt>
      <trkpt lat="47.94741" lon="0.17589">
        <ele>37.799999237061</ele>
        <time>2024-08-21T09:21:58.000Z</time>
      </trkpt>
      <trkpt lat="47.94731" lon="0.1758">
        <ele>37.799999237061</ele>
        <time>2024-08-21T09:22:00.000Z</time>
      </trkpt>
      <trkpt lat="47.94706" lon="0.17558">
        <ele>37.599998474121</ele>
        <time>2024-08-21T09:22:06.000Z</time>
      </trkpt>
      <trkpt lat="47.94673" lon="0.17533">
        <ele>38</ele>
        <time>2024-08-21T09:22:13.000Z</time>
      </trkpt>
      <trkpt lat="47.94634" lon="0.17513">
        <ele>38.400001525879</ele>
        <time>2024-08-21T09:22:20.000Z</time>
      </trkpt>
      <trkpt lat="47.94616" lon="0.17504">
        <ele>38.400001525879</ele>
        <time>2024-08-21T09:22:24.000Z</time>
      </trkpt>
      <trkpt lat="47.94592" lon="0.1749">
        <ele>38.400001525879</ele>
        <time>2024-08-21T09:22:28.000Z</time>
      </trkpt>
      <trkpt lat="47.94584" lon="0.17484">
        <ele>38.400001525879</ele>
        <time>2024-08-21T09:22:29.000Z</time>
      </trkpt>
      <trkpt lat="47.94557" lon="0.17464">
        <ele>38.200000762939</ele>
        <time>2024-08-21T09:22:34.000Z</time>
      </trkpt>
      <trkpt lat="47.94535" lon="0.17453">
        <ele>38.599998474121</ele>
        <time>2024-08-21T09:22:39.000Z</time>
      </trkpt>
      <trkpt lat="47.94525" lon="0.17448">
        <ele>39</ele>
        <time>2024-08-21T09:22:41.000Z</time>
      </trkpt>
      <trkpt lat="47.94502" lon="0.17434">
        <ele>39.400001525879</ele>
        <time>2024-08-21T09:22:46.000Z</time>
      </trkpt>
      <trkpt lat="47.94473" lon="0.17419">
        <ele>39.400001525879</ele>
        <time>2024-08-21T09:22:52.000Z</time>
      </trkpt>
      <trkpt lat="47.94429" lon="0.17408">
        <ele>39.799999237061</ele>
        <time>2024-08-21T09:23:00.000Z</time>
      </trkpt>
      <trkpt lat="47.94376" lon="0.17412">
        <ele>39.599998474121</ele>
        <time>2024-08-21T09:23:09.000Z</time>
      </trkpt>
      <trkpt lat="47.94329" lon="0.17423">
        <ele>39</ele>
        <time>2024-08-21T09:23:17.000Z</time>
      </trkpt>
      <trkpt lat="47.94282" lon="0.17436">
        <ele>39</ele>
        <time>2024-08-21T09:23:25.000Z</time>
      </trkpt>
      <trkpt lat="47.94271" lon="0.17441">
        <ele>39</ele>
        <time>2024-08-21T09:23:27.000Z</time>
      </trkpt>
      <trkpt lat="47.94241" lon="0.17456">
        <ele>39.400001525879</ele>
        <time>2024-08-21T09:23:32.000Z</time>
      </trkpt>
      <trkpt lat="47.94203" lon="0.17478">
        <ele>39.400001525879</ele>
        <time>2024-08-21T09:23:39.000Z</time>
      </trkpt>
      <trkpt lat="47.9415" lon="0.17509">
        <ele>39</ele>
        <time>2024-08-21T09:23:48.000Z</time>
      </trkpt>
      <trkpt lat="47.94139" lon="0.17516">
        <ele>39</ele>
        <time>2024-08-21T09:23:50.000Z</time>
      </trkpt>
      <trkpt lat="47.94128" lon="0.17523">
        <ele>39.200000762939</ele>
        <time>2024-08-21T09:23:52.000Z</time>
      </trkpt>
      <trkpt lat="47.94106" lon="0.17535">
        <ele>39.200000762939</ele>
        <time>2024-08-21T09:23:56.000Z</time>
      </trkpt>
      <trkpt lat="47.94096" lon="0.17542">
        <ele>39.200000762939</ele>
        <time>2024-08-21T09:23:58.000Z</time>
      </trkpt>
      <trkpt lat="47.94078" lon="0.17559">
        <ele>39</ele>
        <time>2024-08-21T09:24:02.000Z</time>
      </trkpt>
      <trkpt lat="47.94075" lon="0.17563">
        <ele>39</ele>
        <time>2024-08-21T09:24:03.000Z</time>
      </trkpt>
      <trkpt lat="47.94054" lon="0.17576">
        <ele>39.200000762939</ele>
        <time>2024-08-21T09:24:09.000Z</time>
      </trkpt>
      <trkpt lat="47.94048" lon="0.17576">
        <ele>39.200000762939</ele>
        <time>2024-08-21T09:24:11.000Z</time>
      </trkpt>
      <trkpt lat="47.94046" lon="0.17574">
        <ele>39.400001525879</ele>
        <time>2024-08-21T09:24:12.000Z</time>
      </trkpt>
      <trkpt lat="47.94043" lon="0.17559">
        <ele>39.599998474121</ele>
        <time>2024-08-21T09:24:16.000Z</time>
      </trkpt>
      <trkpt lat="47.94043" lon="0.17548">
        <ele>40</ele>
        <time>2024-08-21T09:24:19.000Z</time>
      </trkpt>
      <trkpt lat="47.94042" lon="0.1753">
        <ele>41.200000762939</ele>
        <time>2024-08-21T09:24:23.000Z</time>
      </trkpt>
      <trkpt lat="47.94041" lon="0.17501">
        <ele>42.400001525879</ele>
        <time>2024-08-21T09:24:28.000Z</time>
      </trkpt>
      <trkpt lat="47.9404" lon="0.17495">
        <ele>42.400001525879</ele>
        <time>2024-08-21T09:24:29.000Z</time>
      </trkpt>
      <trkpt lat="47.94037" lon="0.17461">
        <ele>42.400001525879</ele>
        <time>2024-08-21T09:24:34.000Z</time>
      </trkpt>
      <trkpt lat="47.94036" lon="0.17447">
        <ele>42.400001525879</ele>
        <time>2024-08-21T09:24:36.000Z</time>
      </trkpt>
      <trkpt lat="47.94031" lon="0.17389">
        <ele>42</ele>
        <time>2024-08-21T09:24:44.000Z</time>
      </trkpt>
      <trkpt lat="47.94026" lon="0.17321">
        <ele>41.799999237061</ele>
        <time>2024-08-21T09:24:52.000Z</time>
      </trkpt>
      <trkpt lat="47.94024" lon="0.17295">
        <ele>41.599998474121</ele>
        <time>2024-08-21T09:24:55.000Z</time>
      </trkpt>
      <trkpt lat="47.9402" lon="0.17253">
        <ele>41.400001525879</ele>
        <time>2024-08-21T09:25:00.000Z</time>
      </trkpt>
      <trkpt lat="47.94019" lon="0.17244">
        <ele>41.200000762939</ele>
        <time>2024-08-21T09:25:01.000Z</time>
      </trkpt>
      <trkpt lat="47.94018" lon="0.17227">
        <ele>41.200000762939</ele>
        <time>2024-08-21T09:25:03.000Z</time>
      </trkpt>
      <trkpt lat="47.94015" lon="0.17193">
        <ele>41.200000762939</ele>
        <time>2024-08-21T09:25:07.000Z</time>
      </trkpt>
      <trkpt lat="47.94009" lon="0.17114">
        <ele>41.200000762939</ele>
        <time>2024-08-21T09:25:16.000Z</time>
      </trkpt>
      <trkpt lat="47.94005" lon="0.17071">
        <ele>41.200000762939</ele>
        <time>2024-08-21T09:25:21.000Z</time>
      </trkpt>
      <trkpt lat="47.94003" lon="0.17054">
        <ele>41</ele>
        <time>2024-08-21T09:25:23.000Z</time>
      </trkpt>
      <trkpt lat="47.93997" lon="0.16985">
        <ele>41.400001525879</ele>
        <time>2024-08-21T09:25:31.000Z</time>
      </trkpt>
      <trkpt lat="47.93984" lon="0.16916">
        <ele>41.599998474121</ele>
        <time>2024-08-21T09:25:39.000Z</time>
      </trkpt>
      <trkpt lat="47.93977" lon="0.16837">
        <ele>41.400001525879</ele>
        <time>2024-08-21T09:25:48.000Z</time>
      </trkpt>
      <trkpt lat="47.9397" lon="0.1676">
        <ele>42.200000762939</ele>
        <time>2024-08-21T09:25:57.000Z</time>
      </trkpt>
      <trkpt lat="47.93964" lon="0.16726">
        <ele>42.400001525879</ele>
        <time>2024-08-21T09:26:01.000Z</time>
      </trkpt>
      <trkpt lat="47.93958" lon="0.16711">
        <ele>42.400001525879</ele>
        <time>2024-08-21T09:26:03.000Z</time>
      </trkpt>
      <trkpt lat="47.9394" lon="0.16678">
        <ele>42.599998474121</ele>
        <time>2024-08-21T09:26:08.000Z</time>
      </trkpt>
      <trkpt lat="47.93935" lon="0.16674">
        <ele>42.799999237061</ele>
        <time>2024-08-21T09:26:09.000Z</time>
      </trkpt>
      <trkpt lat="47.9393" lon="0.16673">
        <ele>42.799999237061</ele>
        <time>2024-08-21T09:26:10.000Z</time>
      </trkpt>
      <trkpt lat="47.9392" lon="0.16676">
        <ele>42.799999237061</ele>
        <time>2024-08-21T09:26:12.000Z</time>
      </trkpt>
      <trkpt lat="47.93911" lon="0.16674">
        <ele>42.799999237061</ele>
        <time>2024-08-21T09:26:14.000Z</time>
      </trkpt>
      <trkpt lat="47.93906" lon="0.16671">
        <ele>42.799999237061</ele>
        <time>2024-08-21T09:26:15.000Z</time>
      </trkpt>
      <trkpt lat="47.93901" lon="0.16667">
        <ele>42.799999237061</ele>
        <time>2024-08-21T09:26:16.000Z</time>
      </trkpt>
      <trkpt lat="47.93881" lon="0.1666">
        <ele>42.400001525879</ele>
        <time>2024-08-21T09:26:20.000Z</time>
      </trkpt>
      <trkpt lat="47.9383" lon="0.16653">
        <ele>42.400001525879</ele>
        <time>2024-08-21T09:26:29.000Z</time>
      </trkpt>
      <trkpt lat="47.93824" lon="0.16652">
        <ele>42.400001525879</ele>
        <time>2024-08-21T09:26:30.000Z</time>
      </trkpt>
      <trkpt lat="47.93791" lon="0.16648">
        <ele>42.200000762939</ele>
        <time>2024-08-21T09:26:36.000Z</time>
      </trkpt>
      <trkpt lat="47.93757" lon="0.16645">
        <ele>42</ele>
        <time>2024-08-21T09:26:42.000Z</time>
      </trkpt>
      <trkpt lat="47.93704" lon="0.16638">
        <ele>42.200000762939</ele>
        <time>2024-08-21T09:26:51.000Z</time>
      </trkpt>
      <trkpt lat="47.9365" lon="0.16631">
        <ele>42.200000762939</ele>
        <time>2024-08-21T09:27:00.000Z</time>
      </trkpt>
      <trkpt lat="47.93644" lon="0.1663">
        <ele>42.200000762939</ele>
        <time>2024-08-21T09:27:01.000Z</time>
      </trkpt>
      <trkpt lat="47.93584" lon="0.16624">
        <ele>42.200000762939</ele>
        <time>2024-08-21T09:27:11.000Z</time>
      </trkpt>
      <trkpt lat="47.93572" lon="0.16623">
        <ele>42.200000762939</ele>
        <time>2024-08-21T09:27:13.000Z</time>
      </trkpt>
      <trkpt lat="47.93526" lon="0.1661">
        <ele>42.200000762939</ele>
        <time>2024-08-21T09:27:21.000Z</time>
      </trkpt>
      <trkpt lat="47.93476" lon="0.16585">
        <ele>42.400001525879</ele>
        <time>2024-08-21T09:27:30.000Z</time>
      </trkpt>
      <trkpt lat="47.93427" lon="0.16547">
        <ele>42.599998474121</ele>
        <time>2024-08-21T09:27:39.000Z</time>
      </trkpt>
      <trkpt lat="47.93389" lon="0.16503">
        <ele>42.599998474121</ele>
        <time>2024-08-21T09:27:47.000Z</time>
      </trkpt>
      <trkpt lat="47.93346" lon="0.16444">
        <ele>42.599998474121</ele>
        <time>2024-08-21T09:27:57.000Z</time>
      </trkpt>
      <trkpt lat="47.93342" lon="0.16438">
        <ele>42.599998474121</ele>
        <time>2024-08-21T09:27:58.000Z</time>
      </trkpt>
      <trkpt lat="47.93312" lon="0.16396">
        <ele>42.799999237061</ele>
        <time>2024-08-21T09:28:05.000Z</time>
      </trkpt>
      <trkpt lat="47.93304" lon="0.16383">
        <ele>42.799999237061</ele>
        <time>2024-08-21T09:28:07.000Z</time>
      </trkpt>
      <trkpt lat="47.9328" lon="0.16344">
        <ele>42.799999237061</ele>
        <time>2024-08-21T09:28:13.000Z</time>
      </trkpt>
      <trkpt lat="47.93262" lon="0.16304">
        <ele>43.400001525879</ele>
        <time>2024-08-21T09:28:19.000Z</time>
      </trkpt>
      <trkpt lat="47.93259" lon="0.16298">
        <ele>43.400001525879</ele>
        <time>2024-08-21T09:28:20.000Z</time>
      </trkpt>
      <trkpt lat="47.93247" lon="0.1626">
        <ele>44.200000762939</ele>
        <time>2024-08-21T09:28:26.000Z</time>
      </trkpt>
      <trkpt lat="47.93247" lon="0.16254">
        <ele>44.200000762939</ele>
        <time>2024-08-21T09:28:27.000Z</time>
      </trkpt>
      <trkpt lat="47.93247" lon="0.16233">
        <ele>44.400001525879</ele>
        <time>2024-08-21T09:28:30.000Z</time>
      </trkpt>
      <trkpt lat="47.93245" lon="0.16219">
        <ele>44.599998474121</ele>
        <time>2024-08-21T09:28:32.000Z</time>
      </trkpt>
      <trkpt lat="47.93241" lon="0.16206">
        <ele>44.799999237061</ele>
        <time>2024-08-21T09:28:34.000Z</time>
      </trkpt>
      <trkpt lat="47.93233" lon="0.16199">
        <ele>45.200000762939</ele>
        <time>2024-08-21T09:28:36.000Z</time>
      </trkpt>
      <trkpt lat="47.93228" lon="0.16197">
        <ele>45.400001525879</ele>
        <time>2024-08-21T09:28:37.000Z</time>
      </trkpt>
      <trkpt lat="47.93224" lon="0.16197">
        <ele>45.799999237061</ele>
        <time>2024-08-21T09:28:38.000Z</time>
      </trkpt>
      <trkpt lat="47.93215" lon="0.162">
        <ele>46</ele>
        <time>2024-08-21T09:28:40.000Z</time>
      </trkpt>
      <trkpt lat="47.9321" lon="0.16204">
        <ele>46.200000762939</ele>
        <time>2024-08-21T09:28:41.000Z</time>
      </trkpt>
      <trkpt lat="47.93207" lon="0.1621">
        <ele>46.200000762939</ele>
        <time>2024-08-21T09:28:42.000Z</time>
      </trkpt>
      <trkpt lat="47.93201" lon="0.16224">
        <ele>46.200000762939</ele>
        <time>2024-08-21T09:28:44.000Z</time>
      </trkpt>
      <trkpt lat="47.932" lon="0.16232">
        <ele>46.200000762939</ele>
        <time>2024-08-21T09:28:45.000Z</time>
      </trkpt>
      <trkpt lat="47.93195" lon="0.16267">
        <ele>46</ele>
        <time>2024-08-21T09:28:49.000Z</time>
      </trkpt>
      <trkpt lat="47.93191" lon="0.16275">
        <ele>46</ele>
        <time>2024-08-21T09:28:50.000Z</time>
      </trkpt>
      <trkpt lat="47.93163" lon="0.16328">
        <ele>44.799999237061</ele>
        <time>2024-08-21T09:28:57.000Z</time>
      </trkpt>
      <trkpt lat="47.93154" lon="0.16343">
        <ele>44.400001525879</ele>
        <time>2024-08-21T09:28:59.000Z</time>
      </trkpt>
      <trkpt lat="47.93131" lon="0.16389">
        <ele>44.400001525879</ele>
        <time>2024-08-21T09:29:05.000Z</time>
      </trkpt>
      <trkpt lat="47.9312" lon="0.16411">
        <ele>44.400001525879</ele>
        <time>2024-08-21T09:29:08.000Z</time>
      </trkpt>
      <trkpt lat="47.93109" lon="0.16433">
        <ele>44.400001525879</ele>
        <time>2024-08-21T09:29:11.000Z</time>
      </trkpt>
      <trkpt lat="47.93098" lon="0.16456">
        <ele>44.200000762939</ele>
        <time>2024-08-21T09:29:14.000Z</time>
      </trkpt>
      <trkpt lat="47.93086" lon="0.16478">
        <ele>44.200000762939</ele>
        <time>2024-08-21T09:29:17.000Z</time>
      </trkpt>
      <trkpt lat="47.93078" lon="0.16493">
        <ele>44.400001525879</ele>
        <time>2024-08-21T09:29:19.000Z</time>
      </trkpt>
      <trkpt lat="47.93063" lon="0.16522">
        <ele>44.200000762939</ele>
        <time>2024-08-21T09:29:23.000Z</time>
      </trkpt>
      <trkpt lat="47.93029" lon="0.16586">
        <ele>44.400001525879</ele>
        <time>2024-08-21T09:29:32.000Z</time>
      </trkpt>
      <trkpt lat="47.93016" lon="0.16608">
        <ele>44.200000762939</ele>
        <time>2024-08-21T09:29:35.000Z</time>
      </trkpt>
      <trkpt lat="47.92997" lon="0.16643">
        <ele>43.799999237061</ele>
        <time>2024-08-21T09:29:40.000Z</time>
      </trkpt>
      <trkpt lat="47.92989" lon="0.16657">
        <ele>43.799999237061</ele>
        <time>2024-08-21T09:29:42.000Z</time>
      </trkpt>
      <trkpt lat="47.92984" lon="0.16663">
        <ele>44</ele>
        <time>2024-08-21T09:29:43.000Z</time>
      </trkpt>
      <trkpt lat="47.92943" lon="0.1671">
        <ele>44.200000762939</ele>
        <time>2024-08-21T09:29:51.000Z</time>
      </trkpt>
      <trkpt lat="47.9291" lon="0.16741">
        <ele>43.400001525879</ele>
        <time>2024-08-21T09:29:57.000Z</time>
      </trkpt>
      <trkpt lat="47.92882" lon="0.16768">
        <ele>42.799999237061</ele>
        <time>2024-08-21T09:30:02.000Z</time>
      </trkpt>
      <trkpt lat="47.92865" lon="0.16783">
        <ele>42.599998474121</ele>
        <time>2024-08-21T09:30:05.000Z</time>
      </trkpt>
      <trkpt lat="47.92829" lon="0.16812">
        <ele>42.400001525879</ele>
        <time>2024-08-21T09:30:12.000Z</time>
      </trkpt>
      <trkpt lat="47.92825" lon="0.16813">
        <ele>42.599998474121</ele>
        <time>2024-08-21T09:30:13.000Z</time>
      </trkpt>
      <trkpt lat="47.92818" lon="0.16811">
        <ele>42.599998474121</ele>
        <time>2024-08-21T09:30:15.000Z</time>
      </trkpt>
      <trkpt lat="47.92816" lon="0.16806">
        <ele>42.599998474121</ele>
        <time>2024-08-21T09:30:16.000Z</time>
      </trkpt>
      <trkpt lat="47.92812" lon="0.16789">
        <ele>42.400001525879</ele>
        <time>2024-08-21T09:30:19.000Z</time>
      </trkpt>
      <trkpt lat="47.92801" lon="0.16737">
        <ele>42.200000762939</ele>
        <time>2024-08-21T09:30:26.000Z</time>
      </trkpt>
      <trkpt lat="47.92791" lon="0.1669">
        <ele>41.799999237061</ele>
        <time>2024-08-21T09:30:32.000Z</time>
      </trkpt>
      <trkpt lat="47.92788" lon="0.16676">
        <ele>41.599998474121</ele>
        <time>2024-08-21T09:30:34.000Z</time>
      </trkpt>
      <trkpt lat="47.92773" lon="0.16618">
        <ele>41.200000762939</ele>
        <time>2024-08-21T09:30:42.000Z</time>
      </trkpt>
      <trkpt lat="47.92754" lon="0.16542">
        <ele>41.400001525879</ele>
        <time>2024-08-21T09:30:52.000Z</time>
      </trkpt>
      <trkpt lat="47.9273" lon="0.16466">
        <ele>41.400001525879</ele>
        <time>2024-08-21T09:31:02.000Z</time>
      </trkpt>
      <trkpt lat="47.92728" lon="0.16459">
        <ele>41.400001525879</ele>
        <time>2024-08-21T09:31:03.000Z</time>
      </trkpt>
      <trkpt lat="47.92722" lon="0.16435">
        <ele>41.200000762939</ele>
        <time>2024-08-21T09:31:06.000Z</time>
      </trkpt>
      <trkpt lat="47.92713" lon="0.16396">
        <ele>41.400001525879</ele>
        <time>2024-08-21T09:31:11.000Z</time>
      </trkpt>
      <trkpt lat="47.92704" lon="0.16332">
        <ele>41.599998474121</ele>
        <time>2024-08-21T09:31:19.000Z</time>
      </trkpt>
      <trkpt lat="47.92697" lon="0.16284">
        <ele>42</ele>
        <time>2024-08-21T09:31:25.000Z</time>
      </trkpt>
      <trkpt lat="47.92697" lon="0.16277">
        <ele>42</ele>
        <time>2024-08-21T09:31:26.000Z</time>
      </trkpt>
      <trkpt lat="47.92688" lon="0.16219">
        <ele>42</ele>
        <time>2024-08-21T09:31:33.000Z</time>
      </trkpt>
      <trkpt lat="47.92673" lon="0.16141">
        <ele>41.799999237061</ele>
        <time>2024-08-21T09:31:42.000Z</time>
      </trkpt>
      <trkpt lat="47.92667" lon="0.16111">
        <ele>41</ele>
        <time>2024-08-21T09:31:45.000Z</time>
      </trkpt>
      <trkpt lat="47.92666" lon="0.16103">
        <ele>40.799999237061</ele>
        <time>2024-08-21T09:31:46.000Z</time>
      </trkpt>
      <trkpt lat="47.92664" lon="0.16086">
        <ele>40.599998474121</ele>
        <time>2024-08-21T09:31:48.000Z</time>
      </trkpt>
      <trkpt lat="47.92657" lon="0.16044">
        <ele>40.799999237061</ele>
        <time>2024-08-21T09:31:54.000Z</time>
      </trkpt>
      <trkpt lat="47.92646" lon="0.15976">
        <ele>41.799999237061</ele>
        <time>2024-08-21T09:32:03.000Z</time>
      </trkpt>
      <trkpt lat="47.92634" lon="0.15911">
        <ele>41.200000762939</ele>
        <time>2024-08-21T09:32:11.000Z</time>
      </trkpt>
      <trkpt lat="47.92621" lon="0.15848">
        <ele>40.599998474121</ele>
        <time>2024-08-21T09:32:19.000Z</time>
      </trkpt>
      <trkpt lat="47.92608" lon="0.15785">
        <ele>40.400001525879</ele>
        <time>2024-08-21T09:32:27.000Z</time>
      </trkpt>
      <trkpt lat="47.92602" lon="0.15725">
        <ele>40</ele>
        <time>2024-08-21T09:32:34.000Z</time>
      </trkpt>
      <trkpt lat="47.92602" lon="0.15706">
        <ele>40</ele>
        <time>2024-08-21T09:32:36.000Z</time>
      </trkpt>
      <trkpt lat="47.92603" lon="0.15674">
        <ele>40.200000762939</ele>
        <time>2024-08-21T09:32:40.000Z</time>
      </trkpt>
      <trkpt lat="47.92605" lon="0.15637">
        <ele>40.799999237061</ele>
        <time>2024-08-21T09:32:45.000Z</time>
      </trkpt>
      <trkpt lat="47.92604" lon="0.1563">
        <ele>40.799999237061</ele>
        <time>2024-08-21T09:32:46.000Z</time>
      </trkpt>
      <trkpt lat="47.92601" lon="0.15623">
        <ele>41</ele>
        <time>2024-08-21T09:32:47.000Z</time>
      </trkpt>
      <trkpt lat="47.92594" lon="0.15614">
        <ele>41</ele>
        <time>2024-08-21T09:32:49.000Z</time>
      </trkpt>
      <trkpt lat="47.92584" lon="0.15608">
        <ele>41.200000762939</ele>
        <time>2024-08-21T09:32:51.000Z</time>
      </trkpt>
      <trkpt lat="47.92569" lon="0.15598">
        <ele>40.799999237061</ele>
        <time>2024-08-21T09:32:54.000Z</time>
      </trkpt>
      <trkpt lat="47.92527" lon="0.15576">
        <ele>40</ele>
        <time>2024-08-21T09:33:02.000Z</time>
      </trkpt>
      <trkpt lat="47.92484" lon="0.15558">
        <ele>40.400001525879</ele>
        <time>2024-08-21T09:33:10.000Z</time>
      </trkpt>
      <trkpt lat="47.92453" lon="0.15532">
        <ele>40</ele>
        <time>2024-08-21T09:33:16.000Z</time>
      </trkpt>
      <trkpt lat="47.92437" lon="0.15507">
        <ele>39.599998474121</ele>
        <time>2024-08-21T09:33:20.000Z</time>
      </trkpt>
      <trkpt lat="47.92421" lon="0.15482">
        <ele>39.200000762939</ele>
        <time>2024-08-21T09:33:24.000Z</time>
      </trkpt>
      <trkpt lat="47.92393" lon="0.1543">
        <ele>40.200000762939</ele>
        <time>2024-08-21T09:33:32.000Z</time>
      </trkpt>
      <trkpt lat="47.9239" lon="0.15423">
        <ele>40.400001525879</ele>
        <time>2024-08-21T09:33:33.000Z</time>
      </trkpt>
      <trkpt lat="47.9238" lon="0.15385">
        <ele>40.799999237061</ele>
        <time>2024-08-21T09:33:38.000Z</time>
      </trkpt>
      <trkpt lat="47.92378" lon="0.15379">
        <ele>41</ele>
        <time>2024-08-21T09:33:39.000Z</time>
      </trkpt>
      <trkpt lat="47.92377" lon="0.15372">
        <ele>41</ele>
        <time>2024-08-21T09:33:40.000Z</time>
      </trkpt>
      <trkpt lat="47.92379" lon="0.1536">
        <ele>41.200000762939</ele>
        <time>2024-08-21T09:33:42.000Z</time>
      </trkpt>
      <trkpt lat="47.92395" lon="0.15323">
        <ele>41.200000762939</ele>
        <time>2024-08-21T09:33:48.000Z</time>
      </trkpt>
      <trkpt lat="47.92406" lon="0.153">
        <ele>41.200000762939</ele>
        <time>2024-08-21T09:33:52.000Z</time>
      </trkpt>
      <trkpt lat="47.92416" lon="0.15283">
        <ele>41</ele>
        <time>2024-08-21T09:33:55.000Z</time>
      </trkpt>
      <trkpt lat="47.92428" lon="0.15257">
        <ele>40.799999237061</ele>
        <time>2024-08-21T09:33:59.000Z</time>
      </trkpt>
      <trkpt lat="47.92434" lon="0.15244">
        <ele>40.599998474121</ele>
        <time>2024-08-21T09:34:01.000Z</time>
      </trkpt>
      <trkpt lat="47.92455" lon="0.15199">
        <ele>40.400001525879</ele>
        <time>2024-08-21T09:34:08.000Z</time>
      </trkpt>
      <trkpt lat="47.92456" lon="0.15186">
        <ele>40.599998474121</ele>
        <time>2024-08-21T09:34:10.000Z</time>
      </trkpt>
      <trkpt lat="47.92456" lon="0.1518">
        <ele>41</ele>
        <time>2024-08-21T09:34:11.000Z</time>
      </trkpt>
      <trkpt lat="47.92454" lon="0.15174">
        <ele>41.200000762939</ele>
        <time>2024-08-21T09:34:12.000Z</time>
      </trkpt>
      <trkpt lat="47.92448" lon="0.15164">
        <ele>41.599998474121</ele>
        <time>2024-08-21T09:34:14.000Z</time>
      </trkpt>
      <trkpt lat="47.92444" lon="0.15159">
        <ele>41.799999237061</ele>
        <time>2024-08-21T09:34:15.000Z</time>
      </trkpt>
      <trkpt lat="47.92408" lon="0.15112">
        <ele>41.599998474121</ele>
        <time>2024-08-21T09:34:24.000Z</time>
      </trkpt>
      <trkpt lat="47.92395" lon="0.15086">
        <ele>41.200000762939</ele>
        <time>2024-08-21T09:34:28.000Z</time>
      </trkpt>
      <trkpt lat="47.92387" lon="0.15076">
        <ele>41</ele>
        <time>2024-08-21T09:34:30.000Z</time>
      </trkpt>
      <trkpt lat="47.92372" lon="0.15064">
        <ele>41</ele>
        <time>2024-08-21T09:34:33.000Z</time>
      </trkpt>
      <trkpt lat="47.92363" lon="0.15055">
        <ele>40.799999237061</ele>
        <time>2024-08-21T09:34:35.000Z</time>
      </trkpt>
      <trkpt lat="47.92354" lon="0.15046">
        <ele>40.799999237061</ele>
        <time>2024-08-21T09:34:37.000Z</time>
      </trkpt>
      <trkpt lat="47.92337" lon="0.15023">
        <ele>40.599998474121</ele>
        <time>2024-08-21T09:34:41.000Z</time>
      </trkpt>
      <trkpt lat="47.92293" lon="0.14965">
        <ele>40.799999237061</ele>
        <time>2024-08-21T09:34:51.000Z</time>
      </trkpt>
      <trkpt lat="47.9227" lon="0.14937">
        <ele>40.599998474121</ele>
        <time>2024-08-21T09:34:56.000Z</time>
      </trkpt>
      <trkpt lat="47.92225" lon="0.14893">
        <ele>40.599998474121</ele>
        <time>2024-08-21T09:35:05.000Z</time>
      </trkpt>
      <trkpt lat="47.92191" lon="0.14855">
        <ele>40</ele>
        <time>2024-08-21T09:35:12.000Z</time>
      </trkpt>
      <trkpt lat="47.92173" lon="0.14831">
        <ele>39.200000762939</ele>
        <time>2024-08-21T09:35:16.000Z</time>
      </trkpt>
      <trkpt lat="47.92165" lon="0.14818">
        <ele>39</ele>
        <time>2024-08-21T09:35:18.000Z</time>
      </trkpt>
      <trkpt lat="47.92139" lon="0.14782">
        <ele>38.599998474121</ele>
        <time>2024-08-21T09:35:24.000Z</time>
      </trkpt>
      <trkpt lat="47.92126" lon="0.14765">
        <ele>38.599998474121</ele>
        <time>2024-08-21T09:35:27.000Z</time>
      </trkpt>
      <trkpt lat="47.9212" lon="0.1475">
        <ele>39</ele>
        <time>2024-08-21T09:35:29.000Z</time>
      </trkpt>
      <trkpt lat="47.92117" lon="0.14743">
        <ele>39</ele>
        <time>2024-08-21T09:35:30.000Z</time>
      </trkpt>
      <trkpt lat="47.92105" lon="0.14725">
        <ele>39</ele>
        <time>2024-08-21T09:35:33.000Z</time>
      </trkpt>
      <trkpt lat="47.92073" lon="0.14691">
        <ele>39</ele>
        <time>2024-08-21T09:35:40.000Z</time>
      </trkpt>
      <trkpt lat="47.92031" lon="0.14658">
        <ele>39.400001525879</ele>
        <time>2024-08-21T09:35:48.000Z</time>
      </trkpt>
      <trkpt lat="47.9198" lon="0.1462">
        <ele>39.599998474121</ele>
        <time>2024-08-21T09:35:58.000Z</time>
      </trkpt>
      <trkpt lat="47.91975" lon="0.14616">
        <ele>39.599998474121</ele>
        <time>2024-08-21T09:35:59.000Z</time>
      </trkpt>
      <trkpt lat="47.9194" lon="0.14593">
        <ele>39.799999237061</ele>
        <time>2024-08-21T09:36:06.000Z</time>
      </trkpt>
      <trkpt lat="47.91935" lon="0.14591">
        <ele>39.799999237061</ele>
        <time>2024-08-21T09:36:07.000Z</time>
      </trkpt>
      <trkpt lat="47.91895" lon="0.14574">
        <ele>40</ele>
        <time>2024-08-21T09:36:15.000Z</time>
      </trkpt>
      <trkpt lat="47.9189" lon="0.14573">
        <ele>40</ele>
        <time>2024-08-21T09:36:16.000Z</time>
      </trkpt>
      <trkpt lat="47.91876" lon="0.14569">
        <ele>40.200000762939</ele>
        <time>2024-08-21T09:36:19.000Z</time>
      </trkpt>
      <trkpt lat="47.91869" lon="0.14562">
        <ele>40.400001525879</ele>
        <time>2024-08-21T09:36:21.000Z</time>
      </trkpt>
      <trkpt lat="47.91867" lon="0.14557">
        <ele>40.599998474121</ele>
        <time>2024-08-21T09:36:22.000Z</time>
      </trkpt>
      <trkpt lat="47.91865" lon="0.14551">
        <ele>40.599998474121</ele>
        <time>2024-08-21T09:36:23.000Z</time>
      </trkpt>
      <trkpt lat="47.91861" lon="0.14539">
        <ele>40.799999237061</ele>
        <time>2024-08-21T09:36:25.000Z</time>
      </trkpt>
      <trkpt lat="47.91858" lon="0.14534">
        <ele>40.799999237061</ele>
        <time>2024-08-21T09:36:27.000Z</time>
      </trkpt>
      <trkpt lat="47.91855" lon="0.14535">
        <ele>41.200000762939</ele>
        <time>2024-08-21T09:36:28.000Z</time>
      </trkpt>
      <trkpt lat="47.91845" lon="0.14545">
        <ele>41.400001525879</ele>
        <time>2024-08-21T09:36:33.000Z</time>
      </trkpt>
      <trkpt lat="47.91832" lon="0.14543">
        <ele>41.799999237061</ele>
        <time>2024-08-21T09:36:38.000Z</time>
      </trkpt>
      <trkpt lat="47.91823" lon="0.14522">
        <ele>42</ele>
        <time>2024-08-21T09:36:42.000Z</time>
      </trkpt>
      <trkpt lat="47.91812" lon="0.14498">
        <ele>42</ele>
        <time>2024-08-21T09:36:46.000Z</time>
      </trkpt>
      <trkpt lat="47.91786" lon="0.1446">
        <ele>42</ele>
        <time>2024-08-21T09:36:53.000Z</time>
      </trkpt>
      <trkpt lat="47.91758" lon="0.14435">
        <ele>41.799999237061</ele>
        <time>2024-08-21T09:36:59.000Z</time>
      </trkpt>
      <trkpt lat="47.91754" lon="0.14429">
        <ele>41.799999237061</ele>
        <time>2024-08-21T09:37:00.000Z</time>
      </trkpt>
      <trkpt lat="47.91751" lon="0.14415">
        <ele>41.799999237061</ele>
        <time>2024-08-21T09:37:02.000Z</time>
      </trkpt>
      <trkpt lat="47.91756" lon="0.14403">
        <ele>41.799999237061</ele>
        <time>2024-08-21T09:37:04.000Z</time>
      </trkpt>
      <trkpt lat="47.91783" lon="0.14374">
        <ele>41.400001525879</ele>
        <time>2024-08-21T09:37:10.000Z</time>
      </trkpt>
      <trkpt lat="47.91786" lon="0.14368">
        <ele>41.400001525879</ele>
        <time>2024-08-21T09:37:11.000Z</time>
      </trkpt>
      <trkpt lat="47.91788" lon="0.14361">
        <ele>41.400001525879</ele>
        <time>2024-08-21T09:37:12.000Z</time>
      </trkpt>
      <trkpt lat="47.91788" lon="0.14344">
        <ele>41.400001525879</ele>
        <time>2024-08-21T09:37:14.000Z</time>
      </trkpt>
      <trkpt lat="47.91781" lon="0.1431">
        <ele>41.400001525879</ele>
        <time>2024-08-21T09:37:18.000Z</time>
      </trkpt>
      <trkpt lat="47.91775" lon="0.14285">
        <ele>41.400001525879</ele>
        <time>2024-08-21T09:37:21.000Z</time>
      </trkpt>
      <trkpt lat="47.91759" lon="0.14235">
        <ele>41.599998474121</ele>
        <time>2024-08-21T09:37:27.000Z</time>
      </trkpt>
      <trkpt lat="47.91726" lon="0.14183">
        <ele>41.400001525879</ele>
        <time>2024-08-21T09:37:35.000Z</time>
      </trkpt>
      <trkpt lat="47.9169" lon="0.14122">
        <ele>41.200000762939</ele>
        <time>2024-08-21T09:37:44.000Z</time>
      </trkpt>
      <trkpt lat="47.91683" lon="0.14107">
        <ele>41.400001525879</ele>
        <time>2024-08-21T09:37:46.000Z</time>
      </trkpt>
      <trkpt lat="47.91666" lon="0.14079">
        <ele>41.400001525879</ele>
        <time>2024-08-21T09:37:50.000Z</time>
      </trkpt>
      <trkpt lat="47.91631" lon="0.14029">
        <ele>41.400001525879</ele>
        <time>2024-08-21T09:37:58.000Z</time>
      </trkpt>
      <trkpt lat="47.91604" lon="0.13981">
        <ele>41.799999237061</ele>
        <time>2024-08-21T09:38:05.000Z</time>
      </trkpt>
      <trkpt lat="47.91578" lon="0.13918">
        <ele>42</ele>
        <time>2024-08-21T09:38:13.000Z</time>
      </trkpt>
      <trkpt lat="47.91571" lon="0.13894">
        <ele>42.200000762939</ele>
        <time>2024-08-21T09:38:16.000Z</time>
      </trkpt>
      <trkpt lat="47.91556" lon="0.13855">
        <ele>42.400001525879</ele>
        <time>2024-08-21T09:38:21.000Z</time>
      </trkpt>
      <trkpt lat="47.9153" lon="0.13805">
        <ele>42.200000762939</ele>
        <time>2024-08-21T09:38:28.000Z</time>
      </trkpt>
      <trkpt lat="47.91492" lon="0.13746">
        <ele>41.400001525879</ele>
        <time>2024-08-21T09:38:37.000Z</time>
      </trkpt>
      <trkpt lat="47.91462" lon="0.1369">
        <ele>41.200000762939</ele>
        <time>2024-08-21T09:38:45.000Z</time>
      </trkpt>
      <trkpt lat="47.91455" lon="0.13676">
        <ele>41.200000762939</ele>
        <time>2024-08-21T09:38:47.000Z</time>
      </trkpt>
      <trkpt lat="47.9143" lon="0.13625">
        <ele>41</ele>
        <time>2024-08-21T09:38:54.000Z</time>
      </trkpt>
      <trkpt lat="47.91398" lon="0.13563">
        <ele>40.200000762939</ele>
        <time>2024-08-21T09:39:03.000Z</time>
      </trkpt>
      <trkpt lat="47.91385" lon="0.13538">
        <ele>40.200000762939</ele>
        <time>2024-08-21T09:39:08.000Z</time>
      </trkpt>
      <trkpt lat="47.91379" lon="0.13525">
        <ele>41</ele>
        <time>2024-08-21T09:39:12.000Z</time>
      </trkpt>
      <trkpt lat="47.91377" lon="0.13521">
        <ele>41.200000762939</ele>
        <time>2024-08-21T09:39:13.000Z</time>
      </trkpt>
      <trkpt lat="47.91368" lon="0.13501">
        <ele>41.400001525879</ele>
        <time>2024-08-21T09:39:17.000Z</time>
      </trkpt>
      <trkpt lat="47.91352" lon="0.13464">
        <ele>41.400001525879</ele>
        <time>2024-08-21T09:39:23.000Z</time>
      </trkpt>
      <trkpt lat="47.91341" lon="0.13436">
        <ele>41.599998474121</ele>
        <time>2024-08-21T09:39:27.000Z</time>
      </trkpt>
      <trkpt lat="47.91333" lon="0.13416">
        <ele>41.400001525879</ele>
        <time>2024-08-21T09:39:30.000Z</time>
      </trkpt>
      <trkpt lat="47.91318" lon="0.13379">
        <ele>41.400001525879</ele>
        <time>2024-08-21T09:39:36.000Z</time>
      </trkpt>
      <trkpt lat="47.91311" lon="0.13363">
        <ele>41.200000762939</ele>
        <time>2024-08-21T09:39:40.000Z</time>
      </trkpt>
      <trkpt lat="47.91303" lon="0.13327">
        <ele>41.400001525879</ele>
        <time>2024-08-21T09:39:46.000Z</time>
      </trkpt>
      <trkpt lat="47.91292" lon="0.1328">
        <ele>41.400001525879</ele>
        <time>2024-08-21T09:39:52.000Z</time>
      </trkpt>
      <trkpt lat="47.91281" lon="0.13241">
        <ele>41.400001525879</ele>
        <time>2024-08-21T09:39:57.000Z</time>
      </trkpt>
      <trkpt lat="47.91279" lon="0.13233">
        <ele>41.400001525879</ele>
        <time>2024-08-21T09:39:58.000Z</time>
      </trkpt>
      <trkpt lat="47.91268" lon="0.13177">
        <ele>41.400001525879</ele>
        <time>2024-08-21T09:40:05.000Z</time>
      </trkpt>
      <trkpt lat="47.91262" lon="0.13157">
        <ele>41.400001525879</ele>
        <time>2024-08-21T09:40:08.000Z</time>
      </trkpt>
      <trkpt lat="47.9126" lon="0.13144">
        <ele>41.400001525879</ele>
        <time>2024-08-21T09:40:10.000Z</time>
      </trkpt>
      <trkpt lat="47.91246" lon="0.13084">
        <ele>41.400001525879</ele>
        <time>2024-08-21T09:40:18.000Z</time>
      </trkpt>
      <trkpt lat="47.91232" lon="0.13022">
        <ele>41</ele>
        <time>2024-08-21T09:40:26.000Z</time>
      </trkpt>
      <trkpt lat="47.91216" lon="0.12937">
        <ele>40.599998474121</ele>
        <time>2024-08-21T09:40:37.000Z</time>
      </trkpt>
      <trkpt lat="47.91203" lon="0.12888">
        <ele>41</ele>
        <time>2024-08-21T09:40:44.000Z</time>
      </trkpt>
      <trkpt lat="47.91196" lon="0.12853">
        <ele>41.400001525879</ele>
        <time>2024-08-21T09:40:51.000Z</time>
      </trkpt>
      <trkpt lat="47.91189" lon="0.12823">
        <ele>41.400001525879</ele>
        <time>2024-08-21T09:40:57.000Z</time>
      </trkpt>
      <trkpt lat="47.91181" lon="0.12796">
        <ele>41.400001525879</ele>
        <time>2024-08-21T09:41:00.000Z</time>
      </trkpt>
      <trkpt lat="47.91179" lon="0.12788">
        <ele>41.200000762939</ele>
        <time>2024-08-21T09:41:01.000Z</time>
      </trkpt>
      <trkpt lat="47.91178" lon="0.12773">
        <ele>41.200000762939</ele>
        <time>2024-08-21T09:41:03.000Z</time>
      </trkpt>
      <trkpt lat="47.91175" lon="0.12759">
        <ele>41.200000762939</ele>
        <time>2024-08-21T09:41:05.000Z</time>
      </trkpt>
      <trkpt lat="47.91164" lon="0.1272">
        <ele>41.599998474121</ele>
        <time>2024-08-21T09:41:11.000Z</time>
      </trkpt>
      <trkpt lat="47.91159" lon="0.12707">
        <ele>42.400001525879</ele>
        <time>2024-08-21T09:41:15.000Z</time>
      </trkpt>
      <trkpt lat="47.9116" lon="0.12704">
        <ele>42.400001525879</ele>
        <time>2024-08-21T09:41:16.000Z</time>
      </trkpt>
      <trkpt lat="47.9116" lon="0.12702">
        <ele>42.599998474121</ele>
        <time>2024-08-21T09:41:17.000Z</time>
      </trkpt>
      <trkpt lat="47.91159" lon="0.12689">
        <ele>42.799999237061</ele>
        <time>2024-08-21T09:41:22.000Z</time>
      </trkpt>
      <trkpt lat="47.91156" lon="0.12672">
        <ele>42.799999237061</ele>
        <time>2024-08-21T09:41:26.000Z</time>
      </trkpt>
      <trkpt lat="47.91148" lon="0.1264">
        <ele>42.200000762939</ele>
        <time>2024-08-21T09:41:31.000Z</time>
      </trkpt>
      <trkpt lat="47.9114" lon="0.12606">
        <ele>41.799999237061</ele>
        <time>2024-08-21T09:41:36.000Z</time>
      </trkpt>
      <trkpt lat="47.91134" lon="0.12581">
        <ele>41.400001525879</ele>
        <time>2024-08-21T09:41:39.000Z</time>
      </trkpt>
      <trkpt lat="47.91117" lon="0.12522">
        <ele>41.799999237061</ele>
        <time>2024-08-21T09:41:46.000Z</time>
      </trkpt>
      <trkpt lat="47.91107" lon="0.12492">
        <ele>42</ele>
        <time>2024-08-21T09:41:51.000Z</time>
      </trkpt>
      <trkpt lat="47.91105" lon="0.12491">
        <ele>42</ele>
        <time>2024-08-21T09:41:52.000Z</time>
      </trkpt>
      <trkpt lat="47.91099" lon="0.12496">
        <ele>42.200000762939</ele>
        <time>2024-08-21T09:41:54.000Z</time>
      </trkpt>
      <trkpt lat="47.91081" lon="0.12515">
        <ele>42.200000762939</ele>
        <time>2024-08-21T09:41:59.000Z</time>
      </trkpt>
      <trkpt lat="47.91052" lon="0.12544">
        <ele>42</ele>
        <time>2024-08-21T09:42:05.000Z</time>
      </trkpt>
      <trkpt lat="47.9101" lon="0.12592">
        <ele>41.400001525879</ele>
        <time>2024-08-21T09:42:14.000Z</time>
      </trkpt>
      <trkpt lat="47.90993" lon="0.12608">
        <ele>41.400001525879</ele>
        <time>2024-08-21T09:42:17.000Z</time>
      </trkpt>
      <trkpt lat="47.90957" lon="0.12642">
        <ele>41.200000762939</ele>
        <time>2024-08-21T09:42:24.000Z</time>
      </trkpt>
      <trkpt lat="47.90909" lon="0.12691">
        <ele>41.400001525879</ele>
        <time>2024-08-21T09:42:34.000Z</time>
      </trkpt>
      <trkpt lat="47.90904" lon="0.12696">
        <ele>41.599998474121</ele>
        <time>2024-08-21T09:42:35.000Z</time>
      </trkpt>
      <trkpt lat="47.90868" lon="0.12736">
        <ele>42.200000762939</ele>
        <time>2024-08-21T09:42:43.000Z</time>
      </trkpt>
      <trkpt lat="47.90826" lon="0.12784">
        <ele>42.400001525879</ele>
        <time>2024-08-21T09:42:52.000Z</time>
      </trkpt>
      <trkpt lat="47.90785" lon="0.1283">
        <ele>43.200000762939</ele>
        <time>2024-08-21T09:43:01.000Z</time>
      </trkpt>
      <trkpt lat="47.90763" lon="0.12855">
        <ele>43.400001525879</ele>
        <time>2024-08-21T09:43:06.000Z</time>
      </trkpt>
      <trkpt lat="47.90745" lon="0.12876">
        <ele>43.599998474121</ele>
        <time>2024-08-21T09:43:10.000Z</time>
      </trkpt>
      <trkpt lat="47.90698" lon="0.12926">
        <ele>44</ele>
        <time>2024-08-21T09:43:20.000Z</time>
      </trkpt>
      <trkpt lat="47.90694" lon="0.12931">
        <ele>44</ele>
        <time>2024-08-21T09:43:21.000Z</time>
      </trkpt>
      <trkpt lat="47.90674" lon="0.12952">
        <ele>44</ele>
        <time>2024-08-21T09:43:26.000Z</time>
      </trkpt>
      <trkpt lat="47.90672" lon="0.12953">
        <ele>44</ele>
        <time>2024-08-21T09:43:27.000Z</time>
      </trkpt>
      <trkpt lat="47.90666" lon="0.12952">
        <ele>44.400001525879</ele>
        <time>2024-08-21T09:43:30.000Z</time>
      </trkpt>
      <trkpt lat="47.90663" lon="0.1295">
        <ele>44.400001525879</ele>
        <time>2024-08-21T09:43:31.000Z</time>
      </trkpt>
      <trkpt lat="47.90652" lon="0.12932">
        <ele>44.400001525879</ele>
        <time>2024-08-21T09:43:35.000Z</time>
      </trkpt>
      <trkpt lat="47.90632" lon="0.12896">
        <ele>44.200000762939</ele>
        <time>2024-08-21T09:43:41.000Z</time>
      </trkpt>
      <trkpt lat="47.90599" lon="0.12835">
        <ele>44</ele>
        <time>2024-08-21T09:43:50.000Z</time>
      </trkpt>
      <trkpt lat="47.90576" lon="0.12797">
        <ele>43.799999237061</ele>
        <time>2024-08-21T09:43:56.000Z</time>
      </trkpt>
      <trkpt lat="47.90572" lon="0.12795">
        <ele>43.799999237061</ele>
        <time>2024-08-21T09:43:57.000Z</time>
      </trkpt>
      <trkpt lat="47.90566" lon="0.12795">
        <ele>43.799999237061</ele>
        <time>2024-08-21T09:43:58.000Z</time>
      </trkpt>
      <trkpt lat="47.90556" lon="0.12802">
        <ele>43.599998474121</ele>
        <time>2024-08-21T09:44:00.000Z</time>
      </trkpt>
      <trkpt lat="47.90515" lon="0.12838">
        <ele>43.200000762939</ele>
        <time>2024-08-21T09:44:08.000Z</time>
      </trkpt>
      <trkpt lat="47.90489" lon="0.12853">
        <ele>42.400001525879</ele>
        <time>2024-08-21T09:44:12.000Z</time>
      </trkpt>
      <trkpt lat="47.90482" lon="0.12856">
        <ele>42</ele>
        <time>2024-08-21T09:44:13.000Z</time>
      </trkpt>
      <trkpt lat="47.90468" lon="0.12864">
        <ele>41</ele>
        <time>2024-08-21T09:44:15.000Z</time>
      </trkpt>
      <trkpt lat="47.90455" lon="0.1287">
        <ele>40</ele>
        <time>2024-08-21T09:44:17.000Z</time>
      </trkpt>
      <trkpt lat="47.90441" lon="0.12882">
        <ele>39.400001525879</ele>
        <time>2024-08-21T09:44:19.000Z</time>
      </trkpt>
      <trkpt lat="47.90431" lon="0.12898">
        <ele>39</ele>
        <time>2024-08-21T09:44:21.000Z</time>
      </trkpt>
      <trkpt lat="47.90422" lon="0.12915">
        <ele>38.400001525879</ele>
        <time>2024-08-21T09:44:23.000Z</time>
      </trkpt>
      <trkpt lat="47.90406" lon="0.12944">
        <ele>38.200000762939</ele>
        <time>2024-08-21T09:44:27.000Z</time>
      </trkpt>
      <trkpt lat="47.90402" lon="0.12947">
        <ele>38.200000762939</ele>
        <time>2024-08-21T09:44:28.000Z</time>
      </trkpt>
      <trkpt lat="47.90398" lon="0.12947">
        <ele>38.200000762939</ele>
        <time>2024-08-21T09:44:29.000Z</time>
      </trkpt>
      <trkpt lat="47.9039" lon="0.12941">
        <ele>38</ele>
        <time>2024-08-21T09:44:31.000Z</time>
      </trkpt>
      <trkpt lat="47.90361" lon="0.12917">
        <ele>38</ele>
        <time>2024-08-21T09:44:37.000Z</time>
      </trkpt>
      <trkpt lat="47.90351" lon="0.12909">
        <ele>37.799999237061</ele>
        <time>2024-08-21T09:44:39.000Z</time>
      </trkpt>
      <trkpt lat="47.90328" lon="0.12894">
        <ele>37.599998474121</ele>
        <time>2024-08-21T09:44:43.000Z</time>
      </trkpt>
      <trkpt lat="47.90317" lon="0.12889">
        <ele>37.599998474121</ele>
        <time>2024-08-21T09:44:45.000Z</time>
      </trkpt>
      <trkpt lat="47.90311" lon="0.12887">
        <ele>37.599998474121</ele>
        <time>2024-08-21T09:44:46.000Z</time>
      </trkpt>
      <trkpt lat="47.90275" lon="0.1288">
        <ele>37.599998474121</ele>
        <time>2024-08-21T09:44:52.000Z</time>
      </trkpt>
      <trkpt lat="47.9023" lon="0.12872">
        <ele>37.400001525879</ele>
        <time>2024-08-21T09:44:59.000Z</time>
      </trkpt>
      <trkpt lat="47.90183" lon="0.12849">
        <ele>37.200000762939</ele>
        <time>2024-08-21T09:45:07.000Z</time>
      </trkpt>
      <trkpt lat="47.90144" lon="0.12816">
        <ele>37.200000762939</ele>
        <time>2024-08-21T09:45:14.000Z</time>
      </trkpt>
      <trkpt lat="47.90104" lon="0.12764">
        <ele>37.400001525879</ele>
        <time>2024-08-21T09:45:22.000Z</time>
      </trkpt>
      <trkpt lat="47.90066" lon="0.12713">
        <ele>37.599998474121</ele>
        <time>2024-08-21T09:45:30.000Z</time>
      </trkpt>
      <trkpt lat="47.90037" lon="0.12674">
        <ele>38</ele>
        <time>2024-08-21T09:45:36.000Z</time>
      </trkpt>
      <trkpt lat="47.89995" lon="0.12617">
        <ele>38</ele>
        <time>2024-08-21T09:45:44.000Z</time>
      </trkpt>
      <trkpt lat="47.89972" lon="0.12583">
        <ele>37.799999237061</ele>
        <time>2024-08-21T09:45:49.000Z</time>
      </trkpt>
      <trkpt lat="47.89968" lon="0.12579">
        <ele>37.799999237061</ele>
        <time>2024-08-21T09:45:50.000Z</time>
      </trkpt>
      <trkpt lat="47.89922" lon="0.1254">
        <ele>37.599998474121</ele>
        <time>2024-08-21T09:45:59.000Z</time>
      </trkpt>
      <trkpt lat="47.89883" lon="0.1251">
        <ele>37.599998474121</ele>
        <time>2024-08-21T09:46:06.000Z</time>
      </trkpt>
      <trkpt lat="47.89873" lon="0.12504">
        <ele>37.599998474121</ele>
        <time>2024-08-21T09:46:08.000Z</time>
      </trkpt>
      <trkpt lat="47.89861" lon="0.12504">
        <ele>37.400001525879</ele>
        <time>2024-08-21T09:46:10.000Z</time>
      </trkpt>
      <trkpt lat="47.89852" lon="0.12512">
        <ele>37.400001525879</ele>
        <time>2024-08-21T09:46:12.000Z</time>
      </trkpt>
      <trkpt lat="47.89849" lon="0.12519">
        <ele>37.400001525879</ele>
        <time>2024-08-21T09:46:13.000Z</time>
      </trkpt>
      <trkpt lat="47.89847" lon="0.12527">
        <ele>37.200000762939</ele>
        <time>2024-08-21T09:46:14.000Z</time>
      </trkpt>
      <trkpt lat="47.8984" lon="0.12553">
        <ele>37.200000762939</ele>
        <time>2024-08-21T09:46:17.000Z</time>
      </trkpt>
      <trkpt lat="47.89826" lon="0.12614">
        <ele>37.200000762939</ele>
        <time>2024-08-21T09:46:24.000Z</time>
      </trkpt>
      <trkpt lat="47.8982" lon="0.12629">
        <ele>37.400001525879</ele>
        <time>2024-08-21T09:46:26.000Z</time>
      </trkpt>
      <trkpt lat="47.89812" lon="0.1264">
        <ele>37.400001525879</ele>
        <time>2024-08-21T09:46:28.000Z</time>
      </trkpt>
      <trkpt lat="47.89802" lon="0.12646">
        <ele>37.400001525879</ele>
        <time>2024-08-21T09:46:30.000Z</time>
      </trkpt>
      <trkpt lat="47.89792" lon="0.12649">
        <ele>37.400001525879</ele>
        <time>2024-08-21T09:46:32.000Z</time>
      </trkpt>
      <trkpt lat="47.89756" lon="0.12659">
        <ele>37.400001525879</ele>
        <time>2024-08-21T09:46:39.000Z</time>
      </trkpt>
      <trkpt lat="47.89747" lon="0.12661">
        <ele>37.599998474121</ele>
        <time>2024-08-21T09:46:41.000Z</time>
      </trkpt>
      <trkpt lat="47.89726" lon="0.12663">
        <ele>37.599998474121</ele>
        <time>2024-08-21T09:46:45.000Z</time>
      </trkpt>
      <trkpt lat="47.89686" lon="0.12665">
        <ele>37.599998474121</ele>
        <time>2024-08-21T09:46:52.000Z</time>
      </trkpt>
      <trkpt lat="47.89677" lon="0.12666">
        <ele>37.599998474121</ele>
        <time>2024-08-21T09:46:54.000Z</time>
      </trkpt>
      <trkpt lat="47.89669" lon="0.12663">
        <ele>37.599998474121</ele>
        <time>2024-08-21T09:46:56.000Z</time>
      </trkpt>
      <trkpt lat="47.89657" lon="0.12646">
        <ele>38</ele>
        <time>2024-08-21T09:47:00.000Z</time>
      </trkpt>
      <trkpt lat="47.89633" lon="0.12607">
        <ele>38.400001525879</ele>
        <time>2024-08-21T09:47:07.000Z</time>
      </trkpt>
      <trkpt lat="47.89604" lon="0.12562">
        <ele>38.400001525879</ele>
        <time>2024-08-21T09:47:14.000Z</time>
      </trkpt>
      <trkpt lat="47.89578" lon="0.12519">
        <ele>38.799999237061</ele>
        <time>2024-08-21T09:47:21.000Z</time>
      </trkpt>
      <trkpt lat="47.89575" lon="0.12514">
        <ele>39</ele>
        <time>2024-08-21T09:47:22.000Z</time>
      </trkpt>
      <trkpt lat="47.89562" lon="0.12494">
        <ele>39.799999237061</ele>
        <time>2024-08-21T09:47:26.000Z</time>
      </trkpt>
      <trkpt lat="47.89556" lon="0.12484">
        <ele>40</ele>
        <time>2024-08-21T09:47:28.000Z</time>
      </trkpt>
      <trkpt lat="47.89545" lon="0.12466">
        <ele>41</ele>
        <time>2024-08-21T09:47:32.000Z</time>
      </trkpt>
      <trkpt lat="47.89541" lon="0.12462">
        <ele>41.400001525879</ele>
        <time>2024-08-21T09:47:33.000Z</time>
      </trkpt>
      <trkpt lat="47.89538" lon="0.12461">
        <ele>41.599998474121</ele>
        <time>2024-08-21T09:47:34.000Z</time>
      </trkpt>
      <trkpt lat="47.8953" lon="0.12462">
        <ele>42.200000762939</ele>
        <time>2024-08-21T09:47:36.000Z</time>
      </trkpt>
      <trkpt lat="47.89523" lon="0.12469">
        <ele>42.599998474121</ele>
        <time>2024-08-21T09:47:38.000Z</time>
      </trkpt>
      <trkpt lat="47.89517" lon="0.12476">
        <ele>43</ele>
        <time>2024-08-21T09:47:40.000Z</time>
      </trkpt>
      <trkpt lat="47.89505" lon="0.12499">
        <ele>43.400001525879</ele>
        <time>2024-08-21T09:47:46.000Z</time>
      </trkpt>
      <trkpt lat="47.89505" lon="0.12502">
        <ele>43.599998474121</ele>
        <time>2024-08-21T09:47:47.000Z</time>
      </trkpt>
      <trkpt lat="47.89508" lon="0.12511">
        <ele>43.599998474121</ele>
        <time>2024-08-21T09:47:50.000Z</time>
      </trkpt>
      <trkpt lat="47.89509" lon="0.12515">
        <ele>43.599998474121</ele>
        <time>2024-08-21T09:47:51.000Z</time>
      </trkpt>
      <trkpt lat="47.89516" lon="0.12539">
        <ele>43.599998474121</ele>
        <time>2024-08-21T09:47:56.000Z</time>
      </trkpt>
      <trkpt lat="47.89521" lon="0.12549">
        <ele>42.400001525879</ele>
        <time>2024-08-21T09:47:59.000Z</time>
      </trkpt>
      <trkpt lat="47.89522" lon="0.12549">
        <ele>42</ele>
        <time>2024-08-21T09:48:00.000Z</time>
      </trkpt>
      <trkpt lat="47.89522" lon="0.12549">
        <ele>41.599998474121</ele>
        <time>2024-08-21T09:48:04.000Z</time>
      </trkpt>
      <trkpt lat="47.89523" lon="0.12558">
        <ele>41.599998474121</ele>
        <time>2024-08-21T09:48:10.000Z</time>
      </trkpt>
      <trkpt lat="47.89524" lon="0.12562">
        <ele>41.400001525879</ele>
        <time>2024-08-21T09:48:11.000Z</time>
      </trkpt>
      <trkpt lat="47.89524" lon="0.12567">
        <ele>41.200000762939</ele>
        <time>2024-08-21T09:48:12.000Z</time>
      </trkpt>
      <trkpt lat="47.89526" lon="0.12599">
        <ele>40.599998474121</ele>
        <time>2024-08-21T09:48:17.000Z</time>
      </trkpt>
      <trkpt lat="47.89527" lon="0.12615">
        <ele>40.200000762939</ele>
        <time>2024-08-21T09:48:19.000Z</time>
      </trkpt>
      <trkpt lat="47.89528" lon="0.12631">
        <ele>39.200000762939</ele>
        <time>2024-08-21T09:48:21.000Z</time>
      </trkpt>
      <trkpt lat="47.89529" lon="0.12639">
        <ele>39.200000762939</ele>
        <time>2024-08-21T09:48:22.000Z</time>
      </trkpt>
      <trkpt lat="47.89529" lon="0.12646">
        <ele>38.599998474121</ele>
        <time>2024-08-21T09:48:23.000Z</time>
      </trkpt>
      <trkpt lat="47.8953" lon="0.12653">
        <ele>38</ele>
        <time>2024-08-21T09:48:24.000Z</time>
      </trkpt>
      <trkpt lat="47.89531" lon="0.12666">
        <ele>37.400001525879</ele>
        <time>2024-08-21T09:48:26.000Z</time>
      </trkpt>
      <trkpt lat="47.89536" lon="0.12676">
        <ele>37</ele>
        <time>2024-08-21T09:48:28.000Z</time>
      </trkpt>
      <trkpt lat="47.89553" lon="0.12687">
        <ele>36.799999237061</ele>
        <time>2024-08-21T09:48:33.000Z</time>
      </trkpt>
      <trkpt lat="47.89571" lon="0.12698">
        <ele>36.799999237061</ele>
        <time>2024-08-21T09:48:39.000Z</time>
      </trkpt>
      <trkpt lat="47.89594" lon="0.12708">
        <ele>36.599998474121</ele>
        <time>2024-08-21T09:48:46.000Z</time>
      </trkpt>
      <trkpt lat="47.896" lon="0.1271">
        <ele>36.400001525879</ele>
        <time>2024-08-21T09:48:48.000Z</time>
      </trkpt>
      <trkpt lat="47.89602" lon="0.12712">
        <ele>36.400001525879</ele>
        <time>2024-08-21T09:48:49.000Z</time>
      </trkpt>
      <trkpt lat="47.89604" lon="0.12717">
        <ele>36.400001525879</ele>
        <time>2024-08-21T09:48:51.000Z</time>
      </trkpt>
      <trkpt lat="47.89606" lon="0.12723">
        <ele>36.599998474121</ele>
        <time>2024-08-21T09:48:54.000Z</time>
      </trkpt>
      <trkpt lat="47.89607" lon="0.12724">
        <ele>36.599998474121</ele>
        <time>2024-08-21T09:48:56.000Z</time>
      </trkpt>
      <trkpt lat="47.89604" lon="0.12714">
        <ele>36.599998474121</ele>
        <time>2024-08-21T09:49:46.000Z</time>
      </trkpt>
      <trkpt lat="47.896" lon="0.12711">
        <ele>36.599998474121</ele>
        <time>2024-08-21T09:49:48.000Z</time>
      </trkpt>
      <trkpt lat="47.89583" lon="0.12704">
        <ele>36</ele>
        <time>2024-08-21T09:49:54.000Z</time>
      </trkpt>
      <trkpt lat="47.89567" lon="0.12697">
        <ele>36</ele>
        <time>2024-08-21T09:50:00.000Z</time>
      </trkpt>
      <trkpt lat="47.89551" lon="0.12689">
        <ele>36.400001525879</ele>
        <time>2024-08-21T09:50:06.000Z</time>
      </trkpt>
      <trkpt lat="47.8955" lon="0.12688">
        <ele>36.400001525879</ele>
        <time>2024-08-21T09:50:07.000Z</time>
      </trkpt>
      <trkpt lat="47.89549" lon="0.12689">
        <ele>36.799999237061</ele>
        <time>2024-08-21T09:50:09.000Z</time>
      </trkpt>
      <trkpt lat="47.89552" lon="0.1269">
        <ele>37</ele>
        <time>2024-08-21T09:50:12.000Z</time>
      </trkpt>
      <trkpt lat="47.89554" lon="0.12692">
        <ele>37</ele>
        <time>2024-08-21T09:50:14.000Z</time>
      </trkpt>
      <trkpt lat="47.89555" lon="0.12694">
        <ele>37</ele>
        <time>2024-08-21T09:50:15.000Z</time>
      </trkpt>
      <trkpt lat="47.89555" lon="0.12694">
        <ele>37</ele>
        <time>2024-08-21T09:50:18.000Z</time>
      </trkpt>
      <trkpt lat="47.89555" lon="0.12691">
        <ele>37</ele>
        <time>2024-08-21T09:51:29.000Z</time>
      </trkpt>
      <trkpt lat="47.89553" lon="0.12689">
        <ele>37</ele>
        <time>2024-08-21T09:51:30.000Z</time>
      </trkpt>
      <trkpt lat="47.89539" lon="0.12682">
        <ele>36.799999237061</ele>
        <time>2024-08-21T09:51:35.000Z</time>
      </trkpt>
      <trkpt lat="47.89532" lon="0.12664">
        <ele>36.799999237061</ele>
        <time>2024-08-21T09:51:40.000Z</time>
      </trkpt>
      <trkpt lat="47.8953" lon="0.12633">
        <ele>37.200000762939</ele>
        <time>2024-08-21T09:51:46.000Z</time>
      </trkpt>
      <trkpt lat="47.89531" lon="0.12614">
        <ele>38</ele>
        <time>2024-08-21T09:51:51.000Z</time>
      </trkpt>
      <trkpt lat="47.89531" lon="0.12609">
        <ele>38.400001525879</ele>
        <time>2024-08-21T09:51:52.000Z</time>
      </trkpt>
      <trkpt lat="47.89529" lon="0.12595">
        <ele>39.200000762939</ele>
        <time>2024-08-21T09:51:55.000Z</time>
      </trkpt>
      <trkpt lat="47.89529" lon="0.12582">
        <ele>40</ele>
        <time>2024-08-21T09:51:58.000Z</time>
      </trkpt>
      <trkpt lat="47.89528" lon="0.12572">
        <ele>40.200000762939</ele>
        <time>2024-08-21T09:52:00.000Z</time>
      </trkpt>
      <trkpt lat="47.89525" lon="0.12564">
        <ele>40.599998474121</ele>
        <time>2024-08-21T09:52:02.000Z</time>
      </trkpt>
      <trkpt lat="47.89523" lon="0.12561">
        <ele>40.799999237061</ele>
        <time>2024-08-21T09:52:03.000Z</time>
      </trkpt>
      <trkpt lat="47.89521" lon="0.12555">
        <ele>41</ele>
        <time>2024-08-21T09:52:05.000Z</time>
      </trkpt>
      <trkpt lat="47.89521" lon="0.1255">
        <ele>41.400001525879</ele>
        <time>2024-08-21T09:52:06.000Z</time>
      </trkpt>
      <trkpt lat="47.8952" lon="0.12546">
        <ele>41.400001525879</ele>
        <time>2024-08-21T09:52:07.000Z</time>
      </trkpt>
      <trkpt lat="47.89513" lon="0.12522">
        <ele>42.400001525879</ele>
        <time>2024-08-21T09:52:13.000Z</time>
      </trkpt>
      <trkpt lat="47.8951" lon="0.12514">
        <ele>42.599998474121</ele>
        <time>2024-08-21T09:52:15.000Z</time>
      </trkpt>
      <trkpt lat="47.89501" lon="0.12498">
        <ele>43.400001525879</ele>
        <time>2024-08-21T09:52:20.000Z</time>
      </trkpt>
      <trkpt lat="47.89493" lon="0.12487">
        <ele>43.400001525879</ele>
        <time>2024-08-21T09:52:23.000Z</time>
      </trkpt>
      <trkpt lat="47.89476" lon="0.12457">
        <ele>43.400001525879</ele>
        <time>2024-08-21T09:52:28.000Z</time>
      </trkpt>
      <trkpt lat="47.89458" lon="0.12427">
        <ele>41.799999237061</ele>
        <time>2024-08-21T09:52:32.000Z</time>
      </trkpt>
      <trkpt lat="47.89448" lon="0.12411">
        <ele>41.200000762939</ele>
        <time>2024-08-21T09:52:34.000Z</time>
      </trkpt>
      <trkpt lat="47.89438" lon="0.12395">
        <ele>40.400001525879</ele>
        <time>2024-08-21T09:52:36.000Z</time>
      </trkpt>
      <trkpt lat="47.89424" lon="0.12373">
        <ele>39.400001525879</ele>
        <time>2024-08-21T09:52:39.000Z</time>
      </trkpt>
      <trkpt lat="47.8941" lon="0.12351">
        <ele>39.200000762939</ele>
        <time>2024-08-21T09:52:42.000Z</time>
      </trkpt>
      <trkpt lat="47.8937" lon="0.12285">
        <ele>38.599998474121</ele>
        <time>2024-08-21T09:52:51.000Z</time>
      </trkpt>
      <trkpt lat="47.89366" lon="0.12278">
        <ele>38.599998474121</ele>
        <time>2024-08-21T09:52:52.000Z</time>
      </trkpt>
      <trkpt lat="47.89347" lon="0.12248">
        <ele>38.400001525879</ele>
        <time>2024-08-21T09:52:56.000Z</time>
      </trkpt>
      <trkpt lat="47.89307" lon="0.12187">
        <ele>38.799999237061</ele>
        <time>2024-08-21T09:53:05.000Z</time>
      </trkpt>
      <trkpt lat="47.89286" lon="0.12154">
        <ele>38.799999237061</ele>
        <time>2024-08-21T09:53:10.000Z</time>
      </trkpt>
      <trkpt lat="47.89277" lon="0.1214">
        <ele>38.799999237061</ele>
        <time>2024-08-21T09:53:12.000Z</time>
      </trkpt>
      <trkpt lat="47.89252" lon="0.121">
        <ele>38.599998474121</ele>
        <time>2024-08-21T09:53:18.000Z</time>
      </trkpt>
      <trkpt lat="47.89213" lon="0.12042">
        <ele>39</ele>
        <time>2024-08-21T09:53:27.000Z</time>
      </trkpt>
      <trkpt lat="47.89191" lon="0.12006">
        <ele>39</ele>
        <time>2024-08-21T09:53:33.000Z</time>
      </trkpt>
      <trkpt lat="47.89168" lon="0.1197">
        <ele>39</ele>
        <time>2024-08-21T09:53:38.000Z</time>
      </trkpt>
      <trkpt lat="47.89146" lon="0.11932">
        <ele>38.599998474121</ele>
        <time>2024-08-21T09:53:43.000Z</time>
      </trkpt>
      <trkpt lat="47.89142" lon="0.11925">
        <ele>38.599998474121</ele>
        <time>2024-08-21T09:53:44.000Z</time>
      </trkpt>
      <trkpt lat="47.89118" lon="0.1188">
        <ele>38.200000762939</ele>
        <time>2024-08-21T09:53:50.000Z</time>
      </trkpt>
      <trkpt lat="47.89096" lon="0.1183">
        <ele>38.200000762939</ele>
        <time>2024-08-21T09:53:56.000Z</time>
      </trkpt>
      <trkpt lat="47.89077" lon="0.11768">
        <ele>38.400001525879</ele>
        <time>2024-08-21T09:54:03.000Z</time>
      </trkpt>
      <trkpt lat="47.89065" lon="0.11713">
        <ele>38.400001525879</ele>
        <time>2024-08-21T09:54:09.000Z</time>
      </trkpt>
      <trkpt lat="47.89057" lon="0.11666">
        <ele>38.400001525879</ele>
        <time>2024-08-21T09:54:14.000Z</time>
      </trkpt>
      <trkpt lat="47.89054" lon="0.11656">
        <ele>38.400001525879</ele>
        <time>2024-08-21T09:54:15.000Z</time>
      </trkpt>
      <trkpt lat="47.8905" lon="0.11648">
        <ele>38.400001525879</ele>
        <time>2024-08-21T09:54:16.000Z</time>
      </trkpt>
      <trkpt lat="47.89045" lon="0.11642">
        <ele>38.400001525879</ele>
        <time>2024-08-21T09:54:17.000Z</time>
      </trkpt>
      <trkpt lat="47.89039" lon="0.11637">
        <ele>38.400001525879</ele>
        <time>2024-08-21T09:54:18.000Z</time>
      </trkpt>
      <trkpt lat="47.89025" lon="0.11634">
        <ele>38</ele>
        <time>2024-08-21T09:54:20.000Z</time>
      </trkpt>
      <trkpt lat="47.89017" lon="0.11634">
        <ele>37.799999237061</ele>
        <time>2024-08-21T09:54:21.000Z</time>
      </trkpt>
      <trkpt lat="47.89004" lon="0.11638">
        <ele>37.400001525879</ele>
        <time>2024-08-21T09:54:23.000Z</time>
      </trkpt>
      <trkpt lat="47.88968" lon="0.11642">
        <ele>36.400001525879</ele>
        <time>2024-08-21T09:54:28.000Z</time>
      </trkpt>
      <trkpt lat="47.88961" lon="0.11641">
        <ele>36.400001525879</ele>
        <time>2024-08-21T09:54:29.000Z</time>
      </trkpt>
      <trkpt lat="47.8892" lon="0.11632">
        <ele>35.799999237061</ele>
        <time>2024-08-21T09:54:35.000Z</time>
      </trkpt>
      <trkpt lat="47.88914" lon="0.11628">
        <ele>35.599998474121</ele>
        <time>2024-08-21T09:54:36.000Z</time>
      </trkpt>
      <trkpt lat="47.88908" lon="0.11624">
        <ele>35.599998474121</ele>
        <time>2024-08-21T09:54:37.000Z</time>
      </trkpt>
      <trkpt lat="47.88898" lon="0.11612">
        <ele>35.400001525879</ele>
        <time>2024-08-21T09:54:39.000Z</time>
      </trkpt>
      <trkpt lat="47.88893" lon="0.11605">
        <ele>35.400001525879</ele>
        <time>2024-08-21T09:54:40.000Z</time>
      </trkpt>
      <trkpt lat="47.88862" lon="0.11557">
        <ele>35.200000762939</ele>
        <time>2024-08-21T09:54:47.000Z</time>
      </trkpt>
      <trkpt lat="47.88827" lon="0.11504">
        <ele>35.799999237061</ele>
        <time>2024-08-21T09:54:55.000Z</time>
      </trkpt>
      <trkpt lat="47.88783" lon="0.11446">
        <ele>36</ele>
        <time>2024-08-21T09:55:04.000Z</time>
      </trkpt>
      <trkpt lat="47.88773" lon="0.11435">
        <ele>36</ele>
        <time>2024-08-21T09:55:06.000Z</time>
      </trkpt>
      <trkpt lat="47.88729" lon="0.11387">
        <ele>36.200000762939</ele>
        <time>2024-08-21T09:55:14.000Z</time>
      </trkpt>
      <trkpt lat="47.88724" lon="0.1138">
        <ele>36</ele>
        <time>2024-08-21T09:55:15.000Z</time>
      </trkpt>
      <trkpt lat="47.88679" lon="0.11321">
        <ele>36</ele>
        <time>2024-08-21T09:55:24.000Z</time>
      </trkpt>
      <trkpt lat="47.88669" lon="0.11307">
        <ele>36</ele>
        <time>2024-08-21T09:55:26.000Z</time>
      </trkpt>
      <trkpt lat="47.88637" lon="0.1126">
        <ele>36</ele>
        <time>2024-08-21T09:55:33.000Z</time>
      </trkpt>
      <trkpt lat="47.88626" lon="0.1125">
        <ele>36.200000762939</ele>
        <time>2024-08-21T09:55:35.000Z</time>
      </trkpt>
      <trkpt lat="47.8861" lon="0.11239">
        <ele>36.400001525879</ele>
        <time>2024-08-21T09:55:38.000Z</time>
      </trkpt>
      <trkpt lat="47.88571" lon="0.11204">
        <ele>37</ele>
        <time>2024-08-21T09:55:46.000Z</time>
      </trkpt>
      <trkpt lat="47.88554" lon="0.11187">
        <ele>37.599998474121</ele>
        <time>2024-08-21T09:55:50.000Z</time>
      </trkpt>
      <trkpt lat="47.8855" lon="0.11183">
        <ele>37.799999237061</ele>
        <time>2024-08-21T09:55:51.000Z</time>
      </trkpt>
      <trkpt lat="47.88539" lon="0.11171">
        <ele>38.799999237061</ele>
        <time>2024-08-21T09:55:54.000Z</time>
      </trkpt>
      <trkpt lat="47.88506" lon="0.11133">
        <ele>39.400001525879</ele>
        <time>2024-08-21T09:56:02.000Z</time>
      </trkpt>
      <trkpt lat="47.8846" lon="0.11081">
        <ele>39.400001525879</ele>
        <time>2024-08-21T09:56:12.000Z</time>
      </trkpt>
      <trkpt lat="47.88412" lon="0.1103">
        <ele>38.599998474121</ele>
        <time>2024-08-21T09:56:21.000Z</time>
      </trkpt>
      <trkpt lat="47.88389" lon="0.10993">
        <ele>37.599998474121</ele>
        <time>2024-08-21T09:56:26.000Z</time>
      </trkpt>
      <trkpt lat="47.88377" lon="0.10969">
        <ele>37.200000762939</ele>
        <time>2024-08-21T09:56:29.000Z</time>
      </trkpt>
      <trkpt lat="47.88362" lon="0.10938">
        <ele>36.599998474121</ele>
        <time>2024-08-21T09:56:33.000Z</time>
      </trkpt>
      <trkpt lat="47.88336" lon="0.10886">
        <ele>36.400001525879</ele>
        <time>2024-08-21T09:56:40.000Z</time>
      </trkpt>
      <trkpt lat="47.88301" lon="0.10818">
        <ele>37</ele>
        <time>2024-08-21T09:56:50.000Z</time>
      </trkpt>
      <trkpt lat="47.88283" lon="0.10783">
        <ele>37.799999237061</ele>
        <time>2024-08-21T09:56:56.000Z</time>
      </trkpt>
      <trkpt lat="47.88265" lon="0.10751">
        <ele>38.200000762939</ele>
        <time>2024-08-21T09:57:02.000Z</time>
      </trkpt>
      <trkpt lat="47.88243" lon="0.10713">
        <ele>38.400001525879</ele>
        <time>2024-08-21T09:57:08.000Z</time>
      </trkpt>
      <trkpt lat="47.88229" lon="0.10687">
        <ele>38.400001525879</ele>
        <time>2024-08-21T09:57:12.000Z</time>
      </trkpt>
      <trkpt lat="47.88222" lon="0.10675">
        <ele>38.400001525879</ele>
        <time>2024-08-21T09:57:14.000Z</time>
      </trkpt>
      <trkpt lat="47.88198" lon="0.10638">
        <ele>38.400001525879</ele>
        <time>2024-08-21T09:57:20.000Z</time>
      </trkpt>
      <trkpt lat="47.88191" lon="0.10627">
        <ele>38.599998474121</ele>
        <time>2024-08-21T09:57:22.000Z</time>
      </trkpt>
      <trkpt lat="47.88179" lon="0.10609">
        <ele>39</ele>
        <time>2024-08-21T09:57:25.000Z</time>
      </trkpt>
      <trkpt lat="47.88175" lon="0.10604">
        <ele>39</ele>
        <time>2024-08-21T09:57:26.000Z</time>
      </trkpt>
      <trkpt lat="47.88164" lon="0.10591">
        <ele>39.400001525879</ele>
        <time>2024-08-21T09:57:30.000Z</time>
      </trkpt>
      <trkpt lat="47.8815" lon="0.1057">
        <ele>39.200000762939</ele>
        <time>2024-08-21T09:57:35.000Z</time>
      </trkpt>
      <trkpt lat="47.88149" lon="0.10568">
        <ele>39.599998474121</ele>
        <time>2024-08-21T09:57:40.000Z</time>
      </trkpt>
      <trkpt lat="47.88149" lon="0.10568">
        <ele>39.599998474121</ele>
        <time>2024-08-21T09:57:41.000Z</time>
      </trkpt>
      <trkpt lat="47.8815" lon="0.10556">
        <ele>39.599998474121</ele>
        <time>2024-08-21T09:57:48.000Z</time>
      </trkpt>
      <trkpt lat="47.88153" lon="0.10545">
        <ele>39.599998474121</ele>
        <time>2024-08-21T09:57:51.000Z</time>
      </trkpt>
      <trkpt lat="47.88158" lon="0.10518">
        <ele>39.599998474121</ele>
        <time>2024-08-21T09:57:55.000Z</time>
      </trkpt>
      <trkpt lat="47.88161" lon="0.10499">
        <ele>39.400001525879</ele>
        <time>2024-08-21T09:57:57.000Z</time>
      </trkpt>
      <trkpt lat="47.88167" lon="0.10482">
        <ele>39.200000762939</ele>
        <time>2024-08-21T09:57:59.000Z</time>
      </trkpt>
      <trkpt lat="47.88178" lon="0.10439">
        <ele>38.599998474121</ele>
        <time>2024-08-21T09:58:04.000Z</time>
      </trkpt>
      <trkpt lat="47.88183" lon="0.1043">
        <ele>38.400001525879</ele>
        <time>2024-08-21T09:58:05.000Z</time>
      </trkpt>
      <trkpt lat="47.88192" lon="0.10402">
        <ele>37.599998474121</ele>
        <time>2024-08-21T09:58:08.000Z</time>
      </trkpt>
      <trkpt lat="47.88195" lon="0.10393">
        <ele>37.400001525879</ele>
        <time>2024-08-21T09:58:09.000Z</time>
      </trkpt>
      <trkpt lat="47.88211" lon="0.10361">
        <ele>36.799999237061</ele>
        <time>2024-08-21T09:58:13.000Z</time>
      </trkpt>
      <trkpt lat="47.88223" lon="0.10338">
        <ele>36.599998474121</ele>
        <time>2024-08-21T09:58:16.000Z</time>
      </trkpt>
      <trkpt lat="47.88239" lon="0.10309">
        <ele>36.400001525879</ele>
        <time>2024-08-21T09:58:20.000Z</time>
      </trkpt>
      <trkpt lat="47.88273" lon="0.10251">
        <ele>36.400001525879</ele>
        <time>2024-08-21T09:58:28.000Z</time>
      </trkpt>
      <trkpt lat="47.88308" lon="0.10201">
        <ele>36.799999237061</ele>
        <time>2024-08-21T09:58:36.000Z</time>
      </trkpt>
      <trkpt lat="47.88342" lon="0.10161">
        <ele>36.799999237061</ele>
        <time>2024-08-21T09:58:43.000Z</time>
      </trkpt>
      <trkpt lat="47.88379" lon="0.1011">
        <ele>37</ele>
        <time>2024-08-21T09:58:51.000Z</time>
      </trkpt>
      <trkpt lat="47.88391" lon="0.10087">
        <ele>37</ele>
        <time>2024-08-21T09:58:54.000Z</time>
      </trkpt>
      <trkpt lat="47.88398" lon="0.10072">
        <ele>37</ele>
        <time>2024-08-21T09:58:56.000Z</time>
      </trkpt>
      <trkpt lat="47.88401" lon="0.10065">
        <ele>37</ele>
        <time>2024-08-21T09:58:57.000Z</time>
      </trkpt>
      <trkpt lat="47.88404" lon="0.10048">
        <ele>36.799999237061</ele>
        <time>2024-08-21T09:58:59.000Z</time>
      </trkpt>
      <trkpt lat="47.88405" lon="0.10039">
        <ele>36.599998474121</ele>
        <time>2024-08-21T09:59:00.000Z</time>
      </trkpt>
      <trkpt lat="47.88406" lon="0.1003">
        <ele>36.599998474121</ele>
        <time>2024-08-21T09:59:01.000Z</time>
      </trkpt>
      <trkpt lat="47.88412" lon="0.10014">
        <ele>36.599998474121</ele>
        <time>2024-08-21T09:59:03.000Z</time>
      </trkpt>
      <trkpt lat="47.88415" lon="0.10005">
        <ele>36.599998474121</ele>
        <time>2024-08-21T09:59:04.000Z</time>
      </trkpt>
      <trkpt lat="47.88424" lon="0.09973">
        <ele>36.599998474121</ele>
        <time>2024-08-21T09:59:08.000Z</time>
      </trkpt>
      <trkpt lat="47.88428" lon="0.09958">
        <ele>36.799999237061</ele>
        <time>2024-08-21T09:59:10.000Z</time>
      </trkpt>
      <trkpt lat="47.88431" lon="0.09944">
        <ele>36.799999237061</ele>
        <time>2024-08-21T09:59:12.000Z</time>
      </trkpt>
      <trkpt lat="47.88433" lon="0.09937">
        <ele>37</ele>
        <time>2024-08-21T09:59:13.000Z</time>
      </trkpt>
      <trkpt lat="47.88436" lon="0.09923">
        <ele>37.200000762939</ele>
        <time>2024-08-21T09:59:15.000Z</time>
      </trkpt>
      <trkpt lat="47.88438" lon="0.09911">
        <ele>37.599998474121</ele>
        <time>2024-08-21T09:59:17.000Z</time>
      </trkpt>
      <trkpt lat="47.88445" lon="0.09891">
        <ele>38.599998474121</ele>
        <time>2024-08-21T09:59:20.000Z</time>
      </trkpt>
      <trkpt lat="47.88453" lon="0.09864">
        <ele>40</ele>
        <time>2024-08-21T09:59:25.000Z</time>
      </trkpt>
      <trkpt lat="47.88456" lon="0.09859">
        <ele>40.200000762939</ele>
        <time>2024-08-21T09:59:26.000Z</time>
      </trkpt>
      <trkpt lat="47.88462" lon="0.09844">
        <ele>41.200000762939</ele>
        <time>2024-08-21T09:59:29.000Z</time>
      </trkpt>
      <trkpt lat="47.88471" lon="0.09823">
        <ele>42</ele>
        <time>2024-08-21T09:59:35.000Z</time>
      </trkpt>
      <trkpt lat="47.88471" lon="0.09822">
        <ele>42.200000762939</ele>
        <time>2024-08-21T09:59:37.000Z</time>
      </trkpt>
      <trkpt lat="47.88471" lon="0.09822">
        <ele>42.200000762939</ele>
        <time>2024-08-21T09:59:38.000Z</time>
      </trkpt>
      <trkpt lat="47.88472" lon="0.09815">
        <ele>42.400001525879</ele>
        <time>2024-08-21T10:00:13.000Z</time>
      </trkpt>
      <trkpt lat="47.88475" lon="0.09804">
        <ele>42.599998474121</ele>
        <time>2024-08-21T10:00:16.000Z</time>
      </trkpt>
      <trkpt lat="47.8848" lon="0.09781">
        <ele>42.200000762939</ele>
        <time>2024-08-21T10:00:21.000Z</time>
      </trkpt>
      <trkpt lat="47.88483" lon="0.09767">
        <ele>42</ele>
        <time>2024-08-21T10:00:23.000Z</time>
      </trkpt>
      <trkpt lat="47.88488" lon="0.09753">
        <ele>41.599998474121</ele>
        <time>2024-08-21T10:00:25.000Z</time>
      </trkpt>
      <trkpt lat="47.88494" lon="0.09737">
        <ele>41</ele>
        <time>2024-08-21T10:00:27.000Z</time>
      </trkpt>
      <trkpt lat="47.88504" lon="0.09712">
        <ele>39.799999237061</ele>
        <time>2024-08-21T10:00:30.000Z</time>
      </trkpt>
      <trkpt lat="47.88521" lon="0.0967">
        <ele>39.400001525879</ele>
        <time>2024-08-21T10:00:36.000Z</time>
      </trkpt>
      <trkpt lat="47.88532" lon="0.09646">
        <ele>40.599998474121</ele>
        <time>2024-08-21T10:00:41.000Z</time>
      </trkpt>
      <trkpt lat="47.88536" lon="0.09636">
        <ele>41.599998474121</ele>
        <time>2024-08-21T10:00:43.000Z</time>
      </trkpt>
      <trkpt lat="47.88542" lon="0.0962">
        <ele>42.599998474121</ele>
        <time>2024-08-21T10:00:46.000Z</time>
      </trkpt>
      <trkpt lat="47.88551" lon="0.09599">
        <ele>43.200000762939</ele>
        <time>2024-08-21T10:00:50.000Z</time>
      </trkpt>
      <trkpt lat="47.88572" lon="0.09563">
        <ele>43.400001525879</ele>
        <time>2024-08-21T10:00:57.000Z</time>
      </trkpt>
      <trkpt lat="47.88601" lon="0.09534">
        <ele>43.200000762939</ele>
        <time>2024-08-21T10:01:04.000Z</time>
      </trkpt>
      <trkpt lat="47.88629" lon="0.09517">
        <ele>42.599998474121</ele>
        <time>2024-08-21T10:01:09.000Z</time>
      </trkpt>
      <trkpt lat="47.88647" lon="0.09507">
        <ele>41.400001525879</ele>
        <time>2024-08-21T10:01:12.000Z</time>
      </trkpt>
      <trkpt lat="47.88652" lon="0.09504">
        <ele>41.200000762939</ele>
        <time>2024-08-21T10:01:13.000Z</time>
      </trkpt>
      <trkpt lat="47.88665" lon="0.09498">
        <ele>40.400001525879</ele>
        <time>2024-08-21T10:01:15.000Z</time>
      </trkpt>
      <trkpt lat="47.88671" lon="0.09493">
        <ele>40.400001525879</ele>
        <time>2024-08-21T10:01:16.000Z</time>
      </trkpt>
      <trkpt lat="47.88701" lon="0.09465">
        <ele>40</ele>
        <time>2024-08-21T10:01:21.000Z</time>
      </trkpt>
      <trkpt lat="47.88732" lon="0.09436">
        <ele>39.599998474121</ele>
        <time>2024-08-21T10:01:27.000Z</time>
      </trkpt>
      <trkpt lat="47.88737" lon="0.09431">
        <ele>39.400001525879</ele>
        <time>2024-08-21T10:01:28.000Z</time>
      </trkpt>
      <trkpt lat="47.88741" lon="0.09426">
        <ele>39.400001525879</ele>
        <time>2024-08-21T10:01:29.000Z</time>
      </trkpt>
      <trkpt lat="47.88753" lon="0.0942">
        <ele>39.200000762939</ele>
        <time>2024-08-21T10:01:31.000Z</time>
      </trkpt>
      <trkpt lat="47.8876" lon="0.09416">
        <ele>39.400001525879</ele>
        <time>2024-08-21T10:01:32.000Z</time>
      </trkpt>
      <trkpt lat="47.88766" lon="0.09412">
        <ele>39</ele>
        <time>2024-08-21T10:01:33.000Z</time>
      </trkpt>
      <trkpt lat="47.8879" lon="0.09395">
        <ele>38.799999237061</ele>
        <time>2024-08-21T10:01:37.000Z</time>
      </trkpt>
      <trkpt lat="47.88801" lon="0.09386">
        <ele>38.400001525879</ele>
        <time>2024-08-21T10:01:39.000Z</time>
      </trkpt>
      <trkpt lat="47.88815" lon="0.09371">
        <ele>38.200000762939</ele>
        <time>2024-08-21T10:01:42.000Z</time>
      </trkpt>
      <trkpt lat="47.88863" lon="0.09334">
        <ele>37.599998474121</ele>
        <time>2024-08-21T10:01:50.000Z</time>
      </trkpt>
      <trkpt lat="47.88904" lon="0.09311">
        <ele>37.799999237061</ele>
        <time>2024-08-21T10:01:57.000Z</time>
      </trkpt>
      <trkpt lat="47.88935" lon="0.09298">
        <ele>37.400001525879</ele>
        <time>2024-08-21T10:02:02.000Z</time>
      </trkpt>
      <trkpt lat="47.88941" lon="0.09298">
        <ele>37.400001525879</ele>
        <time>2024-08-21T10:02:03.000Z</time>
      </trkpt>
      <trkpt lat="47.88948" lon="0.093">
        <ele>37.400001525879</ele>
        <time>2024-08-21T10:02:04.000Z</time>
      </trkpt>
      <trkpt lat="47.8896" lon="0.09306">
        <ele>37.400001525879</ele>
        <time>2024-08-21T10:02:06.000Z</time>
      </trkpt>
      <trkpt lat="47.88966" lon="0.09311">
        <ele>37.400001525879</ele>
        <time>2024-08-21T10:02:07.000Z</time>
      </trkpt>
      <trkpt lat="47.89007" lon="0.09338">
        <ele>37.400001525879</ele>
        <time>2024-08-21T10:02:14.000Z</time>
      </trkpt>
      <trkpt lat="47.8902" lon="0.09345">
        <ele>37.400001525879</ele>
        <time>2024-08-21T10:02:16.000Z</time>
      </trkpt>
      <trkpt lat="47.8903" lon="0.09356">
        <ele>37.400001525879</ele>
        <time>2024-08-21T10:02:18.000Z</time>
      </trkpt>
      <trkpt lat="47.89071" lon="0.09415">
        <ele>37.200000762939</ele>
        <time>2024-08-21T10:02:27.000Z</time>
      </trkpt>
      <trkpt lat="47.89076" lon="0.09421">
        <ele>37.200000762939</ele>
        <time>2024-08-21T10:02:28.000Z</time>
      </trkpt>
      <trkpt lat="47.89081" lon="0.09427">
        <ele>37</ele>
        <time>2024-08-21T10:02:29.000Z</time>
      </trkpt>
      <trkpt lat="47.8909" lon="0.09438">
        <ele>37</ele>
        <time>2024-08-21T10:02:31.000Z</time>
      </trkpt>
      <trkpt lat="47.89101" lon="0.09442">
        <ele>37</ele>
        <time>2024-08-21T10:02:33.000Z</time>
      </trkpt>
      <trkpt lat="47.89113" lon="0.09439">
        <ele>37.200000762939</ele>
        <time>2024-08-21T10:02:35.000Z</time>
      </trkpt>
      <trkpt lat="47.89125" lon="0.09433">
        <ele>37.400001525879</ele>
        <time>2024-08-21T10:02:37.000Z</time>
      </trkpt>
      <trkpt lat="47.89136" lon="0.09428">
        <ele>37.599998474121</ele>
        <time>2024-08-21T10:02:39.000Z</time>
      </trkpt>
      <trkpt lat="47.89155" lon="0.09426">
        <ele>37.799999237061</ele>
        <time>2024-08-21T10:02:42.000Z</time>
      </trkpt>
      <trkpt lat="47.89186" lon="0.09438">
        <ele>37.799999237061</ele>
        <time>2024-08-21T10:02:47.000Z</time>
      </trkpt>
      <trkpt lat="47.89238" lon="0.0947">
        <ele>37.799999237061</ele>
        <time>2024-08-21T10:02:56.000Z</time>
      </trkpt>
      <trkpt lat="47.89244" lon="0.09473">
        <ele>37.799999237061</ele>
        <time>2024-08-21T10:02:57.000Z</time>
      </trkpt>
      <trkpt lat="47.89298" lon="0.09506">
        <ele>37.200000762939</ele>
        <time>2024-08-21T10:03:06.000Z</time>
      </trkpt>
      <trkpt lat="47.8931" lon="0.09513">
        <ele>37.200000762939</ele>
        <time>2024-08-21T10:03:08.000Z</time>
      </trkpt>
      <trkpt lat="47.89366" lon="0.09542">
        <ele>37</ele>
        <time>2024-08-21T10:03:17.000Z</time>
      </trkpt>
      <trkpt lat="47.89378" lon="0.09548">
        <ele>37</ele>
        <time>2024-08-21T10:03:19.000Z</time>
      </trkpt>
      <trkpt lat="47.89431" lon="0.09575">
        <ele>37.200000762939</ele>
        <time>2024-08-21T10:03:28.000Z</time>
      </trkpt>
      <trkpt lat="47.89477" lon="0.09595">
        <ele>38</ele>
        <time>2024-08-21T10:03:36.000Z</time>
      </trkpt>
      <trkpt lat="47.89489" lon="0.09597">
        <ele>38.200000762939</ele>
        <time>2024-08-21T10:03:38.000Z</time>
      </trkpt>
      <trkpt lat="47.89539" lon="0.09594">
        <ele>38</ele>
        <time>2024-08-21T10:03:46.000Z</time>
      </trkpt>
      <trkpt lat="47.89586" lon="0.09591">
        <ele>38.400001525879</ele>
        <time>2024-08-21T10:03:54.000Z</time>
      </trkpt>
      <trkpt lat="47.89619" lon="0.09598">
        <ele>38.400001525879</ele>
        <time>2024-08-21T10:04:00.000Z</time>
      </trkpt>
      <trkpt lat="47.89625" lon="0.096">
        <ele>38.400001525879</ele>
        <time>2024-08-21T10:04:01.000Z</time>
      </trkpt>
      <trkpt lat="47.89651" lon="0.09616">
        <ele>38.799999237061</ele>
        <time>2024-08-21T10:04:06.000Z</time>
      </trkpt>
      <trkpt lat="47.89661" lon="0.09623">
        <ele>39</ele>
        <time>2024-08-21T10:04:08.000Z</time>
      </trkpt>
      <trkpt lat="47.89685" lon="0.0964">
        <ele>39.599998474121</ele>
        <time>2024-08-21T10:04:13.000Z</time>
      </trkpt>
      <trkpt lat="47.8969" lon="0.09645">
        <ele>39.599998474121</ele>
        <time>2024-08-21T10:04:14.000Z</time>
      </trkpt>
      <trkpt lat="47.89713" lon="0.09668">
        <ele>40.200000762939</ele>
        <time>2024-08-21T10:04:20.000Z</time>
      </trkpt>
      <trkpt lat="47.89743" lon="0.09704">
        <ele>40.799999237061</ele>
        <time>2024-08-21T10:04:28.000Z</time>
      </trkpt>
      <trkpt lat="47.89775" lon="0.0973">
        <ele>41.400001525879</ele>
        <time>2024-08-21T10:04:35.000Z</time>
      </trkpt>
      <trkpt lat="47.898" lon="0.09743">
        <ele>41.799999237061</ele>
        <time>2024-08-21T10:04:40.000Z</time>
      </trkpt>
      <trkpt lat="47.89821" lon="0.0975">
        <ele>42</ele>
        <time>2024-08-21T10:04:44.000Z</time>
      </trkpt>
      <trkpt lat="47.89865" lon="0.09758">
        <ele>42.599998474121</ele>
        <time>2024-08-21T10:04:53.000Z</time>
      </trkpt>
      <trkpt lat="47.89875" lon="0.09759">
        <ele>42.799999237061</ele>
        <time>2024-08-21T10:04:55.000Z</time>
      </trkpt>
      <trkpt lat="47.89903" lon="0.09759">
        <ele>43.400001525879</ele>
        <time>2024-08-21T10:05:01.000Z</time>
      </trkpt>
      <trkpt lat="47.89925" lon="0.09757">
        <ele>44</ele>
        <time>2024-08-21T10:05:06.000Z</time>
      </trkpt>
      <trkpt lat="47.89942" lon="0.09755">
        <ele>44.599998474121</ele>
        <time>2024-08-21T10:05:10.000Z</time>
      </trkpt>
      <trkpt lat="47.8995" lon="0.09753">
        <ele>44.799999237061</ele>
        <time>2024-08-21T10:05:12.000Z</time>
      </trkpt>
      <trkpt lat="47.89956" lon="0.09747">
        <ele>45</ele>
        <time>2024-08-21T10:05:14.000Z</time>
      </trkpt>
      <trkpt lat="47.89954" lon="0.09731">
        <ele>45.400001525879</ele>
        <time>2024-08-21T10:05:17.000Z</time>
      </trkpt>
      <trkpt lat="47.89939" lon="0.09688">
        <ele>45.799999237061</ele>
        <time>2024-08-21T10:05:24.000Z</time>
      </trkpt>
      <trkpt lat="47.89937" lon="0.09681">
        <ele>46</ele>
        <time>2024-08-21T10:05:25.000Z</time>
      </trkpt>
      <trkpt lat="47.89935" lon="0.09675">
        <ele>46</ele>
        <time>2024-08-21T10:05:26.000Z</time>
      </trkpt>
      <trkpt lat="47.89923" lon="0.09638">
        <ele>45.799999237061</ele>
        <time>2024-08-21T10:05:31.000Z</time>
      </trkpt>
      <trkpt lat="47.89906" lon="0.09579">
        <ele>45.799999237061</ele>
        <time>2024-08-21T10:05:39.000Z</time>
      </trkpt>
      <trkpt lat="47.89886" lon="0.09516">
        <ele>46</ele>
        <time>2024-08-21T10:05:47.000Z</time>
      </trkpt>
      <trkpt lat="47.89863" lon="0.09452">
        <ele>45.799999237061</ele>
        <time>2024-08-21T10:05:55.000Z</time>
      </trkpt>
      <trkpt lat="47.89847" lon="0.09409">
        <ele>45.200000762939</ele>
        <time>2024-08-21T10:06:00.000Z</time>
      </trkpt>
      <trkpt lat="47.89844" lon="0.09401">
        <ele>45</ele>
        <time>2024-08-21T10:06:01.000Z</time>
      </trkpt>
      <trkpt lat="47.89826" lon="0.09355">
        <ele>44.400001525879</ele>
        <time>2024-08-21T10:06:06.000Z</time>
      </trkpt>
      <trkpt lat="47.89815" lon="0.09317">
        <ele>43.799999237061</ele>
        <time>2024-08-21T10:06:10.000Z</time>
      </trkpt>
      <trkpt lat="47.89804" lon="0.09279">
        <ele>43</ele>
        <time>2024-08-21T10:06:14.000Z</time>
      </trkpt>
      <trkpt lat="47.89787" lon="0.09218">
        <ele>43</ele>
        <time>2024-08-21T10:06:21.000Z</time>
      </trkpt>
      <trkpt lat="47.89761" lon="0.09148">
        <ele>43.599998474121</ele>
        <time>2024-08-21T10:06:30.000Z</time>
      </trkpt>
      <trkpt lat="47.89739" lon="0.09091">
        <ele>43.799999237061</ele>
        <time>2024-08-21T10:06:38.000Z</time>
      </trkpt>
      <trkpt lat="47.8973" lon="0.09054">
        <ele>45</ele>
        <time>2024-08-21T10:06:43.000Z</time>
      </trkpt>
      <trkpt lat="47.89724" lon="0.09024">
        <ele>45.599998474121</ele>
        <time>2024-08-21T10:06:47.000Z</time>
      </trkpt>
      <trkpt lat="47.89716" lon="0.08973">
        <ele>45.799999237061</ele>
        <time>2024-08-21T10:06:54.000Z</time>
      </trkpt>
      <trkpt lat="47.89714" lon="0.08959">
        <ele>45.799999237061</ele>
        <time>2024-08-21T10:06:56.000Z</time>
      </trkpt>
      <trkpt lat="47.89703" lon="0.08892">
        <ele>45.799999237061</ele>
        <time>2024-08-21T10:07:05.000Z</time>
      </trkpt>
      <trkpt lat="47.89699" lon="0.08862">
        <ele>46</ele>
        <time>2024-08-21T10:07:09.000Z</time>
      </trkpt>
      <trkpt lat="47.89693" lon="0.08825">
        <ele>46</ele>
        <time>2024-08-21T10:07:14.000Z</time>
      </trkpt>
      <trkpt lat="47.89683" lon="0.08762">
        <ele>46</ele>
        <time>2024-08-21T10:07:22.000Z</time>
      </trkpt>
      <trkpt lat="47.89671" lon="0.08686">
        <ele>45.799999237061</ele>
        <time>2024-08-21T10:07:31.000Z</time>
      </trkpt>
      <trkpt lat="47.8966" lon="0.08606">
        <ele>45</ele>
        <time>2024-08-21T10:07:40.000Z</time>
      </trkpt>
      <trkpt lat="47.89659" lon="0.08597">
        <ele>45</ele>
        <time>2024-08-21T10:07:41.000Z</time>
      </trkpt>
      <trkpt lat="47.89654" lon="0.08512">
        <ele>44.400001525879</ele>
        <time>2024-08-21T10:07:50.000Z</time>
      </trkpt>
      <trkpt lat="47.89653" lon="0.08502">
        <ele>44.200000762939</ele>
        <time>2024-08-21T10:07:51.000Z</time>
      </trkpt>
      <trkpt lat="47.89651" lon="0.08483">
        <ele>44.200000762939</ele>
        <time>2024-08-21T10:07:53.000Z</time>
      </trkpt>
      <trkpt lat="47.89642" lon="0.08447">
        <ele>44.200000762939</ele>
        <time>2024-08-21T10:07:57.000Z</time>
      </trkpt>
      <trkpt lat="47.8963" lon="0.08401">
        <ele>44.200000762939</ele>
        <time>2024-08-21T10:08:03.000Z</time>
      </trkpt>
      <trkpt lat="47.89625" lon="0.08369">
        <ele>44.200000762939</ele>
        <time>2024-08-21T10:08:07.000Z</time>
      </trkpt>
      <trkpt lat="47.89625" lon="0.08352">
        <ele>44.200000762939</ele>
        <time>2024-08-21T10:08:09.000Z</time>
      </trkpt>
      <trkpt lat="47.89626" lon="0.08343">
        <ele>44.200000762939</ele>
        <time>2024-08-21T10:08:10.000Z</time>
      </trkpt>
      <trkpt lat="47.89628" lon="0.08326">
        <ele>44.200000762939</ele>
        <time>2024-08-21T10:08:12.000Z</time>
      </trkpt>
      <trkpt lat="47.89632" lon="0.0831">
        <ele>44</ele>
        <time>2024-08-21T10:08:14.000Z</time>
      </trkpt>
      <trkpt lat="47.89635" lon="0.08303">
        <ele>44</ele>
        <time>2024-08-21T10:08:15.000Z</time>
      </trkpt>
      <trkpt lat="47.89648" lon="0.08276">
        <ele>44.200000762939</ele>
        <time>2024-08-21T10:08:19.000Z</time>
      </trkpt>
      <trkpt lat="47.89678" lon="0.08221">
        <ele>45.799999237061</ele>
        <time>2024-08-21T10:08:28.000Z</time>
      </trkpt>
      <trkpt lat="47.89688" lon="0.08205">
        <ele>46</ele>
        <time>2024-08-21T10:08:31.000Z</time>
      </trkpt>
      <trkpt lat="47.89696" lon="0.08188">
        <ele>46.400001525879</ele>
        <time>2024-08-21T10:08:34.000Z</time>
      </trkpt>
      <trkpt lat="47.89711" lon="0.08163">
        <ele>47.200000762939</ele>
        <time>2024-08-21T10:08:39.000Z</time>
      </trkpt>
      <trkpt lat="47.89716" lon="0.08153">
        <ele>47.599998474121</ele>
        <time>2024-08-21T10:08:41.000Z</time>
      </trkpt>
      <trkpt lat="47.89721" lon="0.08143">
        <ele>47.799999237061</ele>
        <time>2024-08-21T10:08:43.000Z</time>
      </trkpt>
      <trkpt lat="47.89734" lon="0.08118">
        <ele>48.200000762939</ele>
        <time>2024-08-21T10:08:48.000Z</time>
      </trkpt>
      <trkpt lat="47.89736" lon="0.08107">
        <ele>48.400001525879</ele>
        <time>2024-08-21T10:08:50.000Z</time>
      </trkpt>
      <trkpt lat="47.89735" lon="0.08095">
        <ele>48.599998474121</ele>
        <time>2024-08-21T10:08:52.000Z</time>
      </trkpt>
      <trkpt lat="47.89718" lon="0.08048">
        <ele>49</ele>
        <time>2024-08-21T10:09:00.000Z</time>
      </trkpt>
      <trkpt lat="47.89706" lon="0.08018">
        <ele>49.200000762939</ele>
        <time>2024-08-21T10:09:05.000Z</time>
      </trkpt>
      <trkpt lat="47.89687" lon="0.07969">
        <ele>49.599998474121</ele>
        <time>2024-08-21T10:09:13.000Z</time>
      </trkpt>
      <trkpt lat="47.89654" lon="0.079">
        <ele>50.200000762939</ele>
        <time>2024-08-21T10:09:24.000Z</time>
      </trkpt>
      <trkpt lat="47.89625" lon="0.07844">
        <ele>50</ele>
        <time>2024-08-21T10:09:32.000Z</time>
      </trkpt>
      <trkpt lat="47.8959" lon="0.07774">
        <ele>50.200000762939</ele>
        <time>2024-08-21T10:09:42.000Z</time>
      </trkpt>
      <trkpt lat="47.89587" lon="0.07767">
        <ele>50.200000762939</ele>
        <time>2024-08-21T10:09:43.000Z</time>
      </trkpt>
      <trkpt lat="47.89576" lon="0.0774">
        <ele>50.400001525879</ele>
        <time>2024-08-21T10:09:47.000Z</time>
      </trkpt>
      <trkpt lat="47.89568" lon="0.07718">
        <ele>50.599998474121</ele>
        <time>2024-08-21T10:09:50.000Z</time>
      </trkpt>
      <trkpt lat="47.89545" lon="0.07648">
        <ele>51.400001525879</ele>
        <time>2024-08-21T10:10:00.000Z</time>
      </trkpt>
      <trkpt lat="47.8953" lon="0.07588">
        <ele>52.400001525879</ele>
        <time>2024-08-21T10:10:09.000Z</time>
      </trkpt>
      <trkpt lat="47.89515" lon="0.07522">
        <ele>53.799999237061</ele>
        <time>2024-08-21T10:10:19.000Z</time>
      </trkpt>
      <trkpt lat="47.89507" lon="0.07456">
        <ele>54</ele>
        <time>2024-08-21T10:10:28.000Z</time>
      </trkpt>
      <trkpt lat="47.89505" lon="0.07386">
        <ele>53.799999237061</ele>
        <time>2024-08-21T10:10:37.000Z</time>
      </trkpt>
      <trkpt lat="47.89504" lon="0.07311">
        <ele>52.400001525879</ele>
        <time>2024-08-21T10:10:45.000Z</time>
      </trkpt>
      <trkpt lat="47.89504" lon="0.07238">
        <ele>51.599998474121</ele>
        <time>2024-08-21T10:10:52.000Z</time>
      </trkpt>
      <trkpt lat="47.89505" lon="0.07217">
        <ele>51</ele>
        <time>2024-08-21T10:10:54.000Z</time>
      </trkpt>
      <trkpt lat="47.89511" lon="0.07176">
        <ele>50.200000762939</ele>
        <time>2024-08-21T10:10:58.000Z</time>
      </trkpt>
      <trkpt lat="47.89513" lon="0.07166">
        <ele>50.200000762939</ele>
        <time>2024-08-21T10:10:59.000Z</time>
      </trkpt>
      <trkpt lat="47.89524" lon="0.0711">
        <ele>49</ele>
        <time>2024-08-21T10:11:05.000Z</time>
      </trkpt>
      <trkpt lat="47.89526" lon="0.07101">
        <ele>48.799999237061</ele>
        <time>2024-08-21T10:11:06.000Z</time>
      </trkpt>
      <trkpt lat="47.89538" lon="0.0704">
        <ele>48.200000762939</ele>
        <time>2024-08-21T10:11:13.000Z</time>
      </trkpt>
      <trkpt lat="47.89544" lon="0.06975">
        <ele>48.799999237061</ele>
        <time>2024-08-21T10:11:21.000Z</time>
      </trkpt>
      <trkpt lat="47.89546" lon="0.06925">
        <ele>49.799999237061</ele>
        <time>2024-08-21T10:11:28.000Z</time>
      </trkpt>
      <trkpt lat="47.89547" lon="0.06911">
        <ele>50.200000762939</ele>
        <time>2024-08-21T10:11:30.000Z</time>
      </trkpt>
      <trkpt lat="47.89549" lon="0.06876">
        <ele>51.200000762939</ele>
        <time>2024-08-21T10:11:35.000Z</time>
      </trkpt>
      <trkpt lat="47.89549" lon="0.06869">
        <ele>51.400001525879</ele>
        <time>2024-08-21T10:11:36.000Z</time>
      </trkpt>
      <trkpt lat="47.89551" lon="0.06857">
        <ele>51.400001525879</ele>
        <time>2024-08-21T10:11:38.000Z</time>
      </trkpt>
      <trkpt lat="47.89549" lon="0.06844">
        <ele>51.599998474121</ele>
        <time>2024-08-21T10:11:40.000Z</time>
      </trkpt>
      <trkpt lat="47.89541" lon="0.06789">
        <ele>52</ele>
        <time>2024-08-21T10:11:48.000Z</time>
      </trkpt>
      <trkpt lat="47.89534" lon="0.0674">
        <ele>51.799999237061</ele>
        <time>2024-08-21T10:11:55.000Z</time>
      </trkpt>
      <trkpt lat="47.89533" lon="0.06733">
        <ele>52</ele>
        <time>2024-08-21T10:11:56.000Z</time>
      </trkpt>
      <trkpt lat="47.89532" lon="0.06715">
        <ele>52.400001525879</ele>
        <time>2024-08-21T10:11:59.000Z</time>
      </trkpt>
      <trkpt lat="47.89532" lon="0.06708">
        <ele>52.400001525879</ele>
        <time>2024-08-21T10:12:00.000Z</time>
      </trkpt>
      <trkpt lat="47.89528" lon="0.06677">
        <ele>52.400001525879</ele>
        <time>2024-08-21T10:12:04.000Z</time>
      </trkpt>
      <trkpt lat="47.89526" lon="0.06661">
        <ele>52.599998474121</ele>
        <time>2024-08-21T10:12:06.000Z</time>
      </trkpt>
      <trkpt lat="47.89522" lon="0.06607">
        <ele>52.400001525879</ele>
        <time>2024-08-21T10:12:12.000Z</time>
      </trkpt>
      <trkpt lat="47.89522" lon="0.06562">
        <ele>51.200000762939</ele>
        <time>2024-08-21T10:12:16.000Z</time>
      </trkpt>
      <trkpt lat="47.89522" lon="0.06538">
        <ele>49.400001525879</ele>
        <time>2024-08-21T10:12:18.000Z</time>
      </trkpt>
      <trkpt lat="47.89522" lon="0.06526">
        <ele>49</ele>
        <time>2024-08-21T10:12:19.000Z</time>
      </trkpt>
      <trkpt lat="47.89523" lon="0.06502">
        <ele>48.200000762939</ele>
        <time>2024-08-21T10:12:21.000Z</time>
      </trkpt>
      <trkpt lat="47.89523" lon="0.06477">
        <ele>46.599998474121</ele>
        <time>2024-08-21T10:12:23.000Z</time>
      </trkpt>
      <trkpt lat="47.89523" lon="0.06451">
        <ele>45.599998474121</ele>
        <time>2024-08-21T10:12:25.000Z</time>
      </trkpt>
      <trkpt lat="47.89524" lon="0.06379">
        <ele>43.799999237061</ele>
        <time>2024-08-21T10:12:30.000Z</time>
      </trkpt>
      <trkpt lat="47.89524" lon="0.0635">
        <ele>42.799999237061</ele>
        <time>2024-08-21T10:12:32.000Z</time>
      </trkpt>
      <trkpt lat="47.89525" lon="0.06321">
        <ele>41.400001525879</ele>
        <time>2024-08-21T10:12:34.000Z</time>
      </trkpt>
      <trkpt lat="47.89526" lon="0.06291">
        <ele>40.200000762939</ele>
        <time>2024-08-21T10:12:36.000Z</time>
      </trkpt>
      <trkpt lat="47.89526" lon="0.06261">
        <ele>39.200000762939</ele>
        <time>2024-08-21T10:12:38.000Z</time>
      </trkpt>
      <trkpt lat="47.89526" lon="0.06246">
        <ele>38.799999237061</ele>
        <time>2024-08-21T10:12:39.000Z</time>
      </trkpt>
      <trkpt lat="47.89526" lon="0.06216">
        <ele>38</ele>
        <time>2024-08-21T10:12:41.000Z</time>
      </trkpt>
      <trkpt lat="47.89526" lon="0.06172">
        <ele>37</ele>
        <time>2024-08-21T10:12:44.000Z</time>
      </trkpt>
      <trkpt lat="47.89528" lon="0.06129">
        <ele>36</ele>
        <time>2024-08-21T10:12:47.000Z</time>
      </trkpt>
      <trkpt lat="47.89529" lon="0.06088">
        <ele>35.799999237061</ele>
        <time>2024-08-21T10:12:50.000Z</time>
      </trkpt>
      <trkpt lat="47.89529" lon="0.06051">
        <ele>35.599998474121</ele>
        <time>2024-08-21T10:12:53.000Z</time>
      </trkpt>
      <trkpt lat="47.89527" lon="0.05974">
        <ele>36</ele>
        <time>2024-08-21T10:13:00.000Z</time>
      </trkpt>
      <trkpt lat="47.89524" lon="0.05908">
        <ele>35.799999237061</ele>
        <time>2024-08-21T10:13:06.000Z</time>
      </trkpt>
      <trkpt lat="47.89512" lon="0.05833">
        <ele>35.200000762939</ele>
        <time>2024-08-21T10:13:13.000Z</time>
      </trkpt>
      <trkpt lat="47.89508" lon="0.05799">
        <ele>34.799999237061</ele>
        <time>2024-08-21T10:13:16.000Z</time>
      </trkpt>
      <trkpt lat="47.89505" lon="0.05766">
        <ele>34.599998474121</ele>
        <time>2024-08-21T10:13:19.000Z</time>
      </trkpt>
      <trkpt lat="47.89503" lon="0.05756">
        <ele>34.599998474121</ele>
        <time>2024-08-21T10:13:20.000Z</time>
      </trkpt>
      <trkpt lat="47.89499" lon="0.05742">
        <ele>34.400001525879</ele>
        <time>2024-08-21T10:13:22.000Z</time>
      </trkpt>
      <trkpt lat="47.89491" lon="0.05699">
        <ele>34</ele>
        <time>2024-08-21T10:13:28.000Z</time>
      </trkpt>
      <trkpt lat="47.8948" lon="0.05659">
        <ele>34</ele>
        <time>2024-08-21T10:13:33.000Z</time>
      </trkpt>
      <trkpt lat="47.89464" lon="0.05624">
        <ele>34.599998474121</ele>
        <time>2024-08-21T10:13:39.000Z</time>
      </trkpt>
      <trkpt lat="47.89455" lon="0.05599">
        <ele>35.200000762939</ele>
        <time>2024-08-21T10:13:43.000Z</time>
      </trkpt>
      <trkpt lat="47.89448" lon="0.05583">
        <ele>36</ele>
        <time>2024-08-21T10:13:46.000Z</time>
      </trkpt>
      <trkpt lat="47.89434" lon="0.05551">
        <ele>37</ele>
        <time>2024-08-21T10:13:53.000Z</time>
      </trkpt>
      <trkpt lat="47.89435" lon="0.05548">
        <ele>37.200000762939</ele>
        <time>2024-08-21T10:13:55.000Z</time>
      </trkpt>
      <trkpt lat="47.89435" lon="0.05547">
        <ele>37.400001525879</ele>
        <time>2024-08-21T10:13:56.000Z</time>
      </trkpt>
      <trkpt lat="47.89439" lon="0.05535">
        <ele>38</ele>
        <time>2024-08-21T10:14:01.000Z</time>
      </trkpt>
      <trkpt lat="47.89442" lon="0.05527">
        <ele>38</ele>
        <time>2024-08-21T10:14:03.000Z</time>
      </trkpt>
      <trkpt lat="47.89445" lon="0.05523">
        <ele>38.200000762939</ele>
        <time>2024-08-21T10:14:04.000Z</time>
      </trkpt>
      <trkpt lat="47.89449" lon="0.0552">
        <ele>38.200000762939</ele>
        <time>2024-08-21T10:14:05.000Z</time>
      </trkpt>
      <trkpt lat="47.89475" lon="0.05505">
        <ele>38.400001525879</ele>
        <time>2024-08-21T10:14:11.000Z</time>
      </trkpt>
      <trkpt lat="47.89503" lon="0.0549">
        <ele>39</ele>
        <time>2024-08-21T10:14:17.000Z</time>
      </trkpt>
      <trkpt lat="47.89517" lon="0.05483">
        <ele>39.200000762939</ele>
        <time>2024-08-21T10:14:20.000Z</time>
      </trkpt>
      <trkpt lat="47.89559" lon="0.05467">
        <ele>39.799999237061</ele>
        <time>2024-08-21T10:14:29.000Z</time>
      </trkpt>
      <trkpt lat="47.89573" lon="0.05464">
        <ele>40.200000762939</ele>
        <time>2024-08-21T10:14:32.000Z</time>
      </trkpt>
      <trkpt lat="47.89582" lon="0.05462">
        <ele>40.200000762939</ele>
        <time>2024-08-21T10:14:34.000Z</time>
      </trkpt>
      <trkpt lat="47.89591" lon="0.05462">
        <ele>40.400001525879</ele>
        <time>2024-08-21T10:14:36.000Z</time>
      </trkpt>
      <trkpt lat="47.89614" lon="0.05461">
        <ele>41.200000762939</ele>
        <time>2024-08-21T10:14:41.000Z</time>
      </trkpt>
      <trkpt lat="47.89628" lon="0.05462">
        <ele>41.400001525879</ele>
        <time>2024-08-21T10:14:44.000Z</time>
      </trkpt>
      <trkpt lat="47.89637" lon="0.05463">
        <ele>41.599998474121</ele>
        <time>2024-08-21T10:14:46.000Z</time>
      </trkpt>
      <trkpt lat="47.89666" lon="0.05467">
        <ele>41.599998474121</ele>
        <time>2024-08-21T10:14:52.000Z</time>
      </trkpt>
      <trkpt lat="47.89688" lon="0.05473">
        <ele>41.799999237061</ele>
        <time>2024-08-21T10:14:57.000Z</time>
      </trkpt>
      <trkpt lat="47.89696" lon="0.05477">
        <ele>42</ele>
        <time>2024-08-21T10:14:59.000Z</time>
      </trkpt>
      <trkpt lat="47.89699" lon="0.05479">
        <ele>42</ele>
        <time>2024-08-21T10:15:00.000Z</time>
      </trkpt>
      <trkpt lat="47.89707" lon="0.05477">
        <ele>42</ele>
        <time>2024-08-21T10:15:02.000Z</time>
      </trkpt>
      <trkpt lat="47.89714" lon="0.05473">
        <ele>42</ele>
        <time>2024-08-21T10:15:05.000Z</time>
      </trkpt>
      <trkpt lat="47.89717" lon="0.05472">
        <ele>42</ele>
        <time>2024-08-21T10:15:06.000Z</time>
      </trkpt>
      <trkpt lat="47.89733" lon="0.0547">
        <ele>41.400001525879</ele>
        <time>2024-08-21T10:15:11.000Z</time>
      </trkpt>
      <trkpt lat="47.89753" lon="0.05466">
        <ele>41.200000762939</ele>
        <time>2024-08-21T10:15:17.000Z</time>
      </trkpt>
      <trkpt lat="47.89779" lon="0.05457">
        <ele>41.799999237061</ele>
        <time>2024-08-21T10:15:24.000Z</time>
      </trkpt>
      <trkpt lat="47.8982" lon="0.05443">
        <ele>42</ele>
        <time>2024-08-21T10:15:32.000Z</time>
      </trkpt>
      <trkpt lat="47.89855" lon="0.05428">
        <ele>42.400001525879</ele>
        <time>2024-08-21T10:15:39.000Z</time>
      </trkpt>
      <trkpt lat="47.89877" lon="0.05422">
        <ele>43</ele>
        <time>2024-08-21T10:15:43.000Z</time>
      </trkpt>
      <trkpt lat="47.89912" lon="0.05409">
        <ele>43</ele>
        <time>2024-08-21T10:15:50.000Z</time>
      </trkpt>
      <trkpt lat="47.89939" lon="0.054">
        <ele>43.200000762939</ele>
        <time>2024-08-21T10:15:56.000Z</time>
      </trkpt>
      <trkpt lat="47.89942" lon="0.05398">
        <ele>43.200000762939</ele>
        <time>2024-08-21T10:15:58.000Z</time>
      </trkpt>
      <trkpt lat="47.89944" lon="0.05396">
        <ele>43.400001525879</ele>
        <time>2024-08-21T10:15:59.000Z</time>
      </trkpt>
      <trkpt lat="47.89944" lon="0.05392">
        <ele>43.400001525879</ele>
        <time>2024-08-21T10:16:00.000Z</time>
      </trkpt>
      <trkpt lat="47.89942" lon="0.05383">
        <ele>43.599998474121</ele>
        <time>2024-08-21T10:16:02.000Z</time>
      </trkpt>
      <trkpt lat="47.89932" lon="0.05356">
        <ele>43.400001525879</ele>
        <time>2024-08-21T10:16:07.000Z</time>
      </trkpt>
      <trkpt lat="47.89929" lon="0.0535">
        <ele>43.400001525879</ele>
        <time>2024-08-21T10:16:08.000Z</time>
      </trkpt>
      <trkpt lat="47.89912" lon="0.05305">
        <ele>43.400001525879</ele>
        <time>2024-08-21T10:16:15.000Z</time>
      </trkpt>
      <trkpt lat="47.89898" lon="0.05269">
        <ele>43.400001525879</ele>
        <time>2024-08-21T10:16:20.000Z</time>
      </trkpt>
      <trkpt lat="47.89893" lon="0.05256">
        <ele>43.400001525879</ele>
        <time>2024-08-21T10:16:22.000Z</time>
      </trkpt>
      <trkpt lat="47.8987" lon="0.05188">
        <ele>43.599998474121</ele>
        <time>2024-08-21T10:16:31.000Z</time>
      </trkpt>
      <trkpt lat="47.89843" lon="0.05111">
        <ele>44</ele>
        <time>2024-08-21T10:16:41.000Z</time>
      </trkpt>
      <trkpt lat="47.8984" lon="0.05103">
        <ele>44</ele>
        <time>2024-08-21T10:16:42.000Z</time>
      </trkpt>
      <trkpt lat="47.89826" lon="0.05063">
        <ele>44.400001525879</ele>
        <time>2024-08-21T10:16:47.000Z</time>
      </trkpt>
      <trkpt lat="47.89818" lon="0.0504">
        <ele>44.599998474121</ele>
        <time>2024-08-21T10:16:50.000Z</time>
      </trkpt>
      <trkpt lat="47.89793" lon="0.04966">
        <ele>44.400001525879</ele>
        <time>2024-08-21T10:16:59.000Z</time>
      </trkpt>
      <trkpt lat="47.89787" lon="0.04949">
        <ele>44.400001525879</ele>
        <time>2024-08-21T10:17:01.000Z</time>
      </trkpt>
      <trkpt lat="47.89761" lon="0.04872">
        <ele>44.599998474121</ele>
        <time>2024-08-21T10:17:10.000Z</time>
      </trkpt>
      <trkpt lat="47.89758" lon="0.04864">
        <ele>44.599998474121</ele>
        <time>2024-08-21T10:17:11.000Z</time>
      </trkpt>
      <trkpt lat="47.89731" lon="0.04786">
        <ele>44.400001525879</ele>
        <time>2024-08-21T10:17:20.000Z</time>
      </trkpt>
      <trkpt lat="47.89724" lon="0.04769">
        <ele>44.200000762939</ele>
        <time>2024-08-21T10:17:22.000Z</time>
      </trkpt>
      <trkpt lat="47.897" lon="0.04703">
        <ele>43.799999237061</ele>
        <time>2024-08-21T10:17:30.000Z</time>
      </trkpt>
      <trkpt lat="47.89684" lon="0.04662">
        <ele>43.400001525879</ele>
        <time>2024-08-21T10:17:35.000Z</time>
      </trkpt>
      <trkpt lat="47.89666" lon="0.04612">
        <ele>43</ele>
        <time>2024-08-21T10:17:41.000Z</time>
      </trkpt>
      <trkpt lat="47.89655" lon="0.04588">
        <ele>43</ele>
        <time>2024-08-21T10:17:44.000Z</time>
      </trkpt>
      <trkpt lat="47.89628" lon="0.04523">
        <ele>43.200000762939</ele>
        <time>2024-08-21T10:17:52.000Z</time>
      </trkpt>
      <trkpt lat="47.89596" lon="0.04449">
        <ele>42.599998474121</ele>
        <time>2024-08-21T10:18:01.000Z</time>
      </trkpt>
      <trkpt lat="47.89565" lon="0.04375">
        <ele>42.400001525879</ele>
        <time>2024-08-21T10:18:10.000Z</time>
      </trkpt>
      <trkpt lat="47.89532" lon="0.04299">
        <ele>42.400001525879</ele>
        <time>2024-08-21T10:18:19.000Z</time>
      </trkpt>
      <trkpt lat="47.89528" lon="0.04291">
        <ele>42.200000762939</ele>
        <time>2024-08-21T10:18:20.000Z</time>
      </trkpt>
      <trkpt lat="47.89524" lon="0.04283">
        <ele>42.200000762939</ele>
        <time>2024-08-21T10:18:21.000Z</time>
      </trkpt>
      <trkpt lat="47.89512" lon="0.04258">
        <ele>41.599998474121</ele>
        <time>2024-08-21T10:18:24.000Z</time>
      </trkpt>
      <trkpt lat="47.89498" lon="0.04234">
        <ele>41.400001525879</ele>
        <time>2024-08-21T10:18:27.000Z</time>
      </trkpt>
      <trkpt lat="47.89493" lon="0.04226">
        <ele>41.200000762939</ele>
        <time>2024-08-21T10:18:28.000Z</time>
      </trkpt>
      <trkpt lat="47.89458" lon="0.04179">
        <ele>40.400001525879</ele>
        <time>2024-08-21T10:18:35.000Z</time>
      </trkpt>
      <trkpt lat="47.89436" lon="0.04152">
        <ele>40.200000762939</ele>
        <time>2024-08-21T10:18:39.000Z</time>
      </trkpt>
      <trkpt lat="47.894" lon="0.04106">
        <ele>40</ele>
        <time>2024-08-21T10:18:46.000Z</time>
      </trkpt>
      <trkpt lat="47.89372" lon="0.04069">
        <ele>39.599998474121</ele>
        <time>2024-08-21T10:18:52.000Z</time>
      </trkpt>
      <trkpt lat="47.89369" lon="0.04063">
        <ele>39.599998474121</ele>
        <time>2024-08-21T10:18:53.000Z</time>
      </trkpt>
      <trkpt lat="47.89364" lon="0.04047">
        <ele>39.400001525879</ele>
        <time>2024-08-21T10:18:55.000Z</time>
      </trkpt>
      <trkpt lat="47.89362" lon="0.0404">
        <ele>39.400001525879</ele>
        <time>2024-08-21T10:18:56.000Z</time>
      </trkpt>
      <trkpt lat="47.89354" lon="0.0403">
        <ele>39.400001525879</ele>
        <time>2024-08-21T10:18:58.000Z</time>
      </trkpt>
      <trkpt lat="47.89344" lon="0.04023">
        <ele>39.200000762939</ele>
        <time>2024-08-21T10:19:00.000Z</time>
      </trkpt>
      <trkpt lat="47.89335" lon="0.04014">
        <ele>39.200000762939</ele>
        <time>2024-08-21T10:19:02.000Z</time>
      </trkpt>
      <trkpt lat="47.89331" lon="0.04009">
        <ele>39.200000762939</ele>
        <time>2024-08-21T10:19:03.000Z</time>
      </trkpt>
      <trkpt lat="47.89304" lon="0.03962">
        <ele>38.400001525879</ele>
        <time>2024-08-21T10:19:10.000Z</time>
      </trkpt>
      <trkpt lat="47.89296" lon="0.03948">
        <ele>38.200000762939</ele>
        <time>2024-08-21T10:19:12.000Z</time>
      </trkpt>
      <trkpt lat="47.8927" lon="0.03904">
        <ele>37.799999237061</ele>
        <time>2024-08-21T10:19:18.000Z</time>
      </trkpt>
      <trkpt lat="47.89244" lon="0.03858">
        <ele>37</ele>
        <time>2024-08-21T10:19:24.000Z</time>
      </trkpt>
      <trkpt lat="47.89228" lon="0.03825">
        <ele>37</ele>
        <time>2024-08-21T10:19:28.000Z</time>
      </trkpt>
      <trkpt lat="47.89196" lon="0.03751">
        <ele>36.400001525879</ele>
        <time>2024-08-21T10:19:37.000Z</time>
      </trkpt>
      <trkpt lat="47.89168" lon="0.03682">
        <ele>36.400001525879</ele>
        <time>2024-08-21T10:19:45.000Z</time>
      </trkpt>
      <trkpt lat="47.89161" lon="0.03666">
        <ele>36.200000762939</ele>
        <time>2024-08-21T10:19:47.000Z</time>
      </trkpt>
      <trkpt lat="47.89153" lon="0.03648">
        <ele>36</ele>
        <time>2024-08-21T10:19:49.000Z</time>
      </trkpt>
      <trkpt lat="47.89132" lon="0.03598">
        <ele>36</ele>
        <time>2024-08-21T10:19:55.000Z</time>
      </trkpt>
      <trkpt lat="47.8911" lon="0.0354">
        <ele>36</ele>
        <time>2024-08-21T10:20:02.000Z</time>
      </trkpt>
      <trkpt lat="47.89106" lon="0.03532">
        <ele>36</ele>
        <time>2024-08-21T10:20:03.000Z</time>
      </trkpt>
      <trkpt lat="47.89077" lon="0.03458">
        <ele>35.799999237061</ele>
        <time>2024-08-21T10:20:12.000Z</time>
      </trkpt>
      <trkpt lat="47.89055" lon="0.03399">
        <ele>35.799999237061</ele>
        <time>2024-08-21T10:20:19.000Z</time>
      </trkpt>
      <trkpt lat="47.89035" lon="0.03339">
        <ele>36</ele>
        <time>2024-08-21T10:20:26.000Z</time>
      </trkpt>
      <trkpt lat="47.89031" lon="0.03321">
        <ele>35.799999237061</ele>
        <time>2024-08-21T10:20:28.000Z</time>
      </trkpt>
      <trkpt lat="47.89015" lon="0.03268">
        <ele>35.599998474121</ele>
        <time>2024-08-21T10:20:34.000Z</time>
      </trkpt>
      <trkpt lat="47.89013" lon="0.0326">
        <ele>35.599998474121</ele>
        <time>2024-08-21T10:20:35.000Z</time>
      </trkpt>
      <trkpt lat="47.89012" lon="0.0325">
        <ele>35.599998474121</ele>
        <time>2024-08-21T10:20:36.000Z</time>
      </trkpt>
      <trkpt lat="47.89011" lon="0.03223">
        <ele>35.599998474121</ele>
        <time>2024-08-21T10:20:39.000Z</time>
      </trkpt>
      <trkpt lat="47.8902" lon="0.03169">
        <ele>35.200000762939</ele>
        <time>2024-08-21T10:20:45.000Z</time>
      </trkpt>
      <trkpt lat="47.89021" lon="0.0316">
        <ele>35</ele>
        <time>2024-08-21T10:20:46.000Z</time>
      </trkpt>
      <trkpt lat="47.89022" lon="0.03151">
        <ele>35</ele>
        <time>2024-08-21T10:20:47.000Z</time>
      </trkpt>
      <trkpt lat="47.89025" lon="0.03126">
        <ele>35</ele>
        <time>2024-08-21T10:20:50.000Z</time>
      </trkpt>
      <trkpt lat="47.89025" lon="0.03111">
        <ele>35.200000762939</ele>
        <time>2024-08-21T10:20:52.000Z</time>
      </trkpt>
      <trkpt lat="47.89023" lon="0.03095">
        <ele>35.200000762939</ele>
        <time>2024-08-21T10:20:55.000Z</time>
      </trkpt>
      <trkpt lat="47.89019" lon="0.03071">
        <ele>36.200000762939</ele>
        <time>2024-08-21T10:21:00.000Z</time>
      </trkpt>
      <trkpt lat="47.89018" lon="0.03055">
        <ele>36.400001525879</ele>
        <time>2024-08-21T10:21:03.000Z</time>
      </trkpt>
      <trkpt lat="47.89015" lon="0.03036">
        <ele>36.799999237061</ele>
        <time>2024-08-21T10:21:06.000Z</time>
      </trkpt>
      <trkpt lat="47.89014" lon="0.03023">
        <ele>37</ele>
        <time>2024-08-21T10:21:08.000Z</time>
      </trkpt>
      <trkpt lat="47.8901" lon="0.02991">
        <ele>37.200000762939</ele>
        <time>2024-08-21T10:21:13.000Z</time>
      </trkpt>
      <trkpt lat="47.89007" lon="0.02966">
        <ele>37.599998474121</ele>
        <time>2024-08-21T10:21:17.000Z</time>
      </trkpt>
      <trkpt lat="47.89003" lon="0.02934">
        <ele>38.200000762939</ele>
        <time>2024-08-21T10:21:22.000Z</time>
      </trkpt>
      <trkpt lat="47.88998" lon="0.02905">
        <ele>38.400001525879</ele>
        <time>2024-08-21T10:21:26.000Z</time>
      </trkpt>
      <trkpt lat="47.88991" lon="0.02852">
        <ele>37.400001525879</ele>
        <time>2024-08-21T10:21:33.000Z</time>
      </trkpt>
      <trkpt lat="47.88992" lon="0.02846">
        <ele>37.400001525879</ele>
        <time>2024-08-21T10:21:36.000Z</time>
      </trkpt>
      <trkpt lat="47.88992" lon="0.02845">
        <ele>38</ele>
        <time>2024-08-21T10:21:40.000Z</time>
      </trkpt>
      <trkpt lat="47.88992" lon="0.02846">
        <ele>38</ele>
        <time>2024-08-21T10:21:41.000Z</time>
      </trkpt>
      <trkpt lat="47.88992" lon="0.02846">
        <ele>38</ele>
        <time>2024-08-21T10:21:42.000Z</time>
      </trkpt>
      <trkpt lat="47.88992" lon="0.02854">
        <ele>38.200000762939</ele>
        <time>2024-08-21T10:21:47.000Z</time>
      </trkpt>
      <trkpt lat="47.88992" lon="0.02862">
        <ele>38.200000762939</ele>
        <time>2024-08-21T10:21:49.000Z</time>
      </trkpt>
      <trkpt lat="47.88995" lon="0.02883">
        <ele>37.799999237061</ele>
        <time>2024-08-21T10:21:54.000Z</time>
      </trkpt>
      <trkpt lat="47.88998" lon="0.02895">
        <ele>37.799999237061</ele>
        <time>2024-08-21T10:21:59.000Z</time>
      </trkpt>
      <trkpt lat="47.88998" lon="0.02895">
        <ele>37.799999237061</ele>
        <time>2024-08-21T10:22:01.000Z</time>
      </trkpt>
      <trkpt lat="47.89004" lon="0.02936">
        <ele>38.799999237061</ele>
        <time>2024-08-21T10:23:27.000Z</time>
      </trkpt>
      <trkpt lat="47.89003" lon="0.02933">
        <ele>38.799999237061</ele>
        <time>2024-08-21T10:23:28.000Z</time>
      </trkpt>
      <trkpt lat="47.89" lon="0.02913">
        <ele>38.599998474121</ele>
        <time>2024-08-21T10:23:33.000Z</time>
      </trkpt>
      <trkpt lat="47.88996" lon="0.02877">
        <ele>38.200000762939</ele>
        <time>2024-08-21T10:23:39.000Z</time>
      </trkpt>
      <trkpt lat="47.88992" lon="0.02854">
        <ele>37.400001525879</ele>
        <time>2024-08-21T10:23:43.000Z</time>
      </trkpt>
      <trkpt lat="47.88992" lon="0.02847">
        <ele>37.400001525879</ele>
        <time>2024-08-21T10:23:45.000Z</time>
      </trkpt>
      <trkpt lat="47.88988" lon="0.02822">
        <ele>37.799999237061</ele>
        <time>2024-08-21T10:23:51.000Z</time>
      </trkpt>
      <trkpt lat="47.88987" lon="0.02819">
        <ele>37.799999237061</ele>
        <time>2024-08-21T10:23:52.000Z</time>
      </trkpt>
      <trkpt lat="47.88985" lon="0.0281">
        <ele>38</ele>
        <time>2024-08-21T10:23:54.000Z</time>
      </trkpt>
      <trkpt lat="47.88979" lon="0.02788">
        <ele>38.799999237061</ele>
        <time>2024-08-21T10:23:59.000Z</time>
      </trkpt>
      <trkpt lat="47.88979" lon="0.02785">
        <ele>39</ele>
        <time>2024-08-21T10:24:00.000Z</time>
      </trkpt>
      <trkpt lat="47.8898" lon="0.02783">
        <ele>39.599998474121</ele>
        <time>2024-08-21T10:24:01.000Z</time>
      </trkpt>
      <trkpt lat="47.8898" lon="0.02783">
        <ele>40</ele>
        <time>2024-08-21T10:24:03.000Z</time>
      </trkpt>
      <trkpt lat="47.8898" lon="0.02783">
        <ele>40.400001525879</ele>
        <time>2024-08-21T10:24:04.000Z</time>
      </trkpt>
      <trkpt lat="47.88847" lon="0.02706">
        <ele>40.799999237061</ele>
        <time>2024-08-21T10:34:35.000Z</time>
      </trkpt>
      <trkpt lat="47.88823" lon="0.02717">
        <ele>41.200000762939</ele>
        <time>2024-08-21T10:34:41.000Z</time>
      </trkpt>
      <trkpt lat="47.88819" lon="0.02718">
        <ele>41.200000762939</ele>
        <time>2024-08-21T10:34:42.000Z</time>
      </trkpt>
      <trkpt lat="47.88797" lon="0.02724">
        <ele>41.799999237061</ele>
        <time>2024-08-21T10:34:48.000Z</time>
      </trkpt>
      <trkpt lat="47.88777" lon="0.02725">
        <ele>42.400001525879</ele>
        <time>2024-08-21T10:34:53.000Z</time>
      </trkpt>
      <trkpt lat="47.88754" lon="0.02727">
        <ele>42.599998474121</ele>
        <time>2024-08-21T10:34:58.000Z</time>
      </trkpt>
      <trkpt lat="47.88722" lon="0.02726">
        <ele>43</ele>
        <time>2024-08-21T10:35:06.000Z</time>
      </trkpt>
      <trkpt lat="47.88702" lon="0.02727">
        <ele>43.400001525879</ele>
        <time>2024-08-21T10:35:11.000Z</time>
      </trkpt>
      <trkpt lat="47.88691" lon="0.02728">
        <ele>43.799999237061</ele>
        <time>2024-08-21T10:35:14.000Z</time>
      </trkpt>
      <trkpt lat="47.88668" lon="0.02734">
        <ele>44.400001525879</ele>
        <time>2024-08-21T10:35:20.000Z</time>
      </trkpt>
      <trkpt lat="47.88664" lon="0.02735">
        <ele>44.599998474121</ele>
        <time>2024-08-21T10:35:21.000Z</time>
      </trkpt>
      <trkpt lat="47.88631" lon="0.02743">
        <ele>45.599998474121</ele>
        <time>2024-08-21T10:35:29.000Z</time>
      </trkpt>
      <trkpt lat="47.8859" lon="0.02756">
        <ele>46.200000762939</ele>
        <time>2024-08-21T10:35:39.000Z</time>
      </trkpt>
      <trkpt lat="47.88582" lon="0.02759">
        <ele>46.200000762939</ele>
        <time>2024-08-21T10:35:41.000Z</time>
      </trkpt>
      <trkpt lat="47.88562" lon="0.02766">
        <ele>46.599998474121</ele>
        <time>2024-08-21T10:35:46.000Z</time>
      </trkpt>
      <trkpt lat="47.8853" lon="0.02776">
        <ele>47.599998474121</ele>
        <time>2024-08-21T10:35:54.000Z</time>
      </trkpt>
      <trkpt lat="47.88522" lon="0.02778">
        <ele>47.599998474121</ele>
        <time>2024-08-21T10:35:56.000Z</time>
      </trkpt>
      <trkpt lat="47.88497" lon="0.02787">
        <ele>48</ele>
        <time>2024-08-21T10:36:02.000Z</time>
      </trkpt>
      <trkpt lat="47.88489" lon="0.02785">
        <ele>48.599998474121</ele>
        <time>2024-08-21T10:36:04.000Z</time>
      </trkpt>
      <trkpt lat="47.88483" lon="0.02778">
        <ele>48.599998474121</ele>
        <time>2024-08-21T10:36:06.000Z</time>
      </trkpt>
      <trkpt lat="47.88481" lon="0.02775">
        <ele>48.799999237061</ele>
        <time>2024-08-21T10:36:07.000Z</time>
      </trkpt>
      <trkpt lat="47.88479" lon="0.02771">
        <ele>48.799999237061</ele>
        <time>2024-08-21T10:36:08.000Z</time>
      </trkpt>
      <trkpt lat="47.8847" lon="0.02752">
        <ele>49.400001525879</ele>
        <time>2024-08-21T10:36:13.000Z</time>
      </trkpt>
      <trkpt lat="47.88466" lon="0.02746">
        <ele>49.599998474121</ele>
        <time>2024-08-21T10:36:15.000Z</time>
      </trkpt>
      <trkpt lat="47.88456" lon="0.0273">
        <ele>50.599998474121</ele>
        <time>2024-08-21T10:36:20.000Z</time>
      </trkpt>
      <trkpt lat="47.88455" lon="0.02726">
        <ele>50.799999237061</ele>
        <time>2024-08-21T10:36:21.000Z</time>
      </trkpt>
      <trkpt lat="47.88446" lon="0.0271">
        <ele>51.799999237061</ele>
        <time>2024-08-21T10:36:26.000Z</time>
      </trkpt>
      <trkpt lat="47.88442" lon="0.02703">
        <ele>52</ele>
        <time>2024-08-21T10:36:28.000Z</time>
      </trkpt>
      <trkpt lat="47.88436" lon="0.02693">
        <ele>53</ele>
        <time>2024-08-21T10:36:31.000Z</time>
      </trkpt>
      <trkpt lat="47.88427" lon="0.02676">
        <ele>54</ele>
        <time>2024-08-21T10:36:36.000Z</time>
      </trkpt>
      <trkpt lat="47.88414" lon="0.02653">
        <ele>55.200000762939</ele>
        <time>2024-08-21T10:36:43.000Z</time>
      </trkpt>
      <trkpt lat="47.88413" lon="0.0265">
        <ele>55.400001525879</ele>
        <time>2024-08-21T10:36:44.000Z</time>
      </trkpt>
      <trkpt lat="47.88405" lon="0.02636">
        <ele>56.200000762939</ele>
        <time>2024-08-21T10:36:48.000Z</time>
      </trkpt>
      <trkpt lat="47.88396" lon="0.02619">
        <ele>57</ele>
        <time>2024-08-21T10:36:53.000Z</time>
      </trkpt>
      <trkpt lat="47.88388" lon="0.02605">
        <ele>57.400001525879</ele>
        <time>2024-08-21T10:36:57.000Z</time>
      </trkpt>
      <trkpt lat="47.88381" lon="0.02592">
        <ele>58.200000762939</ele>
        <time>2024-08-21T10:37:01.000Z</time>
      </trkpt>
      <trkpt lat="47.88377" lon="0.02585">
        <ele>58.599998474121</ele>
        <time>2024-08-21T10:37:03.000Z</time>
      </trkpt>
      <trkpt lat="47.88363" lon="0.0256">
        <ele>59.400001525879</ele>
        <time>2024-08-21T10:37:10.000Z</time>
      </trkpt>
      <trkpt lat="47.88359" lon="0.02553">
        <ele>59.599998474121</ele>
        <time>2024-08-21T10:37:12.000Z</time>
      </trkpt>
      <trkpt lat="47.88351" lon="0.02535">
        <ele>60.400001525879</ele>
        <time>2024-08-21T10:37:17.000Z</time>
      </trkpt>
      <trkpt lat="47.88347" lon="0.02528">
        <ele>60.799999237061</ele>
        <time>2024-08-21T10:37:19.000Z</time>
      </trkpt>
      <trkpt lat="47.88333" lon="0.02502">
        <ele>61.799999237061</ele>
        <time>2024-08-21T10:37:26.000Z</time>
      </trkpt>
      <trkpt lat="47.88331" lon="0.02499">
        <ele>61.799999237061</ele>
        <time>2024-08-21T10:37:27.000Z</time>
      </trkpt>
      <trkpt lat="47.88315" lon="0.0247">
        <ele>62.799999237061</ele>
        <time>2024-08-21T10:37:35.000Z</time>
      </trkpt>
      <trkpt lat="47.88311" lon="0.02463">
        <ele>63.200000762939</ele>
        <time>2024-08-21T10:37:37.000Z</time>
      </trkpt>
      <trkpt lat="47.88303" lon="0.02449">
        <ele>63.799999237061</ele>
        <time>2024-08-21T10:37:41.000Z</time>
      </trkpt>
      <trkpt lat="47.88295" lon="0.02436">
        <ele>64.599998474121</ele>
        <time>2024-08-21T10:37:45.000Z</time>
      </trkpt>
      <trkpt lat="47.88291" lon="0.02429">
        <ele>65</ele>
        <time>2024-08-21T10:37:47.000Z</time>
      </trkpt>
      <trkpt lat="47.8828" lon="0.02409">
        <ele>65.400001525879</ele>
        <time>2024-08-21T10:37:53.000Z</time>
      </trkpt>
      <trkpt lat="47.88271" lon="0.02395">
        <ele>66</ele>
        <time>2024-08-21T10:37:57.000Z</time>
      </trkpt>
      <trkpt lat="47.88265" lon="0.02385">
        <ele>66.199996948242</ele>
        <time>2024-08-21T10:38:00.000Z</time>
      </trkpt>
      <trkpt lat="47.88252" lon="0.02364">
        <ele>67.199996948242</ele>
        <time>2024-08-21T10:38:06.000Z</time>
      </trkpt>
      <trkpt lat="47.88246" lon="0.02354">
        <ele>67.599998474121</ele>
        <time>2024-08-21T10:38:09.000Z</time>
      </trkpt>
      <trkpt lat="47.8823" lon="0.02327">
        <ele>68.199996948242</ele>
        <time>2024-08-21T10:38:17.000Z</time>
      </trkpt>
      <trkpt lat="47.88213" lon="0.023">
        <ele>69.199996948242</ele>
        <time>2024-08-21T10:38:25.000Z</time>
      </trkpt>
      <trkpt lat="47.88208" lon="0.02294">
        <ele>69.400001525879</ele>
        <time>2024-08-21T10:38:27.000Z</time>
      </trkpt>
      <trkpt lat="47.88192" lon="0.0227">
        <ele>70.599998474121</ele>
        <time>2024-08-21T10:38:34.000Z</time>
      </trkpt>
      <trkpt lat="47.88182" lon="0.02258">
        <ele>70.800003051758</ele>
        <time>2024-08-21T10:38:38.000Z</time>
      </trkpt>
      <trkpt lat="47.88163" lon="0.02234">
        <ele>71.599998474121</ele>
        <time>2024-08-21T10:38:46.000Z</time>
      </trkpt>
      <trkpt lat="47.88153" lon="0.02221">
        <ele>71.800003051758</ele>
        <time>2024-08-21T10:38:50.000Z</time>
      </trkpt>
      <trkpt lat="47.88129" lon="0.02192">
        <ele>72.599998474121</ele>
        <time>2024-08-21T10:38:59.000Z</time>
      </trkpt>
      <trkpt lat="47.88126" lon="0.02189">
        <ele>72.599998474121</ele>
        <time>2024-08-21T10:39:00.000Z</time>
      </trkpt>
      <trkpt lat="47.88098" lon="0.02154">
        <ele>73</ele>
        <time>2024-08-21T10:39:09.000Z</time>
      </trkpt>
      <trkpt lat="47.88096" lon="0.02151">
        <ele>73</ele>
        <time>2024-08-21T10:39:10.000Z</time>
      </trkpt>
      <trkpt lat="47.88057" lon="0.02111">
        <ele>73.199996948242</ele>
        <time>2024-08-21T10:39:20.000Z</time>
      </trkpt>
      <trkpt lat="47.88011" lon="0.02065">
        <ele>72.599998474121</ele>
        <time>2024-08-21T10:39:31.000Z</time>
      </trkpt>
      <trkpt lat="47.87962" lon="0.02015">
        <ele>71.800003051758</ele>
        <time>2024-08-21T10:39:42.000Z</time>
      </trkpt>
      <trkpt lat="47.87957" lon="0.02011">
        <ele>71.800003051758</ele>
        <time>2024-08-21T10:39:43.000Z</time>
      </trkpt>
      <trkpt lat="47.87924" lon="0.01978">
        <ele>71.599998474121</ele>
        <time>2024-08-21T10:39:51.000Z</time>
      </trkpt>
      <trkpt lat="47.87881" lon="0.01935">
        <ele>71.400001525879</ele>
        <time>2024-08-21T10:40:01.000Z</time>
      </trkpt>
      <trkpt lat="47.87833" lon="0.01886">
        <ele>70.800003051758</ele>
        <time>2024-08-21T10:40:11.000Z</time>
      </trkpt>
      <trkpt lat="47.87823" lon="0.01877">
        <ele>70.599998474121</ele>
        <time>2024-08-21T10:40:13.000Z</time>
      </trkpt>
      <trkpt lat="47.87791" lon="0.01848">
        <ele>70.800003051758</ele>
        <time>2024-08-21T10:40:20.000Z</time>
      </trkpt>
      <trkpt lat="47.87787" lon="0.01845">
        <ele>70.800003051758</ele>
        <time>2024-08-21T10:40:21.000Z</time>
      </trkpt>
      <trkpt lat="47.87778" lon="0.01839">
        <ele>70.800003051758</ele>
        <time>2024-08-21T10:40:23.000Z</time>
      </trkpt>
      <trkpt lat="47.87775" lon="0.01834">
        <ele>71</ele>
        <time>2024-08-21T10:40:24.000Z</time>
      </trkpt>
      <trkpt lat="47.87773" lon="0.01828">
        <ele>71</ele>
        <time>2024-08-21T10:40:25.000Z</time>
      </trkpt>
      <trkpt lat="47.87765" lon="0.01804">
        <ele>70.800003051758</ele>
        <time>2024-08-21T10:40:29.000Z</time>
      </trkpt>
      <trkpt lat="47.87749" lon="0.01781">
        <ele>70.800003051758</ele>
        <time>2024-08-21T10:40:34.000Z</time>
      </trkpt>
      <trkpt lat="47.87719" lon="0.01737">
        <ele>70.400001525879</ele>
        <time>2024-08-21T10:40:43.000Z</time>
      </trkpt>
      <trkpt lat="47.87703" lon="0.01713">
        <ele>70.199996948242</ele>
        <time>2024-08-21T10:40:49.000Z</time>
      </trkpt>
      <trkpt lat="47.87697" lon="0.01706">
        <ele>70.599998474121</ele>
        <time>2024-08-21T10:40:54.000Z</time>
      </trkpt>
      <trkpt lat="47.87697" lon="0.01706">
        <ele>70.800003051758</ele>
        <time>2024-08-21T10:40:55.000Z</time>
      </trkpt>
      <trkpt lat="47.87702" lon="0.01711">
        <ele>71.800003051758</ele>
        <time>2024-08-21T10:49:03.000Z</time>
      </trkpt>
      <trkpt lat="47.87692" lon="0.017">
        <ele>71.599998474121</ele>
        <time>2024-08-21T10:49:06.000Z</time>
      </trkpt>
      <trkpt lat="47.87691" lon="0.01699">
        <ele>71.400001525879</ele>
        <time>2024-08-21T10:49:07.000Z</time>
      </trkpt>
      <trkpt lat="47.87691" lon="0.01699">
        <ele>71.800003051758</ele>
        <time>2024-08-21T10:49:14.000Z</time>
      </trkpt>
      <trkpt lat="47.87688" lon="0.01695">
        <ele>71.800003051758</ele>
        <time>2024-08-21T10:49:17.000Z</time>
      </trkpt>
      <trkpt lat="47.87674" lon="0.01675">
        <ele>71.800003051758</ele>
        <time>2024-08-21T10:49:24.000Z</time>
      </trkpt>
      <trkpt lat="47.87658" lon="0.01651">
        <ele>71.800003051758</ele>
        <time>2024-08-21T10:49:30.000Z</time>
      </trkpt>
      <trkpt lat="47.87638" lon="0.01619">
        <ele>71.800003051758</ele>
        <time>2024-08-21T10:49:37.000Z</time>
      </trkpt>
      <trkpt lat="47.87635" lon="0.01614">
        <ele>71.800003051758</ele>
        <time>2024-08-21T10:49:38.000Z</time>
      </trkpt>
      <trkpt lat="47.87608" lon="0.01571">
        <ele>72.199996948242</ele>
        <time>2024-08-21T10:49:47.000Z</time>
      </trkpt>
      <trkpt lat="47.87595" lon="0.0155">
        <ele>72.199996948242</ele>
        <time>2024-08-21T10:49:51.000Z</time>
      </trkpt>
      <trkpt lat="47.87583" lon="0.01529">
        <ele>72.400001525879</ele>
        <time>2024-08-21T10:49:55.000Z</time>
      </trkpt>
      <trkpt lat="47.87573" lon="0.01512">
        <ele>72.199996948242</ele>
        <time>2024-08-21T10:49:58.000Z</time>
      </trkpt>
      <trkpt lat="47.87556" lon="0.01484">
        <ele>72</ele>
        <time>2024-08-21T10:50:03.000Z</time>
      </trkpt>
      <trkpt lat="47.87521" lon="0.0142">
        <ele>72.400001525879</ele>
        <time>2024-08-21T10:50:14.000Z</time>
      </trkpt>
      <trkpt lat="47.87517" lon="0.01414">
        <ele>72.400001525879</ele>
        <time>2024-08-21T10:50:15.000Z</time>
      </trkpt>
      <trkpt lat="47.87484" lon="0.01355">
        <ele>72.400001525879</ele>
        <time>2024-08-21T10:50:25.000Z</time>
      </trkpt>
      <trkpt lat="47.87455" lon="0.01306">
        <ele>72.599998474121</ele>
        <time>2024-08-21T10:50:33.000Z</time>
      </trkpt>
      <trkpt lat="47.87451" lon="0.013">
        <ele>72.599998474121</ele>
        <time>2024-08-21T10:50:34.000Z</time>
      </trkpt>
      <trkpt lat="47.87411" lon="0.01236">
        <ele>72.800003051758</ele>
        <time>2024-08-21T10:50:45.000Z</time>
      </trkpt>
      <trkpt lat="47.87386" lon="0.01196">
        <ele>72.599998474121</ele>
        <time>2024-08-21T10:50:52.000Z</time>
      </trkpt>
      <trkpt lat="47.87383" lon="0.0119">
        <ele>72.400001525879</ele>
        <time>2024-08-21T10:50:53.000Z</time>
      </trkpt>
      <trkpt lat="47.87383" lon="0.01183">
        <ele>72.400001525879</ele>
        <time>2024-08-21T10:50:54.000Z</time>
      </trkpt>
      <trkpt lat="47.87387" lon="0.01169">
        <ele>72.400001525879</ele>
        <time>2024-08-21T10:50:56.000Z</time>
      </trkpt>
      <trkpt lat="47.87417" lon="0.01099">
        <ele>73</ele>
        <time>2024-08-21T10:51:07.000Z</time>
      </trkpt>
      <trkpt lat="47.87444" lon="0.01038">
        <ele>72.599998474121</ele>
        <time>2024-08-21T10:51:16.000Z</time>
      </trkpt>
      <trkpt lat="47.87449" lon="0.01026">
        <ele>72.599998474121</ele>
        <time>2024-08-21T10:51:18.000Z</time>
      </trkpt>
      <trkpt lat="47.87458" lon="0.0101">
        <ele>72.400001525879</ele>
        <time>2024-08-21T10:51:21.000Z</time>
      </trkpt>
      <trkpt lat="47.87474" lon="0.00979">
        <ele>72.400001525879</ele>
        <time>2024-08-21T10:51:26.000Z</time>
      </trkpt>
      <trkpt lat="47.87483" lon="0.00958">
        <ele>72.199996948242</ele>
        <time>2024-08-21T10:51:29.000Z</time>
      </trkpt>
      <trkpt lat="47.87495" lon="0.00927">
        <ele>72</ele>
        <time>2024-08-21T10:51:33.000Z</time>
      </trkpt>
      <trkpt lat="47.87515" lon="0.00881">
        <ele>72</ele>
        <time>2024-08-21T10:51:39.000Z</time>
      </trkpt>
      <trkpt lat="47.87525" lon="0.00856">
        <ele>72.199996948242</ele>
        <time>2024-08-21T10:51:42.000Z</time>
      </trkpt>
      <trkpt lat="47.87539" lon="0.00817">
        <ele>72.199996948242</ele>
        <time>2024-08-21T10:51:47.000Z</time>
      </trkpt>
      <trkpt lat="47.87542" lon="0.0081">
        <ele>72.199996948242</ele>
        <time>2024-08-21T10:51:48.000Z</time>
      </trkpt>
      <trkpt lat="47.87544" lon="0.00803">
        <ele>72.199996948242</ele>
        <time>2024-08-21T10:51:49.000Z</time>
      </trkpt>
      <trkpt lat="47.87545" lon="0.00784">
        <ele>72.199996948242</ele>
        <time>2024-08-21T10:51:51.000Z</time>
      </trkpt>
      <trkpt lat="47.87543" lon="0.00768">
        <ele>72.199996948242</ele>
        <time>2024-08-21T10:51:53.000Z</time>
      </trkpt>
      <trkpt lat="47.87544" lon="0.00762">
        <ele>72.199996948242</ele>
        <time>2024-08-21T10:51:54.000Z</time>
      </trkpt>
      <trkpt lat="47.87546" lon="0.00748">
        <ele>72.199996948242</ele>
        <time>2024-08-21T10:51:56.000Z</time>
      </trkpt>
      <trkpt lat="47.87545" lon="0.00731">
        <ele>72.199996948242</ele>
        <time>2024-08-21T10:51:58.000Z</time>
      </trkpt>
      <trkpt lat="47.87545" lon="0.00706">
        <ele>72.199996948242</ele>
        <time>2024-08-21T10:52:01.000Z</time>
      </trkpt>
      <trkpt lat="47.87545" lon="0.00699">
        <ele>72.199996948242</ele>
        <time>2024-08-21T10:52:02.000Z</time>
      </trkpt>
      <trkpt lat="47.87544" lon="0.00684">
        <ele>72.199996948242</ele>
        <time>2024-08-21T10:52:04.000Z</time>
      </trkpt>
      <trkpt lat="47.87543" lon="0.00654">
        <ele>72</ele>
        <time>2024-08-21T10:52:08.000Z</time>
      </trkpt>
      <trkpt lat="47.87543" lon="0.00641">
        <ele>72</ele>
        <time>2024-08-21T10:52:10.000Z</time>
      </trkpt>
      <trkpt lat="47.87544" lon="0.0062">
        <ele>72.199996948242</ele>
        <time>2024-08-21T10:52:13.000Z</time>
      </trkpt>
      <trkpt lat="47.87544" lon="0.00613">
        <ele>72.199996948242</ele>
        <time>2024-08-21T10:52:14.000Z</time>
      </trkpt>
      <trkpt lat="47.87544" lon="0.0058">
        <ele>72.199996948242</ele>
        <time>2024-08-21T10:52:19.000Z</time>
      </trkpt>
      <trkpt lat="47.87539" lon="0.00553">
        <ele>72.199996948242</ele>
        <time>2024-08-21T10:52:22.000Z</time>
      </trkpt>
      <trkpt lat="47.87538" lon="0.00543">
        <ele>72.199996948242</ele>
        <time>2024-08-21T10:52:23.000Z</time>
      </trkpt>
      <trkpt lat="47.87534" lon="0.00525">
        <ele>72.199996948242</ele>
        <time>2024-08-21T10:52:25.000Z</time>
      </trkpt>
      <trkpt lat="47.87533" lon="0.00515">
        <ele>72.199996948242</ele>
        <time>2024-08-21T10:52:26.000Z</time>
      </trkpt>
      <trkpt lat="47.87532" lon="0.00506">
        <ele>72.199996948242</ele>
        <time>2024-08-21T10:52:27.000Z</time>
      </trkpt>
      <trkpt lat="47.87531" lon="0.00498">
        <ele>72.199996948242</ele>
        <time>2024-08-21T10:52:28.000Z</time>
      </trkpt>
      <trkpt lat="47.87533" lon="0.00489">
        <ele>72.199996948242</ele>
        <time>2024-08-21T10:52:29.000Z</time>
      </trkpt>
      <trkpt lat="47.87533" lon="0.00475">
        <ele>72.199996948242</ele>
        <time>2024-08-21T10:52:31.000Z</time>
      </trkpt>
      <trkpt lat="47.87532" lon="0.00466">
        <ele>72.199996948242</ele>
        <time>2024-08-21T10:52:32.000Z</time>
      </trkpt>
      <trkpt lat="47.87532" lon="0.00448">
        <ele>72.400001525879</ele>
        <time>2024-08-21T10:52:34.000Z</time>
      </trkpt>
      <trkpt lat="47.8753" lon="0.00422">
        <ele>72.400001525879</ele>
        <time>2024-08-21T10:52:37.000Z</time>
      </trkpt>
      <trkpt lat="47.87532" lon="0.00405">
        <ele>72.400001525879</ele>
        <time>2024-08-21T10:52:39.000Z</time>
      </trkpt>
      <trkpt lat="47.87533" lon="0.00389">
        <ele>72.400001525879</ele>
        <time>2024-08-21T10:52:41.000Z</time>
      </trkpt>
      <trkpt lat="47.87532" lon="0.00347">
        <ele>72.400001525879</ele>
        <time>2024-08-21T10:52:46.000Z</time>
      </trkpt>
      <trkpt lat="47.87532" lon="0.00339">
        <ele>72.400001525879</ele>
        <time>2024-08-21T10:52:47.000Z</time>
      </trkpt>
      <trkpt lat="47.87532" lon="0.00316">
        <ele>72.199996948242</ele>
        <time>2024-08-21T10:52:50.000Z</time>
      </trkpt>
      <trkpt lat="47.87531" lon="0.00308">
        <ele>72.199996948242</ele>
        <time>2024-08-21T10:52:51.000Z</time>
      </trkpt>
      <trkpt lat="47.87531" lon="0.00302">
        <ele>72.199996948242</ele>
        <time>2024-08-21T10:52:52.000Z</time>
      </trkpt>
      <trkpt lat="47.87532" lon="0.00293">
        <ele>72.400001525879</ele>
        <time>2024-08-21T10:52:55.000Z</time>
      </trkpt>
      <trkpt lat="47.87532" lon="0.00293">
        <ele>72.599998474121</ele>
        <time>2024-08-21T10:52:58.000Z</time>
      </trkpt>
      <trkpt lat="47.87532" lon="0.00269">
        <ele>72.800003051758</ele>
        <time>2024-08-21T10:53:57.000Z</time>
      </trkpt>
      <trkpt lat="47.87536" lon="0.00241">
        <ele>72.800003051758</ele>
        <time>2024-08-21T10:54:03.000Z</time>
      </trkpt>
      <trkpt lat="47.87537" lon="0.00207">
        <ele>72.599998474121</ele>
        <time>2024-08-21T10:54:08.000Z</time>
      </trkpt>
      <trkpt lat="47.87537" lon="0.00166">
        <ele>72.400001525879</ele>
        <time>2024-08-21T10:54:13.000Z</time>
      </trkpt>
      <trkpt lat="47.87538" lon="0.00144">
        <ele>72.199996948242</ele>
        <time>2024-08-21T10:54:16.000Z</time>
      </trkpt>
      <trkpt lat="47.87536" lon="0.00133">
        <ele>72</ele>
        <time>2024-08-21T10:54:17.000Z</time>
      </trkpt>
      <trkpt lat="47.87535" lon="0.00124">
        <ele>72</ele>
        <time>2024-08-21T10:54:18.000Z</time>
      </trkpt>
      <trkpt lat="47.8754" lon="0.00106">
        <ele>71.800003051758</ele>
        <time>2024-08-21T10:54:20.000Z</time>
      </trkpt>
      <trkpt lat="47.87536" lon="0.00074">
        <ele>71.800003051758</ele>
        <time>2024-08-21T10:54:24.000Z</time>
      </trkpt>
      <trkpt lat="47.87536" lon="0.00065">
        <ele>71.800003051758</ele>
        <time>2024-08-21T10:54:25.000Z</time>
      </trkpt>
      <trkpt lat="47.87538" lon="0.00056">
        <ele>71.800003051758</ele>
        <time>2024-08-21T10:54:26.000Z</time>
      </trkpt>
      <trkpt lat="47.87541" lon="0.0004">
        <ele>71.800003051758</ele>
        <time>2024-08-21T10:54:28.000Z</time>
      </trkpt>
      <trkpt lat="47.8754" lon="0.00032">
        <ele>71.800003051758</ele>
        <time>2024-08-21T10:54:29.000Z</time>
      </trkpt>
      <trkpt lat="47.8754" lon="0.00017">
        <ele>71.800003051758</ele>
        <time>2024-08-21T10:54:31.000Z</time>
      </trkpt>
      <trkpt lat="47.87538" lon="-1.0E-5">
        <ele>71.800003051758</ele>
        <time>2024-08-21T10:54:33.000Z</time>
      </trkpt>
      <trkpt lat="47.87533" lon="-0.00019">
        <ele>71.800003051758</ele>
        <time>2024-08-21T10:54:35.000Z</time>
      </trkpt>
      <trkpt lat="47.87534" lon="-0.00026">
        <ele>71.800003051758</ele>
        <time>2024-08-21T10:54:36.000Z</time>
      </trkpt>
      <trkpt lat="47.87533" lon="-0.00062">
        <ele>71.800003051758</ele>
        <time>2024-08-21T10:54:40.000Z</time>
      </trkpt>
      <trkpt lat="47.87534" lon="-0.0007">
        <ele>71.800003051758</ele>
        <time>2024-08-21T10:54:41.000Z</time>
      </trkpt>
      <trkpt lat="47.87534" lon="-0.00084">
        <ele>71.800003051758</ele>
        <time>2024-08-21T10:54:43.000Z</time>
      </trkpt>
      <trkpt lat="47.87534" lon="-0.00107">
        <ele>72</ele>
        <time>2024-08-21T10:54:46.000Z</time>
      </trkpt>
      <trkpt lat="47.8753" lon="-0.00124">
        <ele>72</ele>
        <time>2024-08-21T10:54:48.000Z</time>
      </trkpt>
      <trkpt lat="47.8753" lon="-0.00131">
        <ele>72</ele>
        <time>2024-08-21T10:54:49.000Z</time>
      </trkpt>
      <trkpt lat="47.87531" lon="-0.00158">
        <ele>71.800003051758</ele>
        <time>2024-08-21T10:54:52.000Z</time>
      </trkpt>
      <trkpt lat="47.87531" lon="-0.00179">
        <ele>71.800003051758</ele>
        <time>2024-08-21T10:54:55.000Z</time>
      </trkpt>
      <trkpt lat="47.87529" lon="-0.002">
        <ele>71.800003051758</ele>
        <time>2024-08-21T10:54:57.000Z</time>
      </trkpt>
      <trkpt lat="47.87531" lon="-0.00215">
        <ele>72</ele>
        <time>2024-08-21T10:54:59.000Z</time>
      </trkpt>
      <trkpt lat="47.87533" lon="-0.00233">
        <ele>72</ele>
        <time>2024-08-21T10:55:01.000Z</time>
      </trkpt>
      <trkpt lat="47.87526" lon="-0.00287">
        <ele>72</ele>
        <time>2024-08-21T10:55:07.000Z</time>
      </trkpt>
      <trkpt lat="47.87522" lon="-0.00369">
        <ele>71.800003051758</ele>
        <time>2024-08-21T10:55:17.000Z</time>
      </trkpt>
      <trkpt lat="47.87521" lon="-0.00377">
        <ele>71.800003051758</ele>
        <time>2024-08-21T10:55:18.000Z</time>
      </trkpt>
      <trkpt lat="47.87517" lon="-0.00456">
        <ele>71.400001525879</ele>
        <time>2024-08-21T10:55:27.000Z</time>
      </trkpt>
      <trkpt lat="47.87514" lon="-0.00543">
        <ele>71</ele>
        <time>2024-08-21T10:55:37.000Z</time>
      </trkpt>
      <trkpt lat="47.87513" lon="-0.00552">
        <ele>71.199996948242</ele>
        <time>2024-08-21T10:55:38.000Z</time>
      </trkpt>
      <trkpt lat="47.8751" lon="-0.00638">
        <ele>71.199996948242</ele>
        <time>2024-08-21T10:55:48.000Z</time>
      </trkpt>
      <trkpt lat="47.87509" lon="-0.00655">
        <ele>71.199996948242</ele>
        <time>2024-08-21T10:55:50.000Z</time>
      </trkpt>
      <trkpt lat="47.87508" lon="-0.00682">
        <ele>71.599998474121</ele>
        <time>2024-08-21T10:55:53.000Z</time>
      </trkpt>
      <trkpt lat="47.87505" lon="-0.00742">
        <ele>71.800003051758</ele>
        <time>2024-08-21T10:56:00.000Z</time>
      </trkpt>
      <trkpt lat="47.87501" lon="-0.00804">
        <ele>71.800003051758</ele>
        <time>2024-08-21T10:56:07.000Z</time>
      </trkpt>
      <trkpt lat="47.87495" lon="-0.00875">
        <ele>71.800003051758</ele>
        <time>2024-08-21T10:56:15.000Z</time>
      </trkpt>
      <trkpt lat="47.87488" lon="-0.00953">
        <ele>71.800003051758</ele>
        <time>2024-08-21T10:56:24.000Z</time>
      </trkpt>
      <trkpt lat="47.87481" lon="-0.01041">
        <ele>71.800003051758</ele>
        <time>2024-08-21T10:56:34.000Z</time>
      </trkpt>
      <trkpt lat="47.87478" lon="-0.01084">
        <ele>71.599998474121</ele>
        <time>2024-08-21T10:56:39.000Z</time>
      </trkpt>
      <trkpt lat="47.87476" lon="-0.01102">
        <ele>71.400001525879</ele>
        <time>2024-08-21T10:56:41.000Z</time>
      </trkpt>
      <trkpt lat="47.87472" lon="-0.0117">
        <ele>71.400001525879</ele>
        <time>2024-08-21T10:56:49.000Z</time>
      </trkpt>
      <trkpt lat="47.87467" lon="-0.01249">
        <ele>71</ele>
        <time>2024-08-21T10:56:58.000Z</time>
      </trkpt>
      <trkpt lat="47.8746" lon="-0.0131">
        <ele>70.800003051758</ele>
        <time>2024-08-21T10:57:05.000Z</time>
      </trkpt>
      <trkpt lat="47.87458" lon="-0.01318">
        <ele>70.800003051758</ele>
        <time>2024-08-21T10:57:06.000Z</time>
      </trkpt>
      <trkpt lat="47.87449" lon="-0.01377">
        <ele>71</ele>
        <time>2024-08-21T10:57:13.000Z</time>
      </trkpt>
      <trkpt lat="47.87447" lon="-0.01386">
        <ele>71</ele>
        <time>2024-08-21T10:57:14.000Z</time>
      </trkpt>
      <trkpt lat="47.8744" lon="-0.01446">
        <ele>71.400001525879</ele>
        <time>2024-08-21T10:57:21.000Z</time>
      </trkpt>
      <trkpt lat="47.87436" lon="-0.01521">
        <ele>71.400001525879</ele>
        <time>2024-08-21T10:57:30.000Z</time>
      </trkpt>
      <trkpt lat="47.87432" lon="-0.01582">
        <ele>71.199996948242</ele>
        <time>2024-08-21T10:57:37.000Z</time>
      </trkpt>
      <trkpt lat="47.87433" lon="-0.01596">
        <ele>71.199996948242</ele>
        <time>2024-08-21T10:57:39.000Z</time>
      </trkpt>
      <trkpt lat="47.87433" lon="-0.0161">
        <ele>71.199996948242</ele>
        <time>2024-08-21T10:57:41.000Z</time>
      </trkpt>
      <trkpt lat="47.87431" lon="-0.0163">
        <ele>71.199996948242</ele>
        <time>2024-08-21T10:57:43.000Z</time>
      </trkpt>
      <trkpt lat="47.8743" lon="-0.0164">
        <ele>71.199996948242</ele>
        <time>2024-08-21T10:57:44.000Z</time>
      </trkpt>
      <trkpt lat="47.87429" lon="-0.01687">
        <ele>71.400001525879</ele>
        <time>2024-08-21T10:57:49.000Z</time>
      </trkpt>
      <trkpt lat="47.87427" lon="-0.01724">
        <ele>71.400001525879</ele>
        <time>2024-08-21T10:57:53.000Z</time>
      </trkpt>
      <trkpt lat="47.87426" lon="-0.01752">
        <ele>71.400001525879</ele>
        <time>2024-08-21T10:57:56.000Z</time>
      </trkpt>
      <trkpt lat="47.87426" lon="-0.01761">
        <ele>71.400001525879</ele>
        <time>2024-08-21T10:57:57.000Z</time>
      </trkpt>
      <trkpt lat="47.87416" lon="-0.01842">
        <ele>71.199996948242</ele>
        <time>2024-08-21T10:58:06.000Z</time>
      </trkpt>
      <trkpt lat="47.87414" lon="-0.01851">
        <ele>71.199996948242</ele>
        <time>2024-08-21T10:58:07.000Z</time>
      </trkpt>
      <trkpt lat="47.87408" lon="-0.01904">
        <ele>70.599998474121</ele>
        <time>2024-08-21T10:58:14.000Z</time>
      </trkpt>
      <trkpt lat="47.87401" lon="-0.01959">
        <ele>70.400001525879</ele>
        <time>2024-08-21T10:58:21.000Z</time>
      </trkpt>
      <trkpt lat="47.87402" lon="-0.01982">
        <ele>70.199996948242</ele>
        <time>2024-08-21T10:58:25.000Z</time>
      </trkpt>
      <trkpt lat="47.87397" lon="-0.02029">
        <ele>70</ele>
        <time>2024-08-21T10:58:30.000Z</time>
      </trkpt>
      <trkpt lat="47.87395" lon="-0.0204">
        <ele>70</ele>
        <time>2024-08-21T10:58:31.000Z</time>
      </trkpt>
      <trkpt lat="47.87386" lon="-0.02078">
        <ele>69.599998474121</ele>
        <time>2024-08-21T10:58:35.000Z</time>
      </trkpt>
      <trkpt lat="47.87384" lon="-0.02088">
        <ele>69.599998474121</ele>
        <time>2024-08-21T10:58:36.000Z</time>
      </trkpt>
      <trkpt lat="47.87377" lon="-0.02134">
        <ele>69.400001525879</ele>
        <time>2024-08-21T10:58:41.000Z</time>
      </trkpt>
      <trkpt lat="47.87365" lon="-0.02216">
        <ele>69.199996948242</ele>
        <time>2024-08-21T10:58:50.000Z</time>
      </trkpt>
      <trkpt lat="47.87358" lon="-0.02269">
        <ele>68.599998474121</ele>
        <time>2024-08-21T10:58:56.000Z</time>
      </trkpt>
      <trkpt lat="47.87352" lon="-0.02311">
        <ele>68.199996948242</ele>
        <time>2024-08-21T10:59:01.000Z</time>
      </trkpt>
      <trkpt lat="47.87341" lon="-0.02395">
        <ele>69</ele>
        <time>2024-08-21T10:59:11.000Z</time>
      </trkpt>
      <trkpt lat="47.8733" lon="-0.0248">
        <ele>68.800003051758</ele>
        <time>2024-08-21T10:59:21.000Z</time>
      </trkpt>
      <trkpt lat="47.87329" lon="-0.0249">
        <ele>68.800003051758</ele>
        <time>2024-08-21T10:59:22.000Z</time>
      </trkpt>
      <trkpt lat="47.8732" lon="-0.0256">
        <ele>68.800003051758</ele>
        <time>2024-08-21T10:59:30.000Z</time>
      </trkpt>
      <trkpt lat="47.87309" lon="-0.02642">
        <ele>68.199996948242</ele>
        <time>2024-08-21T10:59:39.000Z</time>
      </trkpt>
      <trkpt lat="47.87304" lon="-0.02679">
        <ele>68</ele>
        <time>2024-08-21T10:59:43.000Z</time>
      </trkpt>
      <trkpt lat="47.87295" lon="-0.02745">
        <ele>67.400001525879</ele>
        <time>2024-08-21T10:59:50.000Z</time>
      </trkpt>
      <trkpt lat="47.87293" lon="-0.02763">
        <ele>67.199996948242</ele>
        <time>2024-08-21T10:59:52.000Z</time>
      </trkpt>
      <trkpt lat="47.87282" lon="-0.02837">
        <ele>66.800003051758</ele>
        <time>2024-08-21T11:00:00.000Z</time>
      </trkpt>
      <trkpt lat="47.8728" lon="-0.02845">
        <ele>66.800003051758</ele>
        <time>2024-08-21T11:00:01.000Z</time>
      </trkpt>
      <trkpt lat="47.87271" lon="-0.02887">
        <ele>66.599998474121</ele>
        <time>2024-08-21T11:00:06.000Z</time>
      </trkpt>
      <trkpt lat="47.87266" lon="-0.02904">
        <ele>66.199996948242</ele>
        <time>2024-08-21T11:00:08.000Z</time>
      </trkpt>
      <trkpt lat="47.87252" lon="-0.02947">
        <ele>66</ele>
        <time>2024-08-21T11:00:13.000Z</time>
      </trkpt>
      <trkpt lat="47.87248" lon="-0.02965">
        <ele>65.800003051758</ele>
        <time>2024-08-21T11:00:15.000Z</time>
      </trkpt>
      <trkpt lat="47.87242" lon="-0.03">
        <ele>65.800003051758</ele>
        <time>2024-08-21T11:00:19.000Z</time>
      </trkpt>
      <trkpt lat="47.87237" lon="-0.03049">
        <ele>66.400001525879</ele>
        <time>2024-08-21T11:00:25.000Z</time>
      </trkpt>
      <trkpt lat="47.8723" lon="-0.03114">
        <ele>66.599998474121</ele>
        <time>2024-08-21T11:00:33.000Z</time>
      </trkpt>
      <trkpt lat="47.87223" lon="-0.03192">
        <ele>66.599998474121</ele>
        <time>2024-08-21T11:00:42.000Z</time>
      </trkpt>
      <trkpt lat="47.87227" lon="-0.03246">
        <ele>66.400001525879</ele>
        <time>2024-08-21T11:00:49.000Z</time>
      </trkpt>
      <trkpt lat="47.87235" lon="-0.03283">
        <ele>66.599998474121</ele>
        <time>2024-08-21T11:00:54.000Z</time>
      </trkpt>
      <trkpt lat="47.87239" lon="-0.03298">
        <ele>66.400001525879</ele>
        <time>2024-08-21T11:00:56.000Z</time>
      </trkpt>
      <trkpt lat="47.87254" lon="-0.03353">
        <ele>66.400001525879</ele>
        <time>2024-08-21T11:01:03.000Z</time>
      </trkpt>
      <trkpt lat="47.87275" lon="-0.03426">
        <ele>66</ele>
        <time>2024-08-21T11:01:12.000Z</time>
      </trkpt>
      <trkpt lat="47.87282" lon="-0.03454">
        <ele>65.199996948242</ele>
        <time>2024-08-21T11:01:15.000Z</time>
      </trkpt>
      <trkpt lat="47.87291" lon="-0.03503">
        <ele>64.199996948242</ele>
        <time>2024-08-21T11:01:20.000Z</time>
      </trkpt>
      <trkpt lat="47.87293" lon="-0.03513">
        <ele>64</ele>
        <time>2024-08-21T11:01:21.000Z</time>
      </trkpt>
      <trkpt lat="47.87299" lon="-0.03553">
        <ele>63.599998474121</ele>
        <time>2024-08-21T11:01:25.000Z</time>
      </trkpt>
      <trkpt lat="47.87303" lon="-0.03572">
        <ele>63.400001525879</ele>
        <time>2024-08-21T11:01:27.000Z</time>
      </trkpt>
      <trkpt lat="47.87321" lon="-0.03623">
        <ele>62.799999237061</ele>
        <time>2024-08-21T11:01:33.000Z</time>
      </trkpt>
      <trkpt lat="47.87328" lon="-0.0364">
        <ele>62.599998474121</ele>
        <time>2024-08-21T11:01:35.000Z</time>
      </trkpt>
      <trkpt lat="47.87344" lon="-0.03686">
        <ele>62.599998474121</ele>
        <time>2024-08-21T11:01:41.000Z</time>
      </trkpt>
      <trkpt lat="47.87345" lon="-0.03694">
        <ele>62.799999237061</ele>
        <time>2024-08-21T11:01:42.000Z</time>
      </trkpt>
      <trkpt lat="47.87347" lon="-0.03722">
        <ele>63.200000762939</ele>
        <time>2024-08-21T11:01:46.000Z</time>
      </trkpt>
      <trkpt lat="47.87344" lon="-0.03742">
        <ele>63.799999237061</ele>
        <time>2024-08-21T11:01:49.000Z</time>
      </trkpt>
      <trkpt lat="47.87343" lon="-0.03748">
        <ele>64</ele>
        <time>2024-08-21T11:01:50.000Z</time>
      </trkpt>
      <trkpt lat="47.87341" lon="-0.03754">
        <ele>64.199996948242</ele>
        <time>2024-08-21T11:01:51.000Z</time>
      </trkpt>
      <trkpt lat="47.87326" lon="-0.03797">
        <ele>65.199996948242</ele>
        <time>2024-08-21T11:01:58.000Z</time>
      </trkpt>
      <trkpt lat="47.87325" lon="-0.03803">
        <ele>65.400001525879</ele>
        <time>2024-08-21T11:01:59.000Z</time>
      </trkpt>
      <trkpt lat="47.87323" lon="-0.03809">
        <ele>65.599998474121</ele>
        <time>2024-08-21T11:02:00.000Z</time>
      </trkpt>
      <trkpt lat="47.8731" lon="-0.03847">
        <ele>66.199996948242</ele>
        <time>2024-08-21T11:02:06.000Z</time>
      </trkpt>
      <trkpt lat="47.87306" lon="-0.0386">
        <ele>66.199996948242</ele>
        <time>2024-08-21T11:02:08.000Z</time>
      </trkpt>
      <trkpt lat="47.87289" lon="-0.03913">
        <ele>66.800003051758</ele>
        <time>2024-08-21T11:02:16.000Z</time>
      </trkpt>
      <trkpt lat="47.87266" lon="-0.03965">
        <ele>66.400001525879</ele>
        <time>2024-08-21T11:02:24.000Z</time>
      </trkpt>
      <trkpt lat="47.87244" lon="-0.04013">
        <ele>66</ele>
        <time>2024-08-21T11:02:31.000Z</time>
      </trkpt>
      <trkpt lat="47.87223" lon="-0.04053">
        <ele>65.599998474121</ele>
        <time>2024-08-21T11:02:37.000Z</time>
      </trkpt>
      <trkpt lat="47.87218" lon="-0.04067">
        <ele>65.599998474121</ele>
        <time>2024-08-21T11:02:39.000Z</time>
      </trkpt>
      <trkpt lat="47.87195" lon="-0.04135">
        <ele>65.400001525879</ele>
        <time>2024-08-21T11:02:49.000Z</time>
      </trkpt>
      <trkpt lat="47.87178" lon="-0.04185">
        <ele>65.599998474121</ele>
        <time>2024-08-21T11:02:57.000Z</time>
      </trkpt>
      <trkpt lat="47.87173" lon="-0.04199">
        <ele>65.800003051758</ele>
        <time>2024-08-21T11:02:59.000Z</time>
      </trkpt>
      <trkpt lat="47.87154" lon="-0.04253">
        <ele>66.599998474121</ele>
        <time>2024-08-21T11:03:07.000Z</time>
      </trkpt>
      <trkpt lat="47.8713" lon="-0.04325">
        <ele>66.599998474121</ele>
        <time>2024-08-21T11:03:17.000Z</time>
      </trkpt>
      <trkpt lat="47.87128" lon="-0.04333">
        <ele>66.599998474121</ele>
        <time>2024-08-21T11:03:18.000Z</time>
      </trkpt>
      <trkpt lat="47.8711" lon="-0.04395">
        <ele>66.400001525879</ele>
        <time>2024-08-21T11:03:26.000Z</time>
      </trkpt>
      <trkpt lat="47.8709" lon="-0.04466">
        <ele>66.199996948242</ele>
        <time>2024-08-21T11:03:35.000Z</time>
      </trkpt>
      <trkpt lat="47.87074" lon="-0.04523">
        <ele>66.199996948242</ele>
        <time>2024-08-21T11:03:42.000Z</time>
      </trkpt>
      <trkpt lat="47.87053" lon="-0.04593">
        <ele>65.599998474121</ele>
        <time>2024-08-21T11:03:50.000Z</time>
      </trkpt>
      <trkpt lat="47.87044" lon="-0.04621">
        <ele>65</ele>
        <time>2024-08-21T11:03:53.000Z</time>
      </trkpt>
      <trkpt lat="47.87037" lon="-0.04651">
        <ele>63.799999237061</ele>
        <time>2024-08-21T11:03:56.000Z</time>
      </trkpt>
      <trkpt lat="47.87034" lon="-0.0466">
        <ele>63.599998474121</ele>
        <time>2024-08-21T11:03:57.000Z</time>
      </trkpt>
      <trkpt lat="47.87032" lon="-0.04671">
        <ele>63.200000762939</ele>
        <time>2024-08-21T11:03:58.000Z</time>
      </trkpt>
      <trkpt lat="47.87029" lon="-0.04693">
        <ele>62.599998474121</ele>
        <time>2024-08-21T11:04:00.000Z</time>
      </trkpt>
      <trkpt lat="47.87027" lon="-0.04705">
        <ele>62.400001525879</ele>
        <time>2024-08-21T11:04:01.000Z</time>
      </trkpt>
      <trkpt lat="47.87023" lon="-0.04731">
        <ele>61.200000762939</ele>
        <time>2024-08-21T11:04:03.000Z</time>
      </trkpt>
      <trkpt lat="47.8702" lon="-0.04758">
        <ele>59.799999237061</ele>
        <time>2024-08-21T11:04:05.000Z</time>
      </trkpt>
      <trkpt lat="47.87015" lon="-0.048">
        <ele>58.599998474121</ele>
        <time>2024-08-21T11:04:08.000Z</time>
      </trkpt>
      <trkpt lat="47.87011" lon="-0.04831">
        <ele>57.400001525879</ele>
        <time>2024-08-21T11:04:10.000Z</time>
      </trkpt>
      <trkpt lat="47.87007" lon="-0.04861">
        <ele>56.200000762939</ele>
        <time>2024-08-21T11:04:12.000Z</time>
      </trkpt>
      <trkpt lat="47.87003" lon="-0.04891">
        <ele>54.799999237061</ele>
        <time>2024-08-21T11:04:14.000Z</time>
      </trkpt>
      <trkpt lat="47.86998" lon="-0.04921">
        <ele>53.599998474121</ele>
        <time>2024-08-21T11:04:16.000Z</time>
      </trkpt>
      <trkpt lat="47.86992" lon="-0.04964">
        <ele>52.599998474121</ele>
        <time>2024-08-21T11:04:19.000Z</time>
      </trkpt>
      <trkpt lat="47.86991" lon="-0.04976">
        <ele>52.400001525879</ele>
        <time>2024-08-21T11:04:20.000Z</time>
      </trkpt>
      <trkpt lat="47.86981" lon="-0.05047">
        <ele>52.200000762939</ele>
        <time>2024-08-21T11:04:26.000Z</time>
      </trkpt>
      <trkpt lat="47.86975" lon="-0.05095">
        <ele>53.400001525879</ele>
        <time>2024-08-21T11:04:31.000Z</time>
      </trkpt>
      <trkpt lat="47.86974" lon="-0.05102">
        <ele>53.599998474121</ele>
        <time>2024-08-21T11:04:32.000Z</time>
      </trkpt>
      <trkpt lat="47.86974" lon="-0.05109">
        <ele>54.200000762939</ele>
        <time>2024-08-21T11:04:33.000Z</time>
      </trkpt>
      <trkpt lat="47.86973" lon="-0.05116">
        <ele>54.799999237061</ele>
        <time>2024-08-21T11:04:34.000Z</time>
      </trkpt>
      <trkpt lat="47.86973" lon="-0.05123">
        <ele>54.799999237061</ele>
        <time>2024-08-21T11:04:35.000Z</time>
      </trkpt>
      <trkpt lat="47.86972" lon="-0.0513">
        <ele>55.400001525879</ele>
        <time>2024-08-21T11:04:36.000Z</time>
      </trkpt>
      <trkpt lat="47.8697" lon="-0.05151">
        <ele>56.799999237061</ele>
        <time>2024-08-21T11:04:39.000Z</time>
      </trkpt>
      <trkpt lat="47.8697" lon="-0.05158">
        <ele>57</ele>
        <time>2024-08-21T11:04:40.000Z</time>
      </trkpt>
      <trkpt lat="47.8697" lon="-0.05164">
        <ele>57.400001525879</ele>
        <time>2024-08-21T11:04:41.000Z</time>
      </trkpt>
      <trkpt lat="47.8697" lon="-0.05177">
        <ele>57.799999237061</ele>
        <time>2024-08-21T11:04:43.000Z</time>
      </trkpt>
      <trkpt lat="47.86971" lon="-0.05204">
        <ele>58.200000762939</ele>
        <time>2024-08-21T11:04:47.000Z</time>
      </trkpt>
      <trkpt lat="47.86972" lon="-0.05215">
        <ele>58.599998474121</ele>
        <time>2024-08-21T11:04:49.000Z</time>
      </trkpt>
      <trkpt lat="47.86973" lon="-0.05226">
        <ele>59</ele>
        <time>2024-08-21T11:04:51.000Z</time>
      </trkpt>
      <trkpt lat="47.86975" lon="-0.05247">
        <ele>59.799999237061</ele>
        <time>2024-08-21T11:04:55.000Z</time>
      </trkpt>
      <trkpt lat="47.86977" lon="-0.05257">
        <ele>60.200000762939</ele>
        <time>2024-08-21T11:04:57.000Z</time>
      </trkpt>
      <trkpt lat="47.86981" lon="-0.05283">
        <ele>60.799999237061</ele>
        <time>2024-08-21T11:05:02.000Z</time>
      </trkpt>
      <trkpt lat="47.86983" lon="-0.0531">
        <ele>60.799999237061</ele>
        <time>2024-08-21T11:05:06.000Z</time>
      </trkpt>
      <trkpt lat="47.86985" lon="-0.05331">
        <ele>60.799999237061</ele>
        <time>2024-08-21T11:05:09.000Z</time>
      </trkpt>
      <trkpt lat="47.86991" lon="-0.05384">
        <ele>60.200000762939</ele>
        <time>2024-08-21T11:05:15.000Z</time>
      </trkpt>
      <trkpt lat="47.86992" lon="-0.05406">
        <ele>59.599998474121</ele>
        <time>2024-08-21T11:05:17.000Z</time>
      </trkpt>
      <trkpt lat="47.86993" lon="-0.05418">
        <ele>59.200000762939</ele>
        <time>2024-08-21T11:05:18.000Z</time>
      </trkpt>
      <trkpt lat="47.86994" lon="-0.0543">
        <ele>58.799999237061</ele>
        <time>2024-08-21T11:05:19.000Z</time>
      </trkpt>
      <trkpt lat="47.86997" lon="-0.05471">
        <ele>57.599998474121</ele>
        <time>2024-08-21T11:05:22.000Z</time>
      </trkpt>
      <trkpt lat="47.86999" lon="-0.055">
        <ele>55.400001525879</ele>
        <time>2024-08-21T11:05:24.000Z</time>
      </trkpt>
      <trkpt lat="47.87001" lon="-0.05531">
        <ele>53.799999237061</ele>
        <time>2024-08-21T11:05:26.000Z</time>
      </trkpt>
      <trkpt lat="47.87003" lon="-0.05561">
        <ele>52.200000762939</ele>
        <time>2024-08-21T11:05:28.000Z</time>
      </trkpt>
      <trkpt lat="47.87006" lon="-0.05592">
        <ele>51</ele>
        <time>2024-08-21T11:05:30.000Z</time>
      </trkpt>
      <trkpt lat="47.87007" lon="-0.05608">
        <ele>50.400001525879</ele>
        <time>2024-08-21T11:05:31.000Z</time>
      </trkpt>
      <trkpt lat="47.8701" lon="-0.05639">
        <ele>49.799999237061</ele>
        <time>2024-08-21T11:05:33.000Z</time>
      </trkpt>
      <trkpt lat="47.87013" lon="-0.0567">
        <ele>48.799999237061</ele>
        <time>2024-08-21T11:05:35.000Z</time>
      </trkpt>
      <trkpt lat="47.87014" lon="-0.05686">
        <ele>47.200000762939</ele>
        <time>2024-08-21T11:05:36.000Z</time>
      </trkpt>
      <trkpt lat="47.87017" lon="-0.05718">
        <ele>45.799999237061</ele>
        <time>2024-08-21T11:05:38.000Z</time>
      </trkpt>
      <trkpt lat="47.87018" lon="-0.05734">
        <ele>45.599998474121</ele>
        <time>2024-08-21T11:05:39.000Z</time>
      </trkpt>
      <trkpt lat="47.87021" lon="-0.05766">
        <ele>44.599998474121</ele>
        <time>2024-08-21T11:05:41.000Z</time>
      </trkpt>
      <trkpt lat="47.87024" lon="-0.05797">
        <ele>43.400001525879</ele>
        <time>2024-08-21T11:05:43.000Z</time>
      </trkpt>
      <trkpt lat="47.8703" lon="-0.05857">
        <ele>42</ele>
        <time>2024-08-21T11:05:47.000Z</time>
      </trkpt>
      <trkpt lat="47.87034" lon="-0.059">
        <ele>41.599998474121</ele>
        <time>2024-08-21T11:05:50.000Z</time>
      </trkpt>
      <trkpt lat="47.87037" lon="-0.05939">
        <ele>41</ele>
        <time>2024-08-21T11:05:53.000Z</time>
      </trkpt>
      <trkpt lat="47.87037" lon="-0.05975">
        <ele>41</ele>
        <time>2024-08-21T11:05:56.000Z</time>
      </trkpt>
      <trkpt lat="47.87031" lon="-0.06039">
        <ele>41.599998474121</ele>
        <time>2024-08-21T11:06:02.000Z</time>
      </trkpt>
      <trkpt lat="47.87029" lon="-0.06049">
        <ele>41.599998474121</ele>
        <time>2024-08-21T11:06:03.000Z</time>
      </trkpt>
      <trkpt lat="47.87021" lon="-0.06078">
        <ele>42.200000762939</ele>
        <time>2024-08-21T11:06:06.000Z</time>
      </trkpt>
      <trkpt lat="47.87018" lon="-0.06087">
        <ele>42.200000762939</ele>
        <time>2024-08-21T11:06:07.000Z</time>
      </trkpt>
      <trkpt lat="47.86996" lon="-0.06158">
        <ele>43</ele>
        <time>2024-08-21T11:06:15.000Z</time>
      </trkpt>
      <trkpt lat="47.86986" lon="-0.06193">
        <ele>43</ele>
        <time>2024-08-21T11:06:19.000Z</time>
      </trkpt>
      <trkpt lat="47.86983" lon="-0.06213">
        <ele>43</ele>
        <time>2024-08-21T11:06:21.000Z</time>
      </trkpt>
      <trkpt lat="47.86983" lon="-0.06222">
        <ele>43</ele>
        <time>2024-08-21T11:06:22.000Z</time>
      </trkpt>
      <trkpt lat="47.86985" lon="-0.06241">
        <ele>43.200000762939</ele>
        <time>2024-08-21T11:06:24.000Z</time>
      </trkpt>
      <trkpt lat="47.86986" lon="-0.0625">
        <ele>43.200000762939</ele>
        <time>2024-08-21T11:06:25.000Z</time>
      </trkpt>
      <trkpt lat="47.86997" lon="-0.06281">
        <ele>43.400001525879</ele>
        <time>2024-08-21T11:06:29.000Z</time>
      </trkpt>
      <trkpt lat="47.87" lon="-0.06287">
        <ele>43.599998474121</ele>
        <time>2024-08-21T11:06:30.000Z</time>
      </trkpt>
      <trkpt lat="47.87008" lon="-0.06303">
        <ele>43.799999237061</ele>
        <time>2024-08-21T11:06:33.000Z</time>
      </trkpt>
      <trkpt lat="47.87009" lon="-0.06308">
        <ele>44</ele>
        <time>2024-08-21T11:06:34.000Z</time>
      </trkpt>
      <trkpt lat="47.87009" lon="-0.06314">
        <ele>44.599998474121</ele>
        <time>2024-08-21T11:06:35.000Z</time>
      </trkpt>
      <trkpt lat="47.87012" lon="-0.06351">
        <ele>45</ele>
        <time>2024-08-21T11:06:40.000Z</time>
      </trkpt>
      <trkpt lat="47.87012" lon="-0.06361">
        <ele>44.799999237061</ele>
        <time>2024-08-21T11:06:41.000Z</time>
      </trkpt>
      <trkpt lat="47.87012" lon="-0.06371">
        <ele>44.599998474121</ele>
        <time>2024-08-21T11:06:42.000Z</time>
      </trkpt>
      <trkpt lat="47.87011" lon="-0.06381">
        <ele>44.400001525879</ele>
        <time>2024-08-21T11:06:43.000Z</time>
      </trkpt>
      <trkpt lat="47.8701" lon="-0.06392">
        <ele>44.200000762939</ele>
        <time>2024-08-21T11:06:44.000Z</time>
      </trkpt>
      <trkpt lat="47.87008" lon="-0.06404">
        <ele>43.400001525879</ele>
        <time>2024-08-21T11:06:45.000Z</time>
      </trkpt>
      <trkpt lat="47.87002" lon="-0.06441">
        <ele>42</ele>
        <time>2024-08-21T11:06:48.000Z</time>
      </trkpt>
      <trkpt lat="47.86999" lon="-0.06453">
        <ele>40.799999237061</ele>
        <time>2024-08-21T11:06:49.000Z</time>
      </trkpt>
      <trkpt lat="47.86996" lon="-0.06464">
        <ele>39.799999237061</ele>
        <time>2024-08-21T11:06:50.000Z</time>
      </trkpt>
      <trkpt lat="47.86993" lon="-0.06474">
        <ele>39.599998474121</ele>
        <time>2024-08-21T11:06:51.000Z</time>
      </trkpt>
      <trkpt lat="47.86989" lon="-0.06484">
        <ele>39.200000762939</ele>
        <time>2024-08-21T11:06:52.000Z</time>
      </trkpt>
      <trkpt lat="47.86979" lon="-0.06499">
        <ele>39</ele>
        <time>2024-08-21T11:06:54.000Z</time>
      </trkpt>
      <trkpt lat="47.86952" lon="-0.06526">
        <ele>38.799999237061</ele>
        <time>2024-08-21T11:06:59.000Z</time>
      </trkpt>
      <trkpt lat="47.86923" lon="-0.06551">
        <ele>39</ele>
        <time>2024-08-21T11:07:04.000Z</time>
      </trkpt>
      <trkpt lat="47.86895" lon="-0.06579">
        <ele>39.400001525879</ele>
        <time>2024-08-21T11:07:09.000Z</time>
      </trkpt>
      <trkpt lat="47.86848" lon="-0.06625">
        <ele>39.400001525879</ele>
        <time>2024-08-21T11:07:17.000Z</time>
      </trkpt>
      <trkpt lat="47.86831" lon="-0.0664">
        <ele>39.400001525879</ele>
        <time>2024-08-21T11:07:20.000Z</time>
      </trkpt>
      <trkpt lat="47.86813" lon="-0.06652">
        <ele>39.400001525879</ele>
        <time>2024-08-21T11:07:23.000Z</time>
      </trkpt>
      <trkpt lat="47.86772" lon="-0.06668">
        <ele>39.200000762939</ele>
        <time>2024-08-21T11:07:30.000Z</time>
      </trkpt>
      <trkpt lat="47.86718" lon="-0.06682">
        <ele>39.400001525879</ele>
        <time>2024-08-21T11:07:39.000Z</time>
      </trkpt>
      <trkpt lat="47.86712" lon="-0.06683">
        <ele>39.400001525879</ele>
        <time>2024-08-21T11:07:40.000Z</time>
      </trkpt>
      <trkpt lat="47.86659" lon="-0.0669">
        <ele>40</ele>
        <time>2024-08-21T11:07:49.000Z</time>
      </trkpt>
      <trkpt lat="47.86624" lon="-0.06712">
        <ele>40</ele>
        <time>2024-08-21T11:07:56.000Z</time>
      </trkpt>
      <trkpt lat="47.86601" lon="-0.06729">
        <ele>40.599998474121</ele>
        <time>2024-08-21T11:08:01.000Z</time>
      </trkpt>
      <trkpt lat="47.86592" lon="-0.06735">
        <ele>40.799999237061</ele>
        <time>2024-08-21T11:08:03.000Z</time>
      </trkpt>
      <trkpt lat="47.86588" lon="-0.06739">
        <ele>41</ele>
        <time>2024-08-21T11:08:04.000Z</time>
      </trkpt>
      <trkpt lat="47.86567" lon="-0.06759">
        <ele>41.599998474121</ele>
        <time>2024-08-21T11:08:10.000Z</time>
      </trkpt>
      <trkpt lat="47.86565" lon="-0.06762">
        <ele>41.799999237061</ele>
        <time>2024-08-21T11:08:11.000Z</time>
      </trkpt>
      <trkpt lat="47.86554" lon="-0.06777">
        <ele>42.200000762939</ele>
        <time>2024-08-21T11:08:15.000Z</time>
      </trkpt>
      <trkpt lat="47.86554" lon="-0.06784">
        <ele>42.200000762939</ele>
        <time>2024-08-21T11:08:16.000Z</time>
      </trkpt>
      <trkpt lat="47.86559" lon="-0.06817">
        <ele>42.400001525879</ele>
        <time>2024-08-21T11:08:21.000Z</time>
      </trkpt>
      <trkpt lat="47.86568" lon="-0.06871">
        <ele>42</ele>
        <time>2024-08-21T11:08:28.000Z</time>
      </trkpt>
      <trkpt lat="47.8658" lon="-0.06948">
        <ele>41.400001525879</ele>
        <time>2024-08-21T11:08:37.000Z</time>
      </trkpt>
      <trkpt lat="47.86594" lon="-0.07029">
        <ele>41.200000762939</ele>
        <time>2024-08-21T11:08:46.000Z</time>
      </trkpt>
      <trkpt lat="47.86595" lon="-0.07038">
        <ele>41.200000762939</ele>
        <time>2024-08-21T11:08:47.000Z</time>
      </trkpt>
      <trkpt lat="47.86606" lon="-0.07103">
        <ele>40.599998474121</ele>
        <time>2024-08-21T11:08:54.000Z</time>
      </trkpt>
      <trkpt lat="47.86619" lon="-0.07185">
        <ele>40</ele>
        <time>2024-08-21T11:09:03.000Z</time>
      </trkpt>
      <trkpt lat="47.86634" lon="-0.07268">
        <ele>39.799999237061</ele>
        <time>2024-08-21T11:09:12.000Z</time>
      </trkpt>
      <trkpt lat="47.86648" lon="-0.07352">
        <ele>39.799999237061</ele>
        <time>2024-08-21T11:09:21.000Z</time>
      </trkpt>
      <trkpt lat="47.8665" lon="-0.07362">
        <ele>39.799999237061</ele>
        <time>2024-08-21T11:09:22.000Z</time>
      </trkpt>
      <trkpt lat="47.86662" lon="-0.07441">
        <ele>39.599998474121</ele>
        <time>2024-08-21T11:09:30.000Z</time>
      </trkpt>
      <trkpt lat="47.86665" lon="-0.0746">
        <ele>39.400001525879</ele>
        <time>2024-08-21T11:09:32.000Z</time>
      </trkpt>
      <trkpt lat="47.86679" lon="-0.07539">
        <ele>39.200000762939</ele>
        <time>2024-08-21T11:09:41.000Z</time>
      </trkpt>
      <trkpt lat="47.86681" lon="-0.07548">
        <ele>39.400001525879</ele>
        <time>2024-08-21T11:09:42.000Z</time>
      </trkpt>
      <trkpt lat="47.86694" lon="-0.07627">
        <ele>40.200000762939</ele>
        <time>2024-08-21T11:09:51.000Z</time>
      </trkpt>
      <trkpt lat="47.86696" lon="-0.07636">
        <ele>40.200000762939</ele>
        <time>2024-08-21T11:09:52.000Z</time>
      </trkpt>
      <trkpt lat="47.86708" lon="-0.07707">
        <ele>39.400001525879</ele>
        <time>2024-08-21T11:10:00.000Z</time>
      </trkpt>
      <trkpt lat="47.86721" lon="-0.07788">
        <ele>39</ele>
        <time>2024-08-21T11:10:09.000Z</time>
      </trkpt>
      <trkpt lat="47.86729" lon="-0.07833">
        <ele>38.599998474121</ele>
        <time>2024-08-21T11:10:14.000Z</time>
      </trkpt>
      <trkpt lat="47.86736" lon="-0.0787">
        <ele>38</ele>
        <time>2024-08-21T11:10:18.000Z</time>
      </trkpt>
      <trkpt lat="47.86747" lon="-0.07934">
        <ele>37.599998474121</ele>
        <time>2024-08-21T11:10:25.000Z</time>
      </trkpt>
      <trkpt lat="47.8675" lon="-0.07953">
        <ele>37.400001525879</ele>
        <time>2024-08-21T11:10:27.000Z</time>
      </trkpt>
      <trkpt lat="47.86756" lon="-0.07991">
        <ele>36.799999237061</ele>
        <time>2024-08-21T11:10:31.000Z</time>
      </trkpt>
      <trkpt lat="47.86757" lon="-0.0804">
        <ele>36.400001525879</ele>
        <time>2024-08-21T11:10:36.000Z</time>
      </trkpt>
      <trkpt lat="47.86746" lon="-0.08114">
        <ele>36</ele>
        <time>2024-08-21T11:10:44.000Z</time>
      </trkpt>
      <trkpt lat="47.86735" lon="-0.08183">
        <ele>36.599998474121</ele>
        <time>2024-08-21T11:10:52.000Z</time>
      </trkpt>
      <trkpt lat="47.86723" lon="-0.08265">
        <ele>36.799999237061</ele>
        <time>2024-08-21T11:11:02.000Z</time>
      </trkpt>
      <trkpt lat="47.86722" lon="-0.08273">
        <ele>36.799999237061</ele>
        <time>2024-08-21T11:11:03.000Z</time>
      </trkpt>
      <trkpt lat="47.86709" lon="-0.08351">
        <ele>37.400001525879</ele>
        <time>2024-08-21T11:11:13.000Z</time>
      </trkpt>
      <trkpt lat="47.86707" lon="-0.08367">
        <ele>37.400001525879</ele>
        <time>2024-08-21T11:11:15.000Z</time>
      </trkpt>
      <trkpt lat="47.86695" lon="-0.08444">
        <ele>37.400001525879</ele>
        <time>2024-08-21T11:11:25.000Z</time>
      </trkpt>
      <trkpt lat="47.86685" lon="-0.08514">
        <ele>37.799999237061</ele>
        <time>2024-08-21T11:11:34.000Z</time>
      </trkpt>
      <trkpt lat="47.86673" lon="-0.0859">
        <ele>38</ele>
        <time>2024-08-21T11:11:44.000Z</time>
      </trkpt>
      <trkpt lat="47.86664" lon="-0.0865">
        <ele>37.799999237061</ele>
        <time>2024-08-21T11:11:52.000Z</time>
      </trkpt>
      <trkpt lat="47.86663" lon="-0.08657">
        <ele>37.799999237061</ele>
        <time>2024-08-21T11:11:53.000Z</time>
      </trkpt>
      <trkpt lat="47.86664" lon="-0.08671">
        <ele>37.799999237061</ele>
        <time>2024-08-21T11:11:55.000Z</time>
      </trkpt>
      <trkpt lat="47.86666" lon="-0.08677">
        <ele>37.799999237061</ele>
        <time>2024-08-21T11:11:56.000Z</time>
      </trkpt>
      <trkpt lat="47.8667" lon="-0.08684">
        <ele>37.799999237061</ele>
        <time>2024-08-21T11:11:57.000Z</time>
      </trkpt>
      <trkpt lat="47.86686" lon="-0.08713">
        <ele>37.799999237061</ele>
        <time>2024-08-21T11:12:02.000Z</time>
      </trkpt>
      <trkpt lat="47.86706" lon="-0.08749">
        <ele>38.400001525879</ele>
        <time>2024-08-21T11:12:08.000Z</time>
      </trkpt>
      <trkpt lat="47.8672" lon="-0.08774">
        <ele>38.400001525879</ele>
        <time>2024-08-21T11:12:12.000Z</time>
      </trkpt>
      <trkpt lat="47.86741" lon="-0.08811">
        <ele>38.200000762939</ele>
        <time>2024-08-21T11:12:18.000Z</time>
      </trkpt>
      <trkpt lat="47.8677" lon="-0.0886">
        <ele>38.599998474121</ele>
        <time>2024-08-21T11:12:26.000Z</time>
      </trkpt>
      <trkpt lat="47.86807" lon="-0.08928">
        <ele>38.799999237061</ele>
        <time>2024-08-21T11:12:37.000Z</time>
      </trkpt>
      <trkpt lat="47.86819" lon="-0.08953">
        <ele>39.200000762939</ele>
        <time>2024-08-21T11:12:41.000Z</time>
      </trkpt>
      <trkpt lat="47.86823" lon="-0.08966">
        <ele>39.200000762939</ele>
        <time>2024-08-21T11:12:43.000Z</time>
      </trkpt>
      <trkpt lat="47.86825" lon="-0.08972">
        <ele>39.400001525879</ele>
        <time>2024-08-21T11:12:44.000Z</time>
      </trkpt>
      <trkpt lat="47.86831" lon="-0.09003">
        <ele>39.400001525879</ele>
        <time>2024-08-21T11:12:49.000Z</time>
      </trkpt>
      <trkpt lat="47.86834" lon="-0.09024">
        <ele>39.400001525879</ele>
        <time>2024-08-21T11:12:52.000Z</time>
      </trkpt>
      <trkpt lat="47.86838" lon="-0.09037">
        <ele>39.400001525879</ele>
        <time>2024-08-21T11:12:54.000Z</time>
      </trkpt>
      <trkpt lat="47.86839" lon="-0.09045">
        <ele>39.400001525879</ele>
        <time>2024-08-21T11:12:55.000Z</time>
      </trkpt>
      <trkpt lat="47.86843" lon="-0.09075">
        <ele>39.400001525879</ele>
        <time>2024-08-21T11:12:59.000Z</time>
      </trkpt>
      <trkpt lat="47.86847" lon="-0.09098">
        <ele>39.200000762939</ele>
        <time>2024-08-21T11:13:02.000Z</time>
      </trkpt>
      <trkpt lat="47.86857" lon="-0.09147">
        <ele>38.799999237061</ele>
        <time>2024-08-21T11:13:08.000Z</time>
      </trkpt>
      <trkpt lat="47.8687" lon="-0.09197">
        <ele>38.400001525879</ele>
        <time>2024-08-21T11:13:14.000Z</time>
      </trkpt>
      <trkpt lat="47.86871" lon="-0.09205">
        <ele>38.400001525879</ele>
        <time>2024-08-21T11:13:15.000Z</time>
      </trkpt>
      <trkpt lat="47.86874" lon="-0.09221">
        <ele>38</ele>
        <time>2024-08-21T11:13:17.000Z</time>
      </trkpt>
      <trkpt lat="47.86873" lon="-0.09228">
        <ele>37.799999237061</ele>
        <time>2024-08-21T11:13:18.000Z</time>
      </trkpt>
      <trkpt lat="47.8687" lon="-0.09234">
        <ele>37.599998474121</ele>
        <time>2024-08-21T11:13:19.000Z</time>
      </trkpt>
      <trkpt lat="47.86862" lon="-0.09243">
        <ele>37.400001525879</ele>
        <time>2024-08-21T11:13:21.000Z</time>
      </trkpt>
      <trkpt lat="47.8685" lon="-0.09252">
        <ele>37.200000762939</ele>
        <time>2024-08-21T11:13:24.000Z</time>
      </trkpt>
      <trkpt lat="47.86845" lon="-0.0926">
        <ele>37</ele>
        <time>2024-08-21T11:13:26.000Z</time>
      </trkpt>
      <trkpt lat="47.86845" lon="-0.09284">
        <ele>37</ele>
        <time>2024-08-21T11:13:30.000Z</time>
      </trkpt>
      <trkpt lat="47.86851" lon="-0.09333">
        <ele>36.200000762939</ele>
        <time>2024-08-21T11:13:36.000Z</time>
      </trkpt>
      <trkpt lat="47.86857" lon="-0.09385">
        <ele>35.599998474121</ele>
        <time>2024-08-21T11:13:42.000Z</time>
      </trkpt>
      <trkpt lat="47.8686" lon="-0.09427">
        <ele>35.599998474121</ele>
        <time>2024-08-21T11:13:47.000Z</time>
      </trkpt>
      <trkpt lat="47.86857" lon="-0.0944">
        <ele>35.599998474121</ele>
        <time>2024-08-21T11:13:49.000Z</time>
      </trkpt>
      <trkpt lat="47.8685" lon="-0.09444">
        <ele>35.599998474121</ele>
        <time>2024-08-21T11:13:51.000Z</time>
      </trkpt>
      <trkpt lat="47.86845" lon="-0.09444">
        <ele>35.599998474121</ele>
        <time>2024-08-21T11:13:52.000Z</time>
      </trkpt>
      <trkpt lat="47.86837" lon="-0.09442">
        <ele>35.400001525879</ele>
        <time>2024-08-21T11:13:54.000Z</time>
      </trkpt>
      <trkpt lat="47.86824" lon="-0.09445">
        <ele>35.400001525879</ele>
        <time>2024-08-21T11:13:57.000Z</time>
      </trkpt>
      <trkpt lat="47.86819" lon="-0.09447">
        <ele>35.200000762939</ele>
        <time>2024-08-21T11:13:58.000Z</time>
      </trkpt>
      <trkpt lat="47.86799" lon="-0.09455">
        <ele>34.599998474121</ele>
        <time>2024-08-21T11:14:02.000Z</time>
      </trkpt>
      <trkpt lat="47.86794" lon="-0.09458">
        <ele>34.200000762939</ele>
        <time>2024-08-21T11:14:03.000Z</time>
      </trkpt>
      <trkpt lat="47.86789" lon="-0.09461">
        <ele>34</ele>
        <time>2024-08-21T11:14:04.000Z</time>
      </trkpt>
      <trkpt lat="47.86765" lon="-0.09475">
        <ele>33.200000762939</ele>
        <time>2024-08-21T11:14:09.000Z</time>
      </trkpt>
      <trkpt lat="47.86755" lon="-0.09479">
        <ele>33</ele>
        <time>2024-08-21T11:14:11.000Z</time>
      </trkpt>
      <trkpt lat="47.86734" lon="-0.09486">
        <ele>32.799999237061</ele>
        <time>2024-08-21T11:14:15.000Z</time>
      </trkpt>
      <trkpt lat="47.86678" lon="-0.09497">
        <ele>33</ele>
        <time>2024-08-21T11:14:25.000Z</time>
      </trkpt>
      <trkpt lat="47.86633" lon="-0.09504">
        <ele>33</ele>
        <time>2024-08-21T11:14:33.000Z</time>
      </trkpt>
      <trkpt lat="47.86589" lon="-0.09523">
        <ele>32.799999237061</ele>
        <time>2024-08-21T11:14:41.000Z</time>
      </trkpt>
      <trkpt lat="47.86543" lon="-0.09546">
        <ele>32.599998474121</ele>
        <time>2024-08-21T11:14:50.000Z</time>
      </trkpt>
      <trkpt lat="47.86524" lon="-0.09554">
        <ele>32.599998474121</ele>
        <time>2024-08-21T11:14:54.000Z</time>
      </trkpt>
      <trkpt lat="47.86512" lon="-0.0956">
        <ele>32.799999237061</ele>
        <time>2024-08-21T11:14:57.000Z</time>
      </trkpt>
      <trkpt lat="47.86491" lon="-0.09566">
        <ele>33</ele>
        <time>2024-08-21T11:15:02.000Z</time>
      </trkpt>
      <trkpt lat="47.86487" lon="-0.09568">
        <ele>33</ele>
        <time>2024-08-21T11:15:03.000Z</time>
      </trkpt>
      <trkpt lat="47.8645" lon="-0.09578">
        <ele>32.799999237061</ele>
        <time>2024-08-21T11:15:11.000Z</time>
      </trkpt>
      <trkpt lat="47.8641" lon="-0.09589">
        <ele>32.400001525879</ele>
        <time>2024-08-21T11:15:19.000Z</time>
      </trkpt>
      <trkpt lat="47.86381" lon="-0.09597">
        <ele>33</ele>
        <time>2024-08-21T11:15:25.000Z</time>
      </trkpt>
      <trkpt lat="47.86372" lon="-0.09599">
        <ele>32.799999237061</ele>
        <time>2024-08-21T11:15:27.000Z</time>
      </trkpt>
      <trkpt lat="47.86345" lon="-0.09606">
        <ele>32.799999237061</ele>
        <time>2024-08-21T11:15:34.000Z</time>
      </trkpt>
      <trkpt lat="47.86313" lon="-0.09613">
        <ele>32.799999237061</ele>
        <time>2024-08-21T11:15:42.000Z</time>
      </trkpt>
      <trkpt lat="47.86275" lon="-0.09624">
        <ele>33</ele>
        <time>2024-08-21T11:15:50.000Z</time>
      </trkpt>
      <trkpt lat="47.8626" lon="-0.09627">
        <ele>33</ele>
        <time>2024-08-21T11:15:53.000Z</time>
      </trkpt>
      <trkpt lat="47.86241" lon="-0.09634">
        <ele>33</ele>
        <time>2024-08-21T11:15:57.000Z</time>
      </trkpt>
      <trkpt lat="47.86194" lon="-0.09646">
        <ele>32.599998474121</ele>
        <time>2024-08-21T11:16:06.000Z</time>
      </trkpt>
      <trkpt lat="47.86139" lon="-0.0966">
        <ele>32.799999237061</ele>
        <time>2024-08-21T11:16:16.000Z</time>
      </trkpt>
      <trkpt lat="47.86109" lon="-0.09669">
        <ele>32.799999237061</ele>
        <time>2024-08-21T11:16:22.000Z</time>
      </trkpt>
      <trkpt lat="47.86101" lon="-0.09671">
        <ele>33</ele>
        <time>2024-08-21T11:16:24.000Z</time>
      </trkpt>
      <trkpt lat="47.86088" lon="-0.09674">
        <ele>33.200000762939</ele>
        <time>2024-08-21T11:16:27.000Z</time>
      </trkpt>
      <trkpt lat="47.8608" lon="-0.09677">
        <ele>33.400001525879</ele>
        <time>2024-08-21T11:16:29.000Z</time>
      </trkpt>
      <trkpt lat="47.86061" lon="-0.09682">
        <ele>33.599998474121</ele>
        <time>2024-08-21T11:16:33.000Z</time>
      </trkpt>
      <trkpt lat="47.86033" lon="-0.09689">
        <ele>33.799999237061</ele>
        <time>2024-08-21T11:16:38.000Z</time>
      </trkpt>
      <trkpt lat="47.85994" lon="-0.09699">
        <ele>33.599998474121</ele>
        <time>2024-08-21T11:16:45.000Z</time>
      </trkpt>
      <trkpt lat="47.85965" lon="-0.09708">
        <ele>34</ele>
        <time>2024-08-21T11:16:50.000Z</time>
      </trkpt>
      <trkpt lat="47.85949" lon="-0.09711">
        <ele>34.400001525879</ele>
        <time>2024-08-21T11:16:53.000Z</time>
      </trkpt>
      <trkpt lat="47.85934" lon="-0.09715">
        <ele>35</ele>
        <time>2024-08-21T11:16:56.000Z</time>
      </trkpt>
      <trkpt lat="47.85907" lon="-0.0972">
        <ele>35.799999237061</ele>
        <time>2024-08-21T11:17:02.000Z</time>
      </trkpt>
      <trkpt lat="47.85894" lon="-0.09723">
        <ele>36</ele>
        <time>2024-08-21T11:17:05.000Z</time>
      </trkpt>
      <trkpt lat="47.85891" lon="-0.09726">
        <ele>36</ele>
        <time>2024-08-21T11:17:06.000Z</time>
      </trkpt>
      <trkpt lat="47.85888" lon="-0.09731">
        <ele>36.200000762939</ele>
        <time>2024-08-21T11:17:07.000Z</time>
      </trkpt>
      <trkpt lat="47.85882" lon="-0.09749">
        <ele>36.200000762939</ele>
        <time>2024-08-21T11:17:10.000Z</time>
      </trkpt>
      <trkpt lat="47.85877" lon="-0.09764">
        <ele>35.599998474121</ele>
        <time>2024-08-21T11:17:13.000Z</time>
      </trkpt>
      <trkpt lat="47.85871" lon="-0.09772">
        <ele>34.799999237061</ele>
        <time>2024-08-21T11:17:15.000Z</time>
      </trkpt>
      <trkpt lat="47.85863" lon="-0.09778">
        <ele>34</ele>
        <time>2024-08-21T11:17:17.000Z</time>
      </trkpt>
      <trkpt lat="47.85855" lon="-0.09783">
        <ele>33.599998474121</ele>
        <time>2024-08-21T11:17:19.000Z</time>
      </trkpt>
      <trkpt lat="47.85838" lon="-0.09793">
        <ele>33.200000762939</ele>
        <time>2024-08-21T11:17:24.000Z</time>
      </trkpt>
      <trkpt lat="47.85828" lon="-0.09804">
        <ele>33.200000762939</ele>
        <time>2024-08-21T11:17:28.000Z</time>
      </trkpt>
      <trkpt lat="47.85827" lon="-0.09808">
        <ele>33.200000762939</ele>
        <time>2024-08-21T11:17:29.000Z</time>
      </trkpt>
      <trkpt lat="47.85827" lon="-0.09814">
        <ele>33.400001525879</ele>
        <time>2024-08-21T11:17:33.000Z</time>
      </trkpt>
      <trkpt lat="47.85827" lon="-0.09818">
        <ele>33.400001525879</ele>
        <time>2024-08-21T11:17:36.000Z</time>
      </trkpt>
      <trkpt lat="47.85827" lon="-0.0982">
        <ele>33.599998474121</ele>
        <time>2024-08-21T11:17:38.000Z</time>
      </trkpt>
      <trkpt lat="47.85826" lon="-0.09821">
        <ele>33.599998474121</ele>
        <time>2024-08-21T11:17:39.000Z</time>
      </trkpt>
      <trkpt lat="47.85826" lon="-0.09821">
        <ele>33.599998474121</ele>
        <time>2024-08-21T11:17:41.000Z</time>
      </trkpt>
      <trkpt lat="47.85826" lon="-0.09815">
        <ele>33.400001525879</ele>
        <time>2024-08-21T11:19:35.000Z</time>
      </trkpt>
      <trkpt lat="47.85826" lon="-0.09811">
        <ele>33.400001525879</ele>
        <time>2024-08-21T11:19:37.000Z</time>
      </trkpt>
      <trkpt lat="47.8583" lon="-0.09797">
        <ele>33.400001525879</ele>
        <time>2024-08-21T11:19:45.000Z</time>
      </trkpt>
      <trkpt lat="47.85834" lon="-0.09792">
        <ele>33.200000762939</ele>
        <time>2024-08-21T11:19:53.000Z</time>
      </trkpt>
      <trkpt lat="47.85834" lon="-0.09792">
        <ele>33.200000762939</ele>
        <time>2024-08-21T11:19:54.000Z</time>
      </trkpt>
      <trkpt lat="47.85841" lon="-0.09788">
        <ele>33.799999237061</ele>
        <time>2024-08-21T11:20:38.000Z</time>
      </trkpt>
      <trkpt lat="47.85845" lon="-0.09785">
        <ele>33.599998474121</ele>
        <time>2024-08-21T11:20:40.000Z</time>
      </trkpt>
      <trkpt lat="47.85861" lon="-0.09775">
        <ele>33.599998474121</ele>
        <time>2024-08-21T11:20:45.000Z</time>
      </trkpt>
      <trkpt lat="47.85875" lon="-0.09763">
        <ele>33.400001525879</ele>
        <time>2024-08-21T11:20:50.000Z</time>
      </trkpt>
      <trkpt lat="47.85885" lon="-0.09741">
        <ele>33.799999237061</ele>
        <time>2024-08-21T11:20:56.000Z</time>
      </trkpt>
      <trkpt lat="47.85889" lon="-0.09731">
        <ele>34</ele>
        <time>2024-08-21T11:20:59.000Z</time>
      </trkpt>
      <trkpt lat="47.85888" lon="-0.09728">
        <ele>34.599998474121</ele>
        <time>2024-08-21T11:21:00.000Z</time>
      </trkpt>
      <trkpt lat="47.85886" lon="-0.09726">
        <ele>35</ele>
        <time>2024-08-21T11:21:01.000Z</time>
      </trkpt>
      <trkpt lat="47.85878" lon="-0.09725">
        <ele>35.799999237061</ele>
        <time>2024-08-21T11:21:04.000Z</time>
      </trkpt>
      <trkpt lat="47.85875" lon="-0.09726">
        <ele>36</ele>
        <time>2024-08-21T11:21:05.000Z</time>
      </trkpt>
      <trkpt lat="47.85856" lon="-0.09727">
        <ele>36.200000762939</ele>
        <time>2024-08-21T11:21:10.000Z</time>
      </trkpt>
      <trkpt lat="47.8582" lon="-0.09722">
        <ele>35.799999237061</ele>
        <time>2024-08-21T11:21:18.000Z</time>
      </trkpt>
      <trkpt lat="47.85775" lon="-0.09715">
        <ele>36</ele>
        <time>2024-08-21T11:21:28.000Z</time>
      </trkpt>
      <trkpt lat="47.85738" lon="-0.0971">
        <ele>37.200000762939</ele>
        <time>2024-08-21T11:21:37.000Z</time>
      </trkpt>
      <trkpt lat="47.85684" lon="-0.09702">
        <ele>37.599998474121</ele>
        <time>2024-08-21T11:21:49.000Z</time>
      </trkpt>
      <trkpt lat="47.85679" lon="-0.09702">
        <ele>37.599998474121</ele>
        <time>2024-08-21T11:21:50.000Z</time>
      </trkpt>
      <trkpt lat="47.85635" lon="-0.09696">
        <ele>37.799999237061</ele>
        <time>2024-08-21T11:21:58.000Z</time>
      </trkpt>
      <trkpt lat="47.856" lon="-0.09692">
        <ele>36.599998474121</ele>
        <time>2024-08-21T11:22:04.000Z</time>
      </trkpt>
      <trkpt lat="47.85588" lon="-0.0969">
        <ele>36.200000762939</ele>
        <time>2024-08-21T11:22:06.000Z</time>
      </trkpt>
      <trkpt lat="47.85531" lon="-0.09683">
        <ele>35.599998474121</ele>
        <time>2024-08-21T11:22:15.000Z</time>
      </trkpt>
      <trkpt lat="47.85493" lon="-0.09678">
        <ele>35.200000762939</ele>
        <time>2024-08-21T11:22:21.000Z</time>
      </trkpt>
      <trkpt lat="47.85468" lon="-0.09675">
        <ele>34.799999237061</ele>
        <time>2024-08-21T11:22:25.000Z</time>
      </trkpt>
      <trkpt lat="47.85411" lon="-0.09668">
        <ele>34.599998474121</ele>
        <time>2024-08-21T11:22:34.000Z</time>
      </trkpt>
      <trkpt lat="47.85405" lon="-0.09667">
        <ele>34.599998474121</ele>
        <time>2024-08-21T11:22:35.000Z</time>
      </trkpt>
      <trkpt lat="47.85367" lon="-0.09661">
        <ele>34.200000762939</ele>
        <time>2024-08-21T11:22:41.000Z</time>
      </trkpt>
      <trkpt lat="47.85361" lon="-0.09659">
        <ele>34</ele>
        <time>2024-08-21T11:22:42.000Z</time>
      </trkpt>
      <trkpt lat="47.85356" lon="-0.09655">
        <ele>33.799999237061</ele>
        <time>2024-08-21T11:22:43.000Z</time>
      </trkpt>
      <trkpt lat="47.85348" lon="-0.09644">
        <ele>33.599998474121</ele>
        <time>2024-08-21T11:22:45.000Z</time>
      </trkpt>
      <trkpt lat="47.85327" lon="-0.09606">
        <ele>33.599998474121</ele>
        <time>2024-08-21T11:22:51.000Z</time>
      </trkpt>
      <trkpt lat="47.8531" lon="-0.09573">
        <ele>33.799999237061</ele>
        <time>2024-08-21T11:22:57.000Z</time>
      </trkpt>
      <trkpt lat="47.85287" lon="-0.09531">
        <ele>35</ele>
        <time>2024-08-21T11:23:04.000Z</time>
      </trkpt>
      <trkpt lat="47.85283" lon="-0.09516">
        <ele>35.200000762939</ele>
        <time>2024-08-21T11:23:06.000Z</time>
      </trkpt>
      <trkpt lat="47.85281" lon="-0.09495">
        <ele>35.400001525879</ele>
        <time>2024-08-21T11:23:09.000Z</time>
      </trkpt>
      <trkpt lat="47.8528" lon="-0.0946">
        <ele>36</ele>
        <time>2024-08-21T11:23:14.000Z</time>
      </trkpt>
      <trkpt lat="47.8528" lon="-0.09432">
        <ele>36.599998474121</ele>
        <time>2024-08-21T11:23:18.000Z</time>
      </trkpt>
      <trkpt lat="47.85279" lon="-0.09398">
        <ele>37.200000762939</ele>
        <time>2024-08-21T11:23:23.000Z</time>
      </trkpt>
      <trkpt lat="47.85279" lon="-0.09363">
        <ele>38</ele>
        <time>2024-08-21T11:23:28.000Z</time>
      </trkpt>
      <trkpt lat="47.85279" lon="-0.09334">
        <ele>38.200000762939</ele>
        <time>2024-08-21T11:23:32.000Z</time>
      </trkpt>
      <trkpt lat="47.85278" lon="-0.09291">
        <ele>38.400001525879</ele>
        <time>2024-08-21T11:23:38.000Z</time>
      </trkpt>
      <trkpt lat="47.85275" lon="-0.09215">
        <ele>38.599998474121</ele>
        <time>2024-08-21T11:23:48.000Z</time>
      </trkpt>
      <trkpt lat="47.85268" lon="-0.0916">
        <ele>38</ele>
        <time>2024-08-21T11:23:55.000Z</time>
      </trkpt>
      <trkpt lat="47.85265" lon="-0.09153">
        <ele>37.799999237061</ele>
        <time>2024-08-21T11:23:56.000Z</time>
      </trkpt>
      <trkpt lat="47.8526" lon="-0.09148">
        <ele>37.799999237061</ele>
        <time>2024-08-21T11:23:57.000Z</time>
      </trkpt>
      <trkpt lat="47.8525" lon="-0.09141">
        <ele>37.799999237061</ele>
        <time>2024-08-21T11:23:59.000Z</time>
      </trkpt>
      <trkpt lat="47.8522" lon="-0.09136">
        <ele>38.200000762939</ele>
        <time>2024-08-21T11:24:05.000Z</time>
      </trkpt>
      <trkpt lat="47.85197" lon="-0.09131">
        <ele>39.200000762939</ele>
        <time>2024-08-21T11:24:11.000Z</time>
      </trkpt>
      <trkpt lat="47.85194" lon="-0.0913">
        <ele>39.599998474121</ele>
        <time>2024-08-21T11:24:12.000Z</time>
      </trkpt>
      <trkpt lat="47.85187" lon="-0.09128">
        <ele>40.200000762939</ele>
        <time>2024-08-21T11:24:14.000Z</time>
      </trkpt>
      <trkpt lat="47.85173" lon="-0.09125">
        <ele>41.599998474121</ele>
        <time>2024-08-21T11:24:19.000Z</time>
      </trkpt>
      <trkpt lat="47.8517" lon="-0.09125">
        <ele>42</ele>
        <time>2024-08-21T11:24:20.000Z</time>
      </trkpt>
      <trkpt lat="47.85164" lon="-0.09124">
        <ele>42.799999237061</ele>
        <time>2024-08-21T11:24:22.000Z</time>
      </trkpt>
      <trkpt lat="47.85153" lon="-0.09121">
        <ele>44</ele>
        <time>2024-08-21T11:24:26.000Z</time>
      </trkpt>
      <trkpt lat="47.85148" lon="-0.09121">
        <ele>44.200000762939</ele>
        <time>2024-08-21T11:24:28.000Z</time>
      </trkpt>
      <trkpt lat="47.85141" lon="-0.0912">
        <ele>45.200000762939</ele>
        <time>2024-08-21T11:24:31.000Z</time>
      </trkpt>
      <trkpt lat="47.85132" lon="-0.09118">
        <ele>46</ele>
        <time>2024-08-21T11:24:35.000Z</time>
      </trkpt>
      <trkpt lat="47.85127" lon="-0.09117">
        <ele>46.400001525879</ele>
        <time>2024-08-21T11:24:37.000Z</time>
      </trkpt>
      <trkpt lat="47.85118" lon="-0.09115">
        <ele>47.400001525879</ele>
        <time>2024-08-21T11:24:41.000Z</time>
      </trkpt>
      <trkpt lat="47.85112" lon="-0.09114">
        <ele>48</ele>
        <time>2024-08-21T11:24:44.000Z</time>
      </trkpt>
      <trkpt lat="47.85108" lon="-0.09113">
        <ele>48.599998474121</ele>
        <time>2024-08-21T11:24:46.000Z</time>
      </trkpt>
      <trkpt lat="47.85094" lon="-0.09109">
        <ele>49.799999237061</ele>
        <time>2024-08-21T11:24:53.000Z</time>
      </trkpt>
      <trkpt lat="47.85086" lon="-0.09107">
        <ele>50.799999237061</ele>
        <time>2024-08-21T11:24:57.000Z</time>
      </trkpt>
      <trkpt lat="47.8508" lon="-0.09107">
        <ele>51.400001525879</ele>
        <time>2024-08-21T11:25:00.000Z</time>
      </trkpt>
      <trkpt lat="47.85075" lon="-0.09105">
        <ele>51.799999237061</ele>
        <time>2024-08-21T11:25:03.000Z</time>
      </trkpt>
      <trkpt lat="47.85068" lon="-0.09104">
        <ele>52.599998474121</ele>
        <time>2024-08-21T11:25:07.000Z</time>
      </trkpt>
      <trkpt lat="47.85065" lon="-0.09104">
        <ele>53.200000762939</ele>
        <time>2024-08-21T11:25:09.000Z</time>
      </trkpt>
      <trkpt lat="47.85056" lon="-0.09102">
        <ele>53.599998474121</ele>
        <time>2024-08-21T11:25:14.000Z</time>
      </trkpt>
      <trkpt lat="47.85049" lon="-0.09102">
        <ele>54.400001525879</ele>
        <time>2024-08-21T11:25:17.000Z</time>
      </trkpt>
      <trkpt lat="47.85034" lon="-0.09098">
        <ele>54.799999237061</ele>
        <time>2024-08-21T11:25:23.000Z</time>
      </trkpt>
      <trkpt lat="47.85002" lon="-0.09091">
        <ele>55.200000762939</ele>
        <time>2024-08-21T11:25:33.000Z</time>
      </trkpt>
      <trkpt lat="47.84972" lon="-0.09087">
        <ele>55</ele>
        <time>2024-08-21T11:25:41.000Z</time>
      </trkpt>
      <trkpt lat="47.84946" lon="-0.09079">
        <ele>54.599998474121</ele>
        <time>2024-08-21T11:25:47.000Z</time>
      </trkpt>
      <trkpt lat="47.84919" lon="-0.09066">
        <ele>54.200000762939</ele>
        <time>2024-08-21T11:25:52.000Z</time>
      </trkpt>
      <trkpt lat="47.84907" lon="-0.09059">
        <ele>53.599998474121</ele>
        <time>2024-08-21T11:25:54.000Z</time>
      </trkpt>
      <trkpt lat="47.84901" lon="-0.09056">
        <ele>52.799999237061</ele>
        <time>2024-08-21T11:25:55.000Z</time>
      </trkpt>
      <trkpt lat="47.84885" lon="-0.09047">
        <ele>51.400001525879</ele>
        <time>2024-08-21T11:25:57.000Z</time>
      </trkpt>
      <trkpt lat="47.84876" lon="-0.09041">
        <ele>51.200000762939</ele>
        <time>2024-08-21T11:25:58.000Z</time>
      </trkpt>
      <trkpt lat="47.84855" lon="-0.0903">
        <ele>50</ele>
        <time>2024-08-21T11:26:00.000Z</time>
      </trkpt>
      <trkpt lat="47.84846" lon="-0.09028">
        <ele>49.400001525879</ele>
        <time>2024-08-21T11:26:01.000Z</time>
      </trkpt>
      <trkpt lat="47.84836" lon="-0.09026">
        <ele>48</ele>
        <time>2024-08-21T11:26:02.000Z</time>
      </trkpt>
      <trkpt lat="47.84815" lon="-0.09023">
        <ele>46.200000762939</ele>
        <time>2024-08-21T11:26:04.000Z</time>
      </trkpt>
      <trkpt lat="47.84795" lon="-0.09018">
        <ele>44.400001525879</ele>
        <time>2024-08-21T11:26:06.000Z</time>
      </trkpt>
      <trkpt lat="47.84785" lon="-0.09017">
        <ele>43.400001525879</ele>
        <time>2024-08-21T11:26:07.000Z</time>
      </trkpt>
      <trkpt lat="47.84753" lon="-0.09015">
        <ele>42.200000762939</ele>
        <time>2024-08-21T11:26:10.000Z</time>
      </trkpt>
      <trkpt lat="47.84743" lon="-0.09014">
        <ele>41.799999237061</ele>
        <time>2024-08-21T11:26:11.000Z</time>
      </trkpt>
      <trkpt lat="47.84733" lon="-0.09015">
        <ele>41.200000762939</ele>
        <time>2024-08-21T11:26:12.000Z</time>
      </trkpt>
      <trkpt lat="47.84713" lon="-0.09016">
        <ele>39.599998474121</ele>
        <time>2024-08-21T11:26:14.000Z</time>
      </trkpt>
      <trkpt lat="47.84687" lon="-0.09021">
        <ele>38.599998474121</ele>
        <time>2024-08-21T11:26:17.000Z</time>
      </trkpt>
      <trkpt lat="47.84678" lon="-0.09024">
        <ele>38.400001525879</ele>
        <time>2024-08-21T11:26:18.000Z</time>
      </trkpt>
      <trkpt lat="47.84654" lon="-0.09036">
        <ele>38</ele>
        <time>2024-08-21T11:26:21.000Z</time>
      </trkpt>
      <trkpt lat="47.84612" lon="-0.09063">
        <ele>37.799999237061</ele>
        <time>2024-08-21T11:26:27.000Z</time>
      </trkpt>
      <trkpt lat="47.84582" lon="-0.09073">
        <ele>38.799999237061</ele>
        <time>2024-08-21T11:26:32.000Z</time>
      </trkpt>
      <trkpt lat="47.84576" lon="-0.09073">
        <ele>39.599998474121</ele>
        <time>2024-08-21T11:26:33.000Z</time>
      </trkpt>
      <trkpt lat="47.84571" lon="-0.09073">
        <ele>39.799999237061</ele>
        <time>2024-08-21T11:26:34.000Z</time>
      </trkpt>
      <trkpt lat="47.84561" lon="-0.09069">
        <ele>40.599998474121</ele>
        <time>2024-08-21T11:26:36.000Z</time>
      </trkpt>
      <trkpt lat="47.84556" lon="-0.09067">
        <ele>41</ele>
        <time>2024-08-21T11:26:37.000Z</time>
      </trkpt>
      <trkpt lat="47.84548" lon="-0.09061">
        <ele>41.799999237061</ele>
        <time>2024-08-21T11:26:39.000Z</time>
      </trkpt>
      <trkpt lat="47.84532" lon="-0.09045">
        <ele>42.599998474121</ele>
        <time>2024-08-21T11:26:43.000Z</time>
      </trkpt>
      <trkpt lat="47.84529" lon="-0.09041">
        <ele>43</ele>
        <time>2024-08-21T11:26:44.000Z</time>
      </trkpt>
      <trkpt lat="47.84525" lon="-0.09038">
        <ele>43.200000762939</ele>
        <time>2024-08-21T11:26:45.000Z</time>
      </trkpt>
      <trkpt lat="47.84501" lon="-0.09019">
        <ele>44</ele>
        <time>2024-08-21T11:26:51.000Z</time>
      </trkpt>
      <trkpt lat="47.84454" lon="-0.08993">
        <ele>44.799999237061</ele>
        <time>2024-08-21T11:27:01.000Z</time>
      </trkpt>
      <trkpt lat="47.84399" lon="-0.08968">
        <ele>44.799999237061</ele>
        <time>2024-08-21T11:27:12.000Z</time>
      </trkpt>
      <trkpt lat="47.84378" lon="-0.0896">
        <ele>45.200000762939</ele>
        <time>2024-08-21T11:27:16.000Z</time>
      </trkpt>
      <trkpt lat="47.84347" lon="-0.08948">
        <ele>45.799999237061</ele>
        <time>2024-08-21T11:27:22.000Z</time>
      </trkpt>
      <trkpt lat="47.84312" lon="-0.0893">
        <ele>46.200000762939</ele>
        <time>2024-08-21T11:27:29.000Z</time>
      </trkpt>
      <trkpt lat="47.84302" lon="-0.08924">
        <ele>46.200000762939</ele>
        <time>2024-08-21T11:27:31.000Z</time>
      </trkpt>
      <trkpt lat="47.84283" lon="-0.08912">
        <ele>46.200000762939</ele>
        <time>2024-08-21T11:27:35.000Z</time>
      </trkpt>
      <trkpt lat="47.84231" lon="-0.08879">
        <ele>46.200000762939</ele>
        <time>2024-08-21T11:27:46.000Z</time>
      </trkpt>
      <trkpt lat="47.84206" lon="-0.08865">
        <ele>46.400001525879</ele>
        <time>2024-08-21T11:27:51.000Z</time>
      </trkpt>
      <trkpt lat="47.8419" lon="-0.08855">
        <ele>46.200000762939</ele>
        <time>2024-08-21T11:27:54.000Z</time>
      </trkpt>
      <trkpt lat="47.84163" lon="-0.08831">
        <ele>45</ele>
        <time>2024-08-21T11:27:59.000Z</time>
      </trkpt>
      <trkpt lat="47.84132" lon="-0.08801">
        <ele>44</ele>
        <time>2024-08-21T11:28:05.000Z</time>
      </trkpt>
      <trkpt lat="47.84128" lon="-0.08797">
        <ele>44</ele>
        <time>2024-08-21T11:28:06.000Z</time>
      </trkpt>
      <trkpt lat="47.84087" lon="-0.08751">
        <ele>44</ele>
        <time>2024-08-21T11:28:15.000Z</time>
      </trkpt>
      <trkpt lat="47.84053" lon="-0.08717">
        <ele>44</ele>
        <time>2024-08-21T11:28:22.000Z</time>
      </trkpt>
      <trkpt lat="47.84017" lon="-0.08693">
        <ele>44.200000762939</ele>
        <time>2024-08-21T11:28:29.000Z</time>
      </trkpt>
      <trkpt lat="47.83971" lon="-0.08652">
        <ele>44.200000762939</ele>
        <time>2024-08-21T11:28:38.000Z</time>
      </trkpt>
      <trkpt lat="47.83927" lon="-0.0861">
        <ele>43.799999237061</ele>
        <time>2024-08-21T11:28:46.000Z</time>
      </trkpt>
      <trkpt lat="47.83921" lon="-0.08605">
        <ele>43.599998474121</ele>
        <time>2024-08-21T11:28:47.000Z</time>
      </trkpt>
      <trkpt lat="47.83895" lon="-0.08576">
        <ele>43</ele>
        <time>2024-08-21T11:28:52.000Z</time>
      </trkpt>
      <trkpt lat="47.83871" lon="-0.08546">
        <ele>42.799999237061</ele>
        <time>2024-08-21T11:28:57.000Z</time>
      </trkpt>
      <trkpt lat="47.83838" lon="-0.08502">
        <ele>42.799999237061</ele>
        <time>2024-08-21T11:29:04.000Z</time>
      </trkpt>
      <trkpt lat="47.83801" lon="-0.08458">
        <ele>42.599998474121</ele>
        <time>2024-08-21T11:29:12.000Z</time>
      </trkpt>
      <trkpt lat="47.83775" lon="-0.08428">
        <ele>43.200000762939</ele>
        <time>2024-08-21T11:29:18.000Z</time>
      </trkpt>
      <trkpt lat="47.83767" lon="-0.08419">
        <ele>43.400001525879</ele>
        <time>2024-08-21T11:29:20.000Z</time>
      </trkpt>
      <trkpt lat="47.83756" lon="-0.08409">
        <ele>43.599998474121</ele>
        <time>2024-08-21T11:29:23.000Z</time>
      </trkpt>
      <trkpt lat="47.83746" lon="-0.08398">
        <ele>43.799999237061</ele>
        <time>2024-08-21T11:29:25.000Z</time>
      </trkpt>
      <trkpt lat="47.83741" lon="-0.08392">
        <ele>44</ele>
        <time>2024-08-21T11:29:26.000Z</time>
      </trkpt>
      <trkpt lat="47.83737" lon="-0.08386">
        <ele>44.200000762939</ele>
        <time>2024-08-21T11:29:27.000Z</time>
      </trkpt>
      <trkpt lat="47.83721" lon="-0.08368">
        <ele>44.400001525879</ele>
        <time>2024-08-21T11:29:31.000Z</time>
      </trkpt>
      <trkpt lat="47.83716" lon="-0.08364">
        <ele>44.599998474121</ele>
        <time>2024-08-21T11:29:32.000Z</time>
      </trkpt>
      <trkpt lat="47.83705" lon="-0.08357">
        <ele>44.799999237061</ele>
        <time>2024-08-21T11:29:34.000Z</time>
      </trkpt>
      <trkpt lat="47.8369" lon="-0.0835">
        <ele>44.799999237061</ele>
        <time>2024-08-21T11:29:37.000Z</time>
      </trkpt>
      <trkpt lat="47.83685" lon="-0.08348">
        <ele>45</ele>
        <time>2024-08-21T11:29:38.000Z</time>
      </trkpt>
      <trkpt lat="47.83649" lon="-0.08335">
        <ele>44.400001525879</ele>
        <time>2024-08-21T11:29:43.000Z</time>
      </trkpt>
      <trkpt lat="47.83634" lon="-0.08328">
        <ele>43.400001525879</ele>
        <time>2024-08-21T11:29:45.000Z</time>
      </trkpt>
      <trkpt lat="47.83608" lon="-0.08314">
        <ele>42.599998474121</ele>
        <time>2024-08-21T11:29:48.000Z</time>
      </trkpt>
      <trkpt lat="47.83599" lon="-0.0831">
        <ele>42.200000762939</ele>
        <time>2024-08-21T11:29:49.000Z</time>
      </trkpt>
      <trkpt lat="47.83583" lon="-0.083">
        <ele>40.799999237061</ele>
        <time>2024-08-21T11:29:51.000Z</time>
      </trkpt>
      <trkpt lat="47.83569" lon="-0.0829">
        <ele>39.400001525879</ele>
        <time>2024-08-21T11:29:53.000Z</time>
      </trkpt>
      <trkpt lat="47.8356" lon="-0.08283">
        <ele>39.200000762939</ele>
        <time>2024-08-21T11:29:54.000Z</time>
      </trkpt>
      <trkpt lat="47.83534" lon="-0.0826">
        <ele>37.799999237061</ele>
        <time>2024-08-21T11:29:57.000Z</time>
      </trkpt>
      <trkpt lat="47.83511" lon="-0.08236">
        <ele>37</ele>
        <time>2024-08-21T11:30:00.000Z</time>
      </trkpt>
      <trkpt lat="47.83498" lon="-0.08221">
        <ele>36.599998474121</ele>
        <time>2024-08-21T11:30:02.000Z</time>
      </trkpt>
      <trkpt lat="47.83486" lon="-0.08208">
        <ele>36.599998474121</ele>
        <time>2024-08-21T11:30:04.000Z</time>
      </trkpt>
      <trkpt lat="47.83471" lon="-0.08197">
        <ele>36.599998474121</ele>
        <time>2024-08-21T11:30:06.000Z</time>
      </trkpt>
      <trkpt lat="47.83458" lon="-0.08188">
        <ele>36.400001525879</ele>
        <time>2024-08-21T11:30:08.000Z</time>
      </trkpt>
      <trkpt lat="47.83452" lon="-0.08186">
        <ele>36.400001525879</ele>
        <time>2024-08-21T11:30:09.000Z</time>
      </trkpt>
      <trkpt lat="47.83433" lon="-0.08182">
        <ele>37.400001525879</ele>
        <time>2024-08-21T11:30:12.000Z</time>
      </trkpt>
      <trkpt lat="47.83428" lon="-0.08181">
        <ele>37.799999237061</ele>
        <time>2024-08-21T11:30:13.000Z</time>
      </trkpt>
      <trkpt lat="47.83409" lon="-0.08177">
        <ele>38.799999237061</ele>
        <time>2024-08-21T11:30:17.000Z</time>
      </trkpt>
      <trkpt lat="47.83392" lon="-0.08173">
        <ele>40</ele>
        <time>2024-08-21T11:30:21.000Z</time>
      </trkpt>
      <trkpt lat="47.83379" lon="-0.0817">
        <ele>40.599998474121</ele>
        <time>2024-08-21T11:30:24.000Z</time>
      </trkpt>
      <trkpt lat="47.83368" lon="-0.08167">
        <ele>41</ele>
        <time>2024-08-21T11:30:27.000Z</time>
      </trkpt>
      <trkpt lat="47.8335" lon="-0.0816">
        <ele>42</ele>
        <time>2024-08-21T11:30:32.000Z</time>
      </trkpt>
      <trkpt lat="47.83346" lon="-0.08159">
        <ele>42.200000762939</ele>
        <time>2024-08-21T11:30:33.000Z</time>
      </trkpt>
      <trkpt lat="47.83343" lon="-0.08158">
        <ele>42.200000762939</ele>
        <time>2024-08-21T11:30:34.000Z</time>
      </trkpt>
      <trkpt lat="47.83335" lon="-0.08155">
        <ele>42.599998474121</ele>
        <time>2024-08-21T11:30:37.000Z</time>
      </trkpt>
      <trkpt lat="47.83325" lon="-0.08152">
        <ele>43.400001525879</ele>
        <time>2024-08-21T11:30:41.000Z</time>
      </trkpt>
      <trkpt lat="47.83322" lon="-0.0815">
        <ele>43.400001525879</ele>
        <time>2024-08-21T11:30:42.000Z</time>
      </trkpt>
      <trkpt lat="47.83311" lon="-0.08147">
        <ele>44.200000762939</ele>
        <time>2024-08-21T11:30:45.000Z</time>
      </trkpt>
      <trkpt lat="47.83298" lon="-0.08145">
        <ele>45</ele>
        <time>2024-08-21T11:30:49.000Z</time>
      </trkpt>
      <trkpt lat="47.83295" lon="-0.08144">
        <ele>45.200000762939</ele>
        <time>2024-08-21T11:30:50.000Z</time>
      </trkpt>
      <trkpt lat="47.83275" lon="-0.08141">
        <ele>46</ele>
        <time>2024-08-21T11:30:56.000Z</time>
      </trkpt>
      <trkpt lat="47.83272" lon="-0.08141">
        <ele>46.400001525879</ele>
        <time>2024-08-21T11:30:57.000Z</time>
      </trkpt>
      <trkpt lat="47.83256" lon="-0.0814">
        <ele>47.200000762939</ele>
        <time>2024-08-21T11:31:02.000Z</time>
      </trkpt>
      <trkpt lat="47.83252" lon="-0.08139">
        <ele>47.400001525879</ele>
        <time>2024-08-21T11:31:03.000Z</time>
      </trkpt>
      <trkpt lat="47.83246" lon="-0.08138">
        <ele>48</ele>
        <time>2024-08-21T11:31:05.000Z</time>
      </trkpt>
      <trkpt lat="47.83237" lon="-0.08136">
        <ele>48.400001525879</ele>
        <time>2024-08-21T11:31:08.000Z</time>
      </trkpt>
      <trkpt lat="47.83231" lon="-0.08136">
        <ele>48.799999237061</ele>
        <time>2024-08-21T11:31:11.000Z</time>
      </trkpt>
      <trkpt lat="47.83223" lon="-0.08133">
        <ele>49.400001525879</ele>
        <time>2024-08-21T11:31:14.000Z</time>
      </trkpt>
      <trkpt lat="47.83216" lon="-0.08129">
        <ele>49.799999237061</ele>
        <time>2024-08-21T11:31:17.000Z</time>
      </trkpt>
      <trkpt lat="47.83206" lon="-0.08122">
        <ele>50.400001525879</ele>
        <time>2024-08-21T11:31:21.000Z</time>
      </trkpt>
      <trkpt lat="47.83201" lon="-0.08118">
        <ele>50.799999237061</ele>
        <time>2024-08-21T11:31:23.000Z</time>
      </trkpt>
      <trkpt lat="47.83186" lon="-0.08106">
        <ele>51.400001525879</ele>
        <time>2024-08-21T11:31:29.000Z</time>
      </trkpt>
      <trkpt lat="47.8318" lon="-0.08104">
        <ele>51.799999237061</ele>
        <time>2024-08-21T11:31:31.000Z</time>
      </trkpt>
      <trkpt lat="47.83168" lon="-0.08096">
        <ele>52.599998474121</ele>
        <time>2024-08-21T11:31:36.000Z</time>
      </trkpt>
      <trkpt lat="47.83161" lon="-0.08092">
        <ele>53</ele>
        <time>2024-08-21T11:31:39.000Z</time>
      </trkpt>
      <trkpt lat="47.83159" lon="-0.08091">
        <ele>53.200000762939</ele>
        <time>2024-08-21T11:31:40.000Z</time>
      </trkpt>
      <trkpt lat="47.83152" lon="-0.08089">
        <ele>53.599998474121</ele>
        <time>2024-08-21T11:31:43.000Z</time>
      </trkpt>
      <trkpt lat="47.83144" lon="-0.08085">
        <ele>54.400001525879</ele>
        <time>2024-08-21T11:31:47.000Z</time>
      </trkpt>
      <trkpt lat="47.83139" lon="-0.08082">
        <ele>54.799999237061</ele>
        <time>2024-08-21T11:31:49.000Z</time>
      </trkpt>
      <trkpt lat="47.83127" lon="-0.08078">
        <ele>56</ele>
        <time>2024-08-21T11:31:54.000Z</time>
      </trkpt>
      <trkpt lat="47.83112" lon="-0.08073">
        <ele>56.799999237061</ele>
        <time>2024-08-21T11:32:01.000Z</time>
      </trkpt>
      <trkpt lat="47.8311" lon="-0.08073">
        <ele>57</ele>
        <time>2024-08-21T11:32:02.000Z</time>
      </trkpt>
      <trkpt lat="47.83098" lon="-0.08071">
        <ele>57.799999237061</ele>
        <time>2024-08-21T11:32:07.000Z</time>
      </trkpt>
      <trkpt lat="47.83096" lon="-0.0807">
        <ele>58.200000762939</ele>
        <time>2024-08-21T11:32:08.000Z</time>
      </trkpt>
      <trkpt lat="47.83083" lon="-0.08069">
        <ele>59</ele>
        <time>2024-08-21T11:32:14.000Z</time>
      </trkpt>
      <trkpt lat="47.83079" lon="-0.08069">
        <ele>59.400001525879</ele>
        <time>2024-08-21T11:32:16.000Z</time>
      </trkpt>
      <trkpt lat="47.83071" lon="-0.08071">
        <ele>60</ele>
        <time>2024-08-21T11:32:20.000Z</time>
      </trkpt>
      <trkpt lat="47.83069" lon="-0.08072">
        <ele>60.400001525879</ele>
        <time>2024-08-21T11:32:21.000Z</time>
      </trkpt>
      <trkpt lat="47.83055" lon="-0.08075">
        <ele>61.400001525879</ele>
        <time>2024-08-21T11:32:27.000Z</time>
      </trkpt>
      <trkpt lat="47.83053" lon="-0.08076">
        <ele>61.599998474121</ele>
        <time>2024-08-21T11:32:28.000Z</time>
      </trkpt>
      <trkpt lat="47.83044" lon="-0.0808">
        <ele>62.200000762939</ele>
        <time>2024-08-21T11:32:32.000Z</time>
      </trkpt>
      <trkpt lat="47.83043" lon="-0.08082">
        <ele>62.400001525879</ele>
        <time>2024-08-21T11:32:33.000Z</time>
      </trkpt>
      <trkpt lat="47.83041" lon="-0.08084">
        <ele>62.599998474121</ele>
        <time>2024-08-21T11:32:34.000Z</time>
      </trkpt>
      <trkpt lat="47.83031" lon="-0.0809">
        <ele>63.400001525879</ele>
        <time>2024-08-21T11:32:40.000Z</time>
      </trkpt>
      <trkpt lat="47.83027" lon="-0.08092">
        <ele>63.599998474121</ele>
        <time>2024-08-21T11:32:42.000Z</time>
      </trkpt>
      <trkpt lat="47.83025" lon="-0.08093">
        <ele>63.799999237061</ele>
        <time>2024-08-21T11:32:43.000Z</time>
      </trkpt>
      <trkpt lat="47.83015" lon="-0.08096">
        <ele>64.599998474121</ele>
        <time>2024-08-21T11:32:48.000Z</time>
      </trkpt>
      <trkpt lat="47.83011" lon="-0.08098">
        <ele>64.800003051758</ele>
        <time>2024-08-21T11:32:50.000Z</time>
      </trkpt>
      <trkpt lat="47.82996" lon="-0.08109">
        <ele>65.400001525879</ele>
        <time>2024-08-21T11:32:57.000Z</time>
      </trkpt>
      <trkpt lat="47.82991" lon="-0.08113">
        <ele>65.599998474121</ele>
        <time>2024-08-21T11:32:59.000Z</time>
      </trkpt>
      <trkpt lat="47.82973" lon="-0.08124">
        <ele>66</ele>
        <time>2024-08-21T11:33:06.000Z</time>
      </trkpt>
      <trkpt lat="47.82956" lon="-0.08134">
        <ele>66.599998474121</ele>
        <time>2024-08-21T11:33:12.000Z</time>
      </trkpt>
      <trkpt lat="47.82936" lon="-0.08141">
        <ele>66.800003051758</ele>
        <time>2024-08-21T11:33:18.000Z</time>
      </trkpt>
      <trkpt lat="47.82908" lon="-0.08147">
        <ele>67.199996948242</ele>
        <time>2024-08-21T11:33:25.000Z</time>
      </trkpt>
      <trkpt lat="47.8288" lon="-0.08148">
        <ele>67.400001525879</ele>
        <time>2024-08-21T11:33:32.000Z</time>
      </trkpt>
      <trkpt lat="47.82854" lon="-0.08139">
        <ele>67</ele>
        <time>2024-08-21T11:33:37.000Z</time>
      </trkpt>
      <trkpt lat="47.82831" lon="-0.08124">
        <ele>67.199996948242</ele>
        <time>2024-08-21T11:33:42.000Z</time>
      </trkpt>
      <trkpt lat="47.82822" lon="-0.08119">
        <ele>67.400001525879</ele>
        <time>2024-08-21T11:33:44.000Z</time>
      </trkpt>
      <trkpt lat="47.82795" lon="-0.081">
        <ele>67.599998474121</ele>
        <time>2024-08-21T11:33:49.000Z</time>
      </trkpt>
      <trkpt lat="47.82777" lon="-0.08091">
        <ele>67.800003051758</ele>
        <time>2024-08-21T11:33:53.000Z</time>
      </trkpt>
      <trkpt lat="47.82756" lon="-0.08078">
        <ele>67.400001525879</ele>
        <time>2024-08-21T11:33:57.000Z</time>
      </trkpt>
      <trkpt lat="47.82721" lon="-0.08058">
        <ele>67</ele>
        <time>2024-08-21T11:34:04.000Z</time>
      </trkpt>
      <trkpt lat="47.82707" lon="-0.08048">
        <ele>66.400001525879</ele>
        <time>2024-08-21T11:34:07.000Z</time>
      </trkpt>
      <trkpt lat="47.827" lon="-0.08044">
        <ele>66.199996948242</ele>
        <time>2024-08-21T11:34:08.000Z</time>
      </trkpt>
      <trkpt lat="47.82675" lon="-0.08029">
        <ele>65.599998474121</ele>
        <time>2024-08-21T11:34:12.000Z</time>
      </trkpt>
      <trkpt lat="47.82656" lon="-0.08019">
        <ele>64.800003051758</ele>
        <time>2024-08-21T11:34:15.000Z</time>
      </trkpt>
      <trkpt lat="47.82625" lon="-0.08005">
        <ele>64</ele>
        <time>2024-08-21T11:34:20.000Z</time>
      </trkpt>
      <trkpt lat="47.82613" lon="-0.08">
        <ele>63.799999237061</ele>
        <time>2024-08-21T11:34:22.000Z</time>
      </trkpt>
      <trkpt lat="47.82568" lon="-0.07988">
        <ele>63.799999237061</ele>
        <time>2024-08-21T11:34:29.000Z</time>
      </trkpt>
      <trkpt lat="47.8252" lon="-0.07986">
        <ele>64.599998474121</ele>
        <time>2024-08-21T11:34:37.000Z</time>
      </trkpt>
      <trkpt lat="47.82497" lon="-0.0798">
        <ele>64.800003051758</ele>
        <time>2024-08-21T11:34:41.000Z</time>
      </trkpt>
      <trkpt lat="47.82487" lon="-0.07974">
        <ele>65.199996948242</ele>
        <time>2024-08-21T11:34:43.000Z</time>
      </trkpt>
      <trkpt lat="47.82477" lon="-0.07965">
        <ele>65.199996948242</ele>
        <time>2024-08-21T11:34:45.000Z</time>
      </trkpt>
      <trkpt lat="47.82468" lon="-0.07953">
        <ele>65.199996948242</ele>
        <time>2024-08-21T11:34:47.000Z</time>
      </trkpt>
      <trkpt lat="47.82459" lon="-0.07929">
        <ele>65.400001525879</ele>
        <time>2024-08-21T11:34:50.000Z</time>
      </trkpt>
      <trkpt lat="47.82455" lon="-0.07912">
        <ele>65.199996948242</ele>
        <time>2024-08-21T11:34:52.000Z</time>
      </trkpt>
      <trkpt lat="47.82449" lon="-0.07849">
        <ele>65</ele>
        <time>2024-08-21T11:34:59.000Z</time>
      </trkpt>
      <trkpt lat="47.82446" lon="-0.07821">
        <ele>64.599998474121</ele>
        <time>2024-08-21T11:35:02.000Z</time>
      </trkpt>
      <trkpt lat="47.82441" lon="-0.07803">
        <ele>64.400001525879</ele>
        <time>2024-08-21T11:35:04.000Z</time>
      </trkpt>
      <trkpt lat="47.82438" lon="-0.07794">
        <ele>64</ele>
        <time>2024-08-21T11:35:05.000Z</time>
      </trkpt>
      <trkpt lat="47.82434" lon="-0.07785">
        <ele>63.599998474121</ele>
        <time>2024-08-21T11:35:06.000Z</time>
      </trkpt>
      <trkpt lat="47.82425" lon="-0.07767">
        <ele>63.200000762939</ele>
        <time>2024-08-21T11:35:08.000Z</time>
      </trkpt>
      <trkpt lat="47.82416" lon="-0.07749">
        <ele>62.599998474121</ele>
        <time>2024-08-21T11:35:10.000Z</time>
      </trkpt>
      <trkpt lat="47.82403" lon="-0.07722">
        <ele>61.599998474121</ele>
        <time>2024-08-21T11:35:13.000Z</time>
      </trkpt>
      <trkpt lat="47.82396" lon="-0.07709">
        <ele>61.200000762939</ele>
        <time>2024-08-21T11:35:15.000Z</time>
      </trkpt>
      <trkpt lat="47.82385" lon="-0.07705">
        <ele>60.599998474121</ele>
        <time>2024-08-21T11:35:18.000Z</time>
      </trkpt>
      <trkpt lat="47.82378" lon="-0.07713">
        <ele>60.400001525879</ele>
        <time>2024-08-21T11:35:20.000Z</time>
      </trkpt>
      <trkpt lat="47.82368" lon="-0.07724">
        <ele>60.400001525879</ele>
        <time>2024-08-21T11:35:22.000Z</time>
      </trkpt>
      <trkpt lat="47.82338" lon="-0.07752">
        <ele>58.799999237061</ele>
        <time>2024-08-21T11:35:27.000Z</time>
      </trkpt>
      <trkpt lat="47.82331" lon="-0.07757">
        <ele>58.599998474121</ele>
        <time>2024-08-21T11:35:28.000Z</time>
      </trkpt>
      <trkpt lat="47.82315" lon="-0.07766">
        <ele>57.799999237061</ele>
        <time>2024-08-21T11:35:30.000Z</time>
      </trkpt>
      <trkpt lat="47.82299" lon="-0.07776">
        <ele>56.599998474121</ele>
        <time>2024-08-21T11:35:32.000Z</time>
      </trkpt>
      <trkpt lat="47.82283" lon="-0.07786">
        <ele>55.799999237061</ele>
        <time>2024-08-21T11:35:34.000Z</time>
      </trkpt>
      <trkpt lat="47.82276" lon="-0.0779">
        <ele>55.400001525879</ele>
        <time>2024-08-21T11:35:35.000Z</time>
      </trkpt>
      <trkpt lat="47.82249" lon="-0.07805">
        <ele>54</ele>
        <time>2024-08-21T11:35:38.000Z</time>
      </trkpt>
      <trkpt lat="47.82229" lon="-0.07816">
        <ele>53</ele>
        <time>2024-08-21T11:35:40.000Z</time>
      </trkpt>
      <trkpt lat="47.8222" lon="-0.07821">
        <ele>52.200000762939</ele>
        <time>2024-08-21T11:35:41.000Z</time>
      </trkpt>
      <trkpt lat="47.82211" lon="-0.07827">
        <ele>52</ele>
        <time>2024-08-21T11:35:42.000Z</time>
      </trkpt>
      <trkpt lat="47.82193" lon="-0.07838">
        <ele>50.599998474121</ele>
        <time>2024-08-21T11:35:44.000Z</time>
      </trkpt>
      <trkpt lat="47.82165" lon="-0.07854">
        <ele>49.400001525879</ele>
        <time>2024-08-21T11:35:47.000Z</time>
      </trkpt>
      <trkpt lat="47.82146" lon="-0.07865">
        <ele>48.200000762939</ele>
        <time>2024-08-21T11:35:49.000Z</time>
      </trkpt>
      <trkpt lat="47.82117" lon="-0.07882">
        <ele>47</ele>
        <time>2024-08-21T11:35:52.000Z</time>
      </trkpt>
      <trkpt lat="47.82089" lon="-0.07902">
        <ele>45.799999237061</ele>
        <time>2024-08-21T11:35:55.000Z</time>
      </trkpt>
      <trkpt lat="47.82082" lon="-0.07908">
        <ele>44.799999237061</ele>
        <time>2024-08-21T11:35:56.000Z</time>
      </trkpt>
      <trkpt lat="47.82072" lon="-0.07918">
        <ele>44.400001525879</ele>
        <time>2024-08-21T11:35:57.000Z</time>
      </trkpt>
      <trkpt lat="47.82049" lon="-0.07945">
        <ele>43.200000762939</ele>
        <time>2024-08-21T11:36:00.000Z</time>
      </trkpt>
      <trkpt lat="47.82039" lon="-0.07957">
        <ele>42.799999237061</ele>
        <time>2024-08-21T11:36:01.000Z</time>
      </trkpt>
      <trkpt lat="47.82024" lon="-0.07979">
        <ele>41.799999237061</ele>
        <time>2024-08-21T11:36:03.000Z</time>
      </trkpt>
      <trkpt lat="47.82011" lon="-0.08003">
        <ele>40.599998474121</ele>
        <time>2024-08-21T11:36:05.000Z</time>
      </trkpt>
      <trkpt lat="47.82005" lon="-0.08015">
        <ele>40.400001525879</ele>
        <time>2024-08-21T11:36:06.000Z</time>
      </trkpt>
      <trkpt lat="47.81995" lon="-0.08037">
        <ele>39.599998474121</ele>
        <time>2024-08-21T11:36:08.000Z</time>
      </trkpt>
      <trkpt lat="47.81987" lon="-0.08055">
        <ele>39</ele>
        <time>2024-08-21T11:36:10.000Z</time>
      </trkpt>
      <trkpt lat="47.81977" lon="-0.08077">
        <ele>38.599998474121</ele>
        <time>2024-08-21T11:36:14.000Z</time>
      </trkpt>
      <trkpt lat="47.8196" lon="-0.08115">
        <ele>39</ele>
        <time>2024-08-21T11:36:22.000Z</time>
      </trkpt>
      <trkpt lat="47.81936" lon="-0.08166">
        <ele>39.200000762939</ele>
        <time>2024-08-21T11:36:31.000Z</time>
      </trkpt>
      <trkpt lat="47.81912" lon="-0.08205">
        <ele>39.200000762939</ele>
        <time>2024-08-21T11:36:38.000Z</time>
      </trkpt>
      <trkpt lat="47.81882" lon="-0.08243">
        <ele>39.400001525879</ele>
        <time>2024-08-21T11:36:45.000Z</time>
      </trkpt>
      <trkpt lat="47.81848" lon="-0.08276">
        <ele>39.599998474121</ele>
        <time>2024-08-21T11:36:52.000Z</time>
      </trkpt>
      <trkpt lat="47.81821" lon="-0.08302">
        <ele>40.200000762939</ele>
        <time>2024-08-21T11:36:58.000Z</time>
      </trkpt>
      <trkpt lat="47.81785" lon="-0.08335">
        <ele>40.400001525879</ele>
        <time>2024-08-21T11:37:06.000Z</time>
      </trkpt>
      <trkpt lat="47.81772" lon="-0.08347">
        <ele>40.599998474121</ele>
        <time>2024-08-21T11:37:09.000Z</time>
      </trkpt>
      <trkpt lat="47.81738" lon="-0.0838">
        <ele>41.599998474121</ele>
        <time>2024-08-21T11:37:17.000Z</time>
      </trkpt>
      <trkpt lat="47.81721" lon="-0.08395">
        <ele>42</ele>
        <time>2024-08-21T11:37:21.000Z</time>
      </trkpt>
      <trkpt lat="47.81712" lon="-0.08404">
        <ele>42.200000762939</ele>
        <time>2024-08-21T11:37:23.000Z</time>
      </trkpt>
      <trkpt lat="47.817" lon="-0.08418">
        <ele>42.400001525879</ele>
        <time>2024-08-21T11:37:26.000Z</time>
      </trkpt>
      <trkpt lat="47.81688" lon="-0.08432">
        <ele>42.599998474121</ele>
        <time>2024-08-21T11:37:29.000Z</time>
      </trkpt>
      <trkpt lat="47.81651" lon="-0.08474">
        <ele>43.599998474121</ele>
        <time>2024-08-21T11:37:38.000Z</time>
      </trkpt>
      <trkpt lat="47.81644" lon="-0.08482">
        <ele>43.799999237061</ele>
        <time>2024-08-21T11:37:40.000Z</time>
      </trkpt>
      <trkpt lat="47.81619" lon="-0.08502">
        <ele>45</ele>
        <time>2024-08-21T11:37:46.000Z</time>
      </trkpt>
      <trkpt lat="47.81613" lon="-0.08505">
        <ele>45</ele>
        <time>2024-08-21T11:37:47.000Z</time>
      </trkpt>
      <trkpt lat="47.81573" lon="-0.08526">
        <ele>45.400001525879</ele>
        <time>2024-08-21T11:37:56.000Z</time>
      </trkpt>
      <trkpt lat="47.81537" lon="-0.08537">
        <ele>44.400001525879</ele>
        <time>2024-08-21T11:38:02.000Z</time>
      </trkpt>
      <trkpt lat="47.81523" lon="-0.08541">
        <ele>43.799999237061</ele>
        <time>2024-08-21T11:38:04.000Z</time>
      </trkpt>
      <trkpt lat="47.81506" lon="-0.08546">
        <ele>42.599998474121</ele>
        <time>2024-08-21T11:38:07.000Z</time>
      </trkpt>
      <trkpt lat="47.81493" lon="-0.0855">
        <ele>42.400001525879</ele>
        <time>2024-08-21T11:38:09.000Z</time>
      </trkpt>
      <trkpt lat="47.81474" lon="-0.08556">
        <ele>41.599998474121</ele>
        <time>2024-08-21T11:38:12.000Z</time>
      </trkpt>
      <trkpt lat="47.81439" lon="-0.08569">
        <ele>40.200000762939</ele>
        <time>2024-08-21T11:38:17.000Z</time>
      </trkpt>
      <trkpt lat="47.81421" lon="-0.08576">
        <ele>39.200000762939</ele>
        <time>2024-08-21T11:38:20.000Z</time>
      </trkpt>
      <trkpt lat="47.81404" lon="-0.0858">
        <ele>38.400001525879</ele>
        <time>2024-08-21T11:38:23.000Z</time>
      </trkpt>
      <trkpt lat="47.81399" lon="-0.08582">
        <ele>38</ele>
        <time>2024-08-21T11:38:24.000Z</time>
      </trkpt>
      <trkpt lat="47.81386" lon="-0.08588">
        <ele>37.599998474121</ele>
        <time>2024-08-21T11:38:27.000Z</time>
      </trkpt>
      <trkpt lat="47.81382" lon="-0.08591">
        <ele>37.400001525879</ele>
        <time>2024-08-21T11:38:28.000Z</time>
      </trkpt>
      <trkpt lat="47.81359" lon="-0.08603">
        <ele>37</ele>
        <time>2024-08-21T11:38:32.000Z</time>
      </trkpt>
      <trkpt lat="47.81353" lon="-0.08606">
        <ele>36.599998474121</ele>
        <time>2024-08-21T11:38:33.000Z</time>
      </trkpt>
      <trkpt lat="47.81342" lon="-0.0861">
        <ele>35.599998474121</ele>
        <time>2024-08-21T11:38:35.000Z</time>
      </trkpt>
      <trkpt lat="47.81333" lon="-0.08609">
        <ele>34.799999237061</ele>
        <time>2024-08-21T11:38:37.000Z</time>
      </trkpt>
      <trkpt lat="47.8133" lon="-0.08606">
        <ele>34.599998474121</ele>
        <time>2024-08-21T11:38:38.000Z</time>
      </trkpt>
      <trkpt lat="47.81312" lon="-0.08584">
        <ele>33.400001525879</ele>
        <time>2024-08-21T11:38:43.000Z</time>
      </trkpt>
      <trkpt lat="47.81292" lon="-0.08561">
        <ele>33.200000762939</ele>
        <time>2024-08-21T11:38:48.000Z</time>
      </trkpt>
      <trkpt lat="47.81271" lon="-0.08534">
        <ele>32.799999237061</ele>
        <time>2024-08-21T11:38:53.000Z</time>
      </trkpt>
      <trkpt lat="47.81257" lon="-0.08514">
        <ele>32.400001525879</ele>
        <time>2024-08-21T11:38:56.000Z</time>
      </trkpt>
      <trkpt lat="47.81235" lon="-0.08481">
        <ele>32</ele>
        <time>2024-08-21T11:39:01.000Z</time>
      </trkpt>
      <trkpt lat="47.81216" lon="-0.08458">
        <ele>31.799999237061</ele>
        <time>2024-08-21T11:39:05.000Z</time>
      </trkpt>
      <trkpt lat="47.81206" lon="-0.08449">
        <ele>31.799999237061</ele>
        <time>2024-08-21T11:39:07.000Z</time>
      </trkpt>
      <trkpt lat="47.81185" lon="-0.08433">
        <ele>31.60000038147</ele>
        <time>2024-08-21T11:39:11.000Z</time>
      </trkpt>
      <trkpt lat="47.81175" lon="-0.08429">
        <ele>31.60000038147</ele>
        <time>2024-08-21T11:39:13.000Z</time>
      </trkpt>
      <trkpt lat="47.81133" lon="-0.08417">
        <ele>31.60000038147</ele>
        <time>2024-08-21T11:39:21.000Z</time>
      </trkpt>
      <trkpt lat="47.81105" lon="-0.08413">
        <ele>31.60000038147</ele>
        <time>2024-08-21T11:39:26.000Z</time>
      </trkpt>
      <trkpt lat="47.81098" lon="-0.08415">
        <ele>31.60000038147</ele>
        <time>2024-08-21T11:39:27.000Z</time>
      </trkpt>
      <trkpt lat="47.81092" lon="-0.08417">
        <ele>31.799999237061</ele>
        <time>2024-08-21T11:39:28.000Z</time>
      </trkpt>
      <trkpt lat="47.81078" lon="-0.0843">
        <ele>32</ele>
        <time>2024-08-21T11:39:31.000Z</time>
      </trkpt>
      <trkpt lat="47.81074" lon="-0.08435">
        <ele>32.200000762939</ele>
        <time>2024-08-21T11:39:32.000Z</time>
      </trkpt>
      <trkpt lat="47.81064" lon="-0.08454">
        <ele>32.400001525879</ele>
        <time>2024-08-21T11:39:35.000Z</time>
      </trkpt>
      <trkpt lat="47.81046" lon="-0.08488">
        <ele>32.799999237061</ele>
        <time>2024-08-21T11:39:41.000Z</time>
      </trkpt>
      <trkpt lat="47.8102" lon="-0.08532">
        <ele>33</ele>
        <time>2024-08-21T11:39:48.000Z</time>
      </trkpt>
      <trkpt lat="47.81015" lon="-0.08538">
        <ele>33</ele>
        <time>2024-08-21T11:39:49.000Z</time>
      </trkpt>
      <trkpt lat="47.81001" lon="-0.08554">
        <ele>33</ele>
        <time>2024-08-21T11:39:52.000Z</time>
      </trkpt>
      <trkpt lat="47.80984" lon="-0.08567">
        <ele>33</ele>
        <time>2024-08-21T11:39:55.000Z</time>
      </trkpt>
      <trkpt lat="47.80944" lon="-0.08584">
        <ele>32.799999237061</ele>
        <time>2024-08-21T11:40:02.000Z</time>
      </trkpt>
      <trkpt lat="47.80897" lon="-0.08602">
        <ele>33.200000762939</ele>
        <time>2024-08-21T11:40:10.000Z</time>
      </trkpt>
      <trkpt lat="47.80892" lon="-0.08605">
        <ele>33.400001525879</ele>
        <time>2024-08-21T11:40:11.000Z</time>
      </trkpt>
      <trkpt lat="47.80845" lon="-0.08623">
        <ele>34</ele>
        <time>2024-08-21T11:40:19.000Z</time>
      </trkpt>
      <trkpt lat="47.80818" lon="-0.08633">
        <ele>34.400001525879</ele>
        <time>2024-08-21T11:40:24.000Z</time>
      </trkpt>
      <trkpt lat="47.80791" lon="-0.08642">
        <ele>34.799999237061</ele>
        <time>2024-08-21T11:40:29.000Z</time>
      </trkpt>
      <trkpt lat="47.80745" lon="-0.08644">
        <ele>35</ele>
        <time>2024-08-21T11:40:37.000Z</time>
      </trkpt>
      <trkpt lat="47.80689" lon="-0.08633">
        <ele>35.200000762939</ele>
        <time>2024-08-21T11:40:47.000Z</time>
      </trkpt>
      <trkpt lat="47.80658" lon="-0.08627">
        <ele>35.599998474121</ele>
        <time>2024-08-21T11:40:52.000Z</time>
      </trkpt>
      <trkpt lat="47.80621" lon="-0.08619">
        <ele>35.599998474121</ele>
        <time>2024-08-21T11:40:58.000Z</time>
      </trkpt>
      <trkpt lat="47.80567" lon="-0.08606">
        <ele>35.799999237061</ele>
        <time>2024-08-21T11:41:07.000Z</time>
      </trkpt>
      <trkpt lat="47.80511" lon="-0.08594">
        <ele>35.200000762939</ele>
        <time>2024-08-21T11:41:16.000Z</time>
      </trkpt>
      <trkpt lat="47.80505" lon="-0.08593">
        <ele>35.200000762939</ele>
        <time>2024-08-21T11:41:17.000Z</time>
      </trkpt>
      <trkpt lat="47.80475" lon="-0.08584">
        <ele>35.200000762939</ele>
        <time>2024-08-21T11:41:22.000Z</time>
      </trkpt>
      <trkpt lat="47.80464" lon="-0.08575">
        <ele>35.400001525879</ele>
        <time>2024-08-21T11:41:24.000Z</time>
      </trkpt>
      <trkpt lat="47.80457" lon="-0.0856">
        <ele>35.400001525879</ele>
        <time>2024-08-21T11:41:26.000Z</time>
      </trkpt>
      <trkpt lat="47.80455" lon="-0.08552">
        <ele>35.400001525879</ele>
        <time>2024-08-21T11:41:27.000Z</time>
      </trkpt>
      <trkpt lat="47.80449" lon="-0.08535">
        <ele>35.400001525879</ele>
        <time>2024-08-21T11:41:29.000Z</time>
      </trkpt>
      <trkpt lat="47.80439" lon="-0.08524">
        <ele>35.400001525879</ele>
        <time>2024-08-21T11:41:31.000Z</time>
      </trkpt>
      <trkpt lat="47.80427" lon="-0.08523">
        <ele>35.200000762939</ele>
        <time>2024-08-21T11:41:33.000Z</time>
      </trkpt>
      <trkpt lat="47.80421" lon="-0.08524">
        <ele>35</ele>
        <time>2024-08-21T11:41:34.000Z</time>
      </trkpt>
      <trkpt lat="47.80366" lon="-0.08547">
        <ele>34.799999237061</ele>
        <time>2024-08-21T11:41:43.000Z</time>
      </trkpt>
      <trkpt lat="47.8036" lon="-0.08549">
        <ele>34.799999237061</ele>
        <time>2024-08-21T11:41:44.000Z</time>
      </trkpt>
      <trkpt lat="47.80354" lon="-0.0855">
        <ele>34.799999237061</ele>
        <time>2024-08-21T11:41:45.000Z</time>
      </trkpt>
      <trkpt lat="47.80342" lon="-0.08549">
        <ele>35</ele>
        <time>2024-08-21T11:41:47.000Z</time>
      </trkpt>
      <trkpt lat="47.80336" lon="-0.08547">
        <ele>35</ele>
        <time>2024-08-21T11:41:48.000Z</time>
      </trkpt>
      <trkpt lat="47.803" lon="-0.08531">
        <ele>34.400001525879</ele>
        <time>2024-08-21T11:41:54.000Z</time>
      </trkpt>
      <trkpt lat="47.80287" lon="-0.08525">
        <ele>34.200000762939</ele>
        <time>2024-08-21T11:41:56.000Z</time>
      </trkpt>
      <trkpt lat="47.80232" lon="-0.08508">
        <ele>34.599998474121</ele>
        <time>2024-08-21T11:42:05.000Z</time>
      </trkpt>
      <trkpt lat="47.80214" lon="-0.08503">
        <ele>35</ele>
        <time>2024-08-21T11:42:08.000Z</time>
      </trkpt>
      <trkpt lat="47.8018" lon="-0.08493">
        <ele>35.599998474121</ele>
        <time>2024-08-21T11:42:14.000Z</time>
      </trkpt>
      <trkpt lat="47.80162" lon="-0.08488">
        <ele>36</ele>
        <time>2024-08-21T11:42:17.000Z</time>
      </trkpt>
      <trkpt lat="47.80105" lon="-0.08473">
        <ele>36.400001525879</ele>
        <time>2024-08-21T11:42:27.000Z</time>
      </trkpt>
      <trkpt lat="47.80094" lon="-0.0847">
        <ele>36.599998474121</ele>
        <time>2024-08-21T11:42:29.000Z</time>
      </trkpt>
      <trkpt lat="47.80089" lon="-0.08468">
        <ele>36.599998474121</ele>
        <time>2024-08-21T11:42:30.000Z</time>
      </trkpt>
      <trkpt lat="47.80034" lon="-0.08451">
        <ele>37.599998474121</ele>
        <time>2024-08-21T11:42:40.000Z</time>
      </trkpt>
      <trkpt lat="47.80028" lon="-0.0845">
        <ele>37.799999237061</ele>
        <time>2024-08-21T11:42:41.000Z</time>
      </trkpt>
      <trkpt lat="47.79996" lon="-0.08444">
        <ele>38.400001525879</ele>
        <time>2024-08-21T11:42:47.000Z</time>
      </trkpt>
      <trkpt lat="47.79957" lon="-0.08449">
        <ele>39</ele>
        <time>2024-08-21T11:42:54.000Z</time>
      </trkpt>
      <trkpt lat="47.79943" lon="-0.08456">
        <ele>39</ele>
        <time>2024-08-21T11:42:57.000Z</time>
      </trkpt>
      <trkpt lat="47.79924" lon="-0.08468">
        <ele>39.400001525879</ele>
        <time>2024-08-21T11:43:01.000Z</time>
      </trkpt>
      <trkpt lat="47.799" lon="-0.08489">
        <ele>40</ele>
        <time>2024-08-21T11:43:07.000Z</time>
      </trkpt>
      <trkpt lat="47.79892" lon="-0.08496">
        <ele>40.200000762939</ele>
        <time>2024-08-21T11:43:09.000Z</time>
      </trkpt>
      <trkpt lat="47.79865" lon="-0.08522">
        <ele>41.200000762939</ele>
        <time>2024-08-21T11:43:16.000Z</time>
      </trkpt>
      <trkpt lat="47.79861" lon="-0.08525">
        <ele>41.599998474121</ele>
        <time>2024-08-21T11:43:17.000Z</time>
      </trkpt>
      <trkpt lat="47.79838" lon="-0.08547">
        <ele>42.400001525879</ele>
        <time>2024-08-21T11:43:24.000Z</time>
      </trkpt>
      <trkpt lat="47.79832" lon="-0.08553">
        <ele>42.799999237061</ele>
        <time>2024-08-21T11:43:26.000Z</time>
      </trkpt>
      <trkpt lat="47.79811" lon="-0.08567">
        <ele>43.599998474121</ele>
        <time>2024-08-21T11:43:32.000Z</time>
      </trkpt>
      <trkpt lat="47.798" lon="-0.08574">
        <ele>43.799999237061</ele>
        <time>2024-08-21T11:43:35.000Z</time>
      </trkpt>
      <trkpt lat="47.79762" lon="-0.08591">
        <ele>43.799999237061</ele>
        <time>2024-08-21T11:43:44.000Z</time>
      </trkpt>
      <trkpt lat="47.79722" lon="-0.08607">
        <ele>43.200000762939</ele>
        <time>2024-08-21T11:43:53.000Z</time>
      </trkpt>
      <trkpt lat="47.79681" lon="-0.0862">
        <ele>42.799999237061</ele>
        <time>2024-08-21T11:44:01.000Z</time>
      </trkpt>
      <trkpt lat="47.7967" lon="-0.08619">
        <ele>42.799999237061</ele>
        <time>2024-08-21T11:44:03.000Z</time>
      </trkpt>
      <trkpt lat="47.79661" lon="-0.08612">
        <ele>42.799999237061</ele>
        <time>2024-08-21T11:44:05.000Z</time>
      </trkpt>
      <trkpt lat="47.79626" lon="-0.08588">
        <ele>43.400001525879</ele>
        <time>2024-08-21T11:44:13.000Z</time>
      </trkpt>
      <trkpt lat="47.79598" lon="-0.08574">
        <ele>44.200000762939</ele>
        <time>2024-08-21T11:44:20.000Z</time>
      </trkpt>
      <trkpt lat="47.79566" lon="-0.08562">
        <ele>44.599998474121</ele>
        <time>2024-08-21T11:44:27.000Z</time>
      </trkpt>
      <trkpt lat="47.79561" lon="-0.0856">
        <ele>44.799999237061</ele>
        <time>2024-08-21T11:44:28.000Z</time>
      </trkpt>
      <trkpt lat="47.79517" lon="-0.08544">
        <ele>45</ele>
        <time>2024-08-21T11:44:37.000Z</time>
      </trkpt>
      <trkpt lat="47.7947" lon="-0.08528">
        <ele>44.400001525879</ele>
        <time>2024-08-21T11:44:45.000Z</time>
      </trkpt>
      <trkpt lat="47.79414" lon="-0.08509">
        <ele>43.799999237061</ele>
        <time>2024-08-21T11:44:54.000Z</time>
      </trkpt>
      <trkpt lat="47.79409" lon="-0.08507">
        <ele>43.599998474121</ele>
        <time>2024-08-21T11:44:55.000Z</time>
      </trkpt>
      <trkpt lat="47.79391" lon="-0.08501">
        <ele>43.400001525879</ele>
        <time>2024-08-21T11:44:58.000Z</time>
      </trkpt>
      <trkpt lat="47.79344" lon="-0.08486">
        <ele>43.200000762939</ele>
        <time>2024-08-21T11:45:07.000Z</time>
      </trkpt>
      <trkpt lat="47.79292" lon="-0.08468">
        <ele>43</ele>
        <time>2024-08-21T11:45:16.000Z</time>
      </trkpt>
      <trkpt lat="47.7925" lon="-0.08454">
        <ele>42.599998474121</ele>
        <time>2024-08-21T11:45:23.000Z</time>
      </trkpt>
      <trkpt lat="47.79238" lon="-0.0845">
        <ele>42.599998474121</ele>
        <time>2024-08-21T11:45:25.000Z</time>
      </trkpt>
      <trkpt lat="47.79185" lon="-0.08427">
        <ele>42.400001525879</ele>
        <time>2024-08-21T11:45:34.000Z</time>
      </trkpt>
      <trkpt lat="47.79179" lon="-0.08424">
        <ele>42.400001525879</ele>
        <time>2024-08-21T11:45:35.000Z</time>
      </trkpt>
      <trkpt lat="47.79127" lon="-0.08399">
        <ele>42.599998474121</ele>
        <time>2024-08-21T11:45:44.000Z</time>
      </trkpt>
      <trkpt lat="47.79074" lon="-0.08373">
        <ele>42.799999237061</ele>
        <time>2024-08-21T11:45:53.000Z</time>
      </trkpt>
      <trkpt lat="47.79033" lon="-0.08354">
        <ele>42.599998474121</ele>
        <time>2024-08-21T11:46:00.000Z</time>
      </trkpt>
      <trkpt lat="47.78979" lon="-0.08328">
        <ele>42.200000762939</ele>
        <time>2024-08-21T11:46:09.000Z</time>
      </trkpt>
      <trkpt lat="47.78967" lon="-0.08322">
        <ele>42</ele>
        <time>2024-08-21T11:46:11.000Z</time>
      </trkpt>
      <trkpt lat="47.78913" lon="-0.08287">
        <ele>42</ele>
        <time>2024-08-21T11:46:20.000Z</time>
      </trkpt>
      <trkpt lat="47.78872" lon="-0.08241">
        <ele>41.799999237061</ele>
        <time>2024-08-21T11:46:28.000Z</time>
      </trkpt>
      <trkpt lat="47.78828" lon="-0.08182">
        <ele>42</ele>
        <time>2024-08-21T11:46:38.000Z</time>
      </trkpt>
      <trkpt lat="47.78791" lon="-0.08148">
        <ele>43</ele>
        <time>2024-08-21T11:46:46.000Z</time>
      </trkpt>
      <trkpt lat="47.78748" lon="-0.08128">
        <ele>43.200000762939</ele>
        <time>2024-08-21T11:46:54.000Z</time>
      </trkpt>
      <trkpt lat="47.78695" lon="-0.08113">
        <ele>43</ele>
        <time>2024-08-21T11:47:03.000Z</time>
      </trkpt>
      <trkpt lat="47.78689" lon="-0.08111">
        <ele>43</ele>
        <time>2024-08-21T11:47:04.000Z</time>
      </trkpt>
      <trkpt lat="47.78683" lon="-0.08109">
        <ele>43</ele>
        <time>2024-08-21T11:47:05.000Z</time>
      </trkpt>
      <trkpt lat="47.78653" lon="-0.081">
        <ele>42.799999237061</ele>
        <time>2024-08-21T11:47:10.000Z</time>
      </trkpt>
      <trkpt lat="47.78596" lon="-0.08083">
        <ele>42.799999237061</ele>
        <time>2024-08-21T11:47:19.000Z</time>
      </trkpt>
      <trkpt lat="47.78584" lon="-0.0808">
        <ele>42.799999237061</ele>
        <time>2024-08-21T11:47:21.000Z</time>
      </trkpt>
      <trkpt lat="47.7855" lon="-0.08069">
        <ele>42.599998474121</ele>
        <time>2024-08-21T11:47:27.000Z</time>
      </trkpt>
      <trkpt lat="47.78501" lon="-0.08054">
        <ele>43</ele>
        <time>2024-08-21T11:47:35.000Z</time>
      </trkpt>
      <trkpt lat="47.7849" lon="-0.0805">
        <ele>43</ele>
        <time>2024-08-21T11:47:37.000Z</time>
      </trkpt>
      <trkpt lat="47.78474" lon="-0.08046">
        <ele>43.200000762939</ele>
        <time>2024-08-21T11:47:40.000Z</time>
      </trkpt>
      <trkpt lat="47.78437" lon="-0.08035">
        <ele>43.799999237061</ele>
        <time>2024-08-21T11:47:47.000Z</time>
      </trkpt>
      <trkpt lat="47.78407" lon="-0.08025">
        <ele>43.799999237061</ele>
        <time>2024-08-21T11:47:52.000Z</time>
      </trkpt>
      <trkpt lat="47.78358" lon="-0.08013">
        <ele>44.200000762939</ele>
        <time>2024-08-21T11:48:01.000Z</time>
      </trkpt>
      <trkpt lat="47.78326" lon="-0.08006">
        <ele>44.799999237061</ele>
        <time>2024-08-21T11:48:07.000Z</time>
      </trkpt>
      <trkpt lat="47.78311" lon="-0.08005">
        <ele>45</ele>
        <time>2024-08-21T11:48:10.000Z</time>
      </trkpt>
      <trkpt lat="47.78269" lon="-0.08">
        <ele>45.599998474121</ele>
        <time>2024-08-21T11:48:18.000Z</time>
      </trkpt>
      <trkpt lat="47.78232" lon="-0.07995">
        <ele>45.799999237061</ele>
        <time>2024-08-21T11:48:25.000Z</time>
      </trkpt>
      <trkpt lat="47.78227" lon="-0.07995">
        <ele>46</ele>
        <time>2024-08-21T11:48:26.000Z</time>
      </trkpt>
      <trkpt lat="47.78175" lon="-0.07989">
        <ele>46.400001525879</ele>
        <time>2024-08-21T11:48:36.000Z</time>
      </trkpt>
      <trkpt lat="47.78153" lon="-0.07988">
        <ele>46.599998474121</ele>
        <time>2024-08-21T11:48:41.000Z</time>
      </trkpt>
      <trkpt lat="47.78133" lon="-0.07985">
        <ele>47</ele>
        <time>2024-08-21T11:48:45.000Z</time>
      </trkpt>
      <trkpt lat="47.78127" lon="-0.07984">
        <ele>47</ele>
        <time>2024-08-21T11:48:46.000Z</time>
      </trkpt>
      <trkpt lat="47.78119" lon="-0.07982">
        <ele>47.200000762939</ele>
        <time>2024-08-21T11:48:48.000Z</time>
      </trkpt>
      <trkpt lat="47.78105" lon="-0.0798">
        <ele>47.400001525879</ele>
        <time>2024-08-21T11:48:51.000Z</time>
      </trkpt>
      <trkpt lat="47.78099" lon="-0.07978">
        <ele>47.599998474121</ele>
        <time>2024-08-21T11:48:52.000Z</time>
      </trkpt>
      <trkpt lat="47.78084" lon="-0.07972">
        <ele>48</ele>
        <time>2024-08-21T11:48:55.000Z</time>
      </trkpt>
      <trkpt lat="47.78075" lon="-0.07968">
        <ele>48.200000762939</ele>
        <time>2024-08-21T11:48:57.000Z</time>
      </trkpt>
      <trkpt lat="47.78062" lon="-0.0796">
        <ele>48.599998474121</ele>
        <time>2024-08-21T11:49:00.000Z</time>
      </trkpt>
      <trkpt lat="47.78055" lon="-0.07955">
        <ele>49</ele>
        <time>2024-08-21T11:49:02.000Z</time>
      </trkpt>
      <trkpt lat="47.78048" lon="-0.07949">
        <ele>49.400001525879</ele>
        <time>2024-08-21T11:49:04.000Z</time>
      </trkpt>
      <trkpt lat="47.78032" lon="-0.07936">
        <ele>50.200000762939</ele>
        <time>2024-08-21T11:49:09.000Z</time>
      </trkpt>
      <trkpt lat="47.7803" lon="-0.07933">
        <ele>50.400001525879</ele>
        <time>2024-08-21T11:49:10.000Z</time>
      </trkpt>
      <trkpt lat="47.78015" lon="-0.07915">
        <ele>51.599998474121</ele>
        <time>2024-08-21T11:49:16.000Z</time>
      </trkpt>
      <trkpt lat="47.78008" lon="-0.07905">
        <ele>51.799999237061</ele>
        <time>2024-08-21T11:49:19.000Z</time>
      </trkpt>
      <trkpt lat="47.77997" lon="-0.07888">
        <ele>52.599998474121</ele>
        <time>2024-08-21T11:49:24.000Z</time>
      </trkpt>
      <trkpt lat="47.77984" lon="-0.07867">
        <ele>53.400001525879</ele>
        <time>2024-08-21T11:49:30.000Z</time>
      </trkpt>
      <trkpt lat="47.77982" lon="-0.07863">
        <ele>53.599998474121</ele>
        <time>2024-08-21T11:49:31.000Z</time>
      </trkpt>
      <trkpt lat="47.77961" lon="-0.0783">
        <ele>54.599998474121</ele>
        <time>2024-08-21T11:49:40.000Z</time>
      </trkpt>
      <trkpt lat="47.7794" lon="-0.07795">
        <ele>55.599998474121</ele>
        <time>2024-08-21T11:49:49.000Z</time>
      </trkpt>
      <trkpt lat="47.77938" lon="-0.07792">
        <ele>55.799999237061</ele>
        <time>2024-08-21T11:49:50.000Z</time>
      </trkpt>
      <trkpt lat="47.77923" lon="-0.07765">
        <ele>55.799999237061</ele>
        <time>2024-08-21T11:49:56.000Z</time>
      </trkpt>
      <trkpt lat="47.77907" lon="-0.07738">
        <ele>56</ele>
        <time>2024-08-21T11:50:02.000Z</time>
      </trkpt>
      <trkpt lat="47.77878" lon="-0.0769">
        <ele>56.599998474121</ele>
        <time>2024-08-21T11:50:13.000Z</time>
      </trkpt>
      <trkpt lat="47.77864" lon="-0.07667">
        <ele>56.799999237061</ele>
        <time>2024-08-21T11:50:18.000Z</time>
      </trkpt>
      <trkpt lat="47.77855" lon="-0.07652">
        <ele>57</ele>
        <time>2024-08-21T11:50:21.000Z</time>
      </trkpt>
      <trkpt lat="47.77821" lon="-0.07596">
        <ele>57.400001525879</ele>
        <time>2024-08-21T11:50:32.000Z</time>
      </trkpt>
      <trkpt lat="47.77794" lon="-0.0755">
        <ele>57.799999237061</ele>
        <time>2024-08-21T11:50:41.000Z</time>
      </trkpt>
      <trkpt lat="47.77784" lon="-0.07535">
        <ele>58.400001525879</ele>
        <time>2024-08-21T11:50:44.000Z</time>
      </trkpt>
      <trkpt lat="47.7776" lon="-0.07495">
        <ele>58.799999237061</ele>
        <time>2024-08-21T11:50:52.000Z</time>
      </trkpt>
      <trkpt lat="47.77751" lon="-0.0748">
        <ele>59</ele>
        <time>2024-08-21T11:50:55.000Z</time>
      </trkpt>
      <trkpt lat="47.77731" lon="-0.07447">
        <ele>60</ele>
        <time>2024-08-21T11:51:02.000Z</time>
      </trkpt>
      <trkpt lat="47.7772" lon="-0.07429">
        <ele>60.599998474121</ele>
        <time>2024-08-21T11:51:06.000Z</time>
      </trkpt>
      <trkpt lat="47.77704" lon="-0.07403">
        <ele>61</ele>
        <time>2024-08-21T11:51:12.000Z</time>
      </trkpt>
      <trkpt lat="47.77697" lon="-0.07391">
        <ele>61.599998474121</ele>
        <time>2024-08-21T11:51:15.000Z</time>
      </trkpt>
      <trkpt lat="47.77682" lon="-0.07366">
        <ele>62.400001525879</ele>
        <time>2024-08-21T11:51:21.000Z</time>
      </trkpt>
      <trkpt lat="47.77672" lon="-0.0735">
        <ele>62.799999237061</ele>
        <time>2024-08-21T11:51:25.000Z</time>
      </trkpt>
      <trkpt lat="47.77663" lon="-0.07334">
        <ele>63.400001525879</ele>
        <time>2024-08-21T11:51:29.000Z</time>
      </trkpt>
      <trkpt lat="47.77653" lon="-0.07319">
        <ele>64</ele>
        <time>2024-08-21T11:51:33.000Z</time>
      </trkpt>
      <trkpt lat="47.77645" lon="-0.07305">
        <ele>64.400001525879</ele>
        <time>2024-08-21T11:51:37.000Z</time>
      </trkpt>
      <trkpt lat="47.77635" lon="-0.07287">
        <ele>65</ele>
        <time>2024-08-21T11:51:42.000Z</time>
      </trkpt>
      <trkpt lat="47.77628" lon="-0.07276">
        <ele>65.400001525879</ele>
        <time>2024-08-21T11:51:45.000Z</time>
      </trkpt>
      <trkpt lat="47.77619" lon="-0.07261">
        <ele>65.800003051758</ele>
        <time>2024-08-21T11:51:49.000Z</time>
      </trkpt>
      <trkpt lat="47.77609" lon="-0.07242">
        <ele>66.400001525879</ele>
        <time>2024-08-21T11:51:54.000Z</time>
      </trkpt>
      <trkpt lat="47.77603" lon="-0.07233">
        <ele>66.599998474121</ele>
        <time>2024-08-21T11:51:56.000Z</time>
      </trkpt>
      <trkpt lat="47.77582" lon="-0.07198">
        <ele>67</ele>
        <time>2024-08-21T11:52:04.000Z</time>
      </trkpt>
      <trkpt lat="47.77563" lon="-0.07159">
        <ele>66.800003051758</ele>
        <time>2024-08-21T11:52:11.000Z</time>
      </trkpt>
      <trkpt lat="47.7756" lon="-0.07152">
        <ele>66.800003051758</ele>
        <time>2024-08-21T11:52:12.000Z</time>
      </trkpt>
      <trkpt lat="47.77552" lon="-0.07128">
        <ele>66.400001525879</ele>
        <time>2024-08-21T11:52:15.000Z</time>
      </trkpt>
      <trkpt lat="47.77539" lon="-0.07086">
        <ele>64.800003051758</ele>
        <time>2024-08-21T11:52:19.000Z</time>
      </trkpt>
      <trkpt lat="47.77536" lon="-0.07074">
        <ele>64.599998474121</ele>
        <time>2024-08-21T11:52:20.000Z</time>
      </trkpt>
      <trkpt lat="47.77527" lon="-0.07052">
        <ele>63.599998474121</ele>
        <time>2024-08-21T11:52:22.000Z</time>
      </trkpt>
      <trkpt lat="47.77522" lon="-0.07042">
        <ele>62.799999237061</ele>
        <time>2024-08-21T11:52:23.000Z</time>
      </trkpt>
      <trkpt lat="47.77516" lon="-0.07034">
        <ele>62</ele>
        <time>2024-08-21T11:52:24.000Z</time>
      </trkpt>
      <trkpt lat="47.77509" lon="-0.07027">
        <ele>61.799999237061</ele>
        <time>2024-08-21T11:52:25.000Z</time>
      </trkpt>
      <trkpt lat="47.77495" lon="-0.07019">
        <ele>61.200000762939</ele>
        <time>2024-08-21T11:52:27.000Z</time>
      </trkpt>
      <trkpt lat="47.77488" lon="-0.07016">
        <ele>61</ele>
        <time>2024-08-21T11:52:28.000Z</time>
      </trkpt>
      <trkpt lat="47.77467" lon="-0.07012">
        <ele>61</ele>
        <time>2024-08-21T11:52:31.000Z</time>
      </trkpt>
      <trkpt lat="47.77433" lon="-0.07005">
        <ele>61.599998474121</ele>
        <time>2024-08-21T11:52:37.000Z</time>
      </trkpt>
      <trkpt lat="47.77419" lon="-0.07003">
        <ele>62.400001525879</ele>
        <time>2024-08-21T11:52:40.000Z</time>
      </trkpt>
      <trkpt lat="47.77406" lon="-0.07">
        <ele>63.200000762939</ele>
        <time>2024-08-21T11:52:43.000Z</time>
      </trkpt>
      <trkpt lat="47.77398" lon="-0.06999">
        <ele>63.599998474121</ele>
        <time>2024-08-21T11:52:45.000Z</time>
      </trkpt>
      <trkpt lat="47.77387" lon="-0.06997">
        <ele>64.800003051758</ele>
        <time>2024-08-21T11:52:48.000Z</time>
      </trkpt>
      <trkpt lat="47.77384" lon="-0.06996">
        <ele>64.800003051758</ele>
        <time>2024-08-21T11:52:49.000Z</time>
      </trkpt>
      <trkpt lat="47.77371" lon="-0.06992">
        <ele>65.800003051758</ele>
        <time>2024-08-21T11:52:53.000Z</time>
      </trkpt>
      <trkpt lat="47.77362" lon="-0.06988">
        <ele>66.199996948242</ele>
        <time>2024-08-21T11:52:56.000Z</time>
      </trkpt>
      <trkpt lat="47.77353" lon="-0.06985">
        <ele>66.599998474121</ele>
        <time>2024-08-21T11:52:59.000Z</time>
      </trkpt>
      <trkpt lat="47.77345" lon="-0.06979">
        <ele>67.199996948242</ele>
        <time>2024-08-21T11:53:02.000Z</time>
      </trkpt>
      <trkpt lat="47.77339" lon="-0.06977">
        <ele>67.800003051758</ele>
        <time>2024-08-21T11:53:04.000Z</time>
      </trkpt>
      <trkpt lat="47.7732" lon="-0.06968">
        <ele>68.800003051758</ele>
        <time>2024-08-21T11:53:11.000Z</time>
      </trkpt>
      <trkpt lat="47.77315" lon="-0.06966">
        <ele>69.199996948242</ele>
        <time>2024-08-21T11:53:13.000Z</time>
      </trkpt>
      <trkpt lat="47.77308" lon="-0.06961">
        <ele>70</ele>
        <time>2024-08-21T11:53:16.000Z</time>
      </trkpt>
      <trkpt lat="47.77298" lon="-0.06955">
        <ele>70.800003051758</ele>
        <time>2024-08-21T11:53:20.000Z</time>
      </trkpt>
      <trkpt lat="47.77296" lon="-0.06954">
        <ele>71</ele>
        <time>2024-08-21T11:53:21.000Z</time>
      </trkpt>
      <trkpt lat="47.77282" lon="-0.06945">
        <ele>72</ele>
        <time>2024-08-21T11:53:27.000Z</time>
      </trkpt>
      <trkpt lat="47.77264" lon="-0.06932">
        <ele>72.800003051758</ele>
        <time>2024-08-21T11:53:34.000Z</time>
      </trkpt>
      <trkpt lat="47.77262" lon="-0.06931">
        <ele>73</ele>
        <time>2024-08-21T11:53:35.000Z</time>
      </trkpt>
      <trkpt lat="47.77245" lon="-0.06919">
        <ele>74.199996948242</ele>
        <time>2024-08-21T11:53:42.000Z</time>
      </trkpt>
      <trkpt lat="47.77238" lon="-0.06914">
        <ele>74.400001525879</ele>
        <time>2024-08-21T11:53:45.000Z</time>
      </trkpt>
      <trkpt lat="47.77226" lon="-0.06901">
        <ele>75.199996948242</ele>
        <time>2024-08-21T11:53:51.000Z</time>
      </trkpt>
      <trkpt lat="47.77215" lon="-0.06885">
        <ele>76</ele>
        <time>2024-08-21T11:53:57.000Z</time>
      </trkpt>
      <trkpt lat="47.77209" lon="-0.0687">
        <ele>76.199996948242</ele>
        <time>2024-08-21T11:54:01.000Z</time>
      </trkpt>
      <trkpt lat="47.77203" lon="-0.06855">
        <ele>76.400001525879</ele>
        <time>2024-08-21T11:54:05.000Z</time>
      </trkpt>
      <trkpt lat="47.7719" lon="-0.06824">
        <ele>77.400001525879</ele>
        <time>2024-08-21T11:54:13.000Z</time>
      </trkpt>
      <trkpt lat="47.77179" lon="-0.06798">
        <ele>78</ele>
        <time>2024-08-21T11:54:20.000Z</time>
      </trkpt>
      <trkpt lat="47.77171" lon="-0.06779">
        <ele>78.400001525879</ele>
        <time>2024-08-21T11:54:25.000Z</time>
      </trkpt>
      <trkpt lat="47.77163" lon="-0.06758">
        <ele>78.800003051758</ele>
        <time>2024-08-21T11:54:30.000Z</time>
      </trkpt>
      <trkpt lat="47.77139" lon="-0.06704">
        <ele>79.400001525879</ele>
        <time>2024-08-21T11:54:42.000Z</time>
      </trkpt>
      <trkpt lat="47.77129" lon="-0.06683">
        <ele>79.400001525879</ele>
        <time>2024-08-21T11:54:46.000Z</time>
      </trkpt>
      <trkpt lat="47.77123" lon="-0.06668">
        <ele>79.599998474121</ele>
        <time>2024-08-21T11:54:49.000Z</time>
      </trkpt>
      <trkpt lat="47.77107" lon="-0.06629">
        <ele>79.599998474121</ele>
        <time>2024-08-21T11:54:57.000Z</time>
      </trkpt>
      <trkpt lat="47.771" lon="-0.06595">
        <ele>79.400001525879</ele>
        <time>2024-08-21T11:55:03.000Z</time>
      </trkpt>
      <trkpt lat="47.77099" lon="-0.0658">
        <ele>79.400001525879</ele>
        <time>2024-08-21T11:55:05.000Z</time>
      </trkpt>
      <trkpt lat="47.77101" lon="-0.06548">
        <ele>79.400001525879</ele>
        <time>2024-08-21T11:55:09.000Z</time>
      </trkpt>
      <trkpt lat="47.77106" lon="-0.06494">
        <ele>78.400001525879</ele>
        <time>2024-08-21T11:55:15.000Z</time>
      </trkpt>
      <trkpt lat="47.77106" lon="-0.06485">
        <ele>78.400001525879</ele>
        <time>2024-08-21T11:55:16.000Z</time>
      </trkpt>
      <trkpt lat="47.77097" lon="-0.06431">
        <ele>78</ele>
        <time>2024-08-21T11:55:22.000Z</time>
      </trkpt>
      <trkpt lat="47.77091" lon="-0.06414">
        <ele>78</ele>
        <time>2024-08-21T11:55:24.000Z</time>
      </trkpt>
      <trkpt lat="47.77076" lon="-0.06383">
        <ele>77.800003051758</ele>
        <time>2024-08-21T11:55:28.000Z</time>
      </trkpt>
      <trkpt lat="47.77061" lon="-0.06351">
        <ele>77.599998474121</ele>
        <time>2024-08-21T11:55:32.000Z</time>
      </trkpt>
      <trkpt lat="47.77045" lon="-0.06319">
        <ele>77</ele>
        <time>2024-08-21T11:55:36.000Z</time>
      </trkpt>
      <trkpt lat="47.77036" lon="-0.06302">
        <ele>76.599998474121</ele>
        <time>2024-08-21T11:55:38.000Z</time>
      </trkpt>
      <trkpt lat="47.77022" lon="-0.06274">
        <ele>75.599998474121</ele>
        <time>2024-08-21T11:55:41.000Z</time>
      </trkpt>
      <trkpt lat="47.77017" lon="-0.06264">
        <ele>75.199996948242</ele>
        <time>2024-08-21T11:55:42.000Z</time>
      </trkpt>
      <trkpt lat="47.77008" lon="-0.06244">
        <ele>74.199996948242</ele>
        <time>2024-08-21T11:55:44.000Z</time>
      </trkpt>
      <trkpt lat="47.76998" lon="-0.06223">
        <ele>73.199996948242</ele>
        <time>2024-08-21T11:55:46.000Z</time>
      </trkpt>
      <trkpt lat="47.76987" lon="-0.06201">
        <ele>72</ele>
        <time>2024-08-21T11:55:48.000Z</time>
      </trkpt>
      <trkpt lat="47.76982" lon="-0.0619">
        <ele>71.599998474121</ele>
        <time>2024-08-21T11:55:49.000Z</time>
      </trkpt>
      <trkpt lat="47.76977" lon="-0.06181">
        <ele>70.599998474121</ele>
        <time>2024-08-21T11:55:50.000Z</time>
      </trkpt>
      <trkpt lat="47.76968" lon="-0.06164">
        <ele>69.599998474121</ele>
        <time>2024-08-21T11:55:52.000Z</time>
      </trkpt>
      <trkpt lat="47.76965" lon="-0.06159">
        <ele>69.199996948242</ele>
        <time>2024-08-21T11:55:53.000Z</time>
      </trkpt>
      <trkpt lat="47.76956" lon="-0.06148">
        <ele>68.199996948242</ele>
        <time>2024-08-21T11:55:56.000Z</time>
      </trkpt>
      <trkpt lat="47.76954" lon="-0.06127">
        <ele>67.599998474121</ele>
        <time>2024-08-21T11:56:00.000Z</time>
      </trkpt>
      <trkpt lat="47.76955" lon="-0.06095">
        <ele>67.199996948242</ele>
        <time>2024-08-21T11:56:04.000Z</time>
      </trkpt>
      <trkpt lat="47.76956" lon="-0.06086">
        <ele>67</ele>
        <time>2024-08-21T11:56:05.000Z</time>
      </trkpt>
      <trkpt lat="47.76957" lon="-0.06047">
        <ele>65.800003051758</ele>
        <time>2024-08-21T11:56:09.000Z</time>
      </trkpt>
      <trkpt lat="47.76957" lon="-0.06037">
        <ele>65.400001525879</ele>
        <time>2024-08-21T11:56:10.000Z</time>
      </trkpt>
      <trkpt lat="47.76958" lon="-0.06011">
        <ele>64.800003051758</ele>
        <time>2024-08-21T11:56:13.000Z</time>
      </trkpt>
      <trkpt lat="47.76958" lon="-0.05987">
        <ele>64.800003051758</ele>
        <time>2024-08-21T11:56:16.000Z</time>
      </trkpt>
      <trkpt lat="47.76959" lon="-0.05943">
        <ele>65.800003051758</ele>
        <time>2024-08-21T11:56:22.000Z</time>
      </trkpt>
      <trkpt lat="47.76959" lon="-0.05936">
        <ele>66</ele>
        <time>2024-08-21T11:56:23.000Z</time>
      </trkpt>
      <trkpt lat="47.76959" lon="-0.05917">
        <ele>66.199996948242</ele>
        <time>2024-08-21T11:56:26.000Z</time>
      </trkpt>
      <trkpt lat="47.7696" lon="-0.05898">
        <ele>66.800003051758</ele>
        <time>2024-08-21T11:56:29.000Z</time>
      </trkpt>
      <trkpt lat="47.7696" lon="-0.05892">
        <ele>67</ele>
        <time>2024-08-21T11:56:30.000Z</time>
      </trkpt>
      <trkpt lat="47.7696" lon="-0.05874">
        <ele>68</ele>
        <time>2024-08-21T11:56:33.000Z</time>
      </trkpt>
      <trkpt lat="47.76959" lon="-0.05868">
        <ele>68.199996948242</ele>
        <time>2024-08-21T11:56:34.000Z</time>
      </trkpt>
      <trkpt lat="47.76958" lon="-0.05863">
        <ele>68.400001525879</ele>
        <time>2024-08-21T11:56:35.000Z</time>
      </trkpt>
      <trkpt lat="47.76954" lon="-0.05857">
        <ele>68.599998474121</ele>
        <time>2024-08-21T11:56:37.000Z</time>
      </trkpt>
      <trkpt lat="47.76951" lon="-0.05856">
        <ele>68.800003051758</ele>
        <time>2024-08-21T11:56:38.000Z</time>
      </trkpt>
      <trkpt lat="47.76936" lon="-0.05854">
        <ele>69.199996948242</ele>
        <time>2024-08-21T11:56:42.000Z</time>
      </trkpt>
      <trkpt lat="47.76929" lon="-0.05852">
        <ele>69.400001525879</ele>
        <time>2024-08-21T11:56:44.000Z</time>
      </trkpt>
      <trkpt lat="47.76912" lon="-0.05848">
        <ele>70.400001525879</ele>
        <time>2024-08-21T11:56:48.000Z</time>
      </trkpt>
      <trkpt lat="47.76901" lon="-0.05847">
        <ele>70.599998474121</ele>
        <time>2024-08-21T11:56:51.000Z</time>
      </trkpt>
      <trkpt lat="47.76882" lon="-0.05849">
        <ele>71.400001525879</ele>
        <time>2024-08-21T11:56:56.000Z</time>
      </trkpt>
      <trkpt lat="47.76871" lon="-0.05852">
        <ele>71.800003051758</ele>
        <time>2024-08-21T11:56:59.000Z</time>
      </trkpt>
      <trkpt lat="47.76848" lon="-0.0586">
        <ele>72.599998474121</ele>
        <time>2024-08-21T11:57:05.000Z</time>
      </trkpt>
      <trkpt lat="47.76833" lon="-0.05866">
        <ele>73</ele>
        <time>2024-08-21T11:57:09.000Z</time>
      </trkpt>
      <trkpt lat="47.76811" lon="-0.05879">
        <ele>73.599998474121</ele>
        <time>2024-08-21T11:57:15.000Z</time>
      </trkpt>
      <trkpt lat="47.76804" lon="-0.05886">
        <ele>73.800003051758</ele>
        <time>2024-08-21T11:57:17.000Z</time>
      </trkpt>
      <trkpt lat="47.76781" lon="-0.05914">
        <ele>74.400001525879</ele>
        <time>2024-08-21T11:57:25.000Z</time>
      </trkpt>
      <trkpt lat="47.76775" lon="-0.05921">
        <ele>74.599998474121</ele>
        <time>2024-08-21T11:57:27.000Z</time>
      </trkpt>
      <trkpt lat="47.7676" lon="-0.05942">
        <ele>75</ele>
        <time>2024-08-21T11:57:33.000Z</time>
      </trkpt>
      <trkpt lat="47.76741" lon="-0.05967">
        <ele>75.599998474121</ele>
        <time>2024-08-21T11:57:40.000Z</time>
      </trkpt>
      <trkpt lat="47.76735" lon="-0.05974">
        <ele>75.800003051758</ele>
        <time>2024-08-21T11:57:42.000Z</time>
      </trkpt>
      <trkpt lat="47.76707" lon="-0.06003">
        <ele>76.800003051758</ele>
        <time>2024-08-21T11:57:51.000Z</time>
      </trkpt>
      <trkpt lat="47.76703" lon="-0.06006">
        <ele>76.800003051758</ele>
        <time>2024-08-21T11:57:52.000Z</time>
      </trkpt>
      <trkpt lat="47.76657" lon="-0.06048">
        <ele>77.599998474121</ele>
        <time>2024-08-21T11:58:06.000Z</time>
      </trkpt>
      <trkpt lat="47.76651" lon="-0.06054">
        <ele>77.800003051758</ele>
        <time>2024-08-21T11:58:08.000Z</time>
      </trkpt>
      <trkpt lat="47.76631" lon="-0.06078">
        <ele>78.599998474121</ele>
        <time>2024-08-21T11:58:15.000Z</time>
      </trkpt>
      <trkpt lat="47.76626" lon="-0.06086">
        <ele>78.800003051758</ele>
        <time>2024-08-21T11:58:17.000Z</time>
      </trkpt>
      <trkpt lat="47.76613" lon="-0.0611">
        <ele>79.199996948242</ele>
        <time>2024-08-21T11:58:23.000Z</time>
      </trkpt>
      <trkpt lat="47.76596" lon="-0.06142">
        <ele>79.800003051758</ele>
        <time>2024-08-21T11:58:31.000Z</time>
      </trkpt>
      <trkpt lat="47.76591" lon="-0.06155">
        <ele>80.400001525879</ele>
        <time>2024-08-21T11:58:34.000Z</time>
      </trkpt>
      <trkpt lat="47.76581" lon="-0.06178">
        <ele>80.800003051758</ele>
        <time>2024-08-21T11:58:39.000Z</time>
      </trkpt>
      <trkpt lat="47.76572" lon="-0.062">
        <ele>81.199996948242</ele>
        <time>2024-08-21T11:58:44.000Z</time>
      </trkpt>
      <trkpt lat="47.76563" lon="-0.0622">
        <ele>82</ele>
        <time>2024-08-21T11:58:49.000Z</time>
      </trkpt>
      <trkpt lat="47.76554" lon="-0.06241">
        <ele>82.800003051758</ele>
        <time>2024-08-21T11:58:54.000Z</time>
      </trkpt>
      <trkpt lat="47.76547" lon="-0.06258">
        <ele>83</ele>
        <time>2024-08-21T11:58:58.000Z</time>
      </trkpt>
      <trkpt lat="47.7654" lon="-0.06275">
        <ele>83.599998474121</ele>
        <time>2024-08-21T11:59:02.000Z</time>
      </trkpt>
      <trkpt lat="47.76529" lon="-0.06301">
        <ele>84.199996948242</ele>
        <time>2024-08-21T11:59:08.000Z</time>
      </trkpt>
      <trkpt lat="47.76521" lon="-0.06318">
        <ele>84.400001525879</ele>
        <time>2024-08-21T11:59:12.000Z</time>
      </trkpt>
      <trkpt lat="47.765" lon="-0.06367">
        <ele>85.199996948242</ele>
        <time>2024-08-21T11:59:23.000Z</time>
      </trkpt>
      <trkpt lat="47.76496" lon="-0.06376">
        <ele>85.199996948242</ele>
        <time>2024-08-21T11:59:25.000Z</time>
      </trkpt>
      <trkpt lat="47.7648" lon="-0.06416">
        <ele>86</ele>
        <time>2024-08-21T11:59:34.000Z</time>
      </trkpt>
      <trkpt lat="47.76469" lon="-0.06439">
        <ele>86.199996948242</ele>
        <time>2024-08-21T11:59:39.000Z</time>
      </trkpt>
      <trkpt lat="47.76454" lon="-0.06474">
        <ele>86.199996948242</ele>
        <time>2024-08-21T11:59:46.000Z</time>
      </trkpt>
      <trkpt lat="47.76426" lon="-0.06513">
        <ele>86</ele>
        <time>2024-08-21T11:59:54.000Z</time>
      </trkpt>
      <trkpt lat="47.76394" lon="-0.06539">
        <ele>85.599998474121</ele>
        <time>2024-08-21T12:00:01.000Z</time>
      </trkpt>
      <trkpt lat="47.76351" lon="-0.06561">
        <ele>85.599998474121</ele>
        <time>2024-08-21T12:00:09.000Z</time>
      </trkpt>
      <trkpt lat="47.76322" lon="-0.06568">
        <ele>85.199996948242</ele>
        <time>2024-08-21T12:00:14.000Z</time>
      </trkpt>
      <trkpt lat="47.76311" lon="-0.06571">
        <ele>85</ele>
        <time>2024-08-21T12:00:16.000Z</time>
      </trkpt>
      <trkpt lat="47.76267" lon="-0.06589">
        <ele>84.400001525879</ele>
        <time>2024-08-21T12:00:24.000Z</time>
      </trkpt>
      <trkpt lat="47.76246" lon="-0.06608">
        <ele>84.199996948242</ele>
        <time>2024-08-21T12:00:28.000Z</time>
      </trkpt>
      <trkpt lat="47.76235" lon="-0.06618">
        <ele>84</ele>
        <time>2024-08-21T12:00:30.000Z</time>
      </trkpt>
      <trkpt lat="47.76199" lon="-0.06639">
        <ele>83.400001525879</ele>
        <time>2024-08-21T12:00:36.000Z</time>
      </trkpt>
      <trkpt lat="47.7618" lon="-0.06647">
        <ele>82.800003051758</ele>
        <time>2024-08-21T12:00:39.000Z</time>
      </trkpt>
      <trkpt lat="47.76143" lon="-0.06664">
        <ele>82.199996948242</ele>
        <time>2024-08-21T12:00:45.000Z</time>
      </trkpt>
      <trkpt lat="47.76097" lon="-0.06691">
        <ele>81.800003051758</ele>
        <time>2024-08-21T12:00:53.000Z</time>
      </trkpt>
      <trkpt lat="47.76048" lon="-0.06726">
        <ele>81.400001525879</ele>
        <time>2024-08-21T12:01:01.000Z</time>
      </trkpt>
      <trkpt lat="47.76024" lon="-0.06738">
        <ele>81.199996948242</ele>
        <time>2024-08-21T12:01:05.000Z</time>
      </trkpt>
      <trkpt lat="47.76011" lon="-0.0674">
        <ele>81.599998474121</ele>
        <time>2024-08-21T12:01:07.000Z</time>
      </trkpt>
      <trkpt lat="47.75975" lon="-0.06737">
        <ele>81.800003051758</ele>
        <time>2024-08-21T12:01:13.000Z</time>
      </trkpt>
      <trkpt lat="47.75943" lon="-0.06724">
        <ele>82.400001525879</ele>
        <time>2024-08-21T12:01:19.000Z</time>
      </trkpt>
      <trkpt lat="47.7589" lon="-0.06702">
        <ele>82.400001525879</ele>
        <time>2024-08-21T12:01:28.000Z</time>
      </trkpt>
      <trkpt lat="47.75883" lon="-0.06699">
        <ele>82.199996948242</ele>
        <time>2024-08-21T12:01:29.000Z</time>
      </trkpt>
      <trkpt lat="47.75835" lon="-0.0668">
        <ele>81</ele>
        <time>2024-08-21T12:01:36.000Z</time>
      </trkpt>
      <trkpt lat="47.75821" lon="-0.06675">
        <ele>81</ele>
        <time>2024-08-21T12:01:38.000Z</time>
      </trkpt>
      <trkpt lat="47.75791" lon="-0.06671">
        <ele>80.400001525879</ele>
        <time>2024-08-21T12:01:42.000Z</time>
      </trkpt>
      <trkpt lat="47.75777" lon="-0.06674">
        <ele>79.800003051758</ele>
        <time>2024-08-21T12:01:44.000Z</time>
      </trkpt>
      <trkpt lat="47.75741" lon="-0.06677">
        <ele>79</ele>
        <time>2024-08-21T12:01:49.000Z</time>
      </trkpt>
      <trkpt lat="47.75734" lon="-0.06676">
        <ele>78.800003051758</ele>
        <time>2024-08-21T12:01:50.000Z</time>
      </trkpt>
      <trkpt lat="47.7571" lon="-0.06672">
        <ele>77.599998474121</ele>
        <time>2024-08-21T12:01:53.000Z</time>
      </trkpt>
      <trkpt lat="47.75694" lon="-0.06669">
        <ele>77</ele>
        <time>2024-08-21T12:01:55.000Z</time>
      </trkpt>
      <trkpt lat="47.75677" lon="-0.06665">
        <ele>76.400001525879</ele>
        <time>2024-08-21T12:01:57.000Z</time>
      </trkpt>
      <trkpt lat="47.75654" lon="-0.06662">
        <ele>75.400001525879</ele>
        <time>2024-08-21T12:02:00.000Z</time>
      </trkpt>
      <trkpt lat="47.75632" lon="-0.06658">
        <ele>75.199996948242</ele>
        <time>2024-08-21T12:02:03.000Z</time>
      </trkpt>
      <trkpt lat="47.75593" lon="-0.06651">
        <ele>75.599998474121</ele>
        <time>2024-08-21T12:02:09.000Z</time>
      </trkpt>
      <trkpt lat="47.75576" lon="-0.06649">
        <ele>76.400001525879</ele>
        <time>2024-08-21T12:02:12.000Z</time>
      </trkpt>
      <trkpt lat="47.7556" lon="-0.06648">
        <ele>77</ele>
        <time>2024-08-21T12:02:15.000Z</time>
      </trkpt>
      <trkpt lat="47.75555" lon="-0.06649">
        <ele>77.199996948242</ele>
        <time>2024-08-21T12:02:16.000Z</time>
      </trkpt>
      <trkpt lat="47.75547" lon="-0.06654">
        <ele>77.599998474121</ele>
        <time>2024-08-21T12:02:18.000Z</time>
      </trkpt>
      <trkpt lat="47.75542" lon="-0.06657">
        <ele>78.199996948242</ele>
        <time>2024-08-21T12:02:19.000Z</time>
      </trkpt>
      <trkpt lat="47.75534" lon="-0.06665">
        <ele>78.800003051758</ele>
        <time>2024-08-21T12:02:21.000Z</time>
      </trkpt>
      <trkpt lat="47.7553" lon="-0.0667">
        <ele>78.800003051758</ele>
        <time>2024-08-21T12:02:22.000Z</time>
      </trkpt>
      <trkpt lat="47.75523" lon="-0.06681">
        <ele>79</ele>
        <time>2024-08-21T12:02:24.000Z</time>
      </trkpt>
      <trkpt lat="47.75509" lon="-0.06694">
        <ele>79.199996948242</ele>
        <time>2024-08-21T12:02:27.000Z</time>
      </trkpt>
      <trkpt lat="47.75498" lon="-0.067">
        <ele>79.199996948242</ele>
        <time>2024-08-21T12:02:29.000Z</time>
      </trkpt>
      <trkpt lat="47.7546" lon="-0.06704">
        <ele>79.199996948242</ele>
        <time>2024-08-21T12:02:36.000Z</time>
      </trkpt>
      <trkpt lat="47.75421" lon="-0.06708">
        <ele>79.800003051758</ele>
        <time>2024-08-21T12:02:43.000Z</time>
      </trkpt>
      <trkpt lat="47.75415" lon="-0.06708">
        <ele>79.800003051758</ele>
        <time>2024-08-21T12:02:44.000Z</time>
      </trkpt>
      <trkpt lat="47.75365" lon="-0.06713">
        <ele>80.599998474121</ele>
        <time>2024-08-21T12:02:53.000Z</time>
      </trkpt>
      <trkpt lat="47.75355" lon="-0.06714">
        <ele>80.800003051758</ele>
        <time>2024-08-21T12:02:55.000Z</time>
      </trkpt>
      <trkpt lat="47.75332" lon="-0.06714">
        <ele>81.400001525879</ele>
        <time>2024-08-21T12:03:00.000Z</time>
      </trkpt>
      <trkpt lat="47.75328" lon="-0.06712">
        <ele>81.599998474121</ele>
        <time>2024-08-21T12:03:01.000Z</time>
      </trkpt>
      <trkpt lat="47.75318" lon="-0.06709">
        <ele>81.800003051758</ele>
        <time>2024-08-21T12:03:03.000Z</time>
      </trkpt>
      <trkpt lat="47.75309" lon="-0.06705">
        <ele>82.400001525879</ele>
        <time>2024-08-21T12:03:05.000Z</time>
      </trkpt>
      <trkpt lat="47.75292" lon="-0.06694">
        <ele>82.800003051758</ele>
        <time>2024-08-21T12:03:09.000Z</time>
      </trkpt>
      <trkpt lat="47.7528" lon="-0.06684">
        <ele>83.199996948242</ele>
        <time>2024-08-21T12:03:12.000Z</time>
      </trkpt>
      <trkpt lat="47.75262" lon="-0.06667">
        <ele>83.599998474121</ele>
        <time>2024-08-21T12:03:17.000Z</time>
      </trkpt>
      <trkpt lat="47.75255" lon="-0.0666">
        <ele>83.599998474121</ele>
        <time>2024-08-21T12:03:19.000Z</time>
      </trkpt>
      <trkpt lat="47.75248" lon="-0.06653">
        <ele>83.599998474121</ele>
        <time>2024-08-21T12:03:21.000Z</time>
      </trkpt>
      <trkpt lat="47.75215" lon="-0.0662">
        <ele>84.400001525879</ele>
        <time>2024-08-21T12:03:30.000Z</time>
      </trkpt>
      <trkpt lat="47.75208" lon="-0.06613">
        <ele>84.800003051758</ele>
        <time>2024-08-21T12:03:32.000Z</time>
      </trkpt>
      <trkpt lat="47.75183" lon="-0.06588">
        <ele>85.400001525879</ele>
        <time>2024-08-21T12:03:39.000Z</time>
      </trkpt>
      <trkpt lat="47.75168" lon="-0.06574">
        <ele>85.800003051758</ele>
        <time>2024-08-21T12:03:43.000Z</time>
      </trkpt>
      <trkpt lat="47.75146" lon="-0.06553">
        <ele>86.400001525879</ele>
        <time>2024-08-21T12:03:49.000Z</time>
      </trkpt>
      <trkpt lat="47.75136" lon="-0.06543">
        <ele>86.800003051758</ele>
        <time>2024-08-21T12:03:52.000Z</time>
      </trkpt>
      <trkpt lat="47.75104" lon="-0.06511">
        <ele>87.800003051758</ele>
        <time>2024-08-21T12:04:02.000Z</time>
      </trkpt>
      <trkpt lat="47.75098" lon="-0.06506">
        <ele>88</ele>
        <time>2024-08-21T12:04:04.000Z</time>
      </trkpt>
      <trkpt lat="47.75091" lon="-0.06506">
        <ele>88.199996948242</ele>
        <time>2024-08-21T12:04:06.000Z</time>
      </trkpt>
      <trkpt lat="47.75088" lon="-0.06509">
        <ele>88.199996948242</ele>
        <time>2024-08-21T12:04:07.000Z</time>
      </trkpt>
      <trkpt lat="47.75086" lon="-0.06514">
        <ele>88.199996948242</ele>
        <time>2024-08-21T12:04:08.000Z</time>
      </trkpt>
      <trkpt lat="47.75086" lon="-0.06524">
        <ele>88.400001525879</ele>
        <time>2024-08-21T12:04:10.000Z</time>
      </trkpt>
      <trkpt lat="47.75087" lon="-0.06591">
        <ele>88.599998474121</ele>
        <time>2024-08-21T12:04:20.000Z</time>
      </trkpt>
      <trkpt lat="47.75088" lon="-0.06651">
        <ele>88.800003051758</ele>
        <time>2024-08-21T12:04:29.000Z</time>
      </trkpt>
      <trkpt lat="47.75089" lon="-0.06677">
        <ele>89</ele>
        <time>2024-08-21T12:04:33.000Z</time>
      </trkpt>
      <trkpt lat="47.75089" lon="-0.0671">
        <ele>89.400001525879</ele>
        <time>2024-08-21T12:04:38.000Z</time>
      </trkpt>
      <trkpt lat="47.75086" lon="-0.0675">
        <ele>90.199996948242</ele>
        <time>2024-08-21T12:04:44.000Z</time>
      </trkpt>
      <trkpt lat="47.75082" lon="-0.06783">
        <ele>90.599998474121</ele>
        <time>2024-08-21T12:04:49.000Z</time>
      </trkpt>
      <trkpt lat="47.7508" lon="-0.06802">
        <ele>90.800003051758</ele>
        <time>2024-08-21T12:04:52.000Z</time>
      </trkpt>
      <trkpt lat="47.75078" lon="-0.06826">
        <ele>91.199996948242</ele>
        <time>2024-08-21T12:04:56.000Z</time>
      </trkpt>
      <trkpt lat="47.75073" lon="-0.06881">
        <ele>91.400001525879</ele>
        <time>2024-08-21T12:05:05.000Z</time>
      </trkpt>
      <trkpt lat="47.75073" lon="-0.06908">
        <ele>91.400001525879</ele>
        <time>2024-08-21T12:05:09.000Z</time>
      </trkpt>
      <trkpt lat="47.7507" lon="-0.0692">
        <ele>91.599998474121</ele>
        <time>2024-08-21T12:05:11.000Z</time>
      </trkpt>
      <trkpt lat="47.75065" lon="-0.0693">
        <ele>91.400001525879</ele>
        <time>2024-08-21T12:05:13.000Z</time>
      </trkpt>
      <trkpt lat="47.75056" lon="-0.06946">
        <ele>91.599998474121</ele>
        <time>2024-08-21T12:05:16.000Z</time>
      </trkpt>
      <trkpt lat="47.75052" lon="-0.06958">
        <ele>91.599998474121</ele>
        <time>2024-08-21T12:05:18.000Z</time>
      </trkpt>
      <trkpt lat="47.75051" lon="-0.06972">
        <ele>91.599998474121</ele>
        <time>2024-08-21T12:05:20.000Z</time>
      </trkpt>
      <trkpt lat="47.75051" lon="-0.06979">
        <ele>91.599998474121</ele>
        <time>2024-08-21T12:05:21.000Z</time>
      </trkpt>
      <trkpt lat="47.75052" lon="-0.06992">
        <ele>91.599998474121</ele>
        <time>2024-08-21T12:05:23.000Z</time>
      </trkpt>
      <trkpt lat="47.75058" lon="-0.07032">
        <ele>91.599998474121</ele>
        <time>2024-08-21T12:05:29.000Z</time>
      </trkpt>
      <trkpt lat="47.75072" lon="-0.07104">
        <ele>91.599998474121</ele>
        <time>2024-08-21T12:05:39.000Z</time>
      </trkpt>
      <trkpt lat="47.75085" lon="-0.07163">
        <ele>91.599998474121</ele>
        <time>2024-08-21T12:05:47.000Z</time>
      </trkpt>
      <trkpt lat="47.75088" lon="-0.07177">
        <ele>91.599998474121</ele>
        <time>2024-08-21T12:05:49.000Z</time>
      </trkpt>
      <trkpt lat="47.75095" lon="-0.07205">
        <ele>91.599998474121</ele>
        <time>2024-08-21T12:05:53.000Z</time>
      </trkpt>
      <trkpt lat="47.75107" lon="-0.07255">
        <ele>91.400001525879</ele>
        <time>2024-08-21T12:06:00.000Z</time>
      </trkpt>
      <trkpt lat="47.75117" lon="-0.07317">
        <ele>91.199996948242</ele>
        <time>2024-08-21T12:06:08.000Z</time>
      </trkpt>
      <trkpt lat="47.75124" lon="-0.07401">
        <ele>91.800003051758</ele>
        <time>2024-08-21T12:06:18.000Z</time>
      </trkpt>
      <trkpt lat="47.75129" lon="-0.07448">
        <ele>91.400001525879</ele>
        <time>2024-08-21T12:06:24.000Z</time>
      </trkpt>
      <trkpt lat="47.75133" lon="-0.0748">
        <ele>91.199996948242</ele>
        <time>2024-08-21T12:06:28.000Z</time>
      </trkpt>
      <trkpt lat="47.75133" lon="-0.07488">
        <ele>91.199996948242</ele>
        <time>2024-08-21T12:06:29.000Z</time>
      </trkpt>
      <trkpt lat="47.75143" lon="-0.07553">
        <ele>91</ele>
        <time>2024-08-21T12:06:37.000Z</time>
      </trkpt>
      <trkpt lat="47.75143" lon="-0.0756">
        <ele>91.199996948242</ele>
        <time>2024-08-21T12:06:38.000Z</time>
      </trkpt>
      <trkpt lat="47.75142" lon="-0.07568">
        <ele>91</ele>
        <time>2024-08-21T12:06:39.000Z</time>
      </trkpt>
      <trkpt lat="47.7514" lon="-0.07576">
        <ele>91.199996948242</ele>
        <time>2024-08-21T12:06:41.000Z</time>
      </trkpt>
      <trkpt lat="47.75139" lon="-0.07577">
        <ele>91.400001525879</ele>
        <time>2024-08-21T12:06:42.000Z</time>
      </trkpt>
      <trkpt lat="47.75139" lon="-0.07578">
        <ele>91.400001525879</ele>
        <time>2024-08-21T12:06:44.000Z</time>
      </trkpt>
      <trkpt lat="47.75139" lon="-0.07578">
        <ele>91.400001525879</ele>
        <time>2024-08-21T12:06:45.000Z</time>
      </trkpt>
      <trkpt lat="47.75133" lon="-0.07576">
        <ele>92.199996948242</ele>
        <time>2024-08-21T12:07:17.000Z</time>
      </trkpt>
      <trkpt lat="47.75129" lon="-0.07578">
        <ele>92.199996948242</ele>
        <time>2024-08-21T12:07:19.000Z</time>
      </trkpt>
      <trkpt lat="47.75128" lon="-0.0758">
        <ele>92.400001525879</ele>
        <time>2024-08-21T12:07:20.000Z</time>
      </trkpt>
      <trkpt lat="47.75117" lon="-0.07586">
        <ele>92.400001525879</ele>
        <time>2024-08-21T12:07:24.000Z</time>
      </trkpt>
      <trkpt lat="47.75102" lon="-0.07595">
        <ele>92</ele>
        <time>2024-08-21T12:07:28.000Z</time>
      </trkpt>
      <trkpt lat="47.75081" lon="-0.07605">
        <ele>91.800003051758</ele>
        <time>2024-08-21T12:07:33.000Z</time>
      </trkpt>
      <trkpt lat="47.75076" lon="-0.07607">
        <ele>91.800003051758</ele>
        <time>2024-08-21T12:07:34.000Z</time>
      </trkpt>
      <trkpt lat="47.75038" lon="-0.07617">
        <ele>92.199996948242</ele>
        <time>2024-08-21T12:07:42.000Z</time>
      </trkpt>
      <trkpt lat="47.74997" lon="-0.0763">
        <ele>92</ele>
        <time>2024-08-21T12:07:50.000Z</time>
      </trkpt>
      <trkpt lat="47.74958" lon="-0.07649">
        <ele>92</ele>
        <time>2024-08-21T12:07:57.000Z</time>
      </trkpt>
      <trkpt lat="47.74915" lon="-0.07676">
        <ele>91.400001525879</ele>
        <time>2024-08-21T12:08:05.000Z</time>
      </trkpt>
      <trkpt lat="47.74868" lon="-0.07707">
        <ele>91.599998474121</ele>
        <time>2024-08-21T12:08:14.000Z</time>
      </trkpt>
      <trkpt lat="47.7483" lon="-0.07741">
        <ele>91.599998474121</ele>
        <time>2024-08-21T12:08:22.000Z</time>
      </trkpt>
      <trkpt lat="47.74808" lon="-0.07776">
        <ele>92.199996948242</ele>
        <time>2024-08-21T12:08:28.000Z</time>
      </trkpt>
      <trkpt lat="47.74795" lon="-0.07798">
        <ele>92.400001525879</ele>
        <time>2024-08-21T12:08:32.000Z</time>
      </trkpt>
      <trkpt lat="47.74787" lon="-0.07808">
        <ele>92.400001525879</ele>
        <time>2024-08-21T12:08:34.000Z</time>
      </trkpt>
      <trkpt lat="47.74783" lon="-0.07813">
        <ele>92.400001525879</ele>
        <time>2024-08-21T12:08:35.000Z</time>
      </trkpt>
      <trkpt lat="47.74775" lon="-0.07823">
        <ele>92.599998474121</ele>
        <time>2024-08-21T12:08:37.000Z</time>
      </trkpt>
      <trkpt lat="47.74747" lon="-0.07849">
        <ele>92.800003051758</ele>
        <time>2024-08-21T12:08:43.000Z</time>
      </trkpt>
      <trkpt lat="47.74736" lon="-0.07854">
        <ele>92.599998474121</ele>
        <time>2024-08-21T12:08:45.000Z</time>
      </trkpt>
      <trkpt lat="47.74693" lon="-0.07857">
        <ele>91.400001525879</ele>
        <time>2024-08-21T12:08:52.000Z</time>
      </trkpt>
      <trkpt lat="47.74686" lon="-0.07858">
        <ele>91.199996948242</ele>
        <time>2024-08-21T12:08:53.000Z</time>
      </trkpt>
      <trkpt lat="47.7468" lon="-0.07861">
        <ele>90.800003051758</ele>
        <time>2024-08-21T12:08:54.000Z</time>
      </trkpt>
      <trkpt lat="47.74668" lon="-0.07867">
        <ele>90.400001525879</ele>
        <time>2024-08-21T12:08:56.000Z</time>
      </trkpt>
      <trkpt lat="47.74654" lon="-0.07869">
        <ele>90</ele>
        <time>2024-08-21T12:08:58.000Z</time>
      </trkpt>
      <trkpt lat="47.74631" lon="-0.07873">
        <ele>88.599998474121</ele>
        <time>2024-08-21T12:09:01.000Z</time>
      </trkpt>
      <trkpt lat="47.74614" lon="-0.07876">
        <ele>88</ele>
        <time>2024-08-21T12:09:03.000Z</time>
      </trkpt>
      <trkpt lat="47.74605" lon="-0.07878">
        <ele>87.400001525879</ele>
        <time>2024-08-21T12:09:04.000Z</time>
      </trkpt>
      <trkpt lat="47.74586" lon="-0.07882">
        <ele>85.400001525879</ele>
        <time>2024-08-21T12:09:06.000Z</time>
      </trkpt>
      <trkpt lat="47.74578" lon="-0.07885">
        <ele>85</ele>
        <time>2024-08-21T12:09:07.000Z</time>
      </trkpt>
      <trkpt lat="47.74569" lon="-0.07887">
        <ele>84.400001525879</ele>
        <time>2024-08-21T12:09:08.000Z</time>
      </trkpt>
      <trkpt lat="47.74561" lon="-0.07888">
        <ele>84</ele>
        <time>2024-08-21T12:09:09.000Z</time>
      </trkpt>
      <trkpt lat="47.74554" lon="-0.07889">
        <ele>83.400001525879</ele>
        <time>2024-08-21T12:09:10.000Z</time>
      </trkpt>
      <trkpt lat="47.74547" lon="-0.07888">
        <ele>83</ele>
        <time>2024-08-21T12:09:11.000Z</time>
      </trkpt>
      <trkpt lat="47.74539" lon="-0.07885">
        <ele>82.400001525879</ele>
        <time>2024-08-21T12:09:12.000Z</time>
      </trkpt>
      <trkpt lat="47.74523" lon="-0.07879">
        <ele>81</ele>
        <time>2024-08-21T12:09:14.000Z</time>
      </trkpt>
      <trkpt lat="47.74495" lon="-0.07867">
        <ele>79.199996948242</ele>
        <time>2024-08-21T12:09:17.000Z</time>
      </trkpt>
      <trkpt lat="47.74476" lon="-0.0786">
        <ele>78.400001525879</ele>
        <time>2024-08-21T12:09:19.000Z</time>
      </trkpt>
      <trkpt lat="47.74467" lon="-0.07856">
        <ele>77.599998474121</ele>
        <time>2024-08-21T12:09:20.000Z</time>
      </trkpt>
      <trkpt lat="47.7445" lon="-0.0785">
        <ele>76.599998474121</ele>
        <time>2024-08-21T12:09:22.000Z</time>
      </trkpt>
      <trkpt lat="47.74435" lon="-0.07844">
        <ele>75.800003051758</ele>
        <time>2024-08-21T12:09:24.000Z</time>
      </trkpt>
      <trkpt lat="47.74407" lon="-0.07827">
        <ele>76.400001525879</ele>
        <time>2024-08-21T12:09:29.000Z</time>
      </trkpt>
      <trkpt lat="47.74399" lon="-0.07821">
        <ele>77.599998474121</ele>
        <time>2024-08-21T12:09:31.000Z</time>
      </trkpt>
      <trkpt lat="47.74392" lon="-0.07816">
        <ele>78.800003051758</ele>
        <time>2024-08-21T12:09:33.000Z</time>
      </trkpt>
      <trkpt lat="47.74388" lon="-0.07814">
        <ele>79.599998474121</ele>
        <time>2024-08-21T12:09:34.000Z</time>
      </trkpt>
      <trkpt lat="47.74385" lon="-0.07811">
        <ele>80</ele>
        <time>2024-08-21T12:09:35.000Z</time>
      </trkpt>
      <trkpt lat="47.7438" lon="-0.07807">
        <ele>81</ele>
        <time>2024-08-21T12:09:37.000Z</time>
      </trkpt>
      <trkpt lat="47.74369" lon="-0.07799">
        <ele>82.400001525879</ele>
        <time>2024-08-21T12:09:41.000Z</time>
      </trkpt>
      <trkpt lat="47.74356" lon="-0.07789">
        <ele>83.400001525879</ele>
        <time>2024-08-21T12:09:46.000Z</time>
      </trkpt>
      <trkpt lat="47.74351" lon="-0.07786">
        <ele>84</ele>
        <time>2024-08-21T12:09:48.000Z</time>
      </trkpt>
      <trkpt lat="47.74346" lon="-0.07782">
        <ele>84.599998474121</ele>
        <time>2024-08-21T12:09:50.000Z</time>
      </trkpt>
      <trkpt lat="47.74335" lon="-0.07773">
        <ele>85.599998474121</ele>
        <time>2024-08-21T12:09:55.000Z</time>
      </trkpt>
      <trkpt lat="47.74333" lon="-0.07772">
        <ele>85.800003051758</ele>
        <time>2024-08-21T12:09:56.000Z</time>
      </trkpt>
      <trkpt lat="47.74321" lon="-0.07763">
        <ele>86.800003051758</ele>
        <time>2024-08-21T12:10:02.000Z</time>
      </trkpt>
      <trkpt lat="47.74308" lon="-0.07755">
        <ele>88</ele>
        <time>2024-08-21T12:10:08.000Z</time>
      </trkpt>
      <trkpt lat="47.74301" lon="-0.0775">
        <ele>88.400001525879</ele>
        <time>2024-08-21T12:10:11.000Z</time>
      </trkpt>
      <trkpt lat="47.74294" lon="-0.07746">
        <ele>89</ele>
        <time>2024-08-21T12:10:14.000Z</time>
      </trkpt>
      <trkpt lat="47.7428" lon="-0.07738">
        <ele>89.800003051758</ele>
        <time>2024-08-21T12:10:20.000Z</time>
      </trkpt>
      <trkpt lat="47.74274" lon="-0.07735">
        <ele>90</ele>
        <time>2024-08-21T12:10:23.000Z</time>
      </trkpt>
      <trkpt lat="47.7426" lon="-0.07728">
        <ele>91</ele>
        <time>2024-08-21T12:10:29.000Z</time>
      </trkpt>
      <trkpt lat="47.74257" lon="-0.07727">
        <ele>91.199996948242</ele>
        <time>2024-08-21T12:10:30.000Z</time>
      </trkpt>
      <trkpt lat="47.74238" lon="-0.07717">
        <ele>91.599998474121</ele>
        <time>2024-08-21T12:10:38.000Z</time>
      </trkpt>
      <trkpt lat="47.74215" lon="-0.07705">
        <ele>92.199996948242</ele>
        <time>2024-08-21T12:10:46.000Z</time>
      </trkpt>
      <trkpt lat="47.74205" lon="-0.077">
        <ele>92.400001525879</ele>
        <time>2024-08-21T12:10:49.000Z</time>
      </trkpt>
      <trkpt lat="47.74186" lon="-0.07687">
        <ele>92.800003051758</ele>
        <time>2024-08-21T12:10:55.000Z</time>
      </trkpt>
      <trkpt lat="47.74173" lon="-0.07679">
        <ele>92.599998474121</ele>
        <time>2024-08-21T12:11:01.000Z</time>
      </trkpt>
      <trkpt lat="47.74155" lon="-0.07664">
        <ele>92.400001525879</ele>
        <time>2024-08-21T12:11:06.000Z</time>
      </trkpt>
      <trkpt lat="47.74132" lon="-0.07646">
        <ele>92.400001525879</ele>
        <time>2024-08-21T12:11:11.000Z</time>
      </trkpt>
      <trkpt lat="47.74101" lon="-0.0762">
        <ele>92</ele>
        <time>2024-08-21T12:11:17.000Z</time>
      </trkpt>
      <trkpt lat="47.74077" lon="-0.07602">
        <ele>92.199996948242</ele>
        <time>2024-08-21T12:11:22.000Z</time>
      </trkpt>
      <trkpt lat="47.74045" lon="-0.07573">
        <ele>92</ele>
        <time>2024-08-21T12:11:27.000Z</time>
      </trkpt>
      <trkpt lat="47.74025" lon="-0.07555">
        <ele>92</ele>
        <time>2024-08-21T12:11:31.000Z</time>
      </trkpt>
      <trkpt lat="47.74001" lon="-0.07538">
        <ele>92.199996948242</ele>
        <time>2024-08-21T12:11:37.000Z</time>
      </trkpt>
      <trkpt lat="47.73973" lon="-0.07513">
        <ele>92.199996948242</ele>
        <time>2024-08-21T12:11:42.000Z</time>
      </trkpt>
      <trkpt lat="47.73938" lon="-0.07485">
        <ele>92.599998474121</ele>
        <time>2024-08-21T12:11:48.000Z</time>
      </trkpt>
      <trkpt lat="47.73902" lon="-0.07457">
        <ele>92.400001525879</ele>
        <time>2024-08-21T12:11:54.000Z</time>
      </trkpt>
      <trkpt lat="47.7389" lon="-0.07447">
        <ele>92</ele>
        <time>2024-08-21T12:11:56.000Z</time>
      </trkpt>
      <trkpt lat="47.73867" lon="-0.07428">
        <ele>90.800003051758</ele>
        <time>2024-08-21T12:12:00.000Z</time>
      </trkpt>
      <trkpt lat="47.73839" lon="-0.07406">
        <ele>89.599998474121</ele>
        <time>2024-08-21T12:12:04.000Z</time>
      </trkpt>
      <trkpt lat="47.73817" lon="-0.07388">
        <ele>88.800003051758</ele>
        <time>2024-08-21T12:12:07.000Z</time>
      </trkpt>
      <trkpt lat="47.73809" lon="-0.07383">
        <ele>88.599998474121</ele>
        <time>2024-08-21T12:12:08.000Z</time>
      </trkpt>
      <trkpt lat="47.7379" lon="-0.07368">
        <ele>87.199996948242</ele>
        <time>2024-08-21T12:12:10.000Z</time>
      </trkpt>
      <trkpt lat="47.73781" lon="-0.07361">
        <ele>87</ele>
        <time>2024-08-21T12:12:11.000Z</time>
      </trkpt>
      <trkpt lat="47.73758" lon="-0.07342">
        <ele>85.599998474121</ele>
        <time>2024-08-21T12:12:14.000Z</time>
      </trkpt>
      <trkpt lat="47.73753" lon="-0.07338">
        <ele>85.199996948242</ele>
        <time>2024-08-21T12:12:15.000Z</time>
      </trkpt>
      <trkpt lat="47.73747" lon="-0.07333">
        <ele>84.599998474121</ele>
        <time>2024-08-21T12:12:16.000Z</time>
      </trkpt>
      <trkpt lat="47.73742" lon="-0.07329">
        <ele>84.400001525879</ele>
        <time>2024-08-21T12:12:17.000Z</time>
      </trkpt>
      <trkpt lat="47.73735" lon="-0.07324">
        <ele>84.400001525879</ele>
        <time>2024-08-21T12:12:18.000Z</time>
      </trkpt>
      <trkpt lat="47.73724" lon="-0.07317">
        <ele>84.400001525879</ele>
        <time>2024-08-21T12:12:20.000Z</time>
      </trkpt>
      <trkpt lat="47.73717" lon="-0.07311">
        <ele>84.599998474121</ele>
        <time>2024-08-21T12:12:22.000Z</time>
      </trkpt>
      <trkpt lat="47.73709" lon="-0.07305">
        <ele>85.800003051758</ele>
        <time>2024-08-21T12:12:24.000Z</time>
      </trkpt>
      <trkpt lat="47.73705" lon="-0.07301">
        <ele>86</ele>
        <time>2024-08-21T12:12:25.000Z</time>
      </trkpt>
      <trkpt lat="47.73698" lon="-0.07295">
        <ele>87</ele>
        <time>2024-08-21T12:12:26.000Z</time>
      </trkpt>
      <trkpt lat="47.7369" lon="-0.07289">
        <ele>87.400001525879</ele>
        <time>2024-08-21T12:12:27.000Z</time>
      </trkpt>
      <trkpt lat="47.73684" lon="-0.07284">
        <ele>88.199996948242</ele>
        <time>2024-08-21T12:12:28.000Z</time>
      </trkpt>
      <trkpt lat="47.73673" lon="-0.07272">
        <ele>89.599998474121</ele>
        <time>2024-08-21T12:12:31.000Z</time>
      </trkpt>
      <trkpt lat="47.73662" lon="-0.07265">
        <ele>90.599998474121</ele>
        <time>2024-08-21T12:12:34.000Z</time>
      </trkpt>
      <trkpt lat="47.73659" lon="-0.07263">
        <ele>90.800003051758</ele>
        <time>2024-08-21T12:12:35.000Z</time>
      </trkpt>
      <trkpt lat="47.73642" lon="-0.07248">
        <ele>91.599998474121</ele>
        <time>2024-08-21T12:12:39.000Z</time>
      </trkpt>
      <trkpt lat="47.73639" lon="-0.07245">
        <ele>92.599998474121</ele>
        <time>2024-08-21T12:12:41.000Z</time>
      </trkpt>
      <trkpt lat="47.73636" lon="-0.07243">
        <ele>92.800003051758</ele>
        <time>2024-08-21T12:12:42.000Z</time>
      </trkpt>
      <trkpt lat="47.73619" lon="-0.07232">
        <ele>93.800003051758</ele>
        <time>2024-08-21T12:12:48.000Z</time>
      </trkpt>
      <trkpt lat="47.73612" lon="-0.07227">
        <ele>94</ele>
        <time>2024-08-21T12:12:50.000Z</time>
      </trkpt>
      <trkpt lat="47.73606" lon="-0.07222">
        <ele>94.199996948242</ele>
        <time>2024-08-21T12:12:52.000Z</time>
      </trkpt>
      <trkpt lat="47.7359" lon="-0.07209">
        <ele>95</ele>
        <time>2024-08-21T12:12:58.000Z</time>
      </trkpt>
      <trkpt lat="47.73577" lon="-0.072">
        <ele>95.400001525879</ele>
        <time>2024-08-21T12:13:03.000Z</time>
      </trkpt>
      <trkpt lat="47.73575" lon="-0.07197">
        <ele>95.599998474121</ele>
        <time>2024-08-21T12:13:04.000Z</time>
      </trkpt>
      <trkpt lat="47.73553" lon="-0.07178">
        <ele>96</ele>
        <time>2024-08-21T12:13:11.000Z</time>
      </trkpt>
      <trkpt lat="47.7353" lon="-0.07161">
        <ele>96.400001525879</ele>
        <time>2024-08-21T12:13:16.000Z</time>
      </trkpt>
      <trkpt lat="47.73511" lon="-0.07143">
        <ele>96.599998474121</ele>
        <time>2024-08-21T12:13:21.000Z</time>
      </trkpt>
      <trkpt lat="47.73486" lon="-0.07119">
        <ele>96.199996948242</ele>
        <time>2024-08-21T12:13:26.000Z</time>
      </trkpt>
      <trkpt lat="47.73458" lon="-0.07099">
        <ele>96.199996948242</ele>
        <time>2024-08-21T12:13:31.000Z</time>
      </trkpt>
      <trkpt lat="47.73424" lon="-0.07064">
        <ele>95.599998474121</ele>
        <time>2024-08-21T12:13:39.000Z</time>
      </trkpt>
      <trkpt lat="47.73393" lon="-0.07032">
        <ele>95</ele>
        <time>2024-08-21T12:13:46.000Z</time>
      </trkpt>
      <trkpt lat="47.73382" lon="-0.07021">
        <ele>94.800003051758</ele>
        <time>2024-08-21T12:13:48.000Z</time>
      </trkpt>
      <trkpt lat="47.7336" lon="-0.06997">
        <ele>93.599998474121</ele>
        <time>2024-08-21T12:13:52.000Z</time>
      </trkpt>
      <trkpt lat="47.73354" lon="-0.06991">
        <ele>93</ele>
        <time>2024-08-21T12:13:53.000Z</time>
      </trkpt>
      <trkpt lat="47.73341" lon="-0.06978">
        <ele>92</ele>
        <time>2024-08-21T12:13:55.000Z</time>
      </trkpt>
      <trkpt lat="47.73313" lon="-0.0695">
        <ele>91</ele>
        <time>2024-08-21T12:13:59.000Z</time>
      </trkpt>
      <trkpt lat="47.73306" lon="-0.06942">
        <ele>89.800003051758</ele>
        <time>2024-08-21T12:14:00.000Z</time>
      </trkpt>
      <trkpt lat="47.73293" lon="-0.06928">
        <ele>88.400001525879</ele>
        <time>2024-08-21T12:14:02.000Z</time>
      </trkpt>
      <trkpt lat="47.73282" lon="-0.06917">
        <ele>87.199996948242</ele>
        <time>2024-08-21T12:14:04.000Z</time>
      </trkpt>
      <trkpt lat="47.73278" lon="-0.06913">
        <ele>86.599998474121</ele>
        <time>2024-08-21T12:14:05.000Z</time>
      </trkpt>
      <trkpt lat="47.73272" lon="-0.06907">
        <ele>86.199996948242</ele>
        <time>2024-08-21T12:14:07.000Z</time>
      </trkpt>
      <trkpt lat="47.73269" lon="-0.06904">
        <ele>86.199996948242</ele>
        <time>2024-08-21T12:14:08.000Z</time>
      </trkpt>
      <trkpt lat="47.73252" lon="-0.06886">
        <ele>85</ele>
        <time>2024-08-21T12:14:12.000Z</time>
      </trkpt>
      <trkpt lat="47.73229" lon="-0.06863">
        <ele>84</ele>
        <time>2024-08-21T12:14:16.000Z</time>
      </trkpt>
      <trkpt lat="47.73223" lon="-0.06856">
        <ele>83.599998474121</ele>
        <time>2024-08-21T12:14:17.000Z</time>
      </trkpt>
      <trkpt lat="47.7321" lon="-0.06842">
        <ele>82.599998474121</ele>
        <time>2024-08-21T12:14:19.000Z</time>
      </trkpt>
      <trkpt lat="47.73196" lon="-0.06828">
        <ele>81.400001525879</ele>
        <time>2024-08-21T12:14:21.000Z</time>
      </trkpt>
      <trkpt lat="47.73181" lon="-0.06812">
        <ele>80</ele>
        <time>2024-08-21T12:14:23.000Z</time>
      </trkpt>
      <trkpt lat="47.73166" lon="-0.06796">
        <ele>79</ele>
        <time>2024-08-21T12:14:25.000Z</time>
      </trkpt>
      <trkpt lat="47.73149" lon="-0.06781">
        <ele>77.599998474121</ele>
        <time>2024-08-21T12:14:27.000Z</time>
      </trkpt>
      <trkpt lat="47.73141" lon="-0.06775">
        <ele>76.599998474121</ele>
        <time>2024-08-21T12:14:28.000Z</time>
      </trkpt>
      <trkpt lat="47.73132" lon="-0.06769">
        <ele>75.599998474121</ele>
        <time>2024-08-21T12:14:29.000Z</time>
      </trkpt>
      <trkpt lat="47.73107" lon="-0.06759">
        <ele>74.400001525879</ele>
        <time>2024-08-21T12:14:32.000Z</time>
      </trkpt>
      <trkpt lat="47.73091" lon="-0.06754">
        <ele>74.199996948242</ele>
        <time>2024-08-21T12:14:34.000Z</time>
      </trkpt>
      <trkpt lat="47.7304" lon="-0.06738">
        <ele>74.800003051758</ele>
        <time>2024-08-21T12:14:41.000Z</time>
      </trkpt>
      <trkpt lat="47.73012" lon="-0.06726">
        <ele>75.800003051758</ele>
        <time>2024-08-21T12:14:46.000Z</time>
      </trkpt>
      <trkpt lat="47.73007" lon="-0.06725">
        <ele>75.800003051758</ele>
        <time>2024-08-21T12:14:47.000Z</time>
      </trkpt>
      <trkpt lat="47.73001" lon="-0.06723">
        <ele>76.400001525879</ele>
        <time>2024-08-21T12:14:48.000Z</time>
      </trkpt>
      <trkpt lat="47.7299" lon="-0.0672">
        <ele>76.800003051758</ele>
        <time>2024-08-21T12:14:50.000Z</time>
      </trkpt>
      <trkpt lat="47.72981" lon="-0.06718">
        <ele>77.199996948242</ele>
        <time>2024-08-21T12:14:52.000Z</time>
      </trkpt>
      <trkpt lat="47.72969" lon="-0.06716">
        <ele>78.400001525879</ele>
        <time>2024-08-21T12:14:55.000Z</time>
      </trkpt>
      <trkpt lat="47.72964" lon="-0.06715">
        <ele>78.599998474121</ele>
        <time>2024-08-21T12:14:56.000Z</time>
      </trkpt>
      <trkpt lat="47.72957" lon="-0.06714">
        <ele>79.400001525879</ele>
        <time>2024-08-21T12:14:58.000Z</time>
      </trkpt>
      <trkpt lat="47.72943" lon="-0.06711">
        <ele>80.800003051758</ele>
        <time>2024-08-21T12:15:02.000Z</time>
      </trkpt>
      <trkpt lat="47.72936" lon="-0.06709">
        <ele>81.199996948242</ele>
        <time>2024-08-21T12:15:04.000Z</time>
      </trkpt>
      <trkpt lat="47.72928" lon="-0.06707">
        <ele>81.800003051758</ele>
        <time>2024-08-21T12:15:06.000Z</time>
      </trkpt>
      <trkpt lat="47.72913" lon="-0.06699">
        <ele>82.599998474121</ele>
        <time>2024-08-21T12:15:09.000Z</time>
      </trkpt>
      <trkpt lat="47.7291" lon="-0.06698">
        <ele>82.800003051758</ele>
        <time>2024-08-21T12:15:10.000Z</time>
      </trkpt>
      <trkpt lat="47.72888" lon="-0.06692">
        <ele>84</ele>
        <time>2024-08-21T12:15:16.000Z</time>
      </trkpt>
      <trkpt lat="47.72871" lon="-0.06681">
        <ele>85</ele>
        <time>2024-08-21T12:15:21.000Z</time>
      </trkpt>
      <trkpt lat="47.72865" lon="-0.06677">
        <ele>85.199996948242</ele>
        <time>2024-08-21T12:15:23.000Z</time>
      </trkpt>
      <trkpt lat="47.72856" lon="-0.06667">
        <ele>86.199996948242</ele>
        <time>2024-08-21T12:15:27.000Z</time>
      </trkpt>
      <trkpt lat="47.72846" lon="-0.06656">
        <ele>86.599998474121</ele>
        <time>2024-08-21T12:15:30.000Z</time>
      </trkpt>
      <trkpt lat="47.72835" lon="-0.06643">
        <ele>87.199996948242</ele>
        <time>2024-08-21T12:15:35.000Z</time>
      </trkpt>
      <trkpt lat="47.72832" lon="-0.0664">
        <ele>87.400001525879</ele>
        <time>2024-08-21T12:15:36.000Z</time>
      </trkpt>
      <trkpt lat="47.72819" lon="-0.06625">
        <ele>88.199996948242</ele>
        <time>2024-08-21T12:15:43.000Z</time>
      </trkpt>
      <trkpt lat="47.72817" lon="-0.06623">
        <ele>88.400001525879</ele>
        <time>2024-08-21T12:15:44.000Z</time>
      </trkpt>
      <trkpt lat="47.72798" lon="-0.06603">
        <ele>89.400001525879</ele>
        <time>2024-08-21T12:15:52.000Z</time>
      </trkpt>
      <trkpt lat="47.72783" lon="-0.06594">
        <ele>90.199996948242</ele>
        <time>2024-08-21T12:15:58.000Z</time>
      </trkpt>
      <trkpt lat="47.72781" lon="-0.06593">
        <ele>90.400001525879</ele>
        <time>2024-08-21T12:15:59.000Z</time>
      </trkpt>
      <trkpt lat="47.72779" lon="-0.06592">
        <ele>90.400001525879</ele>
        <time>2024-08-21T12:16:00.000Z</time>
      </trkpt>
      <trkpt lat="47.72765" lon="-0.06587">
        <ele>91.400001525879</ele>
        <time>2024-08-21T12:16:06.000Z</time>
      </trkpt>
      <trkpt lat="47.72763" lon="-0.06587">
        <ele>91.400001525879</ele>
        <time>2024-08-21T12:16:07.000Z</time>
      </trkpt>
      <trkpt lat="47.72736" lon="-0.06589">
        <ele>92.199996948242</ele>
        <time>2024-08-21T12:16:17.000Z</time>
      </trkpt>
      <trkpt lat="47.72724" lon="-0.0659">
        <ele>92.599998474121</ele>
        <time>2024-08-21T12:16:21.000Z</time>
      </trkpt>
      <trkpt lat="47.72715" lon="-0.0659">
        <ele>93</ele>
        <time>2024-08-21T12:16:24.000Z</time>
      </trkpt>
      <trkpt lat="47.72693" lon="-0.0659">
        <ele>93.800003051758</ele>
        <time>2024-08-21T12:16:31.000Z</time>
      </trkpt>
      <trkpt lat="47.7269" lon="-0.0659">
        <ele>93.800003051758</ele>
        <time>2024-08-21T12:16:32.000Z</time>
      </trkpt>
      <trkpt lat="47.72661" lon="-0.06592">
        <ele>94.599998474121</ele>
        <time>2024-08-21T12:16:41.000Z</time>
      </trkpt>
      <trkpt lat="47.72652" lon="-0.06592">
        <ele>94.800003051758</ele>
        <time>2024-08-21T12:16:44.000Z</time>
      </trkpt>
      <trkpt lat="47.72636" lon="-0.06592">
        <ele>95</ele>
        <time>2024-08-21T12:16:49.000Z</time>
      </trkpt>
      <trkpt lat="47.72617" lon="-0.06593">
        <ele>95.199996948242</ele>
        <time>2024-08-21T12:16:55.000Z</time>
      </trkpt>
      <trkpt lat="47.72588" lon="-0.066">
        <ele>95.800003051758</ele>
        <time>2024-08-21T12:17:04.000Z</time>
      </trkpt>
      <trkpt lat="47.72585" lon="-0.06602">
        <ele>95.800003051758</ele>
        <time>2024-08-21T12:17:05.000Z</time>
      </trkpt>
      <trkpt lat="47.72553" lon="-0.06615">
        <ele>96.199996948242</ele>
        <time>2024-08-21T12:17:13.000Z</time>
      </trkpt>
      <trkpt lat="47.72519" lon="-0.0663">
        <ele>96</ele>
        <time>2024-08-21T12:17:21.000Z</time>
      </trkpt>
      <trkpt lat="47.725" lon="-0.06639">
        <ele>95.800003051758</ele>
        <time>2024-08-21T12:17:25.000Z</time>
      </trkpt>
      <trkpt lat="47.72479" lon="-0.06649">
        <ele>95.599998474121</ele>
        <time>2024-08-21T12:17:29.000Z</time>
      </trkpt>
      <trkpt lat="47.72434" lon="-0.06674">
        <ele>94.800003051758</ele>
        <time>2024-08-21T12:17:38.000Z</time>
      </trkpt>
      <trkpt lat="47.72429" lon="-0.06676">
        <ele>94.800003051758</ele>
        <time>2024-08-21T12:17:39.000Z</time>
      </trkpt>
      <trkpt lat="47.72408" lon="-0.06685">
        <ele>94.599998474121</ele>
        <time>2024-08-21T12:17:43.000Z</time>
      </trkpt>
      <trkpt lat="47.72397" lon="-0.06684">
        <ele>94.800003051758</ele>
        <time>2024-08-21T12:17:45.000Z</time>
      </trkpt>
      <trkpt lat="47.72388" lon="-0.06678">
        <ele>94.800003051758</ele>
        <time>2024-08-21T12:17:47.000Z</time>
      </trkpt>
      <trkpt lat="47.72384" lon="-0.06672">
        <ele>94.800003051758</ele>
        <time>2024-08-21T12:17:48.000Z</time>
      </trkpt>
      <trkpt lat="47.7238" lon="-0.06666">
        <ele>94.800003051758</ele>
        <time>2024-08-21T12:17:49.000Z</time>
      </trkpt>
      <trkpt lat="47.72372" lon="-0.06646">
        <ele>95</ele>
        <time>2024-08-21T12:17:52.000Z</time>
      </trkpt>
      <trkpt lat="47.7237" lon="-0.06639">
        <ele>95</ele>
        <time>2024-08-21T12:17:53.000Z</time>
      </trkpt>
      <trkpt lat="47.72356" lon="-0.066">
        <ele>94.599998474121</ele>
        <time>2024-08-21T12:17:58.000Z</time>
      </trkpt>
      <trkpt lat="47.72342" lon="-0.06562">
        <ele>94.400001525879</ele>
        <time>2024-08-21T12:18:03.000Z</time>
      </trkpt>
      <trkpt lat="47.72335" lon="-0.06549">
        <ele>94.400001525879</ele>
        <time>2024-08-21T12:18:05.000Z</time>
      </trkpt>
      <trkpt lat="47.72326" lon="-0.0654">
        <ele>94.599998474121</ele>
        <time>2024-08-21T12:18:07.000Z</time>
      </trkpt>
      <trkpt lat="47.7231" lon="-0.0653">
        <ele>94.599998474121</ele>
        <time>2024-08-21T12:18:10.000Z</time>
      </trkpt>
      <trkpt lat="47.72298" lon="-0.06528">
        <ele>94.599998474121</ele>
        <time>2024-08-21T12:18:12.000Z</time>
      </trkpt>
      <trkpt lat="47.72282" lon="-0.06529">
        <ele>94.599998474121</ele>
        <time>2024-08-21T12:18:15.000Z</time>
      </trkpt>
      <trkpt lat="47.72265" lon="-0.06531">
        <ele>94.599998474121</ele>
        <time>2024-08-21T12:18:18.000Z</time>
      </trkpt>
      <trkpt lat="47.72224" lon="-0.06527">
        <ele>94.400001525879</ele>
        <time>2024-08-21T12:18:25.000Z</time>
      </trkpt>
      <trkpt lat="47.72177" lon="-0.06503">
        <ele>93.599998474121</ele>
        <time>2024-08-21T12:18:33.000Z</time>
      </trkpt>
      <trkpt lat="47.72132" lon="-0.0649">
        <ele>92.599998474121</ele>
        <time>2024-08-21T12:18:40.000Z</time>
      </trkpt>
      <trkpt lat="47.72125" lon="-0.06489">
        <ele>92.599998474121</ele>
        <time>2024-08-21T12:18:41.000Z</time>
      </trkpt>
      <trkpt lat="47.7209" lon="-0.0649">
        <ele>92</ele>
        <time>2024-08-21T12:18:46.000Z</time>
      </trkpt>
      <trkpt lat="47.72083" lon="-0.06491">
        <ele>92</ele>
        <time>2024-08-21T12:18:47.000Z</time>
      </trkpt>
      <trkpt lat="47.7207" lon="-0.06491">
        <ele>91.599998474121</ele>
        <time>2024-08-21T12:18:49.000Z</time>
      </trkpt>
      <trkpt lat="47.72036" lon="-0.06492">
        <ele>90.800003051758</ele>
        <time>2024-08-21T12:18:54.000Z</time>
      </trkpt>
      <trkpt lat="47.72005" lon="-0.06496">
        <ele>90.400001525879</ele>
        <time>2024-08-21T12:18:59.000Z</time>
      </trkpt>
      <trkpt lat="47.71986" lon="-0.065">
        <ele>90.199996948242</ele>
        <time>2024-08-21T12:19:02.000Z</time>
      </trkpt>
      <trkpt lat="47.71955" lon="-0.0651">
        <ele>90.199996948242</ele>
        <time>2024-08-21T12:19:07.000Z</time>
      </trkpt>
      <trkpt lat="47.71948" lon="-0.06511">
        <ele>90.199996948242</ele>
        <time>2024-08-21T12:19:08.000Z</time>
      </trkpt>
      <trkpt lat="47.71902" lon="-0.06519">
        <ele>90</ele>
        <time>2024-08-21T12:19:15.000Z</time>
      </trkpt>
      <trkpt lat="47.71873" lon="-0.06506">
        <ele>90</ele>
        <time>2024-08-21T12:19:20.000Z</time>
      </trkpt>
      <trkpt lat="47.71868" lon="-0.06502">
        <ele>90</ele>
        <time>2024-08-21T12:19:21.000Z</time>
      </trkpt>
      <trkpt lat="47.71855" lon="-0.06485">
        <ele>89.800003051758</ele>
        <time>2024-08-21T12:19:24.000Z</time>
      </trkpt>
      <trkpt lat="47.71848" lon="-0.0647">
        <ele>89.800003051758</ele>
        <time>2024-08-21T12:19:26.000Z</time>
      </trkpt>
      <trkpt lat="47.71846" lon="-0.06452">
        <ele>89.599998474121</ele>
        <time>2024-08-21T12:19:28.000Z</time>
      </trkpt>
      <trkpt lat="47.71846" lon="-0.06443">
        <ele>89.400001525879</ele>
        <time>2024-08-21T12:19:29.000Z</time>
      </trkpt>
      <trkpt lat="47.71846" lon="-0.06415">
        <ele>89</ele>
        <time>2024-08-21T12:19:32.000Z</time>
      </trkpt>
      <trkpt lat="47.71848" lon="-0.06378">
        <ele>89</ele>
        <time>2024-08-21T12:19:36.000Z</time>
      </trkpt>
      <trkpt lat="47.71848" lon="-0.06326">
        <ele>89</ele>
        <time>2024-08-21T12:19:42.000Z</time>
      </trkpt>
      <trkpt lat="47.71846" lon="-0.06308">
        <ele>88.800003051758</ele>
        <time>2024-08-21T12:19:44.000Z</time>
      </trkpt>
      <trkpt lat="47.71845" lon="-0.06291">
        <ele>88.800003051758</ele>
        <time>2024-08-21T12:19:46.000Z</time>
      </trkpt>
      <trkpt lat="47.71841" lon="-0.06264">
        <ele>88.599998474121</ele>
        <time>2024-08-21T12:19:49.000Z</time>
      </trkpt>
      <trkpt lat="47.71825" lon="-0.06186">
        <ele>88.400001525879</ele>
        <time>2024-08-21T12:19:58.000Z</time>
      </trkpt>
      <trkpt lat="47.71821" lon="-0.06169">
        <ele>88.400001525879</ele>
        <time>2024-08-21T12:20:00.000Z</time>
      </trkpt>
      <trkpt lat="47.71809" lon="-0.06097">
        <ele>87.400001525879</ele>
        <time>2024-08-21T12:20:08.000Z</time>
      </trkpt>
      <trkpt lat="47.71804" lon="-0.06061">
        <ele>87</ele>
        <time>2024-08-21T12:20:12.000Z</time>
      </trkpt>
      <trkpt lat="47.71796" lon="-0.06021">
        <ele>86.800003051758</ele>
        <time>2024-08-21T12:20:17.000Z</time>
      </trkpt>
      <trkpt lat="47.7179" lon="-0.06012">
        <ele>86.599998474121</ele>
        <time>2024-08-21T12:20:20.000Z</time>
      </trkpt>
      <trkpt lat="47.71785" lon="-0.06013">
        <ele>86.400001525879</ele>
        <time>2024-08-21T12:20:22.000Z</time>
      </trkpt>
      <trkpt lat="47.71782" lon="-0.06016">
        <ele>86.400001525879</ele>
        <time>2024-08-21T12:20:23.000Z</time>
      </trkpt>
      <trkpt lat="47.71779" lon="-0.06019">
        <ele>86.199996948242</ele>
        <time>2024-08-21T12:20:24.000Z</time>
      </trkpt>
      <trkpt lat="47.71766" lon="-0.06033">
        <ele>85.599998474121</ele>
        <time>2024-08-21T12:20:27.000Z</time>
      </trkpt>
      <trkpt lat="47.71762" lon="-0.06039">
        <ele>85.400001525879</ele>
        <time>2024-08-21T12:20:28.000Z</time>
      </trkpt>
      <trkpt lat="47.71757" lon="-0.06046">
        <ele>85.199996948242</ele>
        <time>2024-08-21T12:20:29.000Z</time>
      </trkpt>
      <trkpt lat="47.71753" lon="-0.06053">
        <ele>84.599998474121</ele>
        <time>2024-08-21T12:20:30.000Z</time>
      </trkpt>
      <trkpt lat="47.71744" lon="-0.0607">
        <ele>83.599998474121</ele>
        <time>2024-08-21T12:20:32.000Z</time>
      </trkpt>
      <trkpt lat="47.7173" lon="-0.06103">
        <ele>81.800003051758</ele>
        <time>2024-08-21T12:20:35.000Z</time>
      </trkpt>
      <trkpt lat="47.71726" lon="-0.06116">
        <ele>81.599998474121</ele>
        <time>2024-08-21T12:20:36.000Z</time>
      </trkpt>
      <trkpt lat="47.71718" lon="-0.06143">
        <ele>80.199996948242</ele>
        <time>2024-08-21T12:20:38.000Z</time>
      </trkpt>
      <trkpt lat="47.71715" lon="-0.06158">
        <ele>79</ele>
        <time>2024-08-21T12:20:39.000Z</time>
      </trkpt>
      <trkpt lat="47.7171" lon="-0.0619">
        <ele>77.800003051758</ele>
        <time>2024-08-21T12:20:41.000Z</time>
      </trkpt>
      <trkpt lat="47.71708" lon="-0.06205">
        <ele>76.800003051758</ele>
        <time>2024-08-21T12:20:42.000Z</time>
      </trkpt>
      <trkpt lat="47.71704" lon="-0.06236">
        <ele>75.599998474121</ele>
        <time>2024-08-21T12:20:44.000Z</time>
      </trkpt>
      <trkpt lat="47.71702" lon="-0.0627">
        <ele>74.400001525879</ele>
        <time>2024-08-21T12:20:46.000Z</time>
      </trkpt>
      <trkpt lat="47.71703" lon="-0.06286">
        <ele>73.800003051758</ele>
        <time>2024-08-21T12:20:47.000Z</time>
      </trkpt>
      <trkpt lat="47.71703" lon="-0.06304">
        <ele>73</ele>
        <time>2024-08-21T12:20:48.000Z</time>
      </trkpt>
      <trkpt lat="47.71704" lon="-0.06321">
        <ele>71.599998474121</ele>
        <time>2024-08-21T12:20:49.000Z</time>
      </trkpt>
      <trkpt lat="47.71705" lon="-0.06357">
        <ele>70.400001525879</ele>
        <time>2024-08-21T12:20:51.000Z</time>
      </trkpt>
      <trkpt lat="47.71705" lon="-0.06374">
        <ele>69</ele>
        <time>2024-08-21T12:20:52.000Z</time>
      </trkpt>
      <trkpt lat="47.71706" lon="-0.06392">
        <ele>68.400001525879</ele>
        <time>2024-08-21T12:20:53.000Z</time>
      </trkpt>
      <trkpt lat="47.71706" lon="-0.0641">
        <ele>67.199996948242</ele>
        <time>2024-08-21T12:20:54.000Z</time>
      </trkpt>
      <trkpt lat="47.71708" lon="-0.06446">
        <ele>65</ele>
        <time>2024-08-21T12:20:56.000Z</time>
      </trkpt>
      <trkpt lat="47.71709" lon="-0.06481">
        <ele>63.799999237061</ele>
        <time>2024-08-21T12:20:58.000Z</time>
      </trkpt>
      <trkpt lat="47.7171" lon="-0.06498">
        <ele>62.599998474121</ele>
        <time>2024-08-21T12:20:59.000Z</time>
      </trkpt>
      <trkpt lat="47.71711" lon="-0.06516">
        <ele>62</ele>
        <time>2024-08-21T12:21:00.000Z</time>
      </trkpt>
      <trkpt lat="47.71711" lon="-0.06532">
        <ele>60.799999237061</ele>
        <time>2024-08-21T12:21:01.000Z</time>
      </trkpt>
      <trkpt lat="47.71712" lon="-0.06579">
        <ele>58.599998474121</ele>
        <time>2024-08-21T12:21:04.000Z</time>
      </trkpt>
      <trkpt lat="47.71712" lon="-0.06593">
        <ele>58</ele>
        <time>2024-08-21T12:21:05.000Z</time>
      </trkpt>
      <trkpt lat="47.7171" lon="-0.06605">
        <ele>57.400001525879</ele>
        <time>2024-08-21T12:21:06.000Z</time>
      </trkpt>
      <trkpt lat="47.71706" lon="-0.06615">
        <ele>57.200000762939</ele>
        <time>2024-08-21T12:21:07.000Z</time>
      </trkpt>
      <trkpt lat="47.71699" lon="-0.06621">
        <ele>56.799999237061</ele>
        <time>2024-08-21T12:21:08.000Z</time>
      </trkpt>
      <trkpt lat="47.71692" lon="-0.06622">
        <ele>56.200000762939</ele>
        <time>2024-08-21T12:21:09.000Z</time>
      </trkpt>
      <trkpt lat="47.71685" lon="-0.06619">
        <ele>56</ele>
        <time>2024-08-21T12:21:10.000Z</time>
      </trkpt>
      <trkpt lat="47.71679" lon="-0.0661">
        <ele>55.799999237061</ele>
        <time>2024-08-21T12:21:11.000Z</time>
      </trkpt>
      <trkpt lat="47.71673" lon="-0.066">
        <ele>55.799999237061</ele>
        <time>2024-08-21T12:21:12.000Z</time>
      </trkpt>
      <trkpt lat="47.71663" lon="-0.06575">
        <ele>55</ele>
        <time>2024-08-21T12:21:14.000Z</time>
      </trkpt>
      <trkpt lat="47.71653" lon="-0.06548">
        <ele>53.400001525879</ele>
        <time>2024-08-21T12:21:16.000Z</time>
      </trkpt>
      <trkpt lat="47.71642" lon="-0.0652">
        <ele>52.200000762939</ele>
        <time>2024-08-21T12:21:18.000Z</time>
      </trkpt>
      <trkpt lat="47.7163" lon="-0.06491">
        <ele>50.400001525879</ele>
        <time>2024-08-21T12:21:20.000Z</time>
      </trkpt>
      <trkpt lat="47.71625" lon="-0.06477">
        <ele>49.799999237061</ele>
        <time>2024-08-21T12:21:21.000Z</time>
      </trkpt>
      <trkpt lat="47.71619" lon="-0.06462">
        <ele>49</ele>
        <time>2024-08-21T12:21:22.000Z</time>
      </trkpt>
      <trkpt lat="47.71613" lon="-0.06448">
        <ele>47.799999237061</ele>
        <time>2024-08-21T12:21:23.000Z</time>
      </trkpt>
      <trkpt lat="47.71601" lon="-0.06418">
        <ele>45.799999237061</ele>
        <time>2024-08-21T12:21:25.000Z</time>
      </trkpt>
      <trkpt lat="47.7159" lon="-0.06389">
        <ele>44.200000762939</ele>
        <time>2024-08-21T12:21:27.000Z</time>
      </trkpt>
      <trkpt lat="47.71585" lon="-0.06376">
        <ele>43.200000762939</ele>
        <time>2024-08-21T12:21:28.000Z</time>
      </trkpt>
      <trkpt lat="47.71581" lon="-0.06365">
        <ele>42.799999237061</ele>
        <time>2024-08-21T12:21:29.000Z</time>
      </trkpt>
      <trkpt lat="47.71573" lon="-0.06347">
        <ele>41.799999237061</ele>
        <time>2024-08-21T12:21:31.000Z</time>
      </trkpt>
      <trkpt lat="47.71571" lon="-0.06342">
        <ele>41.400001525879</ele>
        <time>2024-08-21T12:21:32.000Z</time>
      </trkpt>
      <trkpt lat="47.71568" lon="-0.06339">
        <ele>41.400001525879</ele>
        <time>2024-08-21T12:21:33.000Z</time>
      </trkpt>
      <trkpt lat="47.71564" lon="-0.06339">
        <ele>41.200000762939</ele>
        <time>2024-08-21T12:21:34.000Z</time>
      </trkpt>
      <trkpt lat="47.71561" lon="-0.06343">
        <ele>41</ele>
        <time>2024-08-21T12:21:36.000Z</time>
      </trkpt>
      <trkpt lat="47.71562" lon="-0.06346">
        <ele>40.799999237061</ele>
        <time>2024-08-21T12:21:37.000Z</time>
      </trkpt>
      <trkpt lat="47.71563" lon="-0.06362">
        <ele>40.799999237061</ele>
        <time>2024-08-21T12:21:40.000Z</time>
      </trkpt>
      <trkpt lat="47.71565" lon="-0.06385">
        <ele>40.599998474121</ele>
        <time>2024-08-21T12:21:43.000Z</time>
      </trkpt>
      <trkpt lat="47.71565" lon="-0.06393">
        <ele>40.400001525879</ele>
        <time>2024-08-21T12:21:44.000Z</time>
      </trkpt>
      <trkpt lat="47.71565" lon="-0.06408">
        <ele>40</ele>
        <time>2024-08-21T12:21:46.000Z</time>
      </trkpt>
      <trkpt lat="47.71565" lon="-0.06425">
        <ele>39.599998474121</ele>
        <time>2024-08-21T12:21:49.000Z</time>
      </trkpt>
      <trkpt lat="47.71563" lon="-0.06427">
        <ele>39.599998474121</ele>
        <time>2024-08-21T12:21:50.000Z</time>
      </trkpt>
      <trkpt lat="47.71562" lon="-0.06426">
        <ele>39.400001525879</ele>
        <time>2024-08-21T12:21:51.000Z</time>
      </trkpt>
      <trkpt lat="47.71563" lon="-0.06423">
        <ele>39.400001525879</ele>
        <time>2024-08-21T12:21:52.000Z</time>
      </trkpt>
      <trkpt lat="47.71563" lon="-0.06401">
        <ele>39.599998474121</ele>
        <time>2024-08-21T12:21:59.000Z</time>
      </trkpt>
      <trkpt lat="47.71563" lon="-0.06375">
        <ele>39.599998474121</ele>
        <time>2024-08-21T12:22:04.000Z</time>
      </trkpt>
      <trkpt lat="47.71562" lon="-0.06363">
        <ele>39.799999237061</ele>
        <time>2024-08-21T12:22:06.000Z</time>
      </trkpt>
      <trkpt lat="47.7156" lon="-0.0634">
        <ele>40</ele>
        <time>2024-08-21T12:22:10.000Z</time>
      </trkpt>
      <trkpt lat="47.71555" lon="-0.06307">
        <ele>40</ele>
        <time>2024-08-21T12:22:15.000Z</time>
      </trkpt>
      <trkpt lat="47.71551" lon="-0.06293">
        <ele>40</ele>
        <time>2024-08-21T12:22:17.000Z</time>
      </trkpt>
      <trkpt lat="47.71542" lon="-0.06245">
        <ele>39.599998474121</ele>
        <time>2024-08-21T12:22:23.000Z</time>
      </trkpt>
      <trkpt lat="47.71538" lon="-0.06215">
        <ele>39</ele>
        <time>2024-08-21T12:22:27.000Z</time>
      </trkpt>
      <trkpt lat="47.71535" lon="-0.0621">
        <ele>38.799999237061</ele>
        <time>2024-08-21T12:22:28.000Z</time>
      </trkpt>
      <trkpt lat="47.71531" lon="-0.06209">
        <ele>38.799999237061</ele>
        <time>2024-08-21T12:22:29.000Z</time>
      </trkpt>
      <trkpt lat="47.71522" lon="-0.06212">
        <ele>38.599998474121</ele>
        <time>2024-08-21T12:22:31.000Z</time>
      </trkpt>
      <trkpt lat="47.71507" lon="-0.06219">
        <ele>38.599998474121</ele>
        <time>2024-08-21T12:22:34.000Z</time>
      </trkpt>
      <trkpt lat="47.71496" lon="-0.06224">
        <ele>38.599998474121</ele>
        <time>2024-08-21T12:22:36.000Z</time>
      </trkpt>
      <trkpt lat="47.71477" lon="-0.06233">
        <ele>38.400001525879</ele>
        <time>2024-08-21T12:22:39.000Z</time>
      </trkpt>
      <trkpt lat="47.71458" lon="-0.06241">
        <ele>37.599998474121</ele>
        <time>2024-08-21T12:22:42.000Z</time>
      </trkpt>
      <trkpt lat="47.71452" lon="-0.06244">
        <ele>37.400001525879</ele>
        <time>2024-08-21T12:22:43.000Z</time>
      </trkpt>
      <trkpt lat="47.71411" lon="-0.0626">
        <ele>36.400001525879</ele>
        <time>2024-08-21T12:22:49.000Z</time>
      </trkpt>
      <trkpt lat="47.71398" lon="-0.06266">
        <ele>36.200000762939</ele>
        <time>2024-08-21T12:22:51.000Z</time>
      </trkpt>
      <trkpt lat="47.71372" lon="-0.06283">
        <ele>36</ele>
        <time>2024-08-21T12:22:55.000Z</time>
      </trkpt>
      <trkpt lat="47.71347" lon="-0.06303">
        <ele>35.200000762939</ele>
        <time>2024-08-21T12:22:59.000Z</time>
      </trkpt>
      <trkpt lat="47.71335" lon="-0.06315">
        <ele>34.799999237061</ele>
        <time>2024-08-21T12:23:01.000Z</time>
      </trkpt>
      <trkpt lat="47.7133" lon="-0.06322">
        <ele>34.599998474121</ele>
        <time>2024-08-21T12:23:02.000Z</time>
      </trkpt>
      <trkpt lat="47.71297" lon="-0.06365">
        <ele>34</ele>
        <time>2024-08-21T12:23:08.000Z</time>
      </trkpt>
      <trkpt lat="47.7128" lon="-0.06385">
        <ele>34</ele>
        <time>2024-08-21T12:23:11.000Z</time>
      </trkpt>
      <trkpt lat="47.71248" lon="-0.0641">
        <ele>33.200000762939</ele>
        <time>2024-08-21T12:23:16.000Z</time>
      </trkpt>
      <trkpt lat="47.71234" lon="-0.06417">
        <ele>33</ele>
        <time>2024-08-21T12:23:18.000Z</time>
      </trkpt>
      <trkpt lat="47.71188" lon="-0.06442">
        <ele>32.400001525879</ele>
        <time>2024-08-21T12:23:25.000Z</time>
      </trkpt>
      <trkpt lat="47.71143" lon="-0.06468">
        <ele>32.200000762939</ele>
        <time>2024-08-21T12:23:32.000Z</time>
      </trkpt>
      <trkpt lat="47.71137" lon="-0.06472">
        <ele>32.200000762939</ele>
        <time>2024-08-21T12:23:33.000Z</time>
      </trkpt>
      <trkpt lat="47.71089" lon="-0.06506">
        <ele>32.599998474121</ele>
        <time>2024-08-21T12:23:41.000Z</time>
      </trkpt>
      <trkpt lat="47.71032" lon="-0.06534">
        <ele>33</ele>
        <time>2024-08-21T12:23:50.000Z</time>
      </trkpt>
      <trkpt lat="47.70975" lon="-0.06561">
        <ele>33</ele>
        <time>2024-08-21T12:23:59.000Z</time>
      </trkpt>
      <trkpt lat="47.70968" lon="-0.06563">
        <ele>33</ele>
        <time>2024-08-21T12:24:00.000Z</time>
      </trkpt>
      <trkpt lat="47.70938" lon="-0.06582">
        <ele>33.400001525879</ele>
        <time>2024-08-21T12:24:05.000Z</time>
      </trkpt>
      <trkpt lat="47.70933" lon="-0.06588">
        <ele>33.400001525879</ele>
        <time>2024-08-21T12:24:06.000Z</time>
      </trkpt>
      <trkpt lat="47.70929" lon="-0.06594">
        <ele>33.599998474121</ele>
        <time>2024-08-21T12:24:07.000Z</time>
      </trkpt>
      <trkpt lat="47.70918" lon="-0.06619">
        <ele>33.599998474121</ele>
        <time>2024-08-21T12:24:10.000Z</time>
      </trkpt>
      <trkpt lat="47.70894" lon="-0.06689">
        <ele>33.400001525879</ele>
        <time>2024-08-21T12:24:18.000Z</time>
      </trkpt>
      <trkpt lat="47.7087" lon="-0.06769">
        <ele>32.799999237061</ele>
        <time>2024-08-21T12:24:27.000Z</time>
      </trkpt>
      <trkpt lat="47.70856" lon="-0.06829">
        <ele>32.799999237061</ele>
        <time>2024-08-21T12:24:34.000Z</time>
      </trkpt>
      <trkpt lat="47.70848" lon="-0.0684">
        <ele>32.799999237061</ele>
        <time>2024-08-21T12:24:36.000Z</time>
      </trkpt>
      <trkpt lat="47.70842" lon="-0.06843">
        <ele>32.799999237061</ele>
        <time>2024-08-21T12:24:37.000Z</time>
      </trkpt>
      <trkpt lat="47.70837" lon="-0.06845">
        <ele>33</ele>
        <time>2024-08-21T12:24:38.000Z</time>
      </trkpt>
      <trkpt lat="47.70819" lon="-0.06844">
        <ele>33.200000762939</ele>
        <time>2024-08-21T12:24:41.000Z</time>
      </trkpt>
      <trkpt lat="47.70801" lon="-0.06845">
        <ele>33.200000762939</ele>
        <time>2024-08-21T12:24:44.000Z</time>
      </trkpt>
      <trkpt lat="47.70795" lon="-0.06843">
        <ele>33.200000762939</ele>
        <time>2024-08-21T12:24:45.000Z</time>
      </trkpt>
      <trkpt lat="47.70784" lon="-0.06838">
        <ele>33.200000762939</ele>
        <time>2024-08-21T12:24:47.000Z</time>
      </trkpt>
      <trkpt lat="47.70766" lon="-0.06833">
        <ele>33</ele>
        <time>2024-08-21T12:24:50.000Z</time>
      </trkpt>
      <trkpt lat="47.70713" lon="-0.06829">
        <ele>32.200000762939</ele>
        <time>2024-08-21T12:24:58.000Z</time>
      </trkpt>
      <trkpt lat="47.70706" lon="-0.06828">
        <ele>32</ele>
        <time>2024-08-21T12:24:59.000Z</time>
      </trkpt>
      <trkpt lat="47.70679" lon="-0.06827">
        <ele>31.200000762939</ele>
        <time>2024-08-21T12:25:03.000Z</time>
      </trkpt>
      <trkpt lat="47.70666" lon="-0.06829">
        <ele>31</ele>
        <time>2024-08-21T12:25:05.000Z</time>
      </trkpt>
      <trkpt lat="47.70609" lon="-0.06844">
        <ele>30.39999961853</ele>
        <time>2024-08-21T12:25:14.000Z</time>
      </trkpt>
      <trkpt lat="47.70567" lon="-0.0686">
        <ele>30.60000038147</ele>
        <time>2024-08-21T12:25:21.000Z</time>
      </trkpt>
      <trkpt lat="47.70531" lon="-0.06872">
        <ele>30.39999961853</ele>
        <time>2024-08-21T12:25:27.000Z</time>
      </trkpt>
      <trkpt lat="47.70509" lon="-0.06879">
        <ele>30.200000762939</ele>
        <time>2024-08-21T12:25:31.000Z</time>
      </trkpt>
      <trkpt lat="47.70503" lon="-0.0688">
        <ele>30.200000762939</ele>
        <time>2024-08-21T12:25:32.000Z</time>
      </trkpt>
      <trkpt lat="47.70486" lon="-0.06878">
        <ele>30.200000762939</ele>
        <time>2024-08-21T12:25:35.000Z</time>
      </trkpt>
      <trkpt lat="47.70429" lon="-0.0686">
        <ele>30.799999237061</ele>
        <time>2024-08-21T12:25:45.000Z</time>
      </trkpt>
      <trkpt lat="47.70418" lon="-0.06858">
        <ele>30.799999237061</ele>
        <time>2024-08-21T12:25:47.000Z</time>
      </trkpt>
      <trkpt lat="47.70406" lon="-0.06859">
        <ele>30.60000038147</ele>
        <time>2024-08-21T12:25:49.000Z</time>
      </trkpt>
      <trkpt lat="47.704" lon="-0.0686">
        <ele>30.60000038147</ele>
        <time>2024-08-21T12:25:50.000Z</time>
      </trkpt>
      <trkpt lat="47.7039" lon="-0.06865">
        <ele>30.60000038147</ele>
        <time>2024-08-21T12:25:52.000Z</time>
      </trkpt>
      <trkpt lat="47.70377" lon="-0.06873">
        <ele>30.799999237061</ele>
        <time>2024-08-21T12:25:55.000Z</time>
      </trkpt>
      <trkpt lat="47.70365" lon="-0.06883">
        <ele>31.39999961853</ele>
        <time>2024-08-21T12:25:59.000Z</time>
      </trkpt>
      <trkpt lat="47.70345" lon="-0.06897">
        <ele>32</ele>
        <time>2024-08-21T12:26:04.000Z</time>
      </trkpt>
      <trkpt lat="47.70313" lon="-0.06918">
        <ele>31.799999237061</ele>
        <time>2024-08-21T12:26:11.000Z</time>
      </trkpt>
      <trkpt lat="47.70303" lon="-0.06923">
        <ele>32</ele>
        <time>2024-08-21T12:26:13.000Z</time>
      </trkpt>
      <trkpt lat="47.70285" lon="-0.06936">
        <ele>32.200000762939</ele>
        <time>2024-08-21T12:26:17.000Z</time>
      </trkpt>
      <trkpt lat="47.70281" lon="-0.0694">
        <ele>32.200000762939</ele>
        <time>2024-08-21T12:26:18.000Z</time>
      </trkpt>
      <trkpt lat="47.70238" lon="-0.06969">
        <ele>32.400001525879</ele>
        <time>2024-08-21T12:26:27.000Z</time>
      </trkpt>
      <trkpt lat="47.70225" lon="-0.06979">
        <ele>32.200000762939</ele>
        <time>2024-08-21T12:26:30.000Z</time>
      </trkpt>
      <trkpt lat="47.70212" lon="-0.06988">
        <ele>32</ele>
        <time>2024-08-21T12:26:33.000Z</time>
      </trkpt>
      <trkpt lat="47.70194" lon="-0.07">
        <ele>32</ele>
        <time>2024-08-21T12:26:37.000Z</time>
      </trkpt>
      <trkpt lat="47.70181" lon="-0.07009">
        <ele>32.200000762939</ele>
        <time>2024-08-21T12:26:40.000Z</time>
      </trkpt>
      <trkpt lat="47.70171" lon="-0.07014">
        <ele>32.200000762939</ele>
        <time>2024-08-21T12:26:42.000Z</time>
      </trkpt>
      <trkpt lat="47.70157" lon="-0.07026">
        <ele>32.200000762939</ele>
        <time>2024-08-21T12:26:46.000Z</time>
      </trkpt>
      <trkpt lat="47.70137" lon="-0.07038">
        <ele>31.799999237061</ele>
        <time>2024-08-21T12:26:52.000Z</time>
      </trkpt>
      <trkpt lat="47.70136" lon="-0.07038">
        <ele>31.799999237061</ele>
        <time>2024-08-21T12:26:53.000Z</time>
      </trkpt>
      <trkpt lat="47.70131" lon="-0.07029">
        <ele>31.799999237061</ele>
        <time>2024-08-21T12:26:56.000Z</time>
      </trkpt>
      <trkpt lat="47.70127" lon="-0.0702">
        <ele>31.799999237061</ele>
        <time>2024-08-21T12:26:58.000Z</time>
      </trkpt>
      <trkpt lat="47.70121" lon="-0.07018">
        <ele>31.799999237061</ele>
        <time>2024-08-21T12:27:00.000Z</time>
      </trkpt>
      <trkpt lat="47.70109" lon="-0.07034">
        <ele>31.799999237061</ele>
        <time>2024-08-21T12:27:04.000Z</time>
      </trkpt>
      <trkpt lat="47.70097" lon="-0.07059">
        <ele>31</ele>
        <time>2024-08-21T12:27:08.000Z</time>
      </trkpt>
      <trkpt lat="47.70088" lon="-0.07078">
        <ele>30.60000038147</ele>
        <time>2024-08-21T12:27:11.000Z</time>
      </trkpt>
      <trkpt lat="47.70082" lon="-0.07092">
        <ele>30.39999961853</ele>
        <time>2024-08-21T12:27:13.000Z</time>
      </trkpt>
      <trkpt lat="47.70071" lon="-0.0712">
        <ele>30.39999961853</ele>
        <time>2024-08-21T12:27:17.000Z</time>
      </trkpt>
      <trkpt lat="47.70056" lon="-0.07161">
        <ele>31</ele>
        <time>2024-08-21T12:27:23.000Z</time>
      </trkpt>
      <trkpt lat="47.70053" lon="-0.07176">
        <ele>31.200000762939</ele>
        <time>2024-08-21T12:27:25.000Z</time>
      </trkpt>
      <trkpt lat="47.70053" lon="-0.07183">
        <ele>31.39999961853</ele>
        <time>2024-08-21T12:27:26.000Z</time>
      </trkpt>
      <trkpt lat="47.70049" lon="-0.07214">
        <ele>31.799999237061</ele>
        <time>2024-08-21T12:27:30.000Z</time>
      </trkpt>
      <trkpt lat="47.70045" lon="-0.07245">
        <ele>32.200000762939</ele>
        <time>2024-08-21T12:27:35.000Z</time>
      </trkpt>
      <trkpt lat="47.70045" lon="-0.07246">
        <ele>32.200000762939</ele>
        <time>2024-08-21T12:27:36.000Z</time>
      </trkpt>
      <trkpt lat="47.70045" lon="-0.07247">
        <ele>32.599998474121</ele>
        <time>2024-08-21T12:27:37.000Z</time>
      </trkpt>
      <trkpt lat="47.70039" lon="-0.07247">
        <ele>33</ele>
        <time>2024-08-21T12:27:39.000Z</time>
      </trkpt>
      <trkpt lat="47.70033" lon="-0.07247">
        <ele>33.200000762939</ele>
        <time>2024-08-21T12:27:41.000Z</time>
      </trkpt>
      <trkpt lat="47.70016" lon="-0.0725">
        <ele>33.400001525879</ele>
        <time>2024-08-21T12:27:46.000Z</time>
      </trkpt>
      <trkpt lat="47.70012" lon="-0.07253">
        <ele>33.400001525879</ele>
        <time>2024-08-21T12:27:48.000Z</time>
      </trkpt>
      <trkpt lat="47.70009" lon="-0.07254">
        <ele>33.400001525879</ele>
        <time>2024-08-21T12:27:49.000Z</time>
      </trkpt>
      <trkpt lat="47.6999" lon="-0.07254">
        <ele>33.599998474121</ele>
        <time>2024-08-21T12:27:54.000Z</time>
      </trkpt>
      <trkpt lat="47.69972" lon="-0.07255">
        <ele>33.200000762939</ele>
        <time>2024-08-21T12:27:59.000Z</time>
      </trkpt>
      <trkpt lat="47.69957" lon="-0.07255">
        <ele>33</ele>
        <time>2024-08-21T12:28:04.000Z</time>
      </trkpt>
      <trkpt lat="47.69958" lon="-0.07278">
        <ele>33</ele>
        <time>2024-08-21T12:28:08.000Z</time>
      </trkpt>
      <trkpt lat="47.69957" lon="-0.0731">
        <ele>33</ele>
        <time>2024-08-21T12:28:13.000Z</time>
      </trkpt>
      <trkpt lat="47.69955" lon="-0.0733">
        <ele>33</ele>
        <time>2024-08-21T12:28:17.000Z</time>
      </trkpt>
      <trkpt lat="47.69955" lon="-0.07357">
        <ele>33.400001525879</ele>
        <time>2024-08-21T12:28:23.000Z</time>
      </trkpt>
      <trkpt lat="47.69952" lon="-0.07393">
        <ele>33.400001525879</ele>
        <time>2024-08-21T12:28:29.000Z</time>
      </trkpt>
      <trkpt lat="47.69951" lon="-0.07428">
        <ele>33.200000762939</ele>
        <time>2024-08-21T12:28:35.000Z</time>
      </trkpt>
      <trkpt lat="47.69946" lon="-0.0748">
        <ele>33</ele>
        <time>2024-08-21T12:28:44.000Z</time>
      </trkpt>
      <trkpt lat="47.69942" lon="-0.07502">
        <ele>33</ele>
        <time>2024-08-21T12:28:49.000Z</time>
      </trkpt>
      <trkpt lat="47.69937" lon="-0.07505">
        <ele>33</ele>
        <time>2024-08-21T12:28:51.000Z</time>
      </trkpt>
      <trkpt lat="47.69933" lon="-0.07503">
        <ele>33</ele>
        <time>2024-08-21T12:28:53.000Z</time>
      </trkpt>
      <trkpt lat="47.69926" lon="-0.07499">
        <ele>32.799999237061</ele>
        <time>2024-08-21T12:28:56.000Z</time>
      </trkpt>
      <trkpt lat="47.69922" lon="-0.07496">
        <ele>32.599998474121</ele>
        <time>2024-08-21T12:28:58.000Z</time>
      </trkpt>
      <trkpt lat="47.69907" lon="-0.07493">
        <ele>32.200000762939</ele>
        <time>2024-08-21T12:29:03.000Z</time>
      </trkpt>
      <trkpt lat="47.69901" lon="-0.07492">
        <ele>32</ele>
        <time>2024-08-21T12:29:05.000Z</time>
      </trkpt>
      <trkpt lat="47.69894" lon="-0.07493">
        <ele>32</ele>
        <time>2024-08-21T12:29:07.000Z</time>
      </trkpt>
      <trkpt lat="47.69879" lon="-0.07494">
        <ele>31.60000038147</ele>
        <time>2024-08-21T12:29:11.000Z</time>
      </trkpt>
      <trkpt lat="47.69866" lon="-0.07492">
        <ele>31</ele>
        <time>2024-08-21T12:29:14.000Z</time>
      </trkpt>
      <trkpt lat="47.69856" lon="-0.07492">
        <ele>30.799999237061</ele>
        <time>2024-08-21T12:29:16.000Z</time>
      </trkpt>
      <trkpt lat="47.69826" lon="-0.07491">
        <ele>30.799999237061</ele>
        <time>2024-08-21T12:29:22.000Z</time>
      </trkpt>
      <trkpt lat="47.69806" lon="-0.07494">
        <ele>30.799999237061</ele>
        <time>2024-08-21T12:29:27.000Z</time>
      </trkpt>
      <trkpt lat="47.69781" lon="-0.07497">
        <ele>30.60000038147</ele>
        <time>2024-08-21T12:29:35.000Z</time>
      </trkpt>
      <trkpt lat="47.69781" lon="-0.07497">
        <ele>30.60000038147</ele>
        <time>2024-08-21T12:29:37.000Z</time>
      </trkpt>
      <trkpt lat="47.69776" lon="-0.075">
        <ele>31.200000762939</ele>
        <time>2024-08-21T12:29:58.000Z</time>
      </trkpt>
      <trkpt lat="47.69758" lon="-0.07501">
        <ele>30.799999237061</ele>
        <time>2024-08-21T12:30:03.000Z</time>
      </trkpt>
      <trkpt lat="47.69723" lon="-0.07504">
        <ele>30.60000038147</ele>
        <time>2024-08-21T12:30:11.000Z</time>
      </trkpt>
      <trkpt lat="47.69681" lon="-0.07508">
        <ele>31.39999961853</ele>
        <time>2024-08-21T12:30:21.000Z</time>
      </trkpt>
      <trkpt lat="47.69664" lon="-0.07507">
        <ele>32.200000762939</ele>
        <time>2024-08-21T12:30:25.000Z</time>
      </trkpt>
      <trkpt lat="47.6966" lon="-0.07507">
        <ele>32.400001525879</ele>
        <time>2024-08-21T12:30:26.000Z</time>
      </trkpt>
      <trkpt lat="47.69648" lon="-0.07505">
        <ele>32.799999237061</ele>
        <time>2024-08-21T12:30:29.000Z</time>
      </trkpt>
      <trkpt lat="47.69637" lon="-0.07504">
        <ele>32.799999237061</ele>
        <time>2024-08-21T12:30:32.000Z</time>
      </trkpt>
      <trkpt lat="47.69616" lon="-0.07501">
        <ele>33</ele>
        <time>2024-08-21T12:30:38.000Z</time>
      </trkpt>
      <trkpt lat="47.69613" lon="-0.07501">
        <ele>33.200000762939</ele>
        <time>2024-08-21T12:30:39.000Z</time>
      </trkpt>
      <trkpt lat="47.69605" lon="-0.07502">
        <ele>34</ele>
        <time>2024-08-21T12:30:43.000Z</time>
      </trkpt>
      <trkpt lat="47.69604" lon="-0.07502">
        <ele>34</ele>
        <time>2024-08-21T12:30:45.000Z</time>
      </trkpt>
      <trkpt lat="47.69589" lon="-0.07503">
        <ele>34.200000762939</ele>
        <time>2024-08-21T12:32:14.000Z</time>
      </trkpt>
      <trkpt lat="47.69576" lon="-0.07512">
        <ele>34</ele>
        <time>2024-08-21T12:32:20.000Z</time>
      </trkpt>
      <trkpt lat="47.69561" lon="-0.07523">
        <ele>34.200000762939</ele>
        <time>2024-08-21T12:32:26.000Z</time>
      </trkpt>
      <trkpt lat="47.69541" lon="-0.07536">
        <ele>34.200000762939</ele>
        <time>2024-08-21T12:32:32.000Z</time>
      </trkpt>
      <trkpt lat="47.69526" lon="-0.07546">
        <ele>34.200000762939</ele>
        <time>2024-08-21T12:32:36.000Z</time>
      </trkpt>
      <trkpt lat="47.69515" lon="-0.07554">
        <ele>34</ele>
        <time>2024-08-21T12:32:39.000Z</time>
      </trkpt>
      <trkpt lat="47.69485" lon="-0.07576">
        <ele>33.200000762939</ele>
        <time>2024-08-21T12:32:46.000Z</time>
      </trkpt>
      <trkpt lat="47.69466" lon="-0.0759">
        <ele>32.599998474121</ele>
        <time>2024-08-21T12:32:50.000Z</time>
      </trkpt>
      <trkpt lat="47.69456" lon="-0.07595">
        <ele>32.400001525879</ele>
        <time>2024-08-21T12:32:52.000Z</time>
      </trkpt>
      <trkpt lat="47.69451" lon="-0.07597">
        <ele>32.400001525879</ele>
        <time>2024-08-21T12:32:53.000Z</time>
      </trkpt>
      <trkpt lat="47.69439" lon="-0.07599">
        <ele>32</ele>
        <time>2024-08-21T12:32:55.000Z</time>
      </trkpt>
      <trkpt lat="47.69417" lon="-0.07599">
        <ele>31.799999237061</ele>
        <time>2024-08-21T12:32:59.000Z</time>
      </trkpt>
      <trkpt lat="47.69395" lon="-0.07598">
        <ele>31.799999237061</ele>
        <time>2024-08-21T12:33:03.000Z</time>
      </trkpt>
      <trkpt lat="47.69385" lon="-0.07595">
        <ele>31.799999237061</ele>
        <time>2024-08-21T12:33:05.000Z</time>
      </trkpt>
      <trkpt lat="47.69365" lon="-0.07588">
        <ele>32.400001525879</ele>
        <time>2024-08-21T12:33:09.000Z</time>
      </trkpt>
      <trkpt lat="47.69338" lon="-0.07577">
        <ele>33</ele>
        <time>2024-08-21T12:33:15.000Z</time>
      </trkpt>
      <trkpt lat="47.69299" lon="-0.07572">
        <ele>32.400001525879</ele>
        <time>2024-08-21T12:33:22.000Z</time>
      </trkpt>
      <trkpt lat="47.69275" lon="-0.07576">
        <ele>31.39999961853</ele>
        <time>2024-08-21T12:33:26.000Z</time>
      </trkpt>
      <trkpt lat="47.69258" lon="-0.0758">
        <ele>31</ele>
        <time>2024-08-21T12:33:29.000Z</time>
      </trkpt>
      <trkpt lat="47.69252" lon="-0.07582">
        <ele>31</ele>
        <time>2024-08-21T12:33:30.000Z</time>
      </trkpt>
      <trkpt lat="47.69235" lon="-0.07588">
        <ele>30.799999237061</ele>
        <time>2024-08-21T12:33:33.000Z</time>
      </trkpt>
      <trkpt lat="47.69229" lon="-0.0759">
        <ele>31</ele>
        <time>2024-08-21T12:33:34.000Z</time>
      </trkpt>
      <trkpt lat="47.69202" lon="-0.07597">
        <ele>31.200000762939</ele>
        <time>2024-08-21T12:33:39.000Z</time>
      </trkpt>
      <trkpt lat="47.69196" lon="-0.07596">
        <ele>31.200000762939</ele>
        <time>2024-08-21T12:33:40.000Z</time>
      </trkpt>
      <trkpt lat="47.6919" lon="-0.07594">
        <ele>31.200000762939</ele>
        <time>2024-08-21T12:33:41.000Z</time>
      </trkpt>
      <trkpt lat="47.69182" lon="-0.07585">
        <ele>31.200000762939</ele>
        <time>2024-08-21T12:33:43.000Z</time>
      </trkpt>
      <trkpt lat="47.69166" lon="-0.07567">
        <ele>31</ele>
        <time>2024-08-21T12:33:47.000Z</time>
      </trkpt>
      <trkpt lat="47.69162" lon="-0.07561">
        <ele>31</ele>
        <time>2024-08-21T12:33:48.000Z</time>
      </trkpt>
      <trkpt lat="47.69133" lon="-0.07514">
        <ele>31</ele>
        <time>2024-08-21T12:33:56.000Z</time>
      </trkpt>
      <trkpt lat="47.69094" lon="-0.07454">
        <ele>31.39999961853</ele>
        <time>2024-08-21T12:34:06.000Z</time>
      </trkpt>
      <trkpt lat="47.69091" lon="-0.07448">
        <ele>31.39999961853</ele>
        <time>2024-08-21T12:34:07.000Z</time>
      </trkpt>
      <trkpt lat="47.69068" lon="-0.07414">
        <ele>31.39999961853</ele>
        <time>2024-08-21T12:34:13.000Z</time>
      </trkpt>
      <trkpt lat="47.69034" lon="-0.07361">
        <ele>31.39999961853</ele>
        <time>2024-08-21T12:34:22.000Z</time>
      </trkpt>
      <trkpt lat="47.69015" lon="-0.07335">
        <ele>31.60000038147</ele>
        <time>2024-08-21T12:34:26.000Z</time>
      </trkpt>
      <trkpt lat="47.69009" lon="-0.0732">
        <ele>31.60000038147</ele>
        <time>2024-08-21T12:34:28.000Z</time>
      </trkpt>
      <trkpt lat="47.69008" lon="-0.07304">
        <ele>31.60000038147</ele>
        <time>2024-08-21T12:34:30.000Z</time>
      </trkpt>
      <trkpt lat="47.69009" lon="-0.07288">
        <ele>31.60000038147</ele>
        <time>2024-08-21T12:34:32.000Z</time>
      </trkpt>
      <trkpt lat="47.69009" lon="-0.07274">
        <ele>31.799999237061</ele>
        <time>2024-08-21T12:34:34.000Z</time>
      </trkpt>
      <trkpt lat="47.69005" lon="-0.0726">
        <ele>31.799999237061</ele>
        <time>2024-08-21T12:34:36.000Z</time>
      </trkpt>
      <trkpt lat="47.69" lon="-0.07249">
        <ele>31.799999237061</ele>
        <time>2024-08-21T12:34:38.000Z</time>
      </trkpt>
      <trkpt lat="47.68995" lon="-0.07233">
        <ele>32</ele>
        <time>2024-08-21T12:34:41.000Z</time>
      </trkpt>
      <trkpt lat="47.68989" lon="-0.07227">
        <ele>32.200000762939</ele>
        <time>2024-08-21T12:34:43.000Z</time>
      </trkpt>
      <trkpt lat="47.68984" lon="-0.07221">
        <ele>32.400001525879</ele>
        <time>2024-08-21T12:34:45.000Z</time>
      </trkpt>
      <trkpt lat="47.68981" lon="-0.07218">
        <ele>32.400001525879</ele>
        <time>2024-08-21T12:34:46.000Z</time>
      </trkpt>
      <trkpt lat="47.68966" lon="-0.07195">
        <ele>32.400001525879</ele>
        <time>2024-08-21T12:34:52.000Z</time>
      </trkpt>
      <trkpt lat="47.68965" lon="-0.07188">
        <ele>32.200000762939</ele>
        <time>2024-08-21T12:34:53.000Z</time>
      </trkpt>
      <trkpt lat="47.68965" lon="-0.07164">
        <ele>32.200000762939</ele>
        <time>2024-08-21T12:34:56.000Z</time>
      </trkpt>
      <trkpt lat="47.68964" lon="-0.07098">
        <ele>32</ele>
        <time>2024-08-21T12:35:04.000Z</time>
      </trkpt>
      <trkpt lat="47.68963" lon="-0.0703">
        <ele>31.799999237061</ele>
        <time>2024-08-21T12:35:12.000Z</time>
      </trkpt>
      <trkpt lat="47.6896" lon="-0.06943">
        <ele>31.799999237061</ele>
        <time>2024-08-21T12:35:22.000Z</time>
      </trkpt>
      <trkpt lat="47.6896" lon="-0.06934">
        <ele>32</ele>
        <time>2024-08-21T12:35:23.000Z</time>
      </trkpt>
      <trkpt lat="47.68952" lon="-0.06865">
        <ele>32.200000762939</ele>
        <time>2024-08-21T12:35:31.000Z</time>
      </trkpt>
      <trkpt lat="47.68948" lon="-0.06803">
        <ele>32</ele>
        <time>2024-08-21T12:35:38.000Z</time>
      </trkpt>
      <trkpt lat="47.68946" lon="-0.06715">
        <ele>31.799999237061</ele>
        <time>2024-08-21T12:35:48.000Z</time>
      </trkpt>
      <trkpt lat="47.68945" lon="-0.06697">
        <ele>31.60000038147</ele>
        <time>2024-08-21T12:35:50.000Z</time>
      </trkpt>
      <trkpt lat="47.68943" lon="-0.06618">
        <ele>31.60000038147</ele>
        <time>2024-08-21T12:35:59.000Z</time>
      </trkpt>
      <trkpt lat="47.68941" lon="-0.06547">
        <ele>31.60000038147</ele>
        <time>2024-08-21T12:36:07.000Z</time>
      </trkpt>
      <trkpt lat="47.68941" lon="-0.06474">
        <ele>31.39999961853</ele>
        <time>2024-08-21T12:36:15.000Z</time>
      </trkpt>
      <trkpt lat="47.68942" lon="-0.06404">
        <ele>31.39999961853</ele>
        <time>2024-08-21T12:36:23.000Z</time>
      </trkpt>
      <trkpt lat="47.6894" lon="-0.06327">
        <ele>31.200000762939</ele>
        <time>2024-08-21T12:36:32.000Z</time>
      </trkpt>
      <trkpt lat="47.6894" lon="-0.06279">
        <ele>31.60000038147</ele>
        <time>2024-08-21T12:36:38.000Z</time>
      </trkpt>
      <trkpt lat="47.6894" lon="-0.06272">
        <ele>31.60000038147</ele>
        <time>2024-08-21T12:36:39.000Z</time>
      </trkpt>
      <trkpt lat="47.68939" lon="-0.06265">
        <ele>31.60000038147</ele>
        <time>2024-08-21T12:36:40.000Z</time>
      </trkpt>
      <trkpt lat="47.68938" lon="-0.06254">
        <ele>32</ele>
        <time>2024-08-21T12:36:42.000Z</time>
      </trkpt>
      <trkpt lat="47.68939" lon="-0.06219">
        <ele>32.599998474121</ele>
        <time>2024-08-21T12:36:48.000Z</time>
      </trkpt>
      <trkpt lat="47.68939" lon="-0.06197">
        <ele>32.599998474121</ele>
        <time>2024-08-21T12:36:51.000Z</time>
      </trkpt>
      <trkpt lat="47.68939" lon="-0.06183">
        <ele>32.400001525879</ele>
        <time>2024-08-21T12:36:53.000Z</time>
      </trkpt>
      <trkpt lat="47.68938" lon="-0.06146">
        <ele>32.200000762939</ele>
        <time>2024-08-21T12:36:58.000Z</time>
      </trkpt>
      <trkpt lat="47.68939" lon="-0.06132">
        <ele>32.400001525879</ele>
        <time>2024-08-21T12:37:00.000Z</time>
      </trkpt>
      <trkpt lat="47.68939" lon="-0.06117">
        <ele>32.599998474121</ele>
        <time>2024-08-21T12:37:03.000Z</time>
      </trkpt>
      <trkpt lat="47.68939" lon="-0.06114">
        <ele>32.799999237061</ele>
        <time>2024-08-21T12:37:04.000Z</time>
      </trkpt>
      <trkpt lat="47.68937" lon="-0.0609">
        <ele>33.200000762939</ele>
        <time>2024-08-21T12:37:09.000Z</time>
      </trkpt>
      <trkpt lat="47.68931" lon="-0.06057">
        <ele>33.200000762939</ele>
        <time>2024-08-21T12:37:16.000Z</time>
      </trkpt>
      <trkpt lat="47.68928" lon="-0.06045">
        <ele>33.200000762939</ele>
        <time>2024-08-21T12:37:18.000Z</time>
      </trkpt>
      <trkpt lat="47.68926" lon="-0.06029">
        <ele>33.200000762939</ele>
        <time>2024-08-21T12:37:21.000Z</time>
      </trkpt>
      <trkpt lat="47.68921" lon="-0.05999">
        <ele>33</ele>
        <time>2024-08-21T12:37:26.000Z</time>
      </trkpt>
      <trkpt lat="47.6891" lon="-0.0595">
        <ele>33.599998474121</ele>
        <time>2024-08-21T12:37:33.000Z</time>
      </trkpt>
      <trkpt lat="47.68909" lon="-0.05941">
        <ele>33.799999237061</ele>
        <time>2024-08-21T12:37:34.000Z</time>
      </trkpt>
      <trkpt lat="47.68901" lon="-0.05906">
        <ele>34</ele>
        <time>2024-08-21T12:37:39.000Z</time>
      </trkpt>
      <trkpt lat="47.68902" lon="-0.05896">
        <ele>34</ele>
        <time>2024-08-21T12:37:41.000Z</time>
      </trkpt>
      <trkpt lat="47.68895" lon="-0.05869">
        <ele>34.200000762939</ele>
        <time>2024-08-21T12:37:44.000Z</time>
      </trkpt>
      <trkpt lat="47.68889" lon="-0.05853">
        <ele>34.200000762939</ele>
        <time>2024-08-21T12:37:46.000Z</time>
      </trkpt>
      <trkpt lat="47.68883" lon="-0.05831">
        <ele>34.400001525879</ele>
        <time>2024-08-21T12:37:49.000Z</time>
      </trkpt>
      <trkpt lat="47.68871" lon="-0.05793">
        <ele>34.599998474121</ele>
        <time>2024-08-21T12:37:55.000Z</time>
      </trkpt>
      <trkpt lat="47.6887" lon="-0.05787">
        <ele>34.599998474121</ele>
        <time>2024-08-21T12:37:56.000Z</time>
      </trkpt>
      <trkpt lat="47.68857" lon="-0.0576">
        <ele>34.400001525879</ele>
        <time>2024-08-21T12:37:59.000Z</time>
      </trkpt>
      <trkpt lat="47.68847" lon="-0.05728">
        <ele>34.599998474121</ele>
        <time>2024-08-21T12:38:03.000Z</time>
      </trkpt>
      <trkpt lat="47.68847" lon="-0.05717">
        <ele>34.799999237061</ele>
        <time>2024-08-21T12:38:05.000Z</time>
      </trkpt>
      <trkpt lat="47.68841" lon="-0.05702">
        <ele>35.200000762939</ele>
        <time>2024-08-21T12:38:08.000Z</time>
      </trkpt>
      <trkpt lat="47.6883" lon="-0.05671">
        <ele>35.400001525879</ele>
        <time>2024-08-21T12:38:14.000Z</time>
      </trkpt>
      <trkpt lat="47.68814" lon="-0.05642">
        <ele>35.400001525879</ele>
        <time>2024-08-21T12:38:19.000Z</time>
      </trkpt>
      <trkpt lat="47.68792" lon="-0.056">
        <ele>35.599998474121</ele>
        <time>2024-08-21T12:38:25.000Z</time>
      </trkpt>
      <trkpt lat="47.68785" lon="-0.05588">
        <ele>36</ele>
        <time>2024-08-21T12:38:27.000Z</time>
      </trkpt>
      <trkpt lat="47.68766" lon="-0.05556">
        <ele>36.599998474121</ele>
        <time>2024-08-21T12:38:33.000Z</time>
      </trkpt>
      <trkpt lat="47.68763" lon="-0.05551">
        <ele>36.599998474121</ele>
        <time>2024-08-21T12:38:34.000Z</time>
      </trkpt>
      <trkpt lat="47.68738" lon="-0.05513">
        <ele>36.799999237061</ele>
        <time>2024-08-21T12:38:41.000Z</time>
      </trkpt>
      <trkpt lat="47.68731" lon="-0.05503">
        <ele>37</ele>
        <time>2024-08-21T12:38:43.000Z</time>
      </trkpt>
      <trkpt lat="47.68711" lon="-0.05479">
        <ele>37.599998474121</ele>
        <time>2024-08-21T12:38:48.000Z</time>
      </trkpt>
      <trkpt lat="47.68706" lon="-0.05475">
        <ele>37.599998474121</ele>
        <time>2024-08-21T12:38:49.000Z</time>
      </trkpt>
      <trkpt lat="47.68683" lon="-0.05461">
        <ele>37.599998474121</ele>
        <time>2024-08-21T12:38:54.000Z</time>
      </trkpt>
      <trkpt lat="47.68675" lon="-0.05453">
        <ele>37.599998474121</ele>
        <time>2024-08-21T12:38:56.000Z</time>
      </trkpt>
      <trkpt lat="47.6867" lon="-0.0544">
        <ele>37.599998474121</ele>
        <time>2024-08-21T12:38:59.000Z</time>
      </trkpt>
      <trkpt lat="47.68665" lon="-0.05422">
        <ele>38.200000762939</ele>
        <time>2024-08-21T12:39:03.000Z</time>
      </trkpt>
      <trkpt lat="47.68662" lon="-0.05419">
        <ele>38.200000762939</ele>
        <time>2024-08-21T12:39:04.000Z</time>
      </trkpt>
      <trkpt lat="47.68648" lon="-0.05401">
        <ele>38.400001525879</ele>
        <time>2024-08-21T12:39:09.000Z</time>
      </trkpt>
      <trkpt lat="47.68632" lon="-0.05385">
        <ele>38.400001525879</ele>
        <time>2024-08-21T12:39:13.000Z</time>
      </trkpt>
      <trkpt lat="47.68624" lon="-0.05377">
        <ele>38.400001525879</ele>
        <time>2024-08-21T12:39:15.000Z</time>
      </trkpt>
      <trkpt lat="47.68585" lon="-0.05345">
        <ele>38.400001525879</ele>
        <time>2024-08-21T12:39:24.000Z</time>
      </trkpt>
      <trkpt lat="47.68552" lon="-0.05318">
        <ele>39.400001525879</ele>
        <time>2024-08-21T12:39:32.000Z</time>
      </trkpt>
      <trkpt lat="47.68548" lon="-0.05316">
        <ele>39.400001525879</ele>
        <time>2024-08-21T12:39:33.000Z</time>
      </trkpt>
      <trkpt lat="47.68526" lon="-0.05301">
        <ele>40</ele>
        <time>2024-08-21T12:39:39.000Z</time>
      </trkpt>
      <trkpt lat="47.68502" lon="-0.05288">
        <ele>40.200000762939</ele>
        <time>2024-08-21T12:39:44.000Z</time>
      </trkpt>
      <trkpt lat="47.68485" lon="-0.05278">
        <ele>40.400001525879</ele>
        <time>2024-08-21T12:39:48.000Z</time>
      </trkpt>
      <trkpt lat="47.68465" lon="-0.05269">
        <ele>40.400001525879</ele>
        <time>2024-08-21T12:39:52.000Z</time>
      </trkpt>
      <trkpt lat="47.6846" lon="-0.05266">
        <ele>40.400001525879</ele>
        <time>2024-08-21T12:39:53.000Z</time>
      </trkpt>
      <trkpt lat="47.68421" lon="-0.05251">
        <ele>40.799999237061</ele>
        <time>2024-08-21T12:40:00.000Z</time>
      </trkpt>
      <trkpt lat="47.68415" lon="-0.0525">
        <ele>40.799999237061</ele>
        <time>2024-08-21T12:40:01.000Z</time>
      </trkpt>
      <trkpt lat="47.68384" lon="-0.05241">
        <ele>41.200000762939</ele>
        <time>2024-08-21T12:40:07.000Z</time>
      </trkpt>
      <trkpt lat="47.68361" lon="-0.05233">
        <ele>41.599998474121</ele>
        <time>2024-08-21T12:40:11.000Z</time>
      </trkpt>
      <trkpt lat="47.68356" lon="-0.05232">
        <ele>41.799999237061</ele>
        <time>2024-08-21T12:40:12.000Z</time>
      </trkpt>
      <trkpt lat="47.68346" lon="-0.05232">
        <ele>42</ele>
        <time>2024-08-21T12:40:14.000Z</time>
      </trkpt>
      <trkpt lat="47.68341" lon="-0.05231">
        <ele>42</ele>
        <time>2024-08-21T12:40:15.000Z</time>
      </trkpt>
      <trkpt lat="47.68316" lon="-0.05226">
        <ele>42.200000762939</ele>
        <time>2024-08-21T12:40:20.000Z</time>
      </trkpt>
      <trkpt lat="47.68293" lon="-0.05221">
        <ele>42.400001525879</ele>
        <time>2024-08-21T12:40:25.000Z</time>
      </trkpt>
      <trkpt lat="47.68289" lon="-0.0522">
        <ele>42.400001525879</ele>
        <time>2024-08-21T12:40:26.000Z</time>
      </trkpt>
      <trkpt lat="47.68263" lon="-0.05216">
        <ele>42.400001525879</ele>
        <time>2024-08-21T12:40:32.000Z</time>
      </trkpt>
      <trkpt lat="47.68235" lon="-0.05209">
        <ele>42.599998474121</ele>
        <time>2024-08-21T12:40:37.000Z</time>
      </trkpt>
      <trkpt lat="47.68225" lon="-0.05207">
        <ele>42.599998474121</ele>
        <time>2024-08-21T12:40:39.000Z</time>
      </trkpt>
      <trkpt lat="47.68197" lon="-0.05202">
        <ele>43.200000762939</ele>
        <time>2024-08-21T12:40:45.000Z</time>
      </trkpt>
      <trkpt lat="47.68186" lon="-0.05201">
        <ele>43.400001525879</ele>
        <time>2024-08-21T12:40:47.000Z</time>
      </trkpt>
      <trkpt lat="47.68169" lon="-0.05199">
        <ele>43.599998474121</ele>
        <time>2024-08-21T12:40:51.000Z</time>
      </trkpt>
      <trkpt lat="47.68123" lon="-0.05189">
        <ele>43.599998474121</ele>
        <time>2024-08-21T12:41:00.000Z</time>
      </trkpt>
      <trkpt lat="47.68114" lon="-0.05187">
        <ele>43.799999237061</ele>
        <time>2024-08-21T12:41:02.000Z</time>
      </trkpt>
      <trkpt lat="47.68095" lon="-0.05181">
        <ele>44</ele>
        <time>2024-08-21T12:41:06.000Z</time>
      </trkpt>
      <trkpt lat="47.68067" lon="-0.05177">
        <ele>44.400001525879</ele>
        <time>2024-08-21T12:41:13.000Z</time>
      </trkpt>
      <trkpt lat="47.6804" lon="-0.05172">
        <ele>44.799999237061</ele>
        <time>2024-08-21T12:41:19.000Z</time>
      </trkpt>
      <trkpt lat="47.68026" lon="-0.05169">
        <ele>45.200000762939</ele>
        <time>2024-08-21T12:41:22.000Z</time>
      </trkpt>
      <trkpt lat="47.68004" lon="-0.05166">
        <ele>45.599998474121</ele>
        <time>2024-08-21T12:41:27.000Z</time>
      </trkpt>
      <trkpt lat="47.67995" lon="-0.05164">
        <ele>45.599998474121</ele>
        <time>2024-08-21T12:41:29.000Z</time>
      </trkpt>
      <trkpt lat="47.67982" lon="-0.05159">
        <ele>45.799999237061</ele>
        <time>2024-08-21T12:41:32.000Z</time>
      </trkpt>
      <trkpt lat="47.67975" lon="-0.05155">
        <ele>46</ele>
        <time>2024-08-21T12:41:34.000Z</time>
      </trkpt>
      <trkpt lat="47.67972" lon="-0.05152">
        <ele>46</ele>
        <time>2024-08-21T12:41:35.000Z</time>
      </trkpt>
      <trkpt lat="47.6796" lon="-0.05141">
        <ele>46.200000762939</ele>
        <time>2024-08-21T12:41:39.000Z</time>
      </trkpt>
      <trkpt lat="47.67948" lon="-0.05144">
        <ele>46</ele>
        <time>2024-08-21T12:41:43.000Z</time>
      </trkpt>
      <trkpt lat="47.67943" lon="-0.05154">
        <ele>46.400001525879</ele>
        <time>2024-08-21T12:41:47.000Z</time>
      </trkpt>
      <trkpt lat="47.67942" lon="-0.05161">
        <ele>46.400001525879</ele>
        <time>2024-08-21T12:41:49.000Z</time>
      </trkpt>
      <trkpt lat="47.67938" lon="-0.05166">
        <ele>46.200000762939</ele>
        <time>2024-08-21T12:41:51.000Z</time>
      </trkpt>
      <trkpt lat="47.67923" lon="-0.05161">
        <ele>46.400001525879</ele>
        <time>2024-08-21T12:41:56.000Z</time>
      </trkpt>
      <trkpt lat="47.67895" lon="-0.05166">
        <ele>46.799999237061</ele>
        <time>2024-08-21T12:42:03.000Z</time>
      </trkpt>
      <trkpt lat="47.67881" lon="-0.05167">
        <ele>46.799999237061</ele>
        <time>2024-08-21T12:42:06.000Z</time>
      </trkpt>
      <trkpt lat="47.67872" lon="-0.05168">
        <ele>46.799999237061</ele>
        <time>2024-08-21T12:42:08.000Z</time>
      </trkpt>
      <trkpt lat="47.67859" lon="-0.05172">
        <ele>47.200000762939</ele>
        <time>2024-08-21T12:42:11.000Z</time>
      </trkpt>
      <trkpt lat="47.67855" lon="-0.05173">
        <ele>47.200000762939</ele>
        <time>2024-08-21T12:42:12.000Z</time>
      </trkpt>
      <trkpt lat="47.67847" lon="-0.05174">
        <ele>47.200000762939</ele>
        <time>2024-08-21T12:42:14.000Z</time>
      </trkpt>
      <trkpt lat="47.67829" lon="-0.05176">
        <ele>47.599998474121</ele>
        <time>2024-08-21T12:42:18.000Z</time>
      </trkpt>
      <trkpt lat="47.67788" lon="-0.05184">
        <ele>47.799999237061</ele>
        <time>2024-08-21T12:42:27.000Z</time>
      </trkpt>
      <trkpt lat="47.67773" lon="-0.05186">
        <ele>48</ele>
        <time>2024-08-21T12:42:31.000Z</time>
      </trkpt>
      <trkpt lat="47.67764" lon="-0.05188">
        <ele>48.200000762939</ele>
        <time>2024-08-21T12:42:33.000Z</time>
      </trkpt>
      <trkpt lat="47.67749" lon="-0.0519">
        <ele>48.400001525879</ele>
        <time>2024-08-21T12:42:36.000Z</time>
      </trkpt>
      <trkpt lat="47.67713" lon="-0.05194">
        <ele>48.400001525879</ele>
        <time>2024-08-21T12:42:43.000Z</time>
      </trkpt>
      <trkpt lat="47.67698" lon="-0.05195">
        <ele>48.599998474121</ele>
        <time>2024-08-21T12:42:46.000Z</time>
      </trkpt>
      <trkpt lat="47.67675" lon="-0.05197">
        <ele>49.200000762939</ele>
        <time>2024-08-21T12:42:50.000Z</time>
      </trkpt>
      <trkpt lat="47.67637" lon="-0.05202">
        <ele>49.599998474121</ele>
        <time>2024-08-21T12:42:57.000Z</time>
      </trkpt>
      <trkpt lat="47.67593" lon="-0.0521">
        <ele>49.599998474121</ele>
        <time>2024-08-21T12:43:06.000Z</time>
      </trkpt>
      <trkpt lat="47.67575" lon="-0.05213">
        <ele>49.599998474121</ele>
        <time>2024-08-21T12:43:10.000Z</time>
      </trkpt>
      <trkpt lat="47.67568" lon="-0.05215">
        <ele>49.799999237061</ele>
        <time>2024-08-21T12:43:12.000Z</time>
      </trkpt>
      <trkpt lat="47.67546" lon="-0.05218">
        <ele>50.200000762939</ele>
        <time>2024-08-21T12:43:17.000Z</time>
      </trkpt>
      <trkpt lat="47.67541" lon="-0.0522">
        <ele>50.200000762939</ele>
        <time>2024-08-21T12:43:18.000Z</time>
      </trkpt>
      <trkpt lat="47.67495" lon="-0.05227">
        <ele>50.799999237061</ele>
        <time>2024-08-21T12:43:28.000Z</time>
      </trkpt>
      <trkpt lat="47.6748" lon="-0.0523">
        <ele>51</ele>
        <time>2024-08-21T12:43:31.000Z</time>
      </trkpt>
      <trkpt lat="47.67472" lon="-0.0523">
        <ele>51</ele>
        <time>2024-08-21T12:43:33.000Z</time>
      </trkpt>
      <trkpt lat="47.67452" lon="-0.05234">
        <ele>51</ele>
        <time>2024-08-21T12:43:37.000Z</time>
      </trkpt>
      <trkpt lat="47.67437" lon="-0.05235">
        <ele>51.200000762939</ele>
        <time>2024-08-21T12:43:40.000Z</time>
      </trkpt>
      <trkpt lat="47.67428" lon="-0.05237">
        <ele>51.400001525879</ele>
        <time>2024-08-21T12:43:42.000Z</time>
      </trkpt>
      <trkpt lat="47.67422" lon="-0.05238">
        <ele>51.400001525879</ele>
        <time>2024-08-21T12:43:43.000Z</time>
      </trkpt>
      <trkpt lat="47.67412" lon="-0.0524">
        <ele>51.400001525879</ele>
        <time>2024-08-21T12:43:45.000Z</time>
      </trkpt>
      <trkpt lat="47.67401" lon="-0.05243">
        <ele>51.599998474121</ele>
        <time>2024-08-21T12:43:47.000Z</time>
      </trkpt>
      <trkpt lat="47.67379" lon="-0.05247">
        <ele>51.799999237061</ele>
        <time>2024-08-21T12:43:51.000Z</time>
      </trkpt>
      <trkpt lat="47.67374" lon="-0.05246">
        <ele>52</ele>
        <time>2024-08-21T12:43:52.000Z</time>
      </trkpt>
      <trkpt lat="47.67365" lon="-0.05246">
        <ele>52.200000762939</ele>
        <time>2024-08-21T12:43:54.000Z</time>
      </trkpt>
      <trkpt lat="47.6736" lon="-0.05247">
        <ele>52.400001525879</ele>
        <time>2024-08-21T12:43:55.000Z</time>
      </trkpt>
      <trkpt lat="47.6735" lon="-0.05248">
        <ele>52.200000762939</ele>
        <time>2024-08-21T12:43:57.000Z</time>
      </trkpt>
      <trkpt lat="47.67319" lon="-0.05246">
        <ele>52.799999237061</ele>
        <time>2024-08-21T12:44:04.000Z</time>
      </trkpt>
      <trkpt lat="47.67314" lon="-0.05246">
        <ele>53</ele>
        <time>2024-08-21T12:44:05.000Z</time>
      </trkpt>
      <trkpt lat="47.67309" lon="-0.05246">
        <ele>53</ele>
        <time>2024-08-21T12:44:06.000Z</time>
      </trkpt>
      <trkpt lat="47.67286" lon="-0.0524">
        <ele>53.200000762939</ele>
        <time>2024-08-21T12:44:11.000Z</time>
      </trkpt>
      <trkpt lat="47.67251" lon="-0.05232">
        <ele>53.599998474121</ele>
        <time>2024-08-21T12:44:18.000Z</time>
      </trkpt>
      <trkpt lat="47.67222" lon="-0.05228">
        <ele>54</ele>
        <time>2024-08-21T12:44:24.000Z</time>
      </trkpt>
      <trkpt lat="47.67198" lon="-0.05223">
        <ele>54.599998474121</ele>
        <time>2024-08-21T12:44:29.000Z</time>
      </trkpt>
      <trkpt lat="47.6718" lon="-0.05219">
        <ele>54.799999237061</ele>
        <time>2024-08-21T12:44:33.000Z</time>
      </trkpt>
      <trkpt lat="47.67166" lon="-0.05215">
        <ele>54.799999237061</ele>
        <time>2024-08-21T12:44:36.000Z</time>
      </trkpt>
      <trkpt lat="47.67147" lon="-0.0521">
        <ele>55.200000762939</ele>
        <time>2024-08-21T12:44:40.000Z</time>
      </trkpt>
      <trkpt lat="47.67127" lon="-0.05205">
        <ele>55.599998474121</ele>
        <time>2024-08-21T12:44:44.000Z</time>
      </trkpt>
      <trkpt lat="47.67086" lon="-0.05195">
        <ele>55.799999237061</ele>
        <time>2024-08-21T12:44:52.000Z</time>
      </trkpt>
      <trkpt lat="47.67057" lon="-0.05188">
        <ele>56</ele>
        <time>2024-08-21T12:44:58.000Z</time>
      </trkpt>
      <trkpt lat="47.67046" lon="-0.05186">
        <ele>56.200000762939</ele>
        <time>2024-08-21T12:45:00.000Z</time>
      </trkpt>
      <trkpt lat="47.67032" lon="-0.05183">
        <ele>56.400001525879</ele>
        <time>2024-08-21T12:45:03.000Z</time>
      </trkpt>
      <trkpt lat="47.67022" lon="-0.05179">
        <ele>56.599998474121</ele>
        <time>2024-08-21T12:45:05.000Z</time>
      </trkpt>
      <trkpt lat="47.67001" lon="-0.05176">
        <ele>56.799999237061</ele>
        <time>2024-08-21T12:45:09.000Z</time>
      </trkpt>
      <trkpt lat="47.66995" lon="-0.05174">
        <ele>56.799999237061</ele>
        <time>2024-08-21T12:45:10.000Z</time>
      </trkpt>
      <trkpt lat="47.66974" lon="-0.05172">
        <ele>56.799999237061</ele>
        <time>2024-08-21T12:45:14.000Z</time>
      </trkpt>
      <trkpt lat="47.66966" lon="-0.05169">
        <ele>57</ele>
        <time>2024-08-21T12:45:16.000Z</time>
      </trkpt>
      <trkpt lat="47.66944" lon="-0.05164">
        <ele>57</ele>
        <time>2024-08-21T12:45:20.000Z</time>
      </trkpt>
      <trkpt lat="47.66938" lon="-0.05163">
        <ele>57.200000762939</ele>
        <time>2024-08-21T12:45:21.000Z</time>
      </trkpt>
      <trkpt lat="47.6691" lon="-0.05157">
        <ele>57.599998474121</ele>
        <time>2024-08-21T12:45:27.000Z</time>
      </trkpt>
      <trkpt lat="47.6689" lon="-0.05154">
        <ele>57.799999237061</ele>
        <time>2024-08-21T12:45:31.000Z</time>
      </trkpt>
      <trkpt lat="47.66874" lon="-0.05147">
        <ele>58.200000762939</ele>
        <time>2024-08-21T12:45:34.000Z</time>
      </trkpt>
      <trkpt lat="47.6686" lon="-0.05145">
        <ele>58.400001525879</ele>
        <time>2024-08-21T12:45:37.000Z</time>
      </trkpt>
      <trkpt lat="47.66832" lon="-0.05136">
        <ele>58.599998474121</ele>
        <time>2024-08-21T12:45:43.000Z</time>
      </trkpt>
      <trkpt lat="47.66793" lon="-0.05127">
        <ele>59</ele>
        <time>2024-08-21T12:45:50.000Z</time>
      </trkpt>
      <trkpt lat="47.6678" lon="-0.05126">
        <ele>59.200000762939</ele>
        <time>2024-08-21T12:45:53.000Z</time>
      </trkpt>
      <trkpt lat="47.66774" lon="-0.05128">
        <ele>59.400001525879</ele>
        <time>2024-08-21T12:45:55.000Z</time>
      </trkpt>
      <trkpt lat="47.66755" lon="-0.0512">
        <ele>59.799999237061</ele>
        <time>2024-08-21T12:45:59.000Z</time>
      </trkpt>
      <trkpt lat="47.66746" lon="-0.05121">
        <ele>60.200000762939</ele>
        <time>2024-08-21T12:46:02.000Z</time>
      </trkpt>
      <trkpt lat="47.66732" lon="-0.05118">
        <ele>60.200000762939</ele>
        <time>2024-08-21T12:46:04.000Z</time>
      </trkpt>
      <trkpt lat="47.66704" lon="-0.05106">
        <ele>60</ele>
        <time>2024-08-21T12:46:09.000Z</time>
      </trkpt>
      <trkpt lat="47.66679" lon="-0.05098">
        <ele>60</ele>
        <time>2024-08-21T12:46:14.000Z</time>
      </trkpt>
      <trkpt lat="47.66648" lon="-0.05092">
        <ele>60.400001525879</ele>
        <time>2024-08-21T12:46:20.000Z</time>
      </trkpt>
      <trkpt lat="47.66644" lon="-0.0509">
        <ele>60.400001525879</ele>
        <time>2024-08-21T12:46:21.000Z</time>
      </trkpt>
      <trkpt lat="47.66631" lon="-0.05087">
        <ele>60.599998474121</ele>
        <time>2024-08-21T12:46:23.000Z</time>
      </trkpt>
      <trkpt lat="47.66603" lon="-0.05083">
        <ele>60.799999237061</ele>
        <time>2024-08-21T12:46:28.000Z</time>
      </trkpt>
      <trkpt lat="47.66586" lon="-0.05079">
        <ele>61</ele>
        <time>2024-08-21T12:46:32.000Z</time>
      </trkpt>
      <trkpt lat="47.66569" lon="-0.05074">
        <ele>61.400001525879</ele>
        <time>2024-08-21T12:46:36.000Z</time>
      </trkpt>
      <trkpt lat="47.66554" lon="-0.05069">
        <ele>61.400001525879</ele>
        <time>2024-08-21T12:46:39.000Z</time>
      </trkpt>
      <trkpt lat="47.66549" lon="-0.05068">
        <ele>61.400001525879</ele>
        <time>2024-08-21T12:46:40.000Z</time>
      </trkpt>
      <trkpt lat="47.66539" lon="-0.05067">
        <ele>61.400001525879</ele>
        <time>2024-08-21T12:46:42.000Z</time>
      </trkpt>
      <trkpt lat="47.66534" lon="-0.05066">
        <ele>61.599998474121</ele>
        <time>2024-08-21T12:46:43.000Z</time>
      </trkpt>
      <trkpt lat="47.66509" lon="-0.05061">
        <ele>61.799999237061</ele>
        <time>2024-08-21T12:46:48.000Z</time>
      </trkpt>
      <trkpt lat="47.66497" lon="-0.05058">
        <ele>61.799999237061</ele>
        <time>2024-08-21T12:46:51.000Z</time>
      </trkpt>
      <trkpt lat="47.66483" lon="-0.05054">
        <ele>61.799999237061</ele>
        <time>2024-08-21T12:46:54.000Z</time>
      </trkpt>
      <trkpt lat="47.66473" lon="-0.05051">
        <ele>61.799999237061</ele>
        <time>2024-08-21T12:46:56.000Z</time>
      </trkpt>
      <trkpt lat="47.66453" lon="-0.05049">
        <ele>61.799999237061</ele>
        <time>2024-08-21T12:47:00.000Z</time>
      </trkpt>
      <trkpt lat="47.66441" lon="-0.05048">
        <ele>61.599998474121</ele>
        <time>2024-08-21T12:47:02.000Z</time>
      </trkpt>
      <trkpt lat="47.66411" lon="-0.05036">
        <ele>61.200000762939</ele>
        <time>2024-08-21T12:47:07.000Z</time>
      </trkpt>
      <trkpt lat="47.66378" lon="-0.05032">
        <ele>60.799999237061</ele>
        <time>2024-08-21T12:47:13.000Z</time>
      </trkpt>
      <trkpt lat="47.66357" lon="-0.05028">
        <ele>60.599998474121</ele>
        <time>2024-08-21T12:47:17.000Z</time>
      </trkpt>
      <trkpt lat="47.66324" lon="-0.0502">
        <ele>60.400001525879</ele>
        <time>2024-08-21T12:47:23.000Z</time>
      </trkpt>
      <trkpt lat="47.66298" lon="-0.05015">
        <ele>60.200000762939</ele>
        <time>2024-08-21T12:47:29.000Z</time>
      </trkpt>
      <trkpt lat="47.66294" lon="-0.05014">
        <ele>60</ele>
        <time>2024-08-21T12:47:30.000Z</time>
      </trkpt>
      <trkpt lat="47.66275" lon="-0.0501">
        <ele>59.599998474121</ele>
        <time>2024-08-21T12:47:34.000Z</time>
      </trkpt>
      <trkpt lat="47.66248" lon="-0.05005">
        <ele>59.400001525879</ele>
        <time>2024-08-21T12:47:40.000Z</time>
      </trkpt>
      <trkpt lat="47.66228" lon="-0.05002">
        <ele>58.799999237061</ele>
        <time>2024-08-21T12:47:44.000Z</time>
      </trkpt>
      <trkpt lat="47.6622" lon="-0.05">
        <ele>58.799999237061</ele>
        <time>2024-08-21T12:47:45.000Z</time>
      </trkpt>
      <trkpt lat="47.66177" lon="-0.04987">
        <ele>58.200000762939</ele>
        <time>2024-08-21T12:47:52.000Z</time>
      </trkpt>
      <trkpt lat="47.66149" lon="-0.0498">
        <ele>58</ele>
        <time>2024-08-21T12:47:57.000Z</time>
      </trkpt>
      <trkpt lat="47.66118" lon="-0.04965">
        <ele>58</ele>
        <time>2024-08-21T12:48:03.000Z</time>
      </trkpt>
      <trkpt lat="47.66112" lon="-0.04964">
        <ele>58</ele>
        <time>2024-08-21T12:48:04.000Z</time>
      </trkpt>
      <trkpt lat="47.66091" lon="-0.04963">
        <ele>57.799999237061</ele>
        <time>2024-08-21T12:48:07.000Z</time>
      </trkpt>
      <trkpt lat="47.66062" lon="-0.04955">
        <ele>57.599998474121</ele>
        <time>2024-08-21T12:48:11.000Z</time>
      </trkpt>
      <trkpt lat="47.66053" lon="-0.04953">
        <ele>57.599998474121</ele>
        <time>2024-08-21T12:48:12.000Z</time>
      </trkpt>
      <trkpt lat="47.66032" lon="-0.04955">
        <ele>57.400001525879</ele>
        <time>2024-08-21T12:48:16.000Z</time>
      </trkpt>
      <trkpt lat="47.65998" lon="-0.04939">
        <ele>57</ele>
        <time>2024-08-21T12:48:21.000Z</time>
      </trkpt>
      <trkpt lat="47.6599" lon="-0.04935">
        <ele>57</ele>
        <time>2024-08-21T12:48:23.000Z</time>
      </trkpt>
      <trkpt lat="47.65969" lon="-0.04933">
        <ele>56.799999237061</ele>
        <time>2024-08-21T12:48:27.000Z</time>
      </trkpt>
      <trkpt lat="47.65941" lon="-0.04931">
        <ele>56.400001525879</ele>
        <time>2024-08-21T12:48:31.000Z</time>
      </trkpt>
      <trkpt lat="47.6593" lon="-0.04929">
        <ele>56.200000762939</ele>
        <time>2024-08-21T12:48:33.000Z</time>
      </trkpt>
      <trkpt lat="47.65918" lon="-0.04929">
        <ele>56</ele>
        <time>2024-08-21T12:48:35.000Z</time>
      </trkpt>
      <trkpt lat="47.65895" lon="-0.04921">
        <ele>55.799999237061</ele>
        <time>2024-08-21T12:48:38.000Z</time>
      </trkpt>
      <trkpt lat="47.65891" lon="-0.0492">
        <ele>55.599998474121</ele>
        <time>2024-08-21T12:48:39.000Z</time>
      </trkpt>
      <trkpt lat="47.6587" lon="-0.04912">
        <ele>55.400001525879</ele>
        <time>2024-08-21T12:48:43.000Z</time>
      </trkpt>
      <trkpt lat="47.65865" lon="-0.04911">
        <ele>55.400001525879</ele>
        <time>2024-08-21T12:48:44.000Z</time>
      </trkpt>
      <trkpt lat="47.6585" lon="-0.04911">
        <ele>55.400001525879</ele>
        <time>2024-08-21T12:48:47.000Z</time>
      </trkpt>
      <trkpt lat="47.65829" lon="-0.04904">
        <ele>55.200000762939</ele>
        <time>2024-08-21T12:48:52.000Z</time>
      </trkpt>
      <trkpt lat="47.65824" lon="-0.04903">
        <ele>55</ele>
        <time>2024-08-21T12:48:53.000Z</time>
      </trkpt>
      <trkpt lat="47.65818" lon="-0.04903">
        <ele>55</ele>
        <time>2024-08-21T12:48:54.000Z</time>
      </trkpt>
      <trkpt lat="47.65813" lon="-0.04901">
        <ele>54.799999237061</ele>
        <time>2024-08-21T12:48:55.000Z</time>
      </trkpt>
      <trkpt lat="47.65806" lon="-0.04898">
        <ele>54.599998474121</ele>
        <time>2024-08-21T12:48:56.000Z</time>
      </trkpt>
      <trkpt lat="47.65787" lon="-0.04893">
        <ele>54.200000762939</ele>
        <time>2024-08-21T12:48:59.000Z</time>
      </trkpt>
      <trkpt lat="47.65777" lon="-0.0489">
        <ele>54</ele>
        <time>2024-08-21T12:49:01.000Z</time>
      </trkpt>
      <trkpt lat="47.65768" lon="-0.04885">
        <ele>54</ele>
        <time>2024-08-21T12:49:03.000Z</time>
      </trkpt>
      <trkpt lat="47.65758" lon="-0.04883">
        <ele>54</ele>
        <time>2024-08-21T12:49:05.000Z</time>
      </trkpt>
      <trkpt lat="47.65754" lon="-0.0488">
        <ele>53.799999237061</ele>
        <time>2024-08-21T12:49:06.000Z</time>
      </trkpt>
      <trkpt lat="47.65736" lon="-0.04875">
        <ele>53.799999237061</ele>
        <time>2024-08-21T12:49:10.000Z</time>
      </trkpt>
      <trkpt lat="47.65697" lon="-0.0487">
        <ele>53.200000762939</ele>
        <time>2024-08-21T12:49:17.000Z</time>
      </trkpt>
      <trkpt lat="47.65676" lon="-0.04866">
        <ele>52.799999237061</ele>
        <time>2024-08-21T12:49:20.000Z</time>
      </trkpt>
      <trkpt lat="47.65664" lon="-0.04861">
        <ele>52.799999237061</ele>
        <time>2024-08-21T12:49:22.000Z</time>
      </trkpt>
      <trkpt lat="47.65629" lon="-0.04852">
        <ele>52.400001525879</ele>
        <time>2024-08-21T12:49:27.000Z</time>
      </trkpt>
      <trkpt lat="47.65621" lon="-0.04852">
        <ele>52.400001525879</ele>
        <time>2024-08-21T12:49:28.000Z</time>
      </trkpt>
      <trkpt lat="47.65604" lon="-0.04848">
        <ele>52.200000762939</ele>
        <time>2024-08-21T12:49:31.000Z</time>
      </trkpt>
      <trkpt lat="47.65576" lon="-0.04845">
        <ele>52</ele>
        <time>2024-08-21T12:49:36.000Z</time>
      </trkpt>
      <trkpt lat="47.65565" lon="-0.04844">
        <ele>51.799999237061</ele>
        <time>2024-08-21T12:49:38.000Z</time>
      </trkpt>
      <trkpt lat="47.65542" lon="-0.04842">
        <ele>51.599998474121</ele>
        <time>2024-08-21T12:49:42.000Z</time>
      </trkpt>
      <trkpt lat="47.65525" lon="-0.04841">
        <ele>51.599998474121</ele>
        <time>2024-08-21T12:49:45.000Z</time>
      </trkpt>
      <trkpt lat="47.6552" lon="-0.04839">
        <ele>51.400001525879</ele>
        <time>2024-08-21T12:49:46.000Z</time>
      </trkpt>
      <trkpt lat="47.65515" lon="-0.04839">
        <ele>51.400001525879</ele>
        <time>2024-08-21T12:49:47.000Z</time>
      </trkpt>
      <trkpt lat="47.6549" lon="-0.04842">
        <ele>51</ele>
        <time>2024-08-21T12:49:51.000Z</time>
      </trkpt>
      <trkpt lat="47.65462" lon="-0.04844">
        <ele>50.799999237061</ele>
        <time>2024-08-21T12:49:55.000Z</time>
      </trkpt>
      <trkpt lat="47.65455" lon="-0.04844">
        <ele>50.799999237061</ele>
        <time>2024-08-21T12:49:56.000Z</time>
      </trkpt>
      <trkpt lat="47.65441" lon="-0.04845">
        <ele>50.799999237061</ele>
        <time>2024-08-21T12:49:58.000Z</time>
      </trkpt>
      <trkpt lat="47.65417" lon="-0.04847">
        <ele>50.400001525879</ele>
        <time>2024-08-21T12:50:02.000Z</time>
      </trkpt>
      <trkpt lat="47.65399" lon="-0.04851">
        <ele>50.200000762939</ele>
        <time>2024-08-21T12:50:05.000Z</time>
      </trkpt>
      <trkpt lat="47.65392" lon="-0.04852">
        <ele>50.200000762939</ele>
        <time>2024-08-21T12:50:06.000Z</time>
      </trkpt>
      <trkpt lat="47.65383" lon="-0.04857">
        <ele>50.200000762939</ele>
        <time>2024-08-21T12:50:08.000Z</time>
      </trkpt>
      <trkpt lat="47.65371" lon="-0.04862">
        <ele>50</ele>
        <time>2024-08-21T12:50:11.000Z</time>
      </trkpt>
      <trkpt lat="47.65365" lon="-0.04864">
        <ele>50</ele>
        <time>2024-08-21T12:50:12.000Z</time>
      </trkpt>
      <trkpt lat="47.65358" lon="-0.04866">
        <ele>50</ele>
        <time>2024-08-21T12:50:13.000Z</time>
      </trkpt>
      <trkpt lat="47.65341" lon="-0.04869">
        <ele>49.799999237061</ele>
        <time>2024-08-21T12:50:16.000Z</time>
      </trkpt>
      <trkpt lat="47.65324" lon="-0.04875">
        <ele>49.799999237061</ele>
        <time>2024-08-21T12:50:19.000Z</time>
      </trkpt>
      <trkpt lat="47.65312" lon="-0.04876">
        <ele>49.599998474121</ele>
        <time>2024-08-21T12:50:21.000Z</time>
      </trkpt>
      <trkpt lat="47.65288" lon="-0.04879">
        <ele>49.400001525879</ele>
        <time>2024-08-21T12:50:26.000Z</time>
      </trkpt>
      <trkpt lat="47.65264" lon="-0.04887">
        <ele>48.599998474121</ele>
        <time>2024-08-21T12:50:31.000Z</time>
      </trkpt>
      <trkpt lat="47.6526" lon="-0.0489">
        <ele>48.599998474121</ele>
        <time>2024-08-21T12:50:32.000Z</time>
      </trkpt>
      <trkpt lat="47.65244" lon="-0.04899">
        <ele>48.400001525879</ele>
        <time>2024-08-21T12:50:35.000Z</time>
      </trkpt>
      <trkpt lat="47.65232" lon="-0.04906">
        <ele>48.400001525879</ele>
        <time>2024-08-21T12:50:37.000Z</time>
      </trkpt>
      <trkpt lat="47.65203" lon="-0.04909">
        <ele>48.400001525879</ele>
        <time>2024-08-21T12:50:42.000Z</time>
      </trkpt>
      <trkpt lat="47.65176" lon="-0.04916">
        <ele>48.200000762939</ele>
        <time>2024-08-21T12:50:46.000Z</time>
      </trkpt>
      <trkpt lat="47.65143" lon="-0.04927">
        <ele>48.200000762939</ele>
        <time>2024-08-21T12:50:53.000Z</time>
      </trkpt>
      <trkpt lat="47.65126" lon="-0.04929">
        <ele>48</ele>
        <time>2024-08-21T12:50:57.000Z</time>
      </trkpt>
      <trkpt lat="47.65104" lon="-0.04939">
        <ele>47.400001525879</ele>
        <time>2024-08-21T12:51:00.000Z</time>
      </trkpt>
      <trkpt lat="47.65089" lon="-0.04941">
        <ele>47.200000762939</ele>
        <time>2024-08-21T12:51:03.000Z</time>
      </trkpt>
      <trkpt lat="47.6507" lon="-0.04948">
        <ele>47</ele>
        <time>2024-08-21T12:51:07.000Z</time>
      </trkpt>
      <trkpt lat="47.65055" lon="-0.04954">
        <ele>46.799999237061</ele>
        <time>2024-08-21T12:51:09.000Z</time>
      </trkpt>
      <trkpt lat="47.65043" lon="-0.04958">
        <ele>46.799999237061</ele>
        <time>2024-08-21T12:51:11.000Z</time>
      </trkpt>
      <trkpt lat="47.6503" lon="-0.04965">
        <ele>46.400001525879</ele>
        <time>2024-08-21T12:51:13.000Z</time>
      </trkpt>
      <trkpt lat="47.65015" lon="-0.04966">
        <ele>46.200000762939</ele>
        <time>2024-08-21T12:51:16.000Z</time>
      </trkpt>
      <trkpt lat="47.64993" lon="-0.04977">
        <ele>45.799999237061</ele>
        <time>2024-08-21T12:51:20.000Z</time>
      </trkpt>
      <trkpt lat="47.64976" lon="-0.04987">
        <ele>45.799999237061</ele>
        <time>2024-08-21T12:51:26.000Z</time>
      </trkpt>
      <trkpt lat="47.64964" lon="-0.04995">
        <ele>45.599998474121</ele>
        <time>2024-08-21T12:51:29.000Z</time>
      </trkpt>
      <trkpt lat="47.64958" lon="-0.04995">
        <ele>45.799999237061</ele>
        <time>2024-08-21T12:51:31.000Z</time>
      </trkpt>
      <trkpt lat="47.64938" lon="-0.04998">
        <ele>45.799999237061</ele>
        <time>2024-08-21T12:51:36.000Z</time>
      </trkpt>
      <trkpt lat="47.64922" lon="-0.05011">
        <ele>45.799999237061</ele>
        <time>2024-08-21T12:51:39.000Z</time>
      </trkpt>
      <trkpt lat="47.64916" lon="-0.05016">
        <ele>45.799999237061</ele>
        <time>2024-08-21T12:51:40.000Z</time>
      </trkpt>
      <trkpt lat="47.64912" lon="-0.05016">
        <ele>45.799999237061</ele>
        <time>2024-08-21T12:51:41.000Z</time>
      </trkpt>
      <trkpt lat="47.64899" lon="-0.05014">
        <ele>45.799999237061</ele>
        <time>2024-08-21T12:51:44.000Z</time>
      </trkpt>
      <trkpt lat="47.64872" lon="-0.05017">
        <ele>45.599998474121</ele>
        <time>2024-08-21T12:51:48.000Z</time>
      </trkpt>
      <trkpt lat="47.64857" lon="-0.05022">
        <ele>45.400001525879</ele>
        <time>2024-08-21T12:51:51.000Z</time>
      </trkpt>
      <trkpt lat="47.64853" lon="-0.05024">
        <ele>45.400001525879</ele>
        <time>2024-08-21T12:51:52.000Z</time>
      </trkpt>
      <trkpt lat="47.64835" lon="-0.0503">
        <ele>45.400001525879</ele>
        <time>2024-08-21T12:51:55.000Z</time>
      </trkpt>
      <trkpt lat="47.64823" lon="-0.05036">
        <ele>45.400001525879</ele>
        <time>2024-08-21T12:51:57.000Z</time>
      </trkpt>
      <trkpt lat="47.648" lon="-0.05043">
        <ele>45.200000762939</ele>
        <time>2024-08-21T12:52:01.000Z</time>
      </trkpt>
      <trkpt lat="47.64781" lon="-0.05045">
        <ele>45.400001525879</ele>
        <time>2024-08-21T12:52:05.000Z</time>
      </trkpt>
      <trkpt lat="47.6476" lon="-0.05058">
        <ele>45.400001525879</ele>
        <time>2024-08-21T12:52:10.000Z</time>
      </trkpt>
      <trkpt lat="47.64756" lon="-0.05061">
        <ele>45.400001525879</ele>
        <time>2024-08-21T12:52:13.000Z</time>
      </trkpt>
      <trkpt lat="47.64753" lon="-0.05064">
        <ele>45.400001525879</ele>
        <time>2024-08-21T12:52:14.000Z</time>
      </trkpt>
      <trkpt lat="47.64748" lon="-0.05065">
        <ele>45.400001525879</ele>
        <time>2024-08-21T12:52:15.000Z</time>
      </trkpt>
      <trkpt lat="47.64726" lon="-0.0507">
        <ele>45.599998474121</ele>
        <time>2024-08-21T12:52:19.000Z</time>
      </trkpt>
      <trkpt lat="47.64704" lon="-0.05076">
        <ele>45.599998474121</ele>
        <time>2024-08-21T12:52:24.000Z</time>
      </trkpt>
      <trkpt lat="47.64665" lon="-0.05093">
        <ele>45.599998474121</ele>
        <time>2024-08-21T12:52:30.000Z</time>
      </trkpt>
      <trkpt lat="47.64644" lon="-0.05099">
        <ele>45.799999237061</ele>
        <time>2024-08-21T12:52:35.000Z</time>
      </trkpt>
      <trkpt lat="47.64621" lon="-0.05105">
        <ele>46</ele>
        <time>2024-08-21T12:52:42.000Z</time>
      </trkpt>
      <trkpt lat="47.64604" lon="-0.05112">
        <ele>45.799999237061</ele>
        <time>2024-08-21T12:52:47.000Z</time>
      </trkpt>
      <trkpt lat="47.64589" lon="-0.05118">
        <ele>45.599998474121</ele>
        <time>2024-08-21T12:52:52.000Z</time>
      </trkpt>
      <trkpt lat="47.64563" lon="-0.05134">
        <ele>45.599998474121</ele>
        <time>2024-08-21T12:52:59.000Z</time>
      </trkpt>
      <trkpt lat="47.64552" lon="-0.05137">
        <ele>45.400001525879</ele>
        <time>2024-08-21T12:53:02.000Z</time>
      </trkpt>
      <trkpt lat="47.64548" lon="-0.0514">
        <ele>45.400001525879</ele>
        <time>2024-08-21T12:53:03.000Z</time>
      </trkpt>
      <trkpt lat="47.64538" lon="-0.05145">
        <ele>45.400001525879</ele>
        <time>2024-08-21T12:53:05.000Z</time>
      </trkpt>
      <trkpt lat="47.64524" lon="-0.05155">
        <ele>45.200000762939</ele>
        <time>2024-08-21T12:53:08.000Z</time>
      </trkpt>
      <trkpt lat="47.64508" lon="-0.05167">
        <ele>45.599998474121</ele>
        <time>2024-08-21T12:53:12.000Z</time>
      </trkpt>
      <trkpt lat="47.64499" lon="-0.05172">
        <ele>45.799999237061</ele>
        <time>2024-08-21T12:53:14.000Z</time>
      </trkpt>
      <trkpt lat="47.64493" lon="-0.05176">
        <ele>45.799999237061</ele>
        <time>2024-08-21T12:53:15.000Z</time>
      </trkpt>
      <trkpt lat="47.64474" lon="-0.05188">
        <ele>45.799999237061</ele>
        <time>2024-08-21T12:53:19.000Z</time>
      </trkpt>
      <trkpt lat="47.64466" lon="-0.05197">
        <ele>46</ele>
        <time>2024-08-21T12:53:21.000Z</time>
      </trkpt>
      <trkpt lat="47.64455" lon="-0.05198">
        <ele>46.200000762939</ele>
        <time>2024-08-21T12:53:23.000Z</time>
      </trkpt>
      <trkpt lat="47.64442" lon="-0.05201">
        <ele>46.200000762939</ele>
        <time>2024-08-21T12:53:26.000Z</time>
      </trkpt>
      <trkpt lat="47.64434" lon="-0.05208">
        <ele>46.200000762939</ele>
        <time>2024-08-21T12:53:28.000Z</time>
      </trkpt>
      <trkpt lat="47.64423" lon="-0.05211">
        <ele>46.200000762939</ele>
        <time>2024-08-21T12:53:31.000Z</time>
      </trkpt>
      <trkpt lat="47.64411" lon="-0.0522">
        <ele>46.200000762939</ele>
        <time>2024-08-21T12:53:34.000Z</time>
      </trkpt>
      <trkpt lat="47.64399" lon="-0.05228">
        <ele>46.400001525879</ele>
        <time>2024-08-21T12:53:37.000Z</time>
      </trkpt>
      <trkpt lat="47.64395" lon="-0.05229">
        <ele>46.400001525879</ele>
        <time>2024-08-21T12:53:38.000Z</time>
      </trkpt>
      <trkpt lat="47.64392" lon="-0.05232">
        <ele>46.599998474121</ele>
        <time>2024-08-21T12:53:39.000Z</time>
      </trkpt>
      <trkpt lat="47.64377" lon="-0.05243">
        <ele>46.799999237061</ele>
        <time>2024-08-21T12:53:43.000Z</time>
      </trkpt>
      <trkpt lat="47.64342" lon="-0.05265">
        <ele>47</ele>
        <time>2024-08-21T12:53:51.000Z</time>
      </trkpt>
      <trkpt lat="47.64327" lon="-0.05277">
        <ele>47.400001525879</ele>
        <time>2024-08-21T12:53:55.000Z</time>
      </trkpt>
      <trkpt lat="47.64314" lon="-0.05288">
        <ele>47.599998474121</ele>
        <time>2024-08-21T12:53:58.000Z</time>
      </trkpt>
      <trkpt lat="47.64297" lon="-0.05298">
        <ele>47.799999237061</ele>
        <time>2024-08-21T12:54:03.000Z</time>
      </trkpt>
      <trkpt lat="47.64292" lon="-0.05299">
        <ele>47.799999237061</ele>
        <time>2024-08-21T12:54:05.000Z</time>
      </trkpt>
      <trkpt lat="47.64288" lon="-0.05302">
        <ele>48</ele>
        <time>2024-08-21T12:54:07.000Z</time>
      </trkpt>
      <trkpt lat="47.64266" lon="-0.05322">
        <ele>48.200000762939</ele>
        <time>2024-08-21T12:54:15.000Z</time>
      </trkpt>
      <trkpt lat="47.64244" lon="-0.05342">
        <ele>48</ele>
        <time>2024-08-21T12:54:20.000Z</time>
      </trkpt>
      <trkpt lat="47.64213" lon="-0.05365">
        <ele>48.200000762939</ele>
        <time>2024-08-21T12:54:28.000Z</time>
      </trkpt>
      <trkpt lat="47.64199" lon="-0.05364">
        <ele>48.599998474121</ele>
        <time>2024-08-21T12:54:33.000Z</time>
      </trkpt>
      <trkpt lat="47.64179" lon="-0.05382">
        <ele>48.599998474121</ele>
        <time>2024-08-21T12:54:38.000Z</time>
      </trkpt>
      <trkpt lat="47.64153" lon="-0.05398">
        <ele>49.200000762939</ele>
        <time>2024-08-21T12:54:44.000Z</time>
      </trkpt>
      <trkpt lat="47.64129" lon="-0.05411">
        <ele>49.200000762939</ele>
        <time>2024-08-21T12:54:49.000Z</time>
      </trkpt>
      <trkpt lat="47.64112" lon="-0.05429">
        <ele>49.599998474121</ele>
        <time>2024-08-21T12:54:53.000Z</time>
      </trkpt>
      <trkpt lat="47.64108" lon="-0.0543">
        <ele>49.799999237061</ele>
        <time>2024-08-21T12:54:54.000Z</time>
      </trkpt>
      <trkpt lat="47.64089" lon="-0.05444">
        <ele>50</ele>
        <time>2024-08-21T12:54:58.000Z</time>
      </trkpt>
      <trkpt lat="47.6407" lon="-0.05455">
        <ele>50.200000762939</ele>
        <time>2024-08-21T12:55:03.000Z</time>
      </trkpt>
      <trkpt lat="47.64054" lon="-0.05469">
        <ele>50.200000762939</ele>
        <time>2024-08-21T12:55:07.000Z</time>
      </trkpt>
      <trkpt lat="47.64039" lon="-0.05479">
        <ele>50.200000762939</ele>
        <time>2024-08-21T12:55:11.000Z</time>
      </trkpt>
      <trkpt lat="47.64021" lon="-0.0549">
        <ele>50.599998474121</ele>
        <time>2024-08-21T12:55:15.000Z</time>
      </trkpt>
      <trkpt lat="47.64017" lon="-0.05495">
        <ele>50.599998474121</ele>
        <time>2024-08-21T12:55:16.000Z</time>
      </trkpt>
      <trkpt lat="47.64009" lon="-0.05497">
        <ele>50.799999237061</ele>
        <time>2024-08-21T12:55:19.000Z</time>
      </trkpt>
      <trkpt lat="47.63997" lon="-0.05503">
        <ele>51</ele>
        <time>2024-08-21T12:55:25.000Z</time>
      </trkpt>
      <trkpt lat="47.63997" lon="-0.05503">
        <ele>51.200000762939</ele>
        <time>2024-08-21T12:55:26.000Z</time>
      </trkpt>
      <trkpt lat="47.63985" lon="-0.05507">
        <ele>51</ele>
        <time>2024-08-21T13:01:28.000Z</time>
      </trkpt>
      <trkpt lat="47.63987" lon="-0.05513">
        <ele>50.799999237061</ele>
        <time>2024-08-21T13:01:31.000Z</time>
      </trkpt>
      <trkpt lat="47.63965" lon="-0.05524">
        <ele>50.599998474121</ele>
        <time>2024-08-21T13:01:38.000Z</time>
      </trkpt>
      <trkpt lat="47.6395" lon="-0.05533">
        <ele>50.599998474121</ele>
        <time>2024-08-21T13:01:43.000Z</time>
      </trkpt>
      <trkpt lat="47.63927" lon="-0.05547">
        <ele>50.799999237061</ele>
        <time>2024-08-21T13:01:50.000Z</time>
      </trkpt>
      <trkpt lat="47.63916" lon="-0.05558">
        <ele>50.799999237061</ele>
        <time>2024-08-21T13:01:53.000Z</time>
      </trkpt>
      <trkpt lat="47.63907" lon="-0.05565">
        <ele>50.799999237061</ele>
        <time>2024-08-21T13:01:55.000Z</time>
      </trkpt>
      <trkpt lat="47.63883" lon="-0.05583">
        <ele>50.799999237061</ele>
        <time>2024-08-21T13:02:01.000Z</time>
      </trkpt>
      <trkpt lat="47.63877" lon="-0.05585">
        <ele>50.799999237061</ele>
        <time>2024-08-21T13:02:03.000Z</time>
      </trkpt>
      <trkpt lat="47.63872" lon="-0.05589">
        <ele>51</ele>
        <time>2024-08-21T13:02:04.000Z</time>
      </trkpt>
      <trkpt lat="47.63868" lon="-0.05593">
        <ele>51</ele>
        <time>2024-08-21T13:02:05.000Z</time>
      </trkpt>
      <trkpt lat="47.63846" lon="-0.05608">
        <ele>51.200000762939</ele>
        <time>2024-08-21T13:02:10.000Z</time>
      </trkpt>
      <trkpt lat="47.63825" lon="-0.05626">
        <ele>51.400001525879</ele>
        <time>2024-08-21T13:02:15.000Z</time>
      </trkpt>
      <trkpt lat="47.63794" lon="-0.05642">
        <ele>51.799999237061</ele>
        <time>2024-08-21T13:02:22.000Z</time>
      </trkpt>
      <trkpt lat="47.6377" lon="-0.0566">
        <ele>51.799999237061</ele>
        <time>2024-08-21T13:02:27.000Z</time>
      </trkpt>
      <trkpt lat="47.63765" lon="-0.05665">
        <ele>51.799999237061</ele>
        <time>2024-08-21T13:02:28.000Z</time>
      </trkpt>
      <trkpt lat="47.63757" lon="-0.05669">
        <ele>51.799999237061</ele>
        <time>2024-08-21T13:02:30.000Z</time>
      </trkpt>
      <trkpt lat="47.63753" lon="-0.05671">
        <ele>51.799999237061</ele>
        <time>2024-08-21T13:02:31.000Z</time>
      </trkpt>
      <trkpt lat="47.63732" lon="-0.05685">
        <ele>52</ele>
        <time>2024-08-21T13:02:36.000Z</time>
      </trkpt>
      <trkpt lat="47.63724" lon="-0.0569">
        <ele>52</ele>
        <time>2024-08-21T13:02:38.000Z</time>
      </trkpt>
      <trkpt lat="47.63707" lon="-0.05705">
        <ele>52.400001525879</ele>
        <time>2024-08-21T13:02:42.000Z</time>
      </trkpt>
      <trkpt lat="47.63684" lon="-0.05722">
        <ele>52.799999237061</ele>
        <time>2024-08-21T13:02:47.000Z</time>
      </trkpt>
      <trkpt lat="47.63673" lon="-0.05729">
        <ele>52.799999237061</ele>
        <time>2024-08-21T13:02:49.000Z</time>
      </trkpt>
      <trkpt lat="47.6366" lon="-0.05737">
        <ele>52.799999237061</ele>
        <time>2024-08-21T13:02:52.000Z</time>
      </trkpt>
      <trkpt lat="47.63626" lon="-0.05767">
        <ele>53</ele>
        <time>2024-08-21T13:02:59.000Z</time>
      </trkpt>
      <trkpt lat="47.63617" lon="-0.05775">
        <ele>53</ele>
        <time>2024-08-21T13:03:01.000Z</time>
      </trkpt>
      <trkpt lat="47.6361" lon="-0.05777">
        <ele>53</ele>
        <time>2024-08-21T13:03:03.000Z</time>
      </trkpt>
      <trkpt lat="47.63593" lon="-0.05789">
        <ele>53.400001525879</ele>
        <time>2024-08-21T13:03:08.000Z</time>
      </trkpt>
      <trkpt lat="47.63573" lon="-0.058">
        <ele>53.799999237061</ele>
        <time>2024-08-21T13:03:14.000Z</time>
      </trkpt>
      <trkpt lat="47.63551" lon="-0.05816">
        <ele>54.200000762939</ele>
        <time>2024-08-21T13:03:19.000Z</time>
      </trkpt>
      <trkpt lat="47.63533" lon="-0.05828">
        <ele>54.400001525879</ele>
        <time>2024-08-21T13:03:23.000Z</time>
      </trkpt>
      <trkpt lat="47.63507" lon="-0.05848">
        <ele>54.799999237061</ele>
        <time>2024-08-21T13:03:30.000Z</time>
      </trkpt>
      <trkpt lat="47.63487" lon="-0.05861">
        <ele>55.200000762939</ele>
        <time>2024-08-21T13:03:35.000Z</time>
      </trkpt>
      <trkpt lat="47.63481" lon="-0.05866">
        <ele>55.200000762939</ele>
        <time>2024-08-21T13:03:36.000Z</time>
      </trkpt>
      <trkpt lat="47.63448" lon="-0.05885">
        <ele>55.400001525879</ele>
        <time>2024-08-21T13:03:44.000Z</time>
      </trkpt>
      <trkpt lat="47.63413" lon="-0.05912">
        <ele>56.200000762939</ele>
        <time>2024-08-21T13:03:53.000Z</time>
      </trkpt>
      <trkpt lat="47.6341" lon="-0.05915">
        <ele>56.200000762939</ele>
        <time>2024-08-21T13:03:54.000Z</time>
      </trkpt>
      <trkpt lat="47.63392" lon="-0.05926">
        <ele>56.400001525879</ele>
        <time>2024-08-21T13:03:59.000Z</time>
      </trkpt>
      <trkpt lat="47.63367" lon="-0.05945">
        <ele>56.599998474121</ele>
        <time>2024-08-21T13:04:05.000Z</time>
      </trkpt>
      <trkpt lat="47.63343" lon="-0.05962">
        <ele>57</ele>
        <time>2024-08-21T13:04:11.000Z</time>
      </trkpt>
      <trkpt lat="47.63317" lon="-0.05979">
        <ele>57.200000762939</ele>
        <time>2024-08-21T13:04:17.000Z</time>
      </trkpt>
      <trkpt lat="47.63312" lon="-0.05983">
        <ele>57.200000762939</ele>
        <time>2024-08-21T13:04:18.000Z</time>
      </trkpt>
      <trkpt lat="47.63286" lon="-0.06001">
        <ele>57.400001525879</ele>
        <time>2024-08-21T13:04:24.000Z</time>
      </trkpt>
      <trkpt lat="47.63281" lon="-0.06005">
        <ele>57.400001525879</ele>
        <time>2024-08-21T13:04:25.000Z</time>
      </trkpt>
      <trkpt lat="47.6326" lon="-0.06019">
        <ele>57.799999237061</ele>
        <time>2024-08-21T13:04:30.000Z</time>
      </trkpt>
      <trkpt lat="47.63251" lon="-0.06025">
        <ele>58.400001525879</ele>
        <time>2024-08-21T13:04:33.000Z</time>
      </trkpt>
      <trkpt lat="47.63242" lon="-0.06032">
        <ele>58.599998474121</ele>
        <time>2024-08-21T13:04:36.000Z</time>
      </trkpt>
      <trkpt lat="47.63232" lon="-0.06038">
        <ele>58.799999237061</ele>
        <time>2024-08-21T13:04:40.000Z</time>
      </trkpt>
      <trkpt lat="47.63225" lon="-0.06044">
        <ele>58.799999237061</ele>
        <time>2024-08-21T13:04:42.000Z</time>
      </trkpt>
      <trkpt lat="47.6322" lon="-0.06047">
        <ele>58.799999237061</ele>
        <time>2024-08-21T13:04:43.000Z</time>
      </trkpt>
      <trkpt lat="47.63205" lon="-0.06053">
        <ele>58.799999237061</ele>
        <time>2024-08-21T13:04:47.000Z</time>
      </trkpt>
      <trkpt lat="47.63195" lon="-0.06041">
        <ele>59</ele>
        <time>2024-08-21T13:04:51.000Z</time>
      </trkpt>
      <trkpt lat="47.63193" lon="-0.0604">
        <ele>59</ele>
        <time>2024-08-21T13:04:52.000Z</time>
      </trkpt>
      <trkpt lat="47.63188" lon="-0.06043">
        <ele>59.200000762939</ele>
        <time>2024-08-21T13:04:54.000Z</time>
      </trkpt>
      <trkpt lat="47.63184" lon="-0.06044">
        <ele>59.599998474121</ele>
        <time>2024-08-21T13:04:55.000Z</time>
      </trkpt>
      <trkpt lat="47.63177" lon="-0.06048">
        <ele>60</ele>
        <time>2024-08-21T13:04:57.000Z</time>
      </trkpt>
      <trkpt lat="47.63156" lon="-0.0606">
        <ele>60.400001525879</ele>
        <time>2024-08-21T13:05:02.000Z</time>
      </trkpt>
      <trkpt lat="47.63148" lon="-0.06067">
        <ele>60.599998474121</ele>
        <time>2024-08-21T13:05:04.000Z</time>
      </trkpt>
      <trkpt lat="47.63145" lon="-0.06073">
        <ele>60.599998474121</ele>
        <time>2024-08-21T13:05:05.000Z</time>
      </trkpt>
      <trkpt lat="47.63143" lon="-0.06081">
        <ele>60.599998474121</ele>
        <time>2024-08-21T13:05:06.000Z</time>
      </trkpt>
      <trkpt lat="47.63142" lon="-0.06101">
        <ele>60.599998474121</ele>
        <time>2024-08-21T13:05:09.000Z</time>
      </trkpt>
      <trkpt lat="47.6314" lon="-0.06105">
        <ele>60.599998474121</ele>
        <time>2024-08-21T13:05:10.000Z</time>
      </trkpt>
      <trkpt lat="47.6312" lon="-0.06118">
        <ele>60.200000762939</ele>
        <time>2024-08-21T13:05:15.000Z</time>
      </trkpt>
      <trkpt lat="47.63092" lon="-0.06142">
        <ele>60</ele>
        <time>2024-08-21T13:05:23.000Z</time>
      </trkpt>
      <trkpt lat="47.6308" lon="-0.06152">
        <ele>60.200000762939</ele>
        <time>2024-08-21T13:05:27.000Z</time>
      </trkpt>
      <trkpt lat="47.63053" lon="-0.06172">
        <ele>60.400001525879</ele>
        <time>2024-08-21T13:05:33.000Z</time>
      </trkpt>
      <trkpt lat="47.63034" lon="-0.06184">
        <ele>60.799999237061</ele>
        <time>2024-08-21T13:05:38.000Z</time>
      </trkpt>
      <trkpt lat="47.6301" lon="-0.06199">
        <ele>61</ele>
        <time>2024-08-21T13:05:43.000Z</time>
      </trkpt>
      <trkpt lat="47.62983" lon="-0.06214">
        <ele>61.400001525879</ele>
        <time>2024-08-21T13:05:49.000Z</time>
      </trkpt>
      <trkpt lat="47.62954" lon="-0.06238">
        <ele>61.599998474121</ele>
        <time>2024-08-21T13:05:56.000Z</time>
      </trkpt>
      <trkpt lat="47.6295" lon="-0.06241">
        <ele>61.599998474121</ele>
        <time>2024-08-21T13:05:57.000Z</time>
      </trkpt>
      <trkpt lat="47.62926" lon="-0.06257">
        <ele>62.400001525879</ele>
        <time>2024-08-21T13:06:03.000Z</time>
      </trkpt>
      <trkpt lat="47.62903" lon="-0.06271">
        <ele>62.400001525879</ele>
        <time>2024-08-21T13:06:09.000Z</time>
      </trkpt>
      <trkpt lat="47.62893" lon="-0.06283">
        <ele>62.400001525879</ele>
        <time>2024-08-21T13:06:12.000Z</time>
      </trkpt>
      <trkpt lat="47.62885" lon="-0.06289">
        <ele>62.400001525879</ele>
        <time>2024-08-21T13:06:14.000Z</time>
      </trkpt>
      <trkpt lat="47.62881" lon="-0.06291">
        <ele>62.200000762939</ele>
        <time>2024-08-21T13:06:15.000Z</time>
      </trkpt>
      <trkpt lat="47.62864" lon="-0.06302">
        <ele>62</ele>
        <time>2024-08-21T13:06:19.000Z</time>
      </trkpt>
      <trkpt lat="47.62856" lon="-0.06305">
        <ele>62</ele>
        <time>2024-08-21T13:06:21.000Z</time>
      </trkpt>
      <trkpt lat="47.62851" lon="-0.06307">
        <ele>62</ele>
        <time>2024-08-21T13:06:22.000Z</time>
      </trkpt>
      <trkpt lat="47.62843" lon="-0.06311">
        <ele>62.200000762939</ele>
        <time>2024-08-21T13:06:24.000Z</time>
      </trkpt>
      <trkpt lat="47.62838" lon="-0.06313">
        <ele>62.200000762939</ele>
        <time>2024-08-21T13:06:25.000Z</time>
      </trkpt>
      <trkpt lat="47.62821" lon="-0.06327">
        <ele>62.400001525879</ele>
        <time>2024-08-21T13:06:29.000Z</time>
      </trkpt>
      <trkpt lat="47.62812" lon="-0.06334">
        <ele>62.400001525879</ele>
        <time>2024-08-21T13:06:31.000Z</time>
      </trkpt>
      <trkpt lat="47.62803" lon="-0.06343">
        <ele>62.599998474121</ele>
        <time>2024-08-21T13:06:33.000Z</time>
      </trkpt>
      <trkpt lat="47.62789" lon="-0.06356">
        <ele>62.400001525879</ele>
        <time>2024-08-21T13:06:36.000Z</time>
      </trkpt>
      <trkpt lat="47.62766" lon="-0.06371">
        <ele>62.200000762939</ele>
        <time>2024-08-21T13:06:41.000Z</time>
      </trkpt>
      <trkpt lat="47.62757" lon="-0.06378">
        <ele>62.200000762939</ele>
        <time>2024-08-21T13:06:43.000Z</time>
      </trkpt>
      <trkpt lat="47.62747" lon="-0.06385">
        <ele>62.200000762939</ele>
        <time>2024-08-21T13:06:45.000Z</time>
      </trkpt>
      <trkpt lat="47.62742" lon="-0.06388">
        <ele>62</ele>
        <time>2024-08-21T13:06:46.000Z</time>
      </trkpt>
      <trkpt lat="47.62737" lon="-0.06394">
        <ele>62</ele>
        <time>2024-08-21T13:06:47.000Z</time>
      </trkpt>
      <trkpt lat="47.62725" lon="-0.06403">
        <ele>62.200000762939</ele>
        <time>2024-08-21T13:06:49.000Z</time>
      </trkpt>
      <trkpt lat="47.6272" lon="-0.06408">
        <ele>62.200000762939</ele>
        <time>2024-08-21T13:06:50.000Z</time>
      </trkpt>
      <trkpt lat="47.6271" lon="-0.06412">
        <ele>62.400001525879</ele>
        <time>2024-08-21T13:06:52.000Z</time>
      </trkpt>
      <trkpt lat="47.62701" lon="-0.06412">
        <ele>62.400001525879</ele>
        <time>2024-08-21T13:06:54.000Z</time>
      </trkpt>
      <trkpt lat="47.62695" lon="-0.06415">
        <ele>62.400001525879</ele>
        <time>2024-08-21T13:06:55.000Z</time>
      </trkpt>
      <trkpt lat="47.6268" lon="-0.06426">
        <ele>62.599998474121</ele>
        <time>2024-08-21T13:06:58.000Z</time>
      </trkpt>
      <trkpt lat="47.62666" lon="-0.06433">
        <ele>62.599998474121</ele>
        <time>2024-08-21T13:07:01.000Z</time>
      </trkpt>
      <trkpt lat="47.62626" lon="-0.06461">
        <ele>62</ele>
        <time>2024-08-21T13:07:10.000Z</time>
      </trkpt>
      <trkpt lat="47.62583" lon="-0.0649">
        <ele>62</ele>
        <time>2024-08-21T13:07:19.000Z</time>
      </trkpt>
      <trkpt lat="47.62551" lon="-0.06516">
        <ele>61.799999237061</ele>
        <time>2024-08-21T13:07:26.000Z</time>
      </trkpt>
      <trkpt lat="47.62546" lon="-0.06519">
        <ele>61.799999237061</ele>
        <time>2024-08-21T13:07:27.000Z</time>
      </trkpt>
      <trkpt lat="47.62528" lon="-0.06532">
        <ele>61.799999237061</ele>
        <time>2024-08-21T13:07:32.000Z</time>
      </trkpt>
      <trkpt lat="47.62505" lon="-0.0655">
        <ele>62</ele>
        <time>2024-08-21T13:07:37.000Z</time>
      </trkpt>
      <trkpt lat="47.62475" lon="-0.06572">
        <ele>62.400001525879</ele>
        <time>2024-08-21T13:07:43.000Z</time>
      </trkpt>
      <trkpt lat="47.6247" lon="-0.06576">
        <ele>62.400001525879</ele>
        <time>2024-08-21T13:07:44.000Z</time>
      </trkpt>
      <trkpt lat="47.62445" lon="-0.06593">
        <ele>62.400001525879</ele>
        <time>2024-08-21T13:07:49.000Z</time>
      </trkpt>
      <trkpt lat="47.62432" lon="-0.06604">
        <ele>62.599998474121</ele>
        <time>2024-08-21T13:07:53.000Z</time>
      </trkpt>
      <trkpt lat="47.62416" lon="-0.06613">
        <ele>62.599998474121</ele>
        <time>2024-08-21T13:07:58.000Z</time>
      </trkpt>
      <trkpt lat="47.62402" lon="-0.06622">
        <ele>62.400001525879</ele>
        <time>2024-08-21T13:08:01.000Z</time>
      </trkpt>
      <trkpt lat="47.62389" lon="-0.06632">
        <ele>62.200000762939</ele>
        <time>2024-08-21T13:08:04.000Z</time>
      </trkpt>
      <trkpt lat="47.62385" lon="-0.06634">
        <ele>62.200000762939</ele>
        <time>2024-08-21T13:08:05.000Z</time>
      </trkpt>
      <trkpt lat="47.62377" lon="-0.06638">
        <ele>62.200000762939</ele>
        <time>2024-08-21T13:08:07.000Z</time>
      </trkpt>
      <trkpt lat="47.62369" lon="-0.06644">
        <ele>62</ele>
        <time>2024-08-21T13:08:09.000Z</time>
      </trkpt>
      <trkpt lat="47.62343" lon="-0.06666">
        <ele>61.799999237061</ele>
        <time>2024-08-21T13:08:15.000Z</time>
      </trkpt>
      <trkpt lat="47.62325" lon="-0.0668">
        <ele>62</ele>
        <time>2024-08-21T13:08:20.000Z</time>
      </trkpt>
      <trkpt lat="47.62302" lon="-0.06695">
        <ele>61.799999237061</ele>
        <time>2024-08-21T13:08:25.000Z</time>
      </trkpt>
      <trkpt lat="47.62266" lon="-0.06716">
        <ele>62</ele>
        <time>2024-08-21T13:08:32.000Z</time>
      </trkpt>
      <trkpt lat="47.62257" lon="-0.06723">
        <ele>62.200000762939</ele>
        <time>2024-08-21T13:08:34.000Z</time>
      </trkpt>
      <trkpt lat="47.62236" lon="-0.06735">
        <ele>62.599998474121</ele>
        <time>2024-08-21T13:08:38.000Z</time>
      </trkpt>
      <trkpt lat="47.62225" lon="-0.0674">
        <ele>62.599998474121</ele>
        <time>2024-08-21T13:08:40.000Z</time>
      </trkpt>
      <trkpt lat="47.62209" lon="-0.06748">
        <ele>62.599998474121</ele>
        <time>2024-08-21T13:08:43.000Z</time>
      </trkpt>
      <trkpt lat="47.62188" lon="-0.06757">
        <ele>62.799999237061</ele>
        <time>2024-08-21T13:08:47.000Z</time>
      </trkpt>
      <trkpt lat="47.62183" lon="-0.06758">
        <ele>62.799999237061</ele>
        <time>2024-08-21T13:08:48.000Z</time>
      </trkpt>
      <trkpt lat="47.62178" lon="-0.06758">
        <ele>62.799999237061</ele>
        <time>2024-08-21T13:08:49.000Z</time>
      </trkpt>
      <trkpt lat="47.62162" lon="-0.06765">
        <ele>63</ele>
        <time>2024-08-21T13:08:52.000Z</time>
      </trkpt>
      <trkpt lat="47.62157" lon="-0.06767">
        <ele>63</ele>
        <time>2024-08-21T13:08:53.000Z</time>
      </trkpt>
      <trkpt lat="47.62129" lon="-0.06777">
        <ele>63.200000762939</ele>
        <time>2024-08-21T13:08:59.000Z</time>
      </trkpt>
      <trkpt lat="47.62101" lon="-0.06787">
        <ele>63.599998474121</ele>
        <time>2024-08-21T13:09:05.000Z</time>
      </trkpt>
      <trkpt lat="47.62084" lon="-0.06792">
        <ele>63.799999237061</ele>
        <time>2024-08-21T13:09:09.000Z</time>
      </trkpt>
      <trkpt lat="47.62079" lon="-0.06794">
        <ele>63.799999237061</ele>
        <time>2024-08-21T13:09:10.000Z</time>
      </trkpt>
      <trkpt lat="47.62055" lon="-0.068">
        <ele>64.199996948242</ele>
        <time>2024-08-21T13:09:15.000Z</time>
      </trkpt>
      <trkpt lat="47.62036" lon="-0.06803">
        <ele>64.400001525879</ele>
        <time>2024-08-21T13:09:19.000Z</time>
      </trkpt>
      <trkpt lat="47.62024" lon="-0.06808">
        <ele>64.800003051758</ele>
        <time>2024-08-21T13:09:21.000Z</time>
      </trkpt>
      <trkpt lat="47.62019" lon="-0.06809">
        <ele>64.800003051758</ele>
        <time>2024-08-21T13:09:22.000Z</time>
      </trkpt>
      <trkpt lat="47.62014" lon="-0.06808">
        <ele>65</ele>
        <time>2024-08-21T13:09:23.000Z</time>
      </trkpt>
      <trkpt lat="47.61996" lon="-0.06809">
        <ele>65.199996948242</ele>
        <time>2024-08-21T13:09:27.000Z</time>
      </trkpt>
      <trkpt lat="47.61985" lon="-0.06811">
        <ele>65</ele>
        <time>2024-08-21T13:09:29.000Z</time>
      </trkpt>
      <trkpt lat="47.61979" lon="-0.06812">
        <ele>65</ele>
        <time>2024-08-21T13:09:30.000Z</time>
      </trkpt>
      <trkpt lat="47.61969" lon="-0.06813">
        <ele>65</ele>
        <time>2024-08-21T13:09:32.000Z</time>
      </trkpt>
      <trkpt lat="47.61958" lon="-0.06812">
        <ele>65.199996948242</ele>
        <time>2024-08-21T13:09:34.000Z</time>
      </trkpt>
      <trkpt lat="47.61928" lon="-0.06812">
        <ele>65.199996948242</ele>
        <time>2024-08-21T13:09:41.000Z</time>
      </trkpt>
      <trkpt lat="47.61898" lon="-0.06809">
        <ele>65.599998474121</ele>
        <time>2024-08-21T13:09:48.000Z</time>
      </trkpt>
      <trkpt lat="47.61887" lon="-0.06808">
        <ele>65.800003051758</ele>
        <time>2024-08-21T13:09:50.000Z</time>
      </trkpt>
      <trkpt lat="47.61871" lon="-0.06808">
        <ele>66</ele>
        <time>2024-08-21T13:09:53.000Z</time>
      </trkpt>
      <trkpt lat="47.61855" lon="-0.06808">
        <ele>66</ele>
        <time>2024-08-21T13:09:56.000Z</time>
      </trkpt>
      <trkpt lat="47.61842" lon="-0.06808">
        <ele>66.599998474121</ele>
        <time>2024-08-21T13:09:59.000Z</time>
      </trkpt>
      <trkpt lat="47.61828" lon="-0.0681">
        <ele>66.800003051758</ele>
        <time>2024-08-21T13:10:02.000Z</time>
      </trkpt>
      <trkpt lat="47.61817" lon="-0.06809">
        <ele>66.800003051758</ele>
        <time>2024-08-21T13:10:04.000Z</time>
      </trkpt>
      <trkpt lat="47.61811" lon="-0.06809">
        <ele>66.800003051758</ele>
        <time>2024-08-21T13:10:05.000Z</time>
      </trkpt>
      <trkpt lat="47.61792" lon="-0.06807">
        <ele>66.599998474121</ele>
        <time>2024-08-21T13:10:09.000Z</time>
      </trkpt>
      <trkpt lat="47.61774" lon="-0.0681">
        <ele>67</ele>
        <time>2024-08-21T13:10:12.000Z</time>
      </trkpt>
      <trkpt lat="47.61765" lon="-0.06809">
        <ele>67.199996948242</ele>
        <time>2024-08-21T13:10:14.000Z</time>
      </trkpt>
      <trkpt lat="47.61728" lon="-0.06808">
        <ele>67</ele>
        <time>2024-08-21T13:10:21.000Z</time>
      </trkpt>
      <trkpt lat="47.6171" lon="-0.06803">
        <ele>67.199996948242</ele>
        <time>2024-08-21T13:10:25.000Z</time>
      </trkpt>
      <trkpt lat="47.61693" lon="-0.06804">
        <ele>67.199996948242</ele>
        <time>2024-08-21T13:10:29.000Z</time>
      </trkpt>
      <trkpt lat="47.61683" lon="-0.06806">
        <ele>67.199996948242</ele>
        <time>2024-08-21T13:10:31.000Z</time>
      </trkpt>
      <trkpt lat="47.61675" lon="-0.06804">
        <ele>66.800003051758</ele>
        <time>2024-08-21T13:10:33.000Z</time>
      </trkpt>
      <trkpt lat="47.61649" lon="-0.06801">
        <ele>67</ele>
        <time>2024-08-21T13:10:38.000Z</time>
      </trkpt>
      <trkpt lat="47.6162" lon="-0.06797">
        <ele>66.800003051758</ele>
        <time>2024-08-21T13:10:43.000Z</time>
      </trkpt>
      <trkpt lat="47.61608" lon="-0.06798">
        <ele>67.199996948242</ele>
        <time>2024-08-21T13:10:45.000Z</time>
      </trkpt>
      <trkpt lat="47.61595" lon="-0.06797">
        <ele>67.199996948242</ele>
        <time>2024-08-21T13:10:47.000Z</time>
      </trkpt>
      <trkpt lat="47.61589" lon="-0.06794">
        <ele>67.199996948242</ele>
        <time>2024-08-21T13:10:48.000Z</time>
      </trkpt>
      <trkpt lat="47.6158" lon="-0.06794">
        <ele>67.599998474121</ele>
        <time>2024-08-21T13:10:50.000Z</time>
      </trkpt>
      <trkpt lat="47.61569" lon="-0.06793">
        <ele>67.599998474121</ele>
        <time>2024-08-21T13:10:52.000Z</time>
      </trkpt>
      <trkpt lat="47.61555" lon="-0.06796">
        <ele>67.400001525879</ele>
        <time>2024-08-21T13:10:55.000Z</time>
      </trkpt>
      <trkpt lat="47.61544" lon="-0.06794">
        <ele>67.599998474121</ele>
        <time>2024-08-21T13:10:58.000Z</time>
      </trkpt>
      <trkpt lat="47.61506" lon="-0.06791">
        <ele>67.800003051758</ele>
        <time>2024-08-21T13:11:05.000Z</time>
      </trkpt>
      <trkpt lat="47.61501" lon="-0.0679">
        <ele>67.800003051758</ele>
        <time>2024-08-21T13:11:06.000Z</time>
      </trkpt>
      <trkpt lat="47.61496" lon="-0.0679">
        <ele>67.800003051758</ele>
        <time>2024-08-21T13:11:07.000Z</time>
      </trkpt>
      <trkpt lat="47.61479" lon="-0.0679">
        <ele>67.599998474121</ele>
        <time>2024-08-21T13:11:10.000Z</time>
      </trkpt>
      <trkpt lat="47.6147" lon="-0.06789">
        <ele>67.800003051758</ele>
        <time>2024-08-21T13:11:12.000Z</time>
      </trkpt>
      <trkpt lat="47.61461" lon="-0.06788">
        <ele>68</ele>
        <time>2024-08-21T13:11:14.000Z</time>
      </trkpt>
      <trkpt lat="47.61456" lon="-0.06788">
        <ele>68</ele>
        <time>2024-08-21T13:11:15.000Z</time>
      </trkpt>
      <trkpt lat="47.6145" lon="-0.06786">
        <ele>68</ele>
        <time>2024-08-21T13:11:16.000Z</time>
      </trkpt>
      <trkpt lat="47.61439" lon="-0.06787">
        <ele>68.199996948242</ele>
        <time>2024-08-21T13:11:18.000Z</time>
      </trkpt>
      <trkpt lat="47.61429" lon="-0.06786">
        <ele>68.199996948242</ele>
        <time>2024-08-21T13:11:20.000Z</time>
      </trkpt>
      <trkpt lat="47.61423" lon="-0.06784">
        <ele>68.400001525879</ele>
        <time>2024-08-21T13:11:21.000Z</time>
      </trkpt>
      <trkpt lat="47.61407" lon="-0.06781">
        <ele>68.400001525879</ele>
        <time>2024-08-21T13:11:24.000Z</time>
      </trkpt>
      <trkpt lat="47.61401" lon="-0.06782">
        <ele>68.400001525879</ele>
        <time>2024-08-21T13:11:25.000Z</time>
      </trkpt>
      <trkpt lat="47.61364" lon="-0.06783">
        <ele>68.800003051758</ele>
        <time>2024-08-21T13:11:33.000Z</time>
      </trkpt>
      <trkpt lat="47.61348" lon="-0.06787">
        <ele>68.599998474121</ele>
        <time>2024-08-21T13:11:36.000Z</time>
      </trkpt>
      <trkpt lat="47.61337" lon="-0.06785">
        <ele>68.800003051758</ele>
        <time>2024-08-21T13:11:38.000Z</time>
      </trkpt>
      <trkpt lat="47.61329" lon="-0.06784">
        <ele>68.800003051758</ele>
        <time>2024-08-21T13:11:40.000Z</time>
      </trkpt>
      <trkpt lat="47.6132" lon="-0.06784">
        <ele>68.800003051758</ele>
        <time>2024-08-21T13:11:42.000Z</time>
      </trkpt>
      <trkpt lat="47.61306" lon="-0.06781">
        <ele>69</ele>
        <time>2024-08-21T13:11:46.000Z</time>
      </trkpt>
      <trkpt lat="47.61297" lon="-0.06782">
        <ele>69.199996948242</ele>
        <time>2024-08-21T13:11:48.000Z</time>
      </trkpt>
      <trkpt lat="47.61273" lon="-0.06781">
        <ele>69.199996948242</ele>
        <time>2024-08-21T13:11:53.000Z</time>
      </trkpt>
      <trkpt lat="47.6125" lon="-0.06779">
        <ele>69.599998474121</ele>
        <time>2024-08-21T13:11:58.000Z</time>
      </trkpt>
      <trkpt lat="47.61217" lon="-0.06777">
        <ele>70</ele>
        <time>2024-08-21T13:12:05.000Z</time>
      </trkpt>
      <trkpt lat="47.61208" lon="-0.06774">
        <ele>70.199996948242</ele>
        <time>2024-08-21T13:12:07.000Z</time>
      </trkpt>
      <trkpt lat="47.61203" lon="-0.06773">
        <ele>70.199996948242</ele>
        <time>2024-08-21T13:12:08.000Z</time>
      </trkpt>
      <trkpt lat="47.61199" lon="-0.06773">
        <ele>70.400001525879</ele>
        <time>2024-08-21T13:12:09.000Z</time>
      </trkpt>
      <trkpt lat="47.61169" lon="-0.06774">
        <ele>70.199996948242</ele>
        <time>2024-08-21T13:12:15.000Z</time>
      </trkpt>
      <trkpt lat="47.61139" lon="-0.06771">
        <ele>70.800003051758</ele>
        <time>2024-08-21T13:12:21.000Z</time>
      </trkpt>
      <trkpt lat="47.61118" lon="-0.06771">
        <ele>71.199996948242</ele>
        <time>2024-08-21T13:12:25.000Z</time>
      </trkpt>
      <trkpt lat="47.61092" lon="-0.06769">
        <ele>71.400001525879</ele>
        <time>2024-08-21T13:12:31.000Z</time>
      </trkpt>
      <trkpt lat="47.61068" lon="-0.06771">
        <ele>71.599998474121</ele>
        <time>2024-08-21T13:12:37.000Z</time>
      </trkpt>
      <trkpt lat="47.61052" lon="-0.0677">
        <ele>71.599998474121</ele>
        <time>2024-08-21T13:12:41.000Z</time>
      </trkpt>
      <trkpt lat="47.61024" lon="-0.06768">
        <ele>71.800003051758</ele>
        <time>2024-08-21T13:12:47.000Z</time>
      </trkpt>
      <trkpt lat="47.61002" lon="-0.06767">
        <ele>72</ele>
        <time>2024-08-21T13:12:52.000Z</time>
      </trkpt>
      <trkpt lat="47.60992" lon="-0.06766">
        <ele>72.400001525879</ele>
        <time>2024-08-21T13:12:54.000Z</time>
      </trkpt>
      <trkpt lat="47.60988" lon="-0.06764">
        <ele>72.400001525879</ele>
        <time>2024-08-21T13:12:55.000Z</time>
      </trkpt>
      <trkpt lat="47.60978" lon="-0.06764">
        <ele>72.599998474121</ele>
        <time>2024-08-21T13:12:57.000Z</time>
      </trkpt>
      <trkpt lat="47.60962" lon="-0.06763">
        <ele>72.800003051758</ele>
        <time>2024-08-21T13:13:01.000Z</time>
      </trkpt>
      <trkpt lat="47.60943" lon="-0.06764">
        <ele>73.199996948242</ele>
        <time>2024-08-21T13:13:05.000Z</time>
      </trkpt>
      <trkpt lat="47.60933" lon="-0.06763">
        <ele>73.400001525879</ele>
        <time>2024-08-21T13:13:07.000Z</time>
      </trkpt>
      <trkpt lat="47.60905" lon="-0.06763">
        <ele>73.599998474121</ele>
        <time>2024-08-21T13:13:13.000Z</time>
      </trkpt>
      <trkpt lat="47.6088" lon="-0.06762">
        <ele>73.800003051758</ele>
        <time>2024-08-21T13:13:19.000Z</time>
      </trkpt>
      <trkpt lat="47.60856" lon="-0.06761">
        <ele>74</ele>
        <time>2024-08-21T13:13:25.000Z</time>
      </trkpt>
      <trkpt lat="47.60834" lon="-0.06759">
        <ele>74.400001525879</ele>
        <time>2024-08-21T13:13:31.000Z</time>
      </trkpt>
      <trkpt lat="47.60813" lon="-0.06759">
        <ele>74.800003051758</ele>
        <time>2024-08-21T13:13:36.000Z</time>
      </trkpt>
      <trkpt lat="47.60781" lon="-0.0676">
        <ele>75</ele>
        <time>2024-08-21T13:13:44.000Z</time>
      </trkpt>
      <trkpt lat="47.60745" lon="-0.06756">
        <ele>75.199996948242</ele>
        <time>2024-08-21T13:13:51.000Z</time>
      </trkpt>
      <trkpt lat="47.60739" lon="-0.06755">
        <ele>75.199996948242</ele>
        <time>2024-08-21T13:13:52.000Z</time>
      </trkpt>
      <trkpt lat="47.60712" lon="-0.06755">
        <ele>75</ele>
        <time>2024-08-21T13:13:58.000Z</time>
      </trkpt>
      <trkpt lat="47.60709" lon="-0.06754">
        <ele>75.199996948242</ele>
        <time>2024-08-21T13:13:59.000Z</time>
      </trkpt>
      <trkpt lat="47.60682" lon="-0.06755">
        <ele>76.199996948242</ele>
        <time>2024-08-21T13:14:06.000Z</time>
      </trkpt>
      <trkpt lat="47.60659" lon="-0.06755">
        <ele>76.199996948242</ele>
        <time>2024-08-21T13:14:12.000Z</time>
      </trkpt>
      <trkpt lat="47.60639" lon="-0.06752">
        <ele>76.400001525879</ele>
        <time>2024-08-21T13:14:17.000Z</time>
      </trkpt>
      <trkpt lat="47.60635" lon="-0.06752">
        <ele>76.400001525879</ele>
        <time>2024-08-21T13:14:18.000Z</time>
      </trkpt>
      <trkpt lat="47.60618" lon="-0.06751">
        <ele>77</ele>
        <time>2024-08-21T13:14:23.000Z</time>
      </trkpt>
      <trkpt lat="47.60596" lon="-0.06749">
        <ele>77.400001525879</ele>
        <time>2024-08-21T13:14:28.000Z</time>
      </trkpt>
      <trkpt lat="47.60592" lon="-0.06749">
        <ele>77.599998474121</ele>
        <time>2024-08-21T13:14:29.000Z</time>
      </trkpt>
      <trkpt lat="47.60583" lon="-0.06748">
        <ele>77.599998474121</ele>
        <time>2024-08-21T13:14:31.000Z</time>
      </trkpt>
      <trkpt lat="47.60565" lon="-0.06746">
        <ele>77.400001525879</ele>
        <time>2024-08-21T13:14:35.000Z</time>
      </trkpt>
      <trkpt lat="47.60561" lon="-0.06745">
        <ele>77.400001525879</ele>
        <time>2024-08-21T13:14:36.000Z</time>
      </trkpt>
      <trkpt lat="47.6054" lon="-0.06742">
        <ele>77.400001525879</ele>
        <time>2024-08-21T13:14:41.000Z</time>
      </trkpt>
      <trkpt lat="47.60507" lon="-0.06739">
        <ele>78.199996948242</ele>
        <time>2024-08-21T13:14:49.000Z</time>
      </trkpt>
      <trkpt lat="47.60488" lon="-0.06738">
        <ele>78.400001525879</ele>
        <time>2024-08-21T13:14:53.000Z</time>
      </trkpt>
      <trkpt lat="47.6047" lon="-0.06737">
        <ele>78.599998474121</ele>
        <time>2024-08-21T13:14:57.000Z</time>
      </trkpt>
      <trkpt lat="47.60461" lon="-0.06737">
        <ele>78.800003051758</ele>
        <time>2024-08-21T13:14:59.000Z</time>
      </trkpt>
      <trkpt lat="47.60442" lon="-0.06735">
        <ele>78.800003051758</ele>
        <time>2024-08-21T13:15:03.000Z</time>
      </trkpt>
      <trkpt lat="47.60427" lon="-0.06734">
        <ele>78.800003051758</ele>
        <time>2024-08-21T13:15:06.000Z</time>
      </trkpt>
      <trkpt lat="47.60419" lon="-0.06733">
        <ele>79</ele>
        <time>2024-08-21T13:15:08.000Z</time>
      </trkpt>
      <trkpt lat="47.60406" lon="-0.06731">
        <ele>79.599998474121</ele>
        <time>2024-08-21T13:15:12.000Z</time>
      </trkpt>
      <trkpt lat="47.60395" lon="-0.06729">
        <ele>79.800003051758</ele>
        <time>2024-08-21T13:15:15.000Z</time>
      </trkpt>
      <trkpt lat="47.60375" lon="-0.06725">
        <ele>80</ele>
        <time>2024-08-21T13:15:20.000Z</time>
      </trkpt>
      <trkpt lat="47.60343" lon="-0.06724">
        <ele>80</ele>
        <time>2024-08-21T13:15:26.000Z</time>
      </trkpt>
      <trkpt lat="47.60334" lon="-0.06724">
        <ele>80</ele>
        <time>2024-08-21T13:15:28.000Z</time>
      </trkpt>
      <trkpt lat="47.60319" lon="-0.06722">
        <ele>80.199996948242</ele>
        <time>2024-08-21T13:15:31.000Z</time>
      </trkpt>
      <trkpt lat="47.60301" lon="-0.06719">
        <ele>80.400001525879</ele>
        <time>2024-08-21T13:15:35.000Z</time>
      </trkpt>
      <trkpt lat="47.60293" lon="-0.06719">
        <ele>80.599998474121</ele>
        <time>2024-08-21T13:15:37.000Z</time>
      </trkpt>
      <trkpt lat="47.60273" lon="-0.06717">
        <ele>80.800003051758</ele>
        <time>2024-08-21T13:15:42.000Z</time>
      </trkpt>
      <trkpt lat="47.60246" lon="-0.06713">
        <ele>81.199996948242</ele>
        <time>2024-08-21T13:15:49.000Z</time>
      </trkpt>
      <trkpt lat="47.60224" lon="-0.0671">
        <ele>81.199996948242</ele>
        <time>2024-08-21T13:15:54.000Z</time>
      </trkpt>
      <trkpt lat="47.60216" lon="-0.0671">
        <ele>81.199996948242</ele>
        <time>2024-08-21T13:15:56.000Z</time>
      </trkpt>
      <trkpt lat="47.60183" lon="-0.06706">
        <ele>81.599998474121</ele>
        <time>2024-08-21T13:16:04.000Z</time>
      </trkpt>
      <trkpt lat="47.60175" lon="-0.06705">
        <ele>81.599998474121</ele>
        <time>2024-08-21T13:16:06.000Z</time>
      </trkpt>
      <trkpt lat="47.6014" lon="-0.06701">
        <ele>82.199996948242</ele>
        <time>2024-08-21T13:16:14.000Z</time>
      </trkpt>
      <trkpt lat="47.60109" lon="-0.06699">
        <ele>82.599998474121</ele>
        <time>2024-08-21T13:16:21.000Z</time>
      </trkpt>
      <trkpt lat="47.60092" lon="-0.06696">
        <ele>82.800003051758</ele>
        <time>2024-08-21T13:16:25.000Z</time>
      </trkpt>
      <trkpt lat="47.60055" lon="-0.06692">
        <ele>82.800003051758</ele>
        <time>2024-08-21T13:16:33.000Z</time>
      </trkpt>
      <trkpt lat="47.60009" lon="-0.06688">
        <ele>83</ele>
        <time>2024-08-21T13:16:43.000Z</time>
      </trkpt>
      <trkpt lat="47.59969" lon="-0.06684">
        <ele>83.400001525879</ele>
        <time>2024-08-21T13:16:52.000Z</time>
      </trkpt>
      <trkpt lat="47.59964" lon="-0.06684">
        <ele>83.400001525879</ele>
        <time>2024-08-21T13:16:53.000Z</time>
      </trkpt>
      <trkpt lat="47.5996" lon="-0.06683">
        <ele>83.400001525879</ele>
        <time>2024-08-21T13:16:54.000Z</time>
      </trkpt>
      <trkpt lat="47.59923" lon="-0.06679">
        <ele>84.400001525879</ele>
        <time>2024-08-21T13:17:02.000Z</time>
      </trkpt>
      <trkpt lat="47.599" lon="-0.06677">
        <ele>84.599998474121</ele>
        <time>2024-08-21T13:17:07.000Z</time>
      </trkpt>
      <trkpt lat="47.59872" lon="-0.06674">
        <ele>84.800003051758</ele>
        <time>2024-08-21T13:17:13.000Z</time>
      </trkpt>
      <trkpt lat="47.59848" lon="-0.06671">
        <ele>85</ele>
        <time>2024-08-21T13:17:18.000Z</time>
      </trkpt>
      <trkpt lat="47.59828" lon="-0.06669">
        <ele>85</ele>
        <time>2024-08-21T13:17:22.000Z</time>
      </trkpt>
      <trkpt lat="47.5977" lon="-0.06663">
        <ele>84.800003051758</ele>
        <time>2024-08-21T13:17:34.000Z</time>
      </trkpt>
      <trkpt lat="47.5974" lon="-0.0666">
        <ele>84.599998474121</ele>
        <time>2024-08-21T13:17:40.000Z</time>
      </trkpt>
      <trkpt lat="47.59724" lon="-0.06659">
        <ele>84.599998474121</ele>
        <time>2024-08-21T13:17:43.000Z</time>
      </trkpt>
      <trkpt lat="47.59677" lon="-0.06653">
        <ele>84.800003051758</ele>
        <time>2024-08-21T13:17:52.000Z</time>
      </trkpt>
      <trkpt lat="47.59658" lon="-0.06651">
        <ele>84.800003051758</ele>
        <time>2024-08-21T13:17:56.000Z</time>
      </trkpt>
      <trkpt lat="47.5965" lon="-0.06651">
        <ele>84.599998474121</ele>
        <time>2024-08-21T13:17:58.000Z</time>
      </trkpt>
      <trkpt lat="47.59645" lon="-0.06651">
        <ele>84.400001525879</ele>
        <time>2024-08-21T13:17:59.000Z</time>
      </trkpt>
      <trkpt lat="47.59631" lon="-0.0665">
        <ele>83.800003051758</ele>
        <time>2024-08-21T13:18:02.000Z</time>
      </trkpt>
      <trkpt lat="47.59625" lon="-0.06649">
        <ele>83.800003051758</ele>
        <time>2024-08-21T13:18:03.000Z</time>
      </trkpt>
      <trkpt lat="47.59615" lon="-0.06648">
        <ele>83.400001525879</ele>
        <time>2024-08-21T13:18:05.000Z</time>
      </trkpt>
      <trkpt lat="47.5961" lon="-0.06647">
        <ele>83.400001525879</ele>
        <time>2024-08-21T13:18:06.000Z</time>
      </trkpt>
      <trkpt lat="47.59598" lon="-0.06645">
        <ele>83.199996948242</ele>
        <time>2024-08-21T13:18:08.000Z</time>
      </trkpt>
      <trkpt lat="47.59571" lon="-0.06644">
        <ele>83</ele>
        <time>2024-08-21T13:18:13.000Z</time>
      </trkpt>
      <trkpt lat="47.59559" lon="-0.06642">
        <ele>83</ele>
        <time>2024-08-21T13:18:15.000Z</time>
      </trkpt>
      <trkpt lat="47.59514" lon="-0.06637">
        <ele>83</ele>
        <time>2024-08-21T13:18:23.000Z</time>
      </trkpt>
      <trkpt lat="47.59474" lon="-0.06632">
        <ele>82.800003051758</ele>
        <time>2024-08-21T13:18:30.000Z</time>
      </trkpt>
      <trkpt lat="47.59469" lon="-0.06632">
        <ele>82.800003051758</ele>
        <time>2024-08-21T13:18:31.000Z</time>
      </trkpt>
      <trkpt lat="47.59448" lon="-0.06631">
        <ele>82.599998474121</ele>
        <time>2024-08-21T13:18:35.000Z</time>
      </trkpt>
      <trkpt lat="47.59443" lon="-0.06631">
        <ele>82.400001525879</ele>
        <time>2024-08-21T13:18:36.000Z</time>
      </trkpt>
      <trkpt lat="47.59437" lon="-0.0663">
        <ele>82.400001525879</ele>
        <time>2024-08-21T13:18:37.000Z</time>
      </trkpt>
      <trkpt lat="47.59432" lon="-0.06629">
        <ele>82.199996948242</ele>
        <time>2024-08-21T13:18:38.000Z</time>
      </trkpt>
      <trkpt lat="47.59426" lon="-0.06629">
        <ele>82.199996948242</ele>
        <time>2024-08-21T13:18:39.000Z</time>
      </trkpt>
      <trkpt lat="47.5942" lon="-0.06628">
        <ele>82</ele>
        <time>2024-08-21T13:18:40.000Z</time>
      </trkpt>
      <trkpt lat="47.59378" lon="-0.06623">
        <ele>81.800003051758</ele>
        <time>2024-08-21T13:18:48.000Z</time>
      </trkpt>
      <trkpt lat="47.59373" lon="-0.06623">
        <ele>81.800003051758</ele>
        <time>2024-08-21T13:18:49.000Z</time>
      </trkpt>
      <trkpt lat="47.59351" lon="-0.06621">
        <ele>81.800003051758</ele>
        <time>2024-08-21T13:18:53.000Z</time>
      </trkpt>
      <trkpt lat="47.59323" lon="-0.0662">
        <ele>82</ele>
        <time>2024-08-21T13:18:59.000Z</time>
      </trkpt>
      <trkpt lat="47.59298" lon="-0.06623">
        <ele>82.199996948242</ele>
        <time>2024-08-21T13:19:04.000Z</time>
      </trkpt>
      <trkpt lat="47.59294" lon="-0.06623">
        <ele>82.599998474121</ele>
        <time>2024-08-21T13:19:08.000Z</time>
      </trkpt>
      <trkpt lat="47.59283" lon="-0.06622">
        <ele>83.400001525879</ele>
        <time>2024-08-21T13:19:54.000Z</time>
      </trkpt>
      <trkpt lat="47.59275" lon="-0.06621">
        <ele>83.199996948242</ele>
        <time>2024-08-21T13:19:57.000Z</time>
      </trkpt>
      <trkpt lat="47.59259" lon="-0.06621">
        <ele>83</ele>
        <time>2024-08-21T13:20:01.000Z</time>
      </trkpt>
      <trkpt lat="47.59246" lon="-0.06622">
        <ele>82.800003051758</ele>
        <time>2024-08-21T13:20:04.000Z</time>
      </trkpt>
      <trkpt lat="47.59243" lon="-0.06622">
        <ele>82.800003051758</ele>
        <time>2024-08-21T13:20:05.000Z</time>
      </trkpt>
      <trkpt lat="47.59215" lon="-0.06629">
        <ele>83.199996948242</ele>
        <time>2024-08-21T13:20:11.000Z</time>
      </trkpt>
      <trkpt lat="47.59186" lon="-0.06631">
        <ele>83.400001525879</ele>
        <time>2024-08-21T13:20:17.000Z</time>
      </trkpt>
      <trkpt lat="47.59176" lon="-0.06634">
        <ele>83.599998474121</ele>
        <time>2024-08-21T13:20:19.000Z</time>
      </trkpt>
      <trkpt lat="47.5916" lon="-0.06636">
        <ele>83.800003051758</ele>
        <time>2024-08-21T13:20:22.000Z</time>
      </trkpt>
      <trkpt lat="47.59126" lon="-0.06643">
        <ele>84</ele>
        <time>2024-08-21T13:20:29.000Z</time>
      </trkpt>
      <trkpt lat="47.59103" lon="-0.06647">
        <ele>84.400001525879</ele>
        <time>2024-08-21T13:20:34.000Z</time>
      </trkpt>
      <trkpt lat="47.59098" lon="-0.06648">
        <ele>84.599998474121</ele>
        <time>2024-08-21T13:20:35.000Z</time>
      </trkpt>
      <trkpt lat="47.59082" lon="-0.0665">
        <ele>84.800003051758</ele>
        <time>2024-08-21T13:20:39.000Z</time>
      </trkpt>
      <trkpt lat="47.59057" lon="-0.06656">
        <ele>84.800003051758</ele>
        <time>2024-08-21T13:20:44.000Z</time>
      </trkpt>
      <trkpt lat="47.59045" lon="-0.06656">
        <ele>85</ele>
        <time>2024-08-21T13:20:47.000Z</time>
      </trkpt>
      <trkpt lat="47.59037" lon="-0.06658">
        <ele>85</ele>
        <time>2024-08-21T13:20:49.000Z</time>
      </trkpt>
      <trkpt lat="47.59032" lon="-0.06659">
        <ele>85.199996948242</ele>
        <time>2024-08-21T13:20:50.000Z</time>
      </trkpt>
      <trkpt lat="47.59028" lon="-0.0666">
        <ele>85.199996948242</ele>
        <time>2024-08-21T13:20:51.000Z</time>
      </trkpt>
      <trkpt lat="47.59018" lon="-0.06663">
        <ele>85.400001525879</ele>
        <time>2024-08-21T13:20:53.000Z</time>
      </trkpt>
      <trkpt lat="47.5901" lon="-0.06664">
        <ele>85.599998474121</ele>
        <time>2024-08-21T13:20:55.000Z</time>
      </trkpt>
      <trkpt lat="47.59005" lon="-0.06664">
        <ele>85.800003051758</ele>
        <time>2024-08-21T13:20:56.000Z</time>
      </trkpt>
      <trkpt lat="47.59001" lon="-0.06665">
        <ele>86</ele>
        <time>2024-08-21T13:20:57.000Z</time>
      </trkpt>
      <trkpt lat="47.58992" lon="-0.06666">
        <ele>86</ele>
        <time>2024-08-21T13:20:59.000Z</time>
      </trkpt>
      <trkpt lat="47.58988" lon="-0.06666">
        <ele>86.199996948242</ele>
        <time>2024-08-21T13:21:00.000Z</time>
      </trkpt>
      <trkpt lat="47.58979" lon="-0.06664">
        <ele>86.400001525879</ele>
        <time>2024-08-21T13:21:02.000Z</time>
      </trkpt>
      <trkpt lat="47.58975" lon="-0.06665">
        <ele>86.400001525879</ele>
        <time>2024-08-21T13:21:03.000Z</time>
      </trkpt>
      <trkpt lat="47.58965" lon="-0.06668">
        <ele>86.400001525879</ele>
        <time>2024-08-21T13:21:05.000Z</time>
      </trkpt>
      <trkpt lat="47.58952" lon="-0.0667">
        <ele>86.599998474121</ele>
        <time>2024-08-21T13:21:08.000Z</time>
      </trkpt>
      <trkpt lat="47.5893" lon="-0.06672">
        <ele>86.599998474121</ele>
        <time>2024-08-21T13:21:13.000Z</time>
      </trkpt>
      <trkpt lat="47.5891" lon="-0.06678">
        <ele>86.800003051758</ele>
        <time>2024-08-21T13:21:17.000Z</time>
      </trkpt>
      <trkpt lat="47.58905" lon="-0.06679">
        <ele>86.800003051758</ele>
        <time>2024-08-21T13:21:18.000Z</time>
      </trkpt>
      <trkpt lat="47.58877" lon="-0.06679">
        <ele>86.800003051758</ele>
        <time>2024-08-21T13:21:24.000Z</time>
      </trkpt>
      <trkpt lat="47.58845" lon="-0.06682">
        <ele>87</ele>
        <time>2024-08-21T13:21:31.000Z</time>
      </trkpt>
      <trkpt lat="47.58822" lon="-0.06685">
        <ele>87.199996948242</ele>
        <time>2024-08-21T13:21:36.000Z</time>
      </trkpt>
      <trkpt lat="47.58798" lon="-0.06691">
        <ele>87.599998474121</ele>
        <time>2024-08-21T13:21:41.000Z</time>
      </trkpt>
      <trkpt lat="47.58776" lon="-0.06694">
        <ele>87.800003051758</ele>
        <time>2024-08-21T13:21:46.000Z</time>
      </trkpt>
      <trkpt lat="47.58771" lon="-0.06695">
        <ele>87.800003051758</ele>
        <time>2024-08-21T13:21:47.000Z</time>
      </trkpt>
      <trkpt lat="47.58737" lon="-0.06698">
        <ele>88.199996948242</ele>
        <time>2024-08-21T13:21:54.000Z</time>
      </trkpt>
      <trkpt lat="47.58697" lon="-0.06706">
        <ele>88.199996948242</ele>
        <time>2024-08-21T13:22:02.000Z</time>
      </trkpt>
      <trkpt lat="47.58653" lon="-0.06712">
        <ele>88.599998474121</ele>
        <time>2024-08-21T13:22:12.000Z</time>
      </trkpt>
      <trkpt lat="47.58624" lon="-0.06716">
        <ele>88.800003051758</ele>
        <time>2024-08-21T13:22:18.000Z</time>
      </trkpt>
      <trkpt lat="47.58619" lon="-0.06717">
        <ele>88.800003051758</ele>
        <time>2024-08-21T13:22:19.000Z</time>
      </trkpt>
      <trkpt lat="47.58609" lon="-0.06718">
        <ele>89</ele>
        <time>2024-08-21T13:22:21.000Z</time>
      </trkpt>
      <trkpt lat="47.58596" lon="-0.0672">
        <ele>89.199996948242</ele>
        <time>2024-08-21T13:22:24.000Z</time>
      </trkpt>
      <trkpt lat="47.58576" lon="-0.06722">
        <ele>89.400001525879</ele>
        <time>2024-08-21T13:22:28.000Z</time>
      </trkpt>
      <trkpt lat="47.58572" lon="-0.06722">
        <ele>89.400001525879</ele>
        <time>2024-08-21T13:22:29.000Z</time>
      </trkpt>
      <trkpt lat="47.58552" lon="-0.06723">
        <ele>89.400001525879</ele>
        <time>2024-08-21T13:22:33.000Z</time>
      </trkpt>
      <trkpt lat="47.58523" lon="-0.06727">
        <ele>89</ele>
        <time>2024-08-21T13:22:38.000Z</time>
      </trkpt>
      <trkpt lat="47.58512" lon="-0.06728">
        <ele>88.800003051758</ele>
        <time>2024-08-21T13:22:40.000Z</time>
      </trkpt>
      <trkpt lat="47.58501" lon="-0.06731">
        <ele>88.599998474121</ele>
        <time>2024-08-21T13:22:42.000Z</time>
      </trkpt>
      <trkpt lat="47.58493" lon="-0.06731">
        <ele>88.599998474121</ele>
        <time>2024-08-21T13:22:44.000Z</time>
      </trkpt>
      <trkpt lat="47.58486" lon="-0.06733">
        <ele>88.599998474121</ele>
        <time>2024-08-21T13:22:45.000Z</time>
      </trkpt>
      <trkpt lat="47.58461" lon="-0.0674">
        <ele>88.400001525879</ele>
        <time>2024-08-21T13:22:50.000Z</time>
      </trkpt>
      <trkpt lat="47.5844" lon="-0.06746">
        <ele>88.599998474121</ele>
        <time>2024-08-21T13:22:54.000Z</time>
      </trkpt>
      <trkpt lat="47.58431" lon="-0.06746">
        <ele>88.800003051758</ele>
        <time>2024-08-21T13:22:56.000Z</time>
      </trkpt>
      <trkpt lat="47.58426" lon="-0.06747">
        <ele>88.800003051758</ele>
        <time>2024-08-21T13:22:57.000Z</time>
      </trkpt>
      <trkpt lat="47.5841" lon="-0.0675">
        <ele>89</ele>
        <time>2024-08-21T13:23:00.000Z</time>
      </trkpt>
      <trkpt lat="47.584" lon="-0.06752">
        <ele>88.599998474121</ele>
        <time>2024-08-21T13:23:02.000Z</time>
      </trkpt>
      <trkpt lat="47.58385" lon="-0.06756">
        <ele>88.199996948242</ele>
        <time>2024-08-21T13:23:05.000Z</time>
      </trkpt>
      <trkpt lat="47.58375" lon="-0.06754">
        <ele>88</ele>
        <time>2024-08-21T13:23:07.000Z</time>
      </trkpt>
      <trkpt lat="47.58365" lon="-0.06756">
        <ele>88</ele>
        <time>2024-08-21T13:23:09.000Z</time>
      </trkpt>
      <trkpt lat="47.58342" lon="-0.06761">
        <ele>88</ele>
        <time>2024-08-21T13:23:14.000Z</time>
      </trkpt>
      <trkpt lat="47.58333" lon="-0.06763">
        <ele>88</ele>
        <time>2024-08-21T13:23:16.000Z</time>
      </trkpt>
      <trkpt lat="47.58322" lon="-0.06762">
        <ele>87.800003051758</ele>
        <time>2024-08-21T13:23:18.000Z</time>
      </trkpt>
      <trkpt lat="47.58312" lon="-0.06764">
        <ele>87.800003051758</ele>
        <time>2024-08-21T13:23:20.000Z</time>
      </trkpt>
      <trkpt lat="47.583" lon="-0.06766">
        <ele>87.800003051758</ele>
        <time>2024-08-21T13:23:22.000Z</time>
      </trkpt>
      <trkpt lat="47.5829" lon="-0.06768">
        <ele>87.800003051758</ele>
        <time>2024-08-21T13:23:24.000Z</time>
      </trkpt>
      <trkpt lat="47.58275" lon="-0.0677">
        <ele>88</ele>
        <time>2024-08-21T13:23:26.000Z</time>
      </trkpt>
      <trkpt lat="47.58265" lon="-0.06771">
        <ele>88</ele>
        <time>2024-08-21T13:23:28.000Z</time>
      </trkpt>
      <trkpt lat="47.58255" lon="-0.06771">
        <ele>88.199996948242</ele>
        <time>2024-08-21T13:23:30.000Z</time>
      </trkpt>
      <trkpt lat="47.58242" lon="-0.06771">
        <ele>88.400001525879</ele>
        <time>2024-08-21T13:23:34.000Z</time>
      </trkpt>
      <trkpt lat="47.58217" lon="-0.06771">
        <ele>88.400001525879</ele>
        <time>2024-08-21T13:23:40.000Z</time>
      </trkpt>
      <trkpt lat="47.58202" lon="-0.06773">
        <ele>88.199996948242</ele>
        <time>2024-08-21T13:23:43.000Z</time>
      </trkpt>
      <trkpt lat="47.58188" lon="-0.06776">
        <ele>87.800003051758</ele>
        <time>2024-08-21T13:23:46.000Z</time>
      </trkpt>
      <trkpt lat="47.58145" lon="-0.06782">
        <ele>87.400001525879</ele>
        <time>2024-08-21T13:23:54.000Z</time>
      </trkpt>
      <trkpt lat="47.58135" lon="-0.06783">
        <ele>87.400001525879</ele>
        <time>2024-08-21T13:23:56.000Z</time>
      </trkpt>
      <trkpt lat="47.58125" lon="-0.06785">
        <ele>87.400001525879</ele>
        <time>2024-08-21T13:23:58.000Z</time>
      </trkpt>
      <trkpt lat="47.58093" lon="-0.0679">
        <ele>87.400001525879</ele>
        <time>2024-08-21T13:24:04.000Z</time>
      </trkpt>
      <trkpt lat="47.58088" lon="-0.06792">
        <ele>87.400001525879</ele>
        <time>2024-08-21T13:24:05.000Z</time>
      </trkpt>
      <trkpt lat="47.58082" lon="-0.06793">
        <ele>87.400001525879</ele>
        <time>2024-08-21T13:24:06.000Z</time>
      </trkpt>
      <trkpt lat="47.58054" lon="-0.06795">
        <ele>87.599998474121</ele>
        <time>2024-08-21T13:24:11.000Z</time>
      </trkpt>
      <trkpt lat="47.58036" lon="-0.06799">
        <ele>87.800003051758</ele>
        <time>2024-08-21T13:24:14.000Z</time>
      </trkpt>
      <trkpt lat="47.58025" lon="-0.06798">
        <ele>87.599998474121</ele>
        <time>2024-08-21T13:24:16.000Z</time>
      </trkpt>
      <trkpt lat="47.58009" lon="-0.06802">
        <ele>87.599998474121</ele>
        <time>2024-08-21T13:24:19.000Z</time>
      </trkpt>
      <trkpt lat="47.57999" lon="-0.06804">
        <ele>87.400001525879</ele>
        <time>2024-08-21T13:24:21.000Z</time>
      </trkpt>
      <trkpt lat="47.57994" lon="-0.06804">
        <ele>87.400001525879</ele>
        <time>2024-08-21T13:24:22.000Z</time>
      </trkpt>
      <trkpt lat="47.57976" lon="-0.06807">
        <ele>87.800003051758</ele>
        <time>2024-08-21T13:24:26.000Z</time>
      </trkpt>
      <trkpt lat="47.57963" lon="-0.0681">
        <ele>87.599998474121</ele>
        <time>2024-08-21T13:24:29.000Z</time>
      </trkpt>
      <trkpt lat="47.57958" lon="-0.0681">
        <ele>87.599998474121</ele>
        <time>2024-08-21T13:24:30.000Z</time>
      </trkpt>
      <trkpt lat="47.57925" lon="-0.06817">
        <ele>88.199996948242</ele>
        <time>2024-08-21T13:24:36.000Z</time>
      </trkpt>
      <trkpt lat="47.57909" lon="-0.06818">
        <ele>88.199996948242</ele>
        <time>2024-08-21T13:24:39.000Z</time>
      </trkpt>
      <trkpt lat="47.57898" lon="-0.06819">
        <ele>88</ele>
        <time>2024-08-21T13:24:41.000Z</time>
      </trkpt>
      <trkpt lat="47.57892" lon="-0.0682">
        <ele>88</ele>
        <time>2024-08-21T13:24:42.000Z</time>
      </trkpt>
      <trkpt lat="47.57887" lon="-0.06821">
        <ele>88</ele>
        <time>2024-08-21T13:24:43.000Z</time>
      </trkpt>
      <trkpt lat="47.57872" lon="-0.06823">
        <ele>87.599998474121</ele>
        <time>2024-08-21T13:24:46.000Z</time>
      </trkpt>
      <trkpt lat="47.57849" lon="-0.06827">
        <ele>87.199996948242</ele>
        <time>2024-08-21T13:24:50.000Z</time>
      </trkpt>
      <trkpt lat="47.57821" lon="-0.06831">
        <ele>87</ele>
        <time>2024-08-21T13:24:55.000Z</time>
      </trkpt>
      <trkpt lat="47.57805" lon="-0.06834">
        <ele>87</ele>
        <time>2024-08-21T13:24:58.000Z</time>
      </trkpt>
      <trkpt lat="47.57789" lon="-0.06836">
        <ele>87</ele>
        <time>2024-08-21T13:25:01.000Z</time>
      </trkpt>
      <trkpt lat="47.57783" lon="-0.06837">
        <ele>87.199996948242</ele>
        <time>2024-08-21T13:25:02.000Z</time>
      </trkpt>
      <trkpt lat="47.57774" lon="-0.0684">
        <ele>86.800003051758</ele>
        <time>2024-08-21T13:25:04.000Z</time>
      </trkpt>
      <trkpt lat="47.57764" lon="-0.06849">
        <ele>86.800003051758</ele>
        <time>2024-08-21T13:25:06.000Z</time>
      </trkpt>
      <trkpt lat="47.57759" lon="-0.0685">
        <ele>87</ele>
        <time>2024-08-21T13:25:07.000Z</time>
      </trkpt>
      <trkpt lat="47.57754" lon="-0.06851">
        <ele>87</ele>
        <time>2024-08-21T13:25:08.000Z</time>
      </trkpt>
      <trkpt lat="47.57729" lon="-0.06855">
        <ele>87.199996948242</ele>
        <time>2024-08-21T13:25:13.000Z</time>
      </trkpt>
      <trkpt lat="47.577" lon="-0.06856">
        <ele>87.400001525879</ele>
        <time>2024-08-21T13:25:20.000Z</time>
      </trkpt>
      <trkpt lat="47.57693" lon="-0.06851">
        <ele>87.599998474121</ele>
        <time>2024-08-21T13:25:23.000Z</time>
      </trkpt>
      <trkpt lat="47.57691" lon="-0.06851">
        <ele>87.599998474121</ele>
        <time>2024-08-21T13:25:24.000Z</time>
      </trkpt>
      <trkpt lat="47.57671" lon="-0.06854">
        <ele>87.400001525879</ele>
        <time>2024-08-21T13:25:30.000Z</time>
      </trkpt>
      <trkpt lat="47.57637" lon="-0.06858">
        <ele>86.599998474121</ele>
        <time>2024-08-21T13:25:38.000Z</time>
      </trkpt>
      <trkpt lat="47.57604" lon="-0.0686">
        <ele>86</ele>
        <time>2024-08-21T13:25:45.000Z</time>
      </trkpt>
      <trkpt lat="47.57599" lon="-0.06861">
        <ele>86</ele>
        <time>2024-08-21T13:25:46.000Z</time>
      </trkpt>
      <trkpt lat="47.57575" lon="-0.06867">
        <ele>86</ele>
        <time>2024-08-21T13:25:52.000Z</time>
      </trkpt>
      <trkpt lat="47.5755" lon="-0.06873">
        <ele>86.800003051758</ele>
        <time>2024-08-21T13:25:58.000Z</time>
      </trkpt>
      <trkpt lat="47.57533" lon="-0.06876">
        <ele>87.199996948242</ele>
        <time>2024-08-21T13:26:02.000Z</time>
      </trkpt>
      <trkpt lat="47.57529" lon="-0.06876">
        <ele>87.199996948242</ele>
        <time>2024-08-21T13:26:03.000Z</time>
      </trkpt>
      <trkpt lat="47.57523" lon="-0.06876">
        <ele>87.199996948242</ele>
        <time>2024-08-21T13:26:04.000Z</time>
      </trkpt>
      <trkpt lat="47.57503" lon="-0.0688">
        <ele>87.199996948242</ele>
        <time>2024-08-21T13:26:08.000Z</time>
      </trkpt>
      <trkpt lat="47.57492" lon="-0.06881">
        <ele>87.400001525879</ele>
        <time>2024-08-21T13:26:10.000Z</time>
      </trkpt>
      <trkpt lat="47.57473" lon="-0.06883">
        <ele>87.400001525879</ele>
        <time>2024-08-21T13:26:14.000Z</time>
      </trkpt>
      <trkpt lat="47.57464" lon="-0.06886">
        <ele>87.199996948242</ele>
        <time>2024-08-21T13:26:16.000Z</time>
      </trkpt>
      <trkpt lat="47.57454" lon="-0.06887">
        <ele>87.199996948242</ele>
        <time>2024-08-21T13:26:18.000Z</time>
      </trkpt>
      <trkpt lat="47.57447" lon="-0.06888">
        <ele>87.199996948242</ele>
        <time>2024-08-21T13:26:19.000Z</time>
      </trkpt>
      <trkpt lat="47.57432" lon="-0.06888">
        <ele>87.199996948242</ele>
        <time>2024-08-21T13:26:22.000Z</time>
      </trkpt>
      <trkpt lat="47.57408" lon="-0.06892">
        <ele>87.400001525879</ele>
        <time>2024-08-21T13:26:26.000Z</time>
      </trkpt>
      <trkpt lat="47.57404" lon="-0.06893">
        <ele>87.400001525879</ele>
        <time>2024-08-21T13:26:27.000Z</time>
      </trkpt>
      <trkpt lat="47.57372" lon="-0.06894">
        <ele>87.199996948242</ele>
        <time>2024-08-21T13:26:33.000Z</time>
      </trkpt>
      <trkpt lat="47.57351" lon="-0.06899">
        <ele>87.400001525879</ele>
        <time>2024-08-21T13:26:37.000Z</time>
      </trkpt>
      <trkpt lat="47.57342" lon="-0.06901">
        <ele>87.400001525879</ele>
        <time>2024-08-21T13:26:39.000Z</time>
      </trkpt>
      <trkpt lat="47.57319" lon="-0.06902">
        <ele>87.599998474121</ele>
        <time>2024-08-21T13:26:43.000Z</time>
      </trkpt>
      <trkpt lat="47.57309" lon="-0.06905">
        <ele>87.599998474121</ele>
        <time>2024-08-21T13:26:45.000Z</time>
      </trkpt>
      <trkpt lat="47.57273" lon="-0.06914">
        <ele>87.800003051758</ele>
        <time>2024-08-21T13:26:52.000Z</time>
      </trkpt>
      <trkpt lat="47.57266" lon="-0.06914">
        <ele>87.800003051758</ele>
        <time>2024-08-21T13:26:53.000Z</time>
      </trkpt>
      <trkpt lat="47.57261" lon="-0.06915">
        <ele>87.800003051758</ele>
        <time>2024-08-21T13:26:54.000Z</time>
      </trkpt>
      <trkpt lat="47.5725" lon="-0.06915">
        <ele>87.800003051758</ele>
        <time>2024-08-21T13:26:56.000Z</time>
      </trkpt>
      <trkpt lat="47.57237" lon="-0.06915">
        <ele>87.800003051758</ele>
        <time>2024-08-21T13:26:58.000Z</time>
      </trkpt>
      <trkpt lat="47.57227" lon="-0.06914">
        <ele>87.800003051758</ele>
        <time>2024-08-21T13:27:00.000Z</time>
      </trkpt>
      <trkpt lat="47.57222" lon="-0.06915">
        <ele>87.800003051758</ele>
        <time>2024-08-21T13:27:01.000Z</time>
      </trkpt>
      <trkpt lat="47.57207" lon="-0.06918">
        <ele>87.800003051758</ele>
        <time>2024-08-21T13:27:04.000Z</time>
      </trkpt>
      <trkpt lat="47.57197" lon="-0.06922">
        <ele>88</ele>
        <time>2024-08-21T13:27:06.000Z</time>
      </trkpt>
      <trkpt lat="47.57168" lon="-0.06929">
        <ele>88.199996948242</ele>
        <time>2024-08-21T13:27:12.000Z</time>
      </trkpt>
      <trkpt lat="47.57163" lon="-0.06929">
        <ele>88.199996948242</ele>
        <time>2024-08-21T13:27:13.000Z</time>
      </trkpt>
      <trkpt lat="47.57137" lon="-0.06932">
        <ele>88.199996948242</ele>
        <time>2024-08-21T13:27:18.000Z</time>
      </trkpt>
      <trkpt lat="47.57122" lon="-0.06935">
        <ele>88.199996948242</ele>
        <time>2024-08-21T13:27:21.000Z</time>
      </trkpt>
      <trkpt lat="47.57101" lon="-0.06938">
        <ele>88.400001525879</ele>
        <time>2024-08-21T13:27:25.000Z</time>
      </trkpt>
      <trkpt lat="47.5709" lon="-0.06939">
        <ele>88.400001525879</ele>
        <time>2024-08-21T13:27:27.000Z</time>
      </trkpt>
      <trkpt lat="47.57085" lon="-0.0694">
        <ele>88.599998474121</ele>
        <time>2024-08-21T13:27:28.000Z</time>
      </trkpt>
      <trkpt lat="47.5706" lon="-0.06945">
        <ele>88.599998474121</ele>
        <time>2024-08-21T13:27:33.000Z</time>
      </trkpt>
      <trkpt lat="47.57049" lon="-0.06947">
        <ele>88.400001525879</ele>
        <time>2024-08-21T13:27:35.000Z</time>
      </trkpt>
      <trkpt lat="47.57017" lon="-0.0695">
        <ele>88.599998474121</ele>
        <time>2024-08-21T13:27:41.000Z</time>
      </trkpt>
      <trkpt lat="47.57012" lon="-0.06951">
        <ele>88.599998474121</ele>
        <time>2024-08-21T13:27:42.000Z</time>
      </trkpt>
      <trkpt lat="47.56992" lon="-0.06953">
        <ele>88.800003051758</ele>
        <time>2024-08-21T13:27:47.000Z</time>
      </trkpt>
      <trkpt lat="47.56967" lon="-0.06955">
        <ele>89</ele>
        <time>2024-08-21T13:27:53.000Z</time>
      </trkpt>
      <trkpt lat="47.56943" lon="-0.06959">
        <ele>88.800003051758</ele>
        <time>2024-08-21T13:27:58.000Z</time>
      </trkpt>
      <trkpt lat="47.56928" lon="-0.06961">
        <ele>88.400001525879</ele>
        <time>2024-08-21T13:28:01.000Z</time>
      </trkpt>
      <trkpt lat="47.5692" lon="-0.06961">
        <ele>88.199996948242</ele>
        <time>2024-08-21T13:28:03.000Z</time>
      </trkpt>
      <trkpt lat="47.56916" lon="-0.06961">
        <ele>88</ele>
        <time>2024-08-21T13:28:04.000Z</time>
      </trkpt>
      <trkpt lat="47.56902" lon="-0.06963">
        <ele>87.800003051758</ele>
        <time>2024-08-21T13:28:07.000Z</time>
      </trkpt>
      <trkpt lat="47.56893" lon="-0.06967">
        <ele>87.800003051758</ele>
        <time>2024-08-21T13:28:09.000Z</time>
      </trkpt>
      <trkpt lat="47.56883" lon="-0.0697">
        <ele>87.400001525879</ele>
        <time>2024-08-21T13:28:11.000Z</time>
      </trkpt>
      <trkpt lat="47.56858" lon="-0.06972">
        <ele>87.400001525879</ele>
        <time>2024-08-21T13:28:16.000Z</time>
      </trkpt>
      <trkpt lat="47.56825" lon="-0.06976">
        <ele>87</ele>
        <time>2024-08-21T13:28:22.000Z</time>
      </trkpt>
      <trkpt lat="47.5682" lon="-0.06978">
        <ele>87</ele>
        <time>2024-08-21T13:28:23.000Z</time>
      </trkpt>
      <trkpt lat="47.56799" lon="-0.06979">
        <ele>86.800003051758</ele>
        <time>2024-08-21T13:28:27.000Z</time>
      </trkpt>
      <trkpt lat="47.56788" lon="-0.0698">
        <ele>86.800003051758</ele>
        <time>2024-08-21T13:28:29.000Z</time>
      </trkpt>
      <trkpt lat="47.56783" lon="-0.06979">
        <ele>86.800003051758</ele>
        <time>2024-08-21T13:28:30.000Z</time>
      </trkpt>
      <trkpt lat="47.56777" lon="-0.06981">
        <ele>86.599998474121</ele>
        <time>2024-08-21T13:28:31.000Z</time>
      </trkpt>
      <trkpt lat="47.56758" lon="-0.06982">
        <ele>86.400001525879</ele>
        <time>2024-08-21T13:28:35.000Z</time>
      </trkpt>
      <trkpt lat="47.56731" lon="-0.06985">
        <ele>86</ele>
        <time>2024-08-21T13:28:40.000Z</time>
      </trkpt>
      <trkpt lat="47.56707" lon="-0.06991">
        <ele>85.800003051758</ele>
        <time>2024-08-21T13:28:44.000Z</time>
      </trkpt>
      <trkpt lat="47.56702" lon="-0.06991">
        <ele>85.599998474121</ele>
        <time>2024-08-21T13:28:45.000Z</time>
      </trkpt>
      <trkpt lat="47.56681" lon="-0.06994">
        <ele>85.199996948242</ele>
        <time>2024-08-21T13:28:49.000Z</time>
      </trkpt>
      <trkpt lat="47.56675" lon="-0.06995">
        <ele>85.199996948242</ele>
        <time>2024-08-21T13:28:50.000Z</time>
      </trkpt>
      <trkpt lat="47.56667" lon="-0.06997">
        <ele>85.199996948242</ele>
        <time>2024-08-21T13:28:52.000Z</time>
      </trkpt>
      <trkpt lat="47.56653" lon="-0.06998">
        <ele>85.199996948242</ele>
        <time>2024-08-21T13:28:55.000Z</time>
      </trkpt>
      <trkpt lat="47.56636" lon="-0.06999">
        <ele>85.199996948242</ele>
        <time>2024-08-21T13:28:59.000Z</time>
      </trkpt>
      <trkpt lat="47.56627" lon="-0.07001">
        <ele>85</ele>
        <time>2024-08-21T13:29:01.000Z</time>
      </trkpt>
      <trkpt lat="47.56623" lon="-0.07002">
        <ele>85</ele>
        <time>2024-08-21T13:29:02.000Z</time>
      </trkpt>
      <trkpt lat="47.56612" lon="-0.07002">
        <ele>84.800003051758</ele>
        <time>2024-08-21T13:29:04.000Z</time>
      </trkpt>
      <trkpt lat="47.56603" lon="-0.07003">
        <ele>85</ele>
        <time>2024-08-21T13:29:06.000Z</time>
      </trkpt>
      <trkpt lat="47.56559" lon="-0.0701">
        <ele>84.599998474121</ele>
        <time>2024-08-21T13:29:15.000Z</time>
      </trkpt>
      <trkpt lat="47.5655" lon="-0.0701">
        <ele>84.599998474121</ele>
        <time>2024-08-21T13:29:17.000Z</time>
      </trkpt>
      <trkpt lat="47.56536" lon="-0.07013">
        <ele>84.400001525879</ele>
        <time>2024-08-21T13:29:20.000Z</time>
      </trkpt>
      <trkpt lat="47.56532" lon="-0.07012">
        <ele>84.400001525879</ele>
        <time>2024-08-21T13:29:21.000Z</time>
      </trkpt>
      <trkpt lat="47.56523" lon="-0.07012">
        <ele>84.400001525879</ele>
        <time>2024-08-21T13:29:23.000Z</time>
      </trkpt>
      <trkpt lat="47.565" lon="-0.07017">
        <ele>84.199996948242</ele>
        <time>2024-08-21T13:29:27.000Z</time>
      </trkpt>
      <trkpt lat="47.56484" lon="-0.07021">
        <ele>83.599998474121</ele>
        <time>2024-08-21T13:29:30.000Z</time>
      </trkpt>
      <trkpt lat="47.56469" lon="-0.07023">
        <ele>83.400001525879</ele>
        <time>2024-08-21T13:29:33.000Z</time>
      </trkpt>
      <trkpt lat="47.56461" lon="-0.07024">
        <ele>83.400001525879</ele>
        <time>2024-08-21T13:29:35.000Z</time>
      </trkpt>
      <trkpt lat="47.56456" lon="-0.07023">
        <ele>83.400001525879</ele>
        <time>2024-08-21T13:29:36.000Z</time>
      </trkpt>
      <trkpt lat="47.56443" lon="-0.07025">
        <ele>83.400001525879</ele>
        <time>2024-08-21T13:29:39.000Z</time>
      </trkpt>
      <trkpt lat="47.56423" lon="-0.07028">
        <ele>83.400001525879</ele>
        <time>2024-08-21T13:29:43.000Z</time>
      </trkpt>
      <trkpt lat="47.56413" lon="-0.07032">
        <ele>83</ele>
        <time>2024-08-21T13:29:45.000Z</time>
      </trkpt>
      <trkpt lat="47.56402" lon="-0.0703">
        <ele>82.800003051758</ele>
        <time>2024-08-21T13:29:48.000Z</time>
      </trkpt>
      <trkpt lat="47.56372" lon="-0.07037">
        <ele>82.400001525879</ele>
        <time>2024-08-21T13:29:55.000Z</time>
      </trkpt>
      <trkpt lat="47.56346" lon="-0.07041">
        <ele>82.400001525879</ele>
        <time>2024-08-21T13:30:01.000Z</time>
      </trkpt>
      <trkpt lat="47.56342" lon="-0.07042">
        <ele>82.400001525879</ele>
        <time>2024-08-21T13:30:02.000Z</time>
      </trkpt>
      <trkpt lat="47.56321" lon="-0.07046">
        <ele>82.199996948242</ele>
        <time>2024-08-21T13:30:06.000Z</time>
      </trkpt>
      <trkpt lat="47.56311" lon="-0.07049">
        <ele>82</ele>
        <time>2024-08-21T13:30:08.000Z</time>
      </trkpt>
      <trkpt lat="47.56305" lon="-0.07051">
        <ele>82</ele>
        <time>2024-08-21T13:30:09.000Z</time>
      </trkpt>
      <trkpt lat="47.56287" lon="-0.07057">
        <ele>81.599998474121</ele>
        <time>2024-08-21T13:30:12.000Z</time>
      </trkpt>
      <trkpt lat="47.56267" lon="-0.07062">
        <ele>81.199996948242</ele>
        <time>2024-08-21T13:30:16.000Z</time>
      </trkpt>
      <trkpt lat="47.56255" lon="-0.07067">
        <ele>81</ele>
        <time>2024-08-21T13:30:18.000Z</time>
      </trkpt>
      <trkpt lat="47.56244" lon="-0.07067">
        <ele>80.599998474121</ele>
        <time>2024-08-21T13:30:20.000Z</time>
      </trkpt>
      <trkpt lat="47.56218" lon="-0.07075">
        <ele>80.199996948242</ele>
        <time>2024-08-21T13:30:25.000Z</time>
      </trkpt>
      <trkpt lat="47.56176" lon="-0.07088">
        <ele>79.800003051758</ele>
        <time>2024-08-21T13:30:32.000Z</time>
      </trkpt>
      <trkpt lat="47.56159" lon="-0.07091">
        <ele>79.599998474121</ele>
        <time>2024-08-21T13:30:35.000Z</time>
      </trkpt>
      <trkpt lat="47.5615" lon="-0.07094">
        <ele>79.400001525879</ele>
        <time>2024-08-21T13:30:37.000Z</time>
      </trkpt>
      <trkpt lat="47.56144" lon="-0.07096">
        <ele>79.400001525879</ele>
        <time>2024-08-21T13:30:38.000Z</time>
      </trkpt>
      <trkpt lat="47.56126" lon="-0.07102">
        <ele>79.400001525879</ele>
        <time>2024-08-21T13:30:41.000Z</time>
      </trkpt>
      <trkpt lat="47.56099" lon="-0.07111">
        <ele>79</ele>
        <time>2024-08-21T13:30:46.000Z</time>
      </trkpt>
      <trkpt lat="47.56094" lon="-0.07113">
        <ele>79</ele>
        <time>2024-08-21T13:30:47.000Z</time>
      </trkpt>
      <trkpt lat="47.5607" lon="-0.07124">
        <ele>78.800003051758</ele>
        <time>2024-08-21T13:30:51.000Z</time>
      </trkpt>
      <trkpt lat="47.56035" lon="-0.07137">
        <ele>78.400001525879</ele>
        <time>2024-08-21T13:30:57.000Z</time>
      </trkpt>
      <trkpt lat="47.55995" lon="-0.07152">
        <ele>77.599998474121</ele>
        <time>2024-08-21T13:31:04.000Z</time>
      </trkpt>
      <trkpt lat="47.55968" lon="-0.07149">
        <ele>76.400001525879</ele>
        <time>2024-08-21T13:31:08.000Z</time>
      </trkpt>
      <trkpt lat="47.55955" lon="-0.07152">
        <ele>76</ele>
        <time>2024-08-21T13:31:10.000Z</time>
      </trkpt>
      <trkpt lat="47.55944" lon="-0.07159">
        <ele>75.599998474121</ele>
        <time>2024-08-21T13:31:12.000Z</time>
      </trkpt>
      <trkpt lat="47.55938" lon="-0.07164">
        <ele>75.400001525879</ele>
        <time>2024-08-21T13:31:13.000Z</time>
      </trkpt>
      <trkpt lat="47.55909" lon="-0.07188">
        <ele>75.599998474121</ele>
        <time>2024-08-21T13:31:19.000Z</time>
      </trkpt>
      <trkpt lat="47.55888" lon="-0.07201">
        <ele>76.800003051758</ele>
        <time>2024-08-21T13:31:23.000Z</time>
      </trkpt>
      <trkpt lat="47.55873" lon="-0.0721">
        <ele>77.199996948242</ele>
        <time>2024-08-21T13:31:26.000Z</time>
      </trkpt>
      <trkpt lat="47.55838" lon="-0.07231">
        <ele>77.599998474121</ele>
        <time>2024-08-21T13:31:33.000Z</time>
      </trkpt>
      <trkpt lat="47.55795" lon="-0.07261">
        <ele>77.400001525879</ele>
        <time>2024-08-21T13:31:41.000Z</time>
      </trkpt>
      <trkpt lat="47.55752" lon="-0.07292">
        <ele>76.400001525879</ele>
        <time>2024-08-21T13:31:49.000Z</time>
      </trkpt>
      <trkpt lat="47.55724" lon="-0.0731">
        <ele>76.199996948242</ele>
        <time>2024-08-21T13:31:55.000Z</time>
      </trkpt>
      <trkpt lat="47.55715" lon="-0.07309">
        <ele>76.400001525879</ele>
        <time>2024-08-21T13:31:57.000Z</time>
      </trkpt>
      <trkpt lat="47.55712" lon="-0.07306">
        <ele>76.599998474121</ele>
        <time>2024-08-21T13:31:58.000Z</time>
      </trkpt>
      <trkpt lat="47.55709" lon="-0.07301">
        <ele>76.599998474121</ele>
        <time>2024-08-21T13:31:59.000Z</time>
      </trkpt>
      <trkpt lat="47.55699" lon="-0.07283">
        <ele>77.199996948242</ele>
        <time>2024-08-21T13:32:03.000Z</time>
      </trkpt>
      <trkpt lat="47.5569" lon="-0.07265">
        <ele>78</ele>
        <time>2024-08-21T13:32:08.000Z</time>
      </trkpt>
      <trkpt lat="47.55688" lon="-0.07263">
        <ele>78.199996948242</ele>
        <time>2024-08-21T13:32:09.000Z</time>
      </trkpt>
      <trkpt lat="47.55687" lon="-0.07262">
        <ele>78.400001525879</ele>
        <time>2024-08-21T13:32:10.000Z</time>
      </trkpt>
      <trkpt lat="47.5568" lon="-0.0726">
        <ele>79</ele>
        <time>2024-08-21T13:32:13.000Z</time>
      </trkpt>
      <trkpt lat="47.55677" lon="-0.07265">
        <ele>79.199996948242</ele>
        <time>2024-08-21T13:32:15.000Z</time>
      </trkpt>
      <trkpt lat="47.55673" lon="-0.07274">
        <ele>79.400001525879</ele>
        <time>2024-08-21T13:32:17.000Z</time>
      </trkpt>
      <trkpt lat="47.55656" lon="-0.07311">
        <ele>79.199996948242</ele>
        <time>2024-08-21T13:32:25.000Z</time>
      </trkpt>
      <trkpt lat="47.55643" lon="-0.07339">
        <ele>78.599998474121</ele>
        <time>2024-08-21T13:32:30.000Z</time>
      </trkpt>
      <trkpt lat="47.55619" lon="-0.07393">
        <ele>78.599998474121</ele>
        <time>2024-08-21T13:32:39.000Z</time>
      </trkpt>
      <trkpt lat="47.55599" lon="-0.07431">
        <ele>78.400001525879</ele>
        <time>2024-08-21T13:32:46.000Z</time>
      </trkpt>
      <trkpt lat="47.55595" lon="-0.07435">
        <ele>78.400001525879</ele>
        <time>2024-08-21T13:32:47.000Z</time>
      </trkpt>
      <trkpt lat="47.55591" lon="-0.07438">
        <ele>78.199996948242</ele>
        <time>2024-08-21T13:32:48.000Z</time>
      </trkpt>
      <trkpt lat="47.55581" lon="-0.07447">
        <ele>78</ele>
        <time>2024-08-21T13:32:51.000Z</time>
      </trkpt>
      <trkpt lat="47.55558" lon="-0.07468">
        <ele>77.599998474121</ele>
        <time>2024-08-21T13:32:57.000Z</time>
      </trkpt>
      <trkpt lat="47.55549" lon="-0.07476">
        <ele>77.400001525879</ele>
        <time>2024-08-21T13:32:59.000Z</time>
      </trkpt>
      <trkpt lat="47.55539" lon="-0.07486">
        <ele>77.599998474121</ele>
        <time>2024-08-21T13:33:01.000Z</time>
      </trkpt>
      <trkpt lat="47.55534" lon="-0.07492">
        <ele>77.599998474121</ele>
        <time>2024-08-21T13:33:02.000Z</time>
      </trkpt>
      <trkpt lat="47.55524" lon="-0.07502">
        <ele>77.199996948242</ele>
        <time>2024-08-21T13:33:04.000Z</time>
      </trkpt>
      <trkpt lat="47.55519" lon="-0.07507">
        <ele>77.199996948242</ele>
        <time>2024-08-21T13:33:05.000Z</time>
      </trkpt>
      <trkpt lat="47.55492" lon="-0.07536">
        <ele>76.199996948242</ele>
        <time>2024-08-21T13:33:10.000Z</time>
      </trkpt>
      <trkpt lat="47.55486" lon="-0.07543">
        <ele>76</ele>
        <time>2024-08-21T13:33:11.000Z</time>
      </trkpt>
      <trkpt lat="47.55469" lon="-0.07564">
        <ele>75.199996948242</ele>
        <time>2024-08-21T13:33:14.000Z</time>
      </trkpt>
      <trkpt lat="47.5544" lon="-0.07596">
        <ele>74.199996948242</ele>
        <time>2024-08-21T13:33:19.000Z</time>
      </trkpt>
      <trkpt lat="47.55434" lon="-0.07602">
        <ele>74.199996948242</ele>
        <time>2024-08-21T13:33:20.000Z</time>
      </trkpt>
      <trkpt lat="47.55397" lon="-0.07649">
        <ele>73</ele>
        <time>2024-08-21T13:33:27.000Z</time>
      </trkpt>
      <trkpt lat="47.55392" lon="-0.07656">
        <ele>73</ele>
        <time>2024-08-21T13:33:28.000Z</time>
      </trkpt>
      <trkpt lat="47.55377" lon="-0.07676">
        <ele>72</ele>
        <time>2024-08-21T13:33:31.000Z</time>
      </trkpt>
      <trkpt lat="47.55372" lon="-0.07682">
        <ele>71.800003051758</ele>
        <time>2024-08-21T13:33:32.000Z</time>
      </trkpt>
      <trkpt lat="47.55362" lon="-0.07695">
        <ele>71.400001525879</ele>
        <time>2024-08-21T13:33:34.000Z</time>
      </trkpt>
      <trkpt lat="47.5534" lon="-0.07725">
        <ele>71.400001525879</ele>
        <time>2024-08-21T13:33:39.000Z</time>
      </trkpt>
      <trkpt lat="47.55314" lon="-0.07762">
        <ele>71.199996948242</ele>
        <time>2024-08-21T13:33:45.000Z</time>
      </trkpt>
      <trkpt lat="47.55289" lon="-0.07799">
        <ele>70.800003051758</ele>
        <time>2024-08-21T13:33:51.000Z</time>
      </trkpt>
      <trkpt lat="47.55284" lon="-0.07808">
        <ele>70.800003051758</ele>
        <time>2024-08-21T13:33:52.000Z</time>
      </trkpt>
      <trkpt lat="47.55264" lon="-0.07838">
        <ele>70.400001525879</ele>
        <time>2024-08-21T13:33:56.000Z</time>
      </trkpt>
      <trkpt lat="47.55251" lon="-0.07857">
        <ele>70.199996948242</ele>
        <time>2024-08-21T13:33:59.000Z</time>
      </trkpt>
      <trkpt lat="47.55242" lon="-0.07871">
        <ele>70.199996948242</ele>
        <time>2024-08-21T13:34:01.000Z</time>
      </trkpt>
      <trkpt lat="47.55217" lon="-0.07908">
        <ele>70</ele>
        <time>2024-08-21T13:34:06.000Z</time>
      </trkpt>
      <trkpt lat="47.552" lon="-0.07936">
        <ele>69.800003051758</ele>
        <time>2024-08-21T13:34:11.000Z</time>
      </trkpt>
      <trkpt lat="47.55175" lon="-0.07973">
        <ele>69.800003051758</ele>
        <time>2024-08-21T13:34:17.000Z</time>
      </trkpt>
      <trkpt lat="47.55139" lon="-0.08024">
        <ele>70</ele>
        <time>2024-08-21T13:34:26.000Z</time>
      </trkpt>
      <trkpt lat="47.55116" lon="-0.08057">
        <ele>70.400001525879</ele>
        <time>2024-08-21T13:34:32.000Z</time>
      </trkpt>
      <trkpt lat="47.55098" lon="-0.08085">
        <ele>71</ele>
        <time>2024-08-21T13:34:37.000Z</time>
      </trkpt>
      <trkpt lat="47.55067" lon="-0.08133">
        <ele>71.400001525879</ele>
        <time>2024-08-21T13:34:45.000Z</time>
      </trkpt>
      <trkpt lat="47.55062" lon="-0.0814">
        <ele>71.400001525879</ele>
        <time>2024-08-21T13:34:46.000Z</time>
      </trkpt>
      <trkpt lat="47.5505" lon="-0.08159">
        <ele>71.599998474121</ele>
        <time>2024-08-21T13:34:49.000Z</time>
      </trkpt>
      <trkpt lat="47.55037" lon="-0.08178">
        <ele>72</ele>
        <time>2024-08-21T13:34:53.000Z</time>
      </trkpt>
      <trkpt lat="47.55022" lon="-0.08202">
        <ele>72.599998474121</ele>
        <time>2024-08-21T13:34:58.000Z</time>
      </trkpt>
      <trkpt lat="47.55004" lon="-0.08227">
        <ele>72.400001525879</ele>
        <time>2024-08-21T13:35:03.000Z</time>
      </trkpt>
      <trkpt lat="47.54993" lon="-0.08243">
        <ele>72.400001525879</ele>
        <time>2024-08-21T13:35:07.000Z</time>
      </trkpt>
      <trkpt lat="47.54974" lon="-0.08268">
        <ele>72.599998474121</ele>
        <time>2024-08-21T13:35:13.000Z</time>
      </trkpt>
      <trkpt lat="47.54971" lon="-0.08273">
        <ele>73</ele>
        <time>2024-08-21T13:35:14.000Z</time>
      </trkpt>
      <trkpt lat="47.54954" lon="-0.08296">
        <ele>73.400001525879</ele>
        <time>2024-08-21T13:35:19.000Z</time>
      </trkpt>
      <trkpt lat="47.5494" lon="-0.08319">
        <ele>73.599998474121</ele>
        <time>2024-08-21T13:35:23.000Z</time>
      </trkpt>
      <trkpt lat="47.54936" lon="-0.08325">
        <ele>73.599998474121</ele>
        <time>2024-08-21T13:35:24.000Z</time>
      </trkpt>
      <trkpt lat="47.54927" lon="-0.08338">
        <ele>73.599998474121</ele>
        <time>2024-08-21T13:35:26.000Z</time>
      </trkpt>
      <trkpt lat="47.54923" lon="-0.08344">
        <ele>73.599998474121</ele>
        <time>2024-08-21T13:35:27.000Z</time>
      </trkpt>
      <trkpt lat="47.54907" lon="-0.08368">
        <ele>74</ele>
        <time>2024-08-21T13:35:31.000Z</time>
      </trkpt>
      <trkpt lat="47.54899" lon="-0.08378">
        <ele>74.199996948242</ele>
        <time>2024-08-21T13:35:33.000Z</time>
      </trkpt>
      <trkpt lat="47.54878" lon="-0.08411">
        <ele>74.400001525879</ele>
        <time>2024-08-21T13:35:38.000Z</time>
      </trkpt>
      <trkpt lat="47.54874" lon="-0.08418">
        <ele>74.400001525879</ele>
        <time>2024-08-21T13:35:39.000Z</time>
      </trkpt>
      <trkpt lat="47.5486" lon="-0.08442">
        <ele>74.400001525879</ele>
        <time>2024-08-21T13:35:43.000Z</time>
      </trkpt>
      <trkpt lat="47.54838" lon="-0.08477">
        <ele>74.400001525879</ele>
        <time>2024-08-21T13:35:49.000Z</time>
      </trkpt>
      <trkpt lat="47.54835" lon="-0.08483">
        <ele>74.599998474121</ele>
        <time>2024-08-21T13:35:50.000Z</time>
      </trkpt>
      <trkpt lat="47.54822" lon="-0.08498">
        <ele>75</ele>
        <time>2024-08-21T13:35:54.000Z</time>
      </trkpt>
      <trkpt lat="47.5482" lon="-0.08501">
        <ele>75.199996948242</ele>
        <time>2024-08-21T13:35:55.000Z</time>
      </trkpt>
      <trkpt lat="47.5481" lon="-0.08517">
        <ele>76</ele>
        <time>2024-08-21T13:35:59.000Z</time>
      </trkpt>
      <trkpt lat="47.54802" lon="-0.08527">
        <ele>76.599998474121</ele>
        <time>2024-08-21T13:36:02.000Z</time>
      </trkpt>
      <trkpt lat="47.54795" lon="-0.08537">
        <ele>77.199996948242</ele>
        <time>2024-08-21T13:36:05.000Z</time>
      </trkpt>
      <trkpt lat="47.54785" lon="-0.08551">
        <ele>77.800003051758</ele>
        <time>2024-08-21T13:36:09.000Z</time>
      </trkpt>
      <trkpt lat="47.54777" lon="-0.08563">
        <ele>78.199996948242</ele>
        <time>2024-08-21T13:36:13.000Z</time>
      </trkpt>
      <trkpt lat="47.54772" lon="-0.08568">
        <ele>78.400001525879</ele>
        <time>2024-08-21T13:36:15.000Z</time>
      </trkpt>
      <trkpt lat="47.54751" lon="-0.08587">
        <ele>79.199996948242</ele>
        <time>2024-08-21T13:36:23.000Z</time>
      </trkpt>
      <trkpt lat="47.54745" lon="-0.08592">
        <ele>79.400001525879</ele>
        <time>2024-08-21T13:36:25.000Z</time>
      </trkpt>
      <trkpt lat="47.54717" lon="-0.08616">
        <ele>80</ele>
        <time>2024-08-21T13:36:35.000Z</time>
      </trkpt>
      <trkpt lat="47.54688" lon="-0.08646">
        <ele>80.199996948242</ele>
        <time>2024-08-21T13:36:44.000Z</time>
      </trkpt>
      <trkpt lat="47.54651" lon="-0.08682">
        <ele>80</ele>
        <time>2024-08-21T13:36:54.000Z</time>
      </trkpt>
      <trkpt lat="47.54637" lon="-0.087">
        <ele>79.800003051758</ele>
        <time>2024-08-21T13:36:58.000Z</time>
      </trkpt>
      <trkpt lat="47.54627" lon="-0.08716">
        <ele>79.800003051758</ele>
        <time>2024-08-21T13:37:01.000Z</time>
      </trkpt>
      <trkpt lat="47.54616" lon="-0.08738">
        <ele>80</ele>
        <time>2024-08-21T13:37:05.000Z</time>
      </trkpt>
      <trkpt lat="47.54612" lon="-0.08749">
        <ele>80.199996948242</ele>
        <time>2024-08-21T13:37:07.000Z</time>
      </trkpt>
      <trkpt lat="47.54606" lon="-0.08763">
        <ele>80.599998474121</ele>
        <time>2024-08-21T13:37:10.000Z</time>
      </trkpt>
      <trkpt lat="47.54596" lon="-0.08782">
        <ele>81</ele>
        <time>2024-08-21T13:37:14.000Z</time>
      </trkpt>
      <trkpt lat="47.54574" lon="-0.08813">
        <ele>81</ele>
        <time>2024-08-21T13:37:20.000Z</time>
      </trkpt>
      <trkpt lat="47.54566" lon="-0.08822">
        <ele>80.800003051758</ele>
        <time>2024-08-21T13:37:22.000Z</time>
      </trkpt>
      <trkpt lat="47.54556" lon="-0.08838">
        <ele>80.199996948242</ele>
        <time>2024-08-21T13:37:25.000Z</time>
      </trkpt>
      <trkpt lat="47.54548" lon="-0.08839">
        <ele>80.199996948242</ele>
        <time>2024-08-21T13:37:27.000Z</time>
      </trkpt>
      <trkpt lat="47.54545" lon="-0.08837">
        <ele>80.199996948242</ele>
        <time>2024-08-21T13:37:28.000Z</time>
      </trkpt>
      <trkpt lat="47.54532" lon="-0.08825">
        <ele>80.199996948242</ele>
        <time>2024-08-21T13:37:33.000Z</time>
      </trkpt>
      <trkpt lat="47.54525" lon="-0.08834">
        <ele>80.400001525879</ele>
        <time>2024-08-21T13:37:36.000Z</time>
      </trkpt>
      <trkpt lat="47.54517" lon="-0.08847">
        <ele>80.400001525879</ele>
        <time>2024-08-21T13:37:39.000Z</time>
      </trkpt>
      <trkpt lat="47.54505" lon="-0.08867">
        <ele>79.599998474121</ele>
        <time>2024-08-21T13:37:43.000Z</time>
      </trkpt>
      <trkpt lat="47.54501" lon="-0.08871">
        <ele>79.400001525879</ele>
        <time>2024-08-21T13:37:44.000Z</time>
      </trkpt>
      <trkpt lat="47.54482" lon="-0.08896">
        <ele>78.800003051758</ele>
        <time>2024-08-21T13:37:49.000Z</time>
      </trkpt>
      <trkpt lat="47.54475" lon="-0.08907">
        <ele>78.400001525879</ele>
        <time>2024-08-21T13:37:51.000Z</time>
      </trkpt>
      <trkpt lat="47.54447" lon="-0.08943">
        <ele>77.800003051758</ele>
        <time>2024-08-21T13:37:58.000Z</time>
      </trkpt>
      <trkpt lat="47.54423" lon="-0.08974">
        <ele>77.400001525879</ele>
        <time>2024-08-21T13:38:03.000Z</time>
      </trkpt>
      <trkpt lat="47.54417" lon="-0.08981">
        <ele>76.800003051758</ele>
        <time>2024-08-21T13:38:04.000Z</time>
      </trkpt>
      <trkpt lat="47.54413" lon="-0.08986">
        <ele>76.400001525879</ele>
        <time>2024-08-21T13:38:05.000Z</time>
      </trkpt>
      <trkpt lat="47.54408" lon="-0.08988">
        <ele>75.800003051758</ele>
        <time>2024-08-21T13:38:06.000Z</time>
      </trkpt>
      <trkpt lat="47.54404" lon="-0.08987">
        <ele>75.400001525879</ele>
        <time>2024-08-21T13:38:07.000Z</time>
      </trkpt>
      <trkpt lat="47.54396" lon="-0.08979">
        <ele>75</ele>
        <time>2024-08-21T13:38:09.000Z</time>
      </trkpt>
      <trkpt lat="47.54394" lon="-0.08974">
        <ele>74.599998474121</ele>
        <time>2024-08-21T13:38:10.000Z</time>
      </trkpt>
      <trkpt lat="47.54387" lon="-0.08964">
        <ele>74.400001525879</ele>
        <time>2024-08-21T13:38:12.000Z</time>
      </trkpt>
      <trkpt lat="47.54381" lon="-0.08952">
        <ele>74.400001525879</ele>
        <time>2024-08-21T13:38:14.000Z</time>
      </trkpt>
      <trkpt lat="47.54378" lon="-0.08945">
        <ele>74.400001525879</ele>
        <time>2024-08-21T13:38:15.000Z</time>
      </trkpt>
      <trkpt lat="47.54376" lon="-0.08937">
        <ele>74.400001525879</ele>
        <time>2024-08-21T13:38:16.000Z</time>
      </trkpt>
      <trkpt lat="47.54375" lon="-0.08921">
        <ele>74.400001525879</ele>
        <time>2024-08-21T13:38:18.000Z</time>
      </trkpt>
      <trkpt lat="47.54375" lon="-0.08913">
        <ele>74.400001525879</ele>
        <time>2024-08-21T13:38:19.000Z</time>
      </trkpt>
      <trkpt lat="47.54376" lon="-0.08905">
        <ele>74.400001525879</ele>
        <time>2024-08-21T13:38:20.000Z</time>
      </trkpt>
      <trkpt lat="47.54379" lon="-0.08888">
        <ele>74.199996948242</ele>
        <time>2024-08-21T13:38:23.000Z</time>
      </trkpt>
      <trkpt lat="47.54374" lon="-0.0887">
        <ele>73.800003051758</ele>
        <time>2024-08-21T13:38:28.000Z</time>
      </trkpt>
      <trkpt lat="47.54365" lon="-0.08857">
        <ele>73.599998474121</ele>
        <time>2024-08-21T13:38:31.000Z</time>
      </trkpt>
      <trkpt lat="47.5436" lon="-0.08855">
        <ele>73.400001525879</ele>
        <time>2024-08-21T13:38:32.000Z</time>
      </trkpt>
      <trkpt lat="47.54355" lon="-0.08854">
        <ele>73.199996948242</ele>
        <time>2024-08-21T13:38:33.000Z</time>
      </trkpt>
      <trkpt lat="47.54344" lon="-0.08859">
        <ele>72.599998474121</ele>
        <time>2024-08-21T13:38:35.000Z</time>
      </trkpt>
      <trkpt lat="47.54335" lon="-0.08872">
        <ele>71.599998474121</ele>
        <time>2024-08-21T13:38:37.000Z</time>
      </trkpt>
      <trkpt lat="47.54332" lon="-0.08879">
        <ele>71.400001525879</ele>
        <time>2024-08-21T13:38:38.000Z</time>
      </trkpt>
      <trkpt lat="47.5433" lon="-0.08885">
        <ele>71</ele>
        <time>2024-08-21T13:38:39.000Z</time>
      </trkpt>
      <trkpt lat="47.54328" lon="-0.08889">
        <ele>70.599998474121</ele>
        <time>2024-08-21T13:38:41.000Z</time>
      </trkpt>
      <trkpt lat="47.54327" lon="-0.08886">
        <ele>70</ele>
        <time>2024-08-21T13:38:44.000Z</time>
      </trkpt>
      <trkpt lat="47.54327" lon="-0.08884">
        <ele>70</ele>
        <time>2024-08-21T13:38:45.000Z</time>
      </trkpt>
      <trkpt lat="47.54319" lon="-0.0888">
        <ele>70</ele>
        <time>2024-08-21T13:38:49.000Z</time>
      </trkpt>
      <trkpt lat="47.54303" lon="-0.08876">
        <ele>70</ele>
        <time>2024-08-21T13:38:53.000Z</time>
      </trkpt>
      <trkpt lat="47.54298" lon="-0.08874">
        <ele>69.400001525879</ele>
        <time>2024-08-21T13:38:54.000Z</time>
      </trkpt>
      <trkpt lat="47.54293" lon="-0.08872">
        <ele>68.800003051758</ele>
        <time>2024-08-21T13:38:55.000Z</time>
      </trkpt>
      <trkpt lat="47.5429" lon="-0.08869">
        <ele>67.800003051758</ele>
        <time>2024-08-21T13:38:56.000Z</time>
      </trkpt>
      <trkpt lat="47.54287" lon="-0.08866">
        <ele>67.599998474121</ele>
        <time>2024-08-21T13:38:57.000Z</time>
      </trkpt>
      <trkpt lat="47.54284" lon="-0.08864">
        <ele>66.400001525879</ele>
        <time>2024-08-21T13:38:58.000Z</time>
      </trkpt>
      <trkpt lat="47.54281" lon="-0.08862">
        <ele>65.199996948242</ele>
        <time>2024-08-21T13:38:59.000Z</time>
      </trkpt>
      <trkpt lat="47.54277" lon="-0.08859">
        <ele>63.599998474121</ele>
        <time>2024-08-21T13:39:01.000Z</time>
      </trkpt>
      <trkpt lat="47.54271" lon="-0.08858">
        <ele>62.599998474121</ele>
        <time>2024-08-21T13:39:03.000Z</time>
      </trkpt>
      <trkpt lat="47.54267" lon="-0.08861">
        <ele>61.799999237061</ele>
        <time>2024-08-21T13:39:05.000Z</time>
      </trkpt>
      <trkpt lat="47.54265" lon="-0.08864">
        <ele>61</ele>
        <time>2024-08-21T13:39:06.000Z</time>
      </trkpt>
      <trkpt lat="47.54258" lon="-0.08877">
        <ele>59.799999237061</ele>
        <time>2024-08-21T13:39:08.000Z</time>
      </trkpt>
      <trkpt lat="47.54254" lon="-0.08886">
        <ele>59.400001525879</ele>
        <time>2024-08-21T13:39:09.000Z</time>
      </trkpt>
      <trkpt lat="47.54251" lon="-0.08893">
        <ele>58.599998474121</ele>
        <time>2024-08-21T13:39:10.000Z</time>
      </trkpt>
      <trkpt lat="47.54243" lon="-0.08918">
        <ele>57.599998474121</ele>
        <time>2024-08-21T13:39:13.000Z</time>
      </trkpt>
      <trkpt lat="47.5424" lon="-0.08926">
        <ele>57.400001525879</ele>
        <time>2024-08-21T13:39:14.000Z</time>
      </trkpt>
      <trkpt lat="47.54228" lon="-0.08967">
        <ele>56.799999237061</ele>
        <time>2024-08-21T13:39:20.000Z</time>
      </trkpt>
      <trkpt lat="47.54224" lon="-0.0898">
        <ele>56.799999237061</ele>
        <time>2024-08-21T13:39:22.000Z</time>
      </trkpt>
      <trkpt lat="47.54215" lon="-0.09012">
        <ele>57</ele>
        <time>2024-08-21T13:39:27.000Z</time>
      </trkpt>
      <trkpt lat="47.54212" lon="-0.09031">
        <ele>57</ele>
        <time>2024-08-21T13:39:30.000Z</time>
      </trkpt>
      <trkpt lat="47.5421" lon="-0.09048">
        <ele>56.799999237061</ele>
        <time>2024-08-21T13:39:33.000Z</time>
      </trkpt>
      <trkpt lat="47.54206" lon="-0.09061">
        <ele>56.599998474121</ele>
        <time>2024-08-21T13:39:36.000Z</time>
      </trkpt>
      <trkpt lat="47.54205" lon="-0.09064">
        <ele>56.400001525879</ele>
        <time>2024-08-21T13:39:40.000Z</time>
      </trkpt>
      <trkpt lat="47.54203" lon="-0.09073">
        <ele>56</ele>
        <time>2024-08-21T13:42:02.000Z</time>
      </trkpt>
      <trkpt lat="47.54201" lon="-0.09082">
        <ele>56</ele>
        <time>2024-08-21T13:42:04.000Z</time>
      </trkpt>
      <trkpt lat="47.54195" lon="-0.09095">
        <ele>55.400001525879</ele>
        <time>2024-08-21T13:42:07.000Z</time>
      </trkpt>
      <trkpt lat="47.54186" lon="-0.09115">
        <ele>55.200000762939</ele>
        <time>2024-08-21T13:42:11.000Z</time>
      </trkpt>
      <trkpt lat="47.54174" lon="-0.09143">
        <ele>55.200000762939</ele>
        <time>2024-08-21T13:42:17.000Z</time>
      </trkpt>
      <trkpt lat="47.54165" lon="-0.09162">
        <ele>55.799999237061</ele>
        <time>2024-08-21T13:42:21.000Z</time>
      </trkpt>
      <trkpt lat="47.54162" lon="-0.09169">
        <ele>55.799999237061</ele>
        <time>2024-08-21T13:42:23.000Z</time>
      </trkpt>
      <trkpt lat="47.54156" lon="-0.09189">
        <ele>56.400001525879</ele>
        <time>2024-08-21T13:42:28.000Z</time>
      </trkpt>
      <trkpt lat="47.54155" lon="-0.09193">
        <ele>56.799999237061</ele>
        <time>2024-08-21T13:42:29.000Z</time>
      </trkpt>
      <trkpt lat="47.5415" lon="-0.09208">
        <ele>57.200000762939</ele>
        <time>2024-08-21T13:42:33.000Z</time>
      </trkpt>
      <trkpt lat="47.54139" lon="-0.09245">
        <ele>57.400001525879</ele>
        <time>2024-08-21T13:42:38.000Z</time>
      </trkpt>
      <trkpt lat="47.54132" lon="-0.09304">
        <ele>56.200000762939</ele>
        <time>2024-08-21T13:42:45.000Z</time>
      </trkpt>
      <trkpt lat="47.54123" lon="-0.09374">
        <ele>56.200000762939</ele>
        <time>2024-08-21T13:42:54.000Z</time>
      </trkpt>
      <trkpt lat="47.54121" lon="-0.09399">
        <ele>56</ele>
        <time>2024-08-21T13:42:57.000Z</time>
      </trkpt>
      <trkpt lat="47.54121" lon="-0.09406">
        <ele>56</ele>
        <time>2024-08-21T13:42:58.000Z</time>
      </trkpt>
      <trkpt lat="47.54121" lon="-0.09414">
        <ele>56</ele>
        <time>2024-08-21T13:42:59.000Z</time>
      </trkpt>
      <trkpt lat="47.5412" lon="-0.09428">
        <ele>56</ele>
        <time>2024-08-21T13:43:01.000Z</time>
      </trkpt>
      <trkpt lat="47.54116" lon="-0.09459">
        <ele>55.799999237061</ele>
        <time>2024-08-21T13:43:05.000Z</time>
      </trkpt>
      <trkpt lat="47.54112" lon="-0.09503">
        <ele>55.400001525879</ele>
        <time>2024-08-21T13:43:11.000Z</time>
      </trkpt>
      <trkpt lat="47.54111" lon="-0.09509">
        <ele>55.400001525879</ele>
        <time>2024-08-21T13:43:12.000Z</time>
      </trkpt>
      <trkpt lat="47.54109" lon="-0.09515">
        <ele>55.400001525879</ele>
        <time>2024-08-21T13:43:13.000Z</time>
      </trkpt>
      <trkpt lat="47.54107" lon="-0.09527">
        <ele>55.400001525879</ele>
        <time>2024-08-21T13:43:15.000Z</time>
      </trkpt>
      <trkpt lat="47.54103" lon="-0.09537">
        <ele>55.599998474121</ele>
        <time>2024-08-21T13:43:17.000Z</time>
      </trkpt>
      <trkpt lat="47.5409" lon="-0.09565">
        <ele>55.799999237061</ele>
        <time>2024-08-21T13:43:23.000Z</time>
      </trkpt>
      <trkpt lat="47.54076" lon="-0.0959">
        <ele>55.799999237061</ele>
        <time>2024-08-21T13:43:28.000Z</time>
      </trkpt>
      <trkpt lat="47.54068" lon="-0.09597">
        <ele>55.599998474121</ele>
        <time>2024-08-21T13:43:30.000Z</time>
      </trkpt>
      <trkpt lat="47.54061" lon="-0.09603">
        <ele>55.599998474121</ele>
        <time>2024-08-21T13:43:32.000Z</time>
      </trkpt>
      <trkpt lat="47.54057" lon="-0.09606">
        <ele>55.599998474121</ele>
        <time>2024-08-21T13:43:33.000Z</time>
      </trkpt>
      <trkpt lat="47.54037" lon="-0.09622">
        <ele>55.799999237061</ele>
        <time>2024-08-21T13:43:38.000Z</time>
      </trkpt>
      <trkpt lat="47.54011" lon="-0.09645">
        <ele>55.799999237061</ele>
        <time>2024-08-21T13:43:44.000Z</time>
      </trkpt>
      <trkpt lat="47.53993" lon="-0.09664">
        <ele>56</ele>
        <time>2024-08-21T13:43:50.000Z</time>
      </trkpt>
      <trkpt lat="47.53989" lon="-0.09668">
        <ele>56</ele>
        <time>2024-08-21T13:43:52.000Z</time>
      </trkpt>
      <trkpt lat="47.53984" lon="-0.0967">
        <ele>56.200000762939</ele>
        <time>2024-08-21T13:43:54.000Z</time>
      </trkpt>
      <trkpt lat="47.53975" lon="-0.09678">
        <ele>56.400001525879</ele>
        <time>2024-08-21T13:43:58.000Z</time>
      </trkpt>
      <trkpt lat="47.53972" lon="-0.09679">
        <ele>56.400001525879</ele>
        <time>2024-08-21T13:43:59.000Z</time>
      </trkpt>
      <trkpt lat="47.53966" lon="-0.09677">
        <ele>56.400001525879</ele>
        <time>2024-08-21T13:44:01.000Z</time>
      </trkpt>
      <trkpt lat="47.53956" lon="-0.09671">
        <ele>56.400001525879</ele>
        <time>2024-08-21T13:44:04.000Z</time>
      </trkpt>
      <trkpt lat="47.53942" lon="-0.09662">
        <ele>56.200000762939</ele>
        <time>2024-08-21T13:44:09.000Z</time>
      </trkpt>
      <trkpt lat="47.53942" lon="-0.0966">
        <ele>56.200000762939</ele>
        <time>2024-08-21T13:44:10.000Z</time>
      </trkpt>
      <trkpt lat="47.53943" lon="-0.09656">
        <ele>56.200000762939</ele>
        <time>2024-08-21T13:44:12.000Z</time>
      </trkpt>
      <trkpt lat="47.53944" lon="-0.09651">
        <ele>56.200000762939</ele>
        <time>2024-08-21T13:44:14.000Z</time>
      </trkpt>
      <trkpt lat="47.53947" lon="-0.09649">
        <ele>56</ele>
        <time>2024-08-21T13:44:16.000Z</time>
      </trkpt>
      <trkpt lat="47.53948" lon="-0.09648">
        <ele>56</ele>
        <time>2024-08-21T13:44:17.000Z</time>
      </trkpt>
      <trkpt lat="47.53949" lon="-0.09647">
        <ele>56</ele>
        <time>2024-08-21T13:44:18.000Z</time>
      </trkpt>
      <trkpt lat="47.53951" lon="-0.09645">
        <ele>56</ele>
        <time>2024-08-21T13:44:20.000Z</time>
      </trkpt>
      <trkpt lat="47.53952" lon="-0.09645">
        <ele>56</ele>
        <time>2024-08-21T13:44:21.000Z</time>
      </trkpt>
      <trkpt lat="47.53952" lon="-0.09645">
        <ele>56</ele>
        <time>2024-08-21T13:44:24.000Z</time>
      </trkpt>
    </trkseg>
  </trk>
</gpx>